<?xml version="1.0" encoding="UTF-8" standalone="no" ?>
<gpx xmlns="http://www.topografix.com/GPX/1/1" xmlns:xsi="http://www.w3.org/2001/XMLSchema-instance" xsi:schemaLocation="http://www.topografix.com/GPX/1/1 http://www.topografix.com/GPX/1/1/gpx.xsd" version="1.1" creator="VisuGPX - https://www.visugpx.com">
  <metadata>
    <name>Larchant la Féérique </name>
    <desc><![CDATA[Peintures rupestres, bestiaire de rochers et points de vue spectaculaires]]></desc>
  </metadata>
  <trk>
    <name><![CDATA[SityTrail - Larchant la Féérique ]]></name>
    <desc><![CDATA[Peintures rupestres, bestiaire de rochers et points de vue spectaculaires]]></desc>
    <trkseg>
      <trkpt lat="48.29278" lon="2.5973">
        <ele>72</ele>
        <time>2023-07-27T07:26:46.860+00:00</time>
      </trkpt>
      <trkpt lat="48.29278" lon="2.5973">
        <ele>72</ele>
        <time>2023-07-27T07:26:46.860+00:00</time>
      </trkpt>
      <trkpt lat="48.29278" lon="2.59729">
        <ele>72</ele>
        <time>2023-07-27T07:26:47.948+00:00</time>
      </trkpt>
      <trkpt lat="48.29284" lon="2.59725">
        <ele>72</ele>
        <time>2023-07-27T07:26:51.954+00:00</time>
      </trkpt>
      <trkpt lat="48.29286" lon="2.59723">
        <ele>72</ele>
        <time>2023-07-27T07:26:55.981+00:00</time>
      </trkpt>
      <trkpt lat="48.29286" lon="2.59721">
        <ele>72</ele>
        <time>2023-07-27T07:27:00.983+00:00</time>
      </trkpt>
      <trkpt lat="48.2929" lon="2.59709">
        <ele>72</ele>
        <time>2023-07-27T07:28:42.556+00:00</time>
      </trkpt>
      <trkpt lat="48.29285" lon="2.59708">
        <ele>73</ele>
        <time>2023-07-27T07:28:46.633+00:00</time>
      </trkpt>
      <trkpt lat="48.29279" lon="2.59706">
        <ele>73</ele>
        <time>2023-07-27T07:28:51.310+00:00</time>
      </trkpt>
      <trkpt lat="48.29273" lon="2.59703">
        <ele>73</ele>
        <time>2023-07-27T07:28:55.867+00:00</time>
      </trkpt>
      <trkpt lat="48.29268" lon="2.59701">
        <ele>73</ele>
        <time>2023-07-27T07:29:00.359+00:00</time>
      </trkpt>
      <trkpt lat="48.29265" lon="2.59697">
        <ele>73</ele>
        <time>2023-07-27T07:29:04.990+00:00</time>
      </trkpt>
      <trkpt lat="48.29261" lon="2.59695">
        <ele>72</ele>
        <time>2023-07-27T07:29:09.136+00:00</time>
      </trkpt>
      <trkpt lat="48.29254" lon="2.59692">
        <ele>72</ele>
        <time>2023-07-27T07:29:13.494+00:00</time>
      </trkpt>
      <trkpt lat="48.29249" lon="2.59689">
        <ele>72</ele>
        <time>2023-07-27T07:29:17.571+00:00</time>
      </trkpt>
      <trkpt lat="48.29247" lon="2.59684">
        <ele>72</ele>
        <time>2023-07-27T07:29:34.214+00:00</time>
      </trkpt>
      <trkpt lat="48.29249" lon="2.5968">
        <ele>73</ele>
        <time>2023-07-27T07:29:38.768+00:00</time>
      </trkpt>
      <trkpt lat="48.29248" lon="2.59671">
        <ele>73</ele>
        <time>2023-07-27T07:29:42.841+00:00</time>
      </trkpt>
      <trkpt lat="48.29252" lon="2.59665">
        <ele>73</ele>
        <time>2023-07-27T07:29:47.475+00:00</time>
      </trkpt>
      <trkpt lat="48.29252" lon="2.59659">
        <ele>73</ele>
        <time>2023-07-27T07:29:51.870+00:00</time>
      </trkpt>
      <trkpt lat="48.29253" lon="2.59654">
        <ele>73</ele>
        <time>2023-07-27T07:29:55.865+00:00</time>
      </trkpt>
      <trkpt lat="48.29253" lon="2.59652">
        <ele>74</ele>
        <time>2023-07-27T07:30:00.992+00:00</time>
      </trkpt>
      <trkpt lat="48.29253" lon="2.59645">
        <ele>74</ele>
        <time>2023-07-27T07:30:05.052+00:00</time>
      </trkpt>
      <trkpt lat="48.29256" lon="2.59634">
        <ele>74</ele>
        <time>2023-07-27T07:30:09.550+00:00</time>
      </trkpt>
      <trkpt lat="48.29257" lon="2.59623">
        <ele>75</ele>
        <time>2023-07-27T07:30:22.074+00:00</time>
      </trkpt>
      <trkpt lat="48.29257" lon="2.5962">
        <ele>75</ele>
        <time>2023-07-27T07:30:26.524+00:00</time>
      </trkpt>
      <trkpt lat="48.29258" lon="2.59612">
        <ele>75</ele>
        <time>2023-07-27T07:30:30.925+00:00</time>
      </trkpt>
      <trkpt lat="48.29258" lon="2.59604">
        <ele>75</ele>
        <time>2023-07-27T07:30:35.104+00:00</time>
      </trkpt>
      <trkpt lat="48.29259" lon="2.59596">
        <ele>76</ele>
        <time>2023-07-27T07:30:39.150+00:00</time>
      </trkpt>
      <trkpt lat="48.29261" lon="2.59589">
        <ele>76</ele>
        <time>2023-07-27T07:30:43.229+00:00</time>
      </trkpt>
      <trkpt lat="48.29262" lon="2.59583">
        <ele>76</ele>
        <time>2023-07-27T07:30:47.662+00:00</time>
      </trkpt>
      <trkpt lat="48.29262" lon="2.59576">
        <ele>76</ele>
        <time>2023-07-27T07:30:51.736+00:00</time>
      </trkpt>
      <trkpt lat="48.29262" lon="2.5957">
        <ele>76</ele>
        <time>2023-07-27T07:30:55.929+00:00</time>
      </trkpt>
      <trkpt lat="48.29263" lon="2.59563">
        <ele>76</ele>
        <time>2023-07-27T07:31:00.083+00:00</time>
      </trkpt>
      <trkpt lat="48.29263" lon="2.59555">
        <ele>76</ele>
        <time>2023-07-27T07:31:04.117+00:00</time>
      </trkpt>
      <trkpt lat="48.29262" lon="2.59546">
        <ele>76</ele>
        <time>2023-07-27T07:31:08.770+00:00</time>
      </trkpt>
      <trkpt lat="48.29262" lon="2.5954">
        <ele>78</ele>
        <time>2023-07-27T07:31:12.964+00:00</time>
      </trkpt>
      <trkpt lat="48.29264" lon="2.59534">
        <ele>78</ele>
        <time>2023-07-27T07:31:17.100+00:00</time>
      </trkpt>
      <trkpt lat="48.29262" lon="2.59526">
        <ele>78</ele>
        <time>2023-07-27T07:31:21.097+00:00</time>
      </trkpt>
      <trkpt lat="48.29261" lon="2.59521">
        <ele>78</ele>
        <time>2023-07-27T07:31:25.153+00:00</time>
      </trkpt>
      <trkpt lat="48.29258" lon="2.59519">
        <ele>78</ele>
        <time>2023-07-27T07:31:29.109+00:00</time>
      </trkpt>
      <trkpt lat="48.29254" lon="2.59517">
        <ele>78</ele>
        <time>2023-07-27T07:31:33.126+00:00</time>
      </trkpt>
      <trkpt lat="48.2925" lon="2.59516">
        <ele>78</ele>
        <time>2023-07-27T07:31:37.920+00:00</time>
      </trkpt>
      <trkpt lat="48.29248" lon="2.59513">
        <ele>79</ele>
        <time>2023-07-27T07:31:42.297+00:00</time>
      </trkpt>
      <trkpt lat="48.29245" lon="2.59508">
        <ele>79</ele>
        <time>2023-07-27T07:31:46.952+00:00</time>
      </trkpt>
      <trkpt lat="48.29243" lon="2.59508">
        <ele>79</ele>
        <time>2023-07-27T07:31:50.569+00:00</time>
      </trkpt>
      <trkpt lat="48.29243" lon="2.59507">
        <ele>79</ele>
        <time>2023-07-27T07:31:55.359+00:00</time>
      </trkpt>
      <trkpt lat="48.29245" lon="2.59509">
        <ele>79</ele>
        <time>2023-07-27T07:31:59.753+00:00</time>
      </trkpt>
      <trkpt lat="48.29251" lon="2.59515">
        <ele>78</ele>
        <time>2023-07-27T07:32:04.622+00:00</time>
      </trkpt>
      <trkpt lat="48.29257" lon="2.59519">
        <ele>78</ele>
        <time>2023-07-27T07:32:09.045+00:00</time>
      </trkpt>
      <trkpt lat="48.29259" lon="2.5951">
        <ele>79</ele>
        <time>2023-07-27T07:32:13.538+00:00</time>
      </trkpt>
      <trkpt lat="48.29258" lon="2.59503">
        <ele>79</ele>
        <time>2023-07-27T07:32:17.491+00:00</time>
      </trkpt>
      <trkpt lat="48.29256" lon="2.59495">
        <ele>79</ele>
        <time>2023-07-27T07:32:22.225+00:00</time>
      </trkpt>
      <trkpt lat="48.29257" lon="2.59488">
        <ele>79</ele>
        <time>2023-07-27T07:32:26.300+00:00</time>
      </trkpt>
      <trkpt lat="48.29259" lon="2.59481">
        <ele>81</ele>
        <time>2023-07-27T07:32:30.496+00:00</time>
      </trkpt>
      <trkpt lat="48.29258" lon="2.59471">
        <ele>81</ele>
        <time>2023-07-27T07:32:34.571+00:00</time>
      </trkpt>
      <trkpt lat="48.29256" lon="2.5946">
        <ele>81</ele>
        <time>2023-07-27T07:32:38.926+00:00</time>
      </trkpt>
      <trkpt lat="48.29252" lon="2.59451">
        <ele>81</ele>
        <time>2023-07-27T07:32:43.120+00:00</time>
      </trkpt>
      <trkpt lat="48.29252" lon="2.59441">
        <ele>81</ele>
        <time>2023-07-27T07:32:47.648+00:00</time>
      </trkpt>
      <trkpt lat="48.29252" lon="2.59432">
        <ele>81</ele>
        <time>2023-07-27T07:32:51.471+00:00</time>
      </trkpt>
      <trkpt lat="48.29252" lon="2.59423">
        <ele>80</ele>
        <time>2023-07-27T07:32:55.547+00:00</time>
      </trkpt>
      <trkpt lat="48.29252" lon="2.59414">
        <ele>80</ele>
        <time>2023-07-27T07:33:00.084+00:00</time>
      </trkpt>
      <trkpt lat="48.29251" lon="2.59406">
        <ele>80</ele>
        <time>2023-07-27T07:33:04.136+00:00</time>
      </trkpt>
      <trkpt lat="48.29252" lon="2.59398">
        <ele>80</ele>
        <time>2023-07-27T07:33:08.329+00:00</time>
      </trkpt>
      <trkpt lat="48.29252" lon="2.59389">
        <ele>80</ele>
        <time>2023-07-27T07:33:12.626+00:00</time>
      </trkpt>
      <trkpt lat="48.29252" lon="2.59381">
        <ele>80</ele>
        <time>2023-07-27T07:33:16.714+00:00</time>
      </trkpt>
      <trkpt lat="48.29252" lon="2.59372">
        <ele>79</ele>
        <time>2023-07-27T07:33:20.951+00:00</time>
      </trkpt>
      <trkpt lat="48.29253" lon="2.59364">
        <ele>79</ele>
        <time>2023-07-27T07:33:24.942+00:00</time>
      </trkpt>
      <trkpt lat="48.29254" lon="2.59357">
        <ele>79</ele>
        <time>2023-07-27T07:33:29.369+00:00</time>
      </trkpt>
      <trkpt lat="48.29253" lon="2.59351">
        <ele>79</ele>
        <time>2023-07-27T07:33:33.572+00:00</time>
      </trkpt>
      <trkpt lat="48.29252" lon="2.59347">
        <ele>80</ele>
        <time>2023-07-27T07:33:37.706+00:00</time>
      </trkpt>
      <trkpt lat="48.29249" lon="2.59344">
        <ele>80</ele>
        <time>2023-07-27T07:33:42.482+00:00</time>
      </trkpt>
      <trkpt lat="48.29246" lon="2.5934">
        <ele>80</ele>
        <time>2023-07-27T07:33:46.677+00:00</time>
      </trkpt>
      <trkpt lat="48.29243" lon="2.59334">
        <ele>80</ele>
        <time>2023-07-27T07:33:50.751+00:00</time>
      </trkpt>
      <trkpt lat="48.2924" lon="2.59325">
        <ele>80</ele>
        <time>2023-07-27T07:33:55.424+00:00</time>
      </trkpt>
      <trkpt lat="48.29236" lon="2.59317">
        <ele>81</ele>
        <time>2023-07-27T07:33:59.739+00:00</time>
      </trkpt>
      <trkpt lat="48.29233" lon="2.5931">
        <ele>81</ele>
        <time>2023-07-27T07:34:04.359+00:00</time>
      </trkpt>
      <trkpt lat="48.2923" lon="2.59305">
        <ele>81</ele>
        <time>2023-07-27T07:34:08.491+00:00</time>
      </trkpt>
      <trkpt lat="48.29225" lon="2.59303">
        <ele>81</ele>
        <time>2023-07-27T07:34:13.046+00:00</time>
      </trkpt>
      <trkpt lat="48.29221" lon="2.59303">
        <ele>81</ele>
        <time>2023-07-27T07:34:17.482+00:00</time>
      </trkpt>
      <trkpt lat="48.29217" lon="2.59302">
        <ele>81</ele>
        <time>2023-07-27T07:34:22.050+00:00</time>
      </trkpt>
      <trkpt lat="48.29211" lon="2.59302">
        <ele>81</ele>
        <time>2023-07-27T07:34:26.494+00:00</time>
      </trkpt>
      <trkpt lat="48.29207" lon="2.59303">
        <ele>87</ele>
        <time>2023-07-27T07:34:30.569+00:00</time>
      </trkpt>
      <trkpt lat="48.29203" lon="2.59303">
        <ele>87</ele>
        <time>2023-07-27T07:34:34.644+00:00</time>
      </trkpt>
      <trkpt lat="48.29198" lon="2.59301">
        <ele>87</ele>
        <time>2023-07-27T07:34:39.735+00:00</time>
      </trkpt>
      <trkpt lat="48.29193" lon="2.59301">
        <ele>87</ele>
        <time>2023-07-27T07:34:43.928+00:00</time>
      </trkpt>
      <trkpt lat="48.29189" lon="2.59299">
        <ele>87</ele>
        <time>2023-07-27T07:34:48.481+00:00</time>
      </trkpt>
      <trkpt lat="48.29186" lon="2.59297">
        <ele>87</ele>
        <time>2023-07-27T07:34:53.034+00:00</time>
      </trkpt>
      <trkpt lat="48.29182" lon="2.59294">
        <ele>87</ele>
        <time>2023-07-27T07:34:57.108+00:00</time>
      </trkpt>
      <trkpt lat="48.29178" lon="2.59284">
        <ele>94</ele>
        <time>2023-07-27T07:35:05.866+00:00</time>
      </trkpt>
      <trkpt lat="48.29177" lon="2.59283">
        <ele>94</ele>
        <time>2023-07-27T07:35:09.949+00:00</time>
      </trkpt>
      <trkpt lat="48.29177" lon="2.59282">
        <ele>94</ele>
        <time>2023-07-27T07:35:13.546+00:00</time>
      </trkpt>
      <trkpt lat="48.29176" lon="2.5928">
        <ele>94</ele>
        <time>2023-07-27T07:35:18.161+00:00</time>
      </trkpt>
      <trkpt lat="48.29174" lon="2.59276">
        <ele>94</ele>
        <time>2023-07-27T07:35:22.355+00:00</time>
      </trkpt>
      <trkpt lat="48.29173" lon="2.59273">
        <ele>94</ele>
        <time>2023-07-27T07:35:26.359+00:00</time>
      </trkpt>
      <trkpt lat="48.29173" lon="2.59267">
        <ele>94</ele>
        <time>2023-07-27T07:35:30.862+00:00</time>
      </trkpt>
      <trkpt lat="48.29172" lon="2.59265">
        <ele>94</ele>
        <time>2023-07-27T07:35:34.935+00:00</time>
      </trkpt>
      <trkpt lat="48.2917" lon="2.59261">
        <ele>94</ele>
        <time>2023-07-27T07:35:39.129+00:00</time>
      </trkpt>
      <trkpt lat="48.29168" lon="2.59256">
        <ele>94</ele>
        <time>2023-07-27T07:35:43.682+00:00</time>
      </trkpt>
      <trkpt lat="48.29162" lon="2.59242">
        <ele>94</ele>
        <time>2023-07-27T07:36:14.951+00:00</time>
      </trkpt>
      <trkpt lat="48.29162" lon="2.59241">
        <ele>94</ele>
        <time>2023-07-27T07:36:19.704+00:00</time>
      </trkpt>
      <trkpt lat="48.2916" lon="2.5924">
        <ele>94</ele>
        <time>2023-07-27T07:36:23.711+00:00</time>
      </trkpt>
      <trkpt lat="48.2916" lon="2.59241">
        <ele>94</ele>
        <time>2023-07-27T07:36:27.950+00:00</time>
      </trkpt>
      <trkpt lat="48.29157" lon="2.59241">
        <ele>94</ele>
        <time>2023-07-27T07:36:31.950+00:00</time>
      </trkpt>
      <trkpt lat="48.29161" lon="2.59243">
        <ele>94</ele>
        <time>2023-07-27T07:37:50.972+00:00</time>
      </trkpt>
      <trkpt lat="48.29162" lon="2.59244">
        <ele>94</ele>
        <time>2023-07-27T07:37:55.623+00:00</time>
      </trkpt>
      <trkpt lat="48.29163" lon="2.59242">
        <ele>94</ele>
        <time>2023-07-27T07:37:59.652+00:00</time>
      </trkpt>
      <trkpt lat="48.29173" lon="2.59255">
        <ele>94</ele>
        <time>2023-07-27T07:38:04.173+00:00</time>
      </trkpt>
      <trkpt lat="48.29171" lon="2.5926">
        <ele>94</ele>
        <time>2023-07-27T07:38:08.680+00:00</time>
      </trkpt>
      <trkpt lat="48.29168" lon="2.59264">
        <ele>94</ele>
        <time>2023-07-27T07:38:12.695+00:00</time>
      </trkpt>
      <trkpt lat="48.29169" lon="2.59271">
        <ele>94</ele>
        <time>2023-07-27T07:38:17.498+00:00</time>
      </trkpt>
      <trkpt lat="48.29169" lon="2.59278">
        <ele>94</ele>
        <time>2023-07-27T07:38:22.179+00:00</time>
      </trkpt>
      <trkpt lat="48.29172" lon="2.59284">
        <ele>94</ele>
        <time>2023-07-27T07:38:26.240+00:00</time>
      </trkpt>
      <trkpt lat="48.29174" lon="2.59292">
        <ele>94</ele>
        <time>2023-07-27T07:38:30.841+00:00</time>
      </trkpt>
      <trkpt lat="48.29176" lon="2.59297">
        <ele>94</ele>
        <time>2023-07-27T07:38:35.180+00:00</time>
      </trkpt>
      <trkpt lat="48.29179" lon="2.59301">
        <ele>94</ele>
        <time>2023-07-27T07:38:39.621+00:00</time>
      </trkpt>
      <trkpt lat="48.29181" lon="2.59301">
        <ele>87</ele>
        <time>2023-07-27T07:38:43.500+00:00</time>
      </trkpt>
      <trkpt lat="48.29182" lon="2.59302">
        <ele>87</ele>
        <time>2023-07-27T07:38:52.861+00:00</time>
      </trkpt>
      <trkpt lat="48.29183" lon="2.59304">
        <ele>87</ele>
        <time>2023-07-27T07:38:57.440+00:00</time>
      </trkpt>
      <trkpt lat="48.29181" lon="2.59308">
        <ele>87</ele>
        <time>2023-07-27T07:39:01.518+00:00</time>
      </trkpt>
      <trkpt lat="48.29179" lon="2.59314">
        <ele>94</ele>
        <time>2023-07-27T07:39:05.477+00:00</time>
      </trkpt>
      <trkpt lat="48.29178" lon="2.5932">
        <ele>95</ele>
        <time>2023-07-27T07:39:10.153+00:00</time>
      </trkpt>
      <trkpt lat="48.29179" lon="2.59327">
        <ele>95</ele>
        <time>2023-07-27T07:39:14.349+00:00</time>
      </trkpt>
      <trkpt lat="48.29179" lon="2.59334">
        <ele>95</ele>
        <time>2023-07-27T07:39:18.359+00:00</time>
      </trkpt>
      <trkpt lat="48.2918" lon="2.5934">
        <ele>95</ele>
        <time>2023-07-27T07:39:22.501+00:00</time>
      </trkpt>
      <trkpt lat="48.29181" lon="2.59346">
        <ele>87</ele>
        <time>2023-07-27T07:39:26.577+00:00</time>
      </trkpt>
      <trkpt lat="48.29181" lon="2.59352">
        <ele>87</ele>
        <time>2023-07-27T07:39:30.731+00:00</time>
      </trkpt>
      <trkpt lat="48.29182" lon="2.5936">
        <ele>87</ele>
        <time>2023-07-27T07:39:35.988+00:00</time>
      </trkpt>
      <trkpt lat="48.29185" lon="2.5937">
        <ele>87</ele>
        <time>2023-07-27T07:39:40.703+00:00</time>
      </trkpt>
      <trkpt lat="48.29187" lon="2.59381">
        <ele>87</ele>
        <time>2023-07-27T07:39:45.357+00:00</time>
      </trkpt>
      <trkpt lat="48.29185" lon="2.59384">
        <ele>87</ele>
        <time>2023-07-27T07:39:58.901+00:00</time>
      </trkpt>
      <trkpt lat="48.29185" lon="2.59383">
        <ele>87</ele>
        <time>2023-07-27T07:40:02.816+00:00</time>
      </trkpt>
      <trkpt lat="48.29184" lon="2.5938">
        <ele>87</ele>
        <time>2023-07-27T07:40:07.359+00:00</time>
      </trkpt>
      <trkpt lat="48.29182" lon="2.59377">
        <ele>87</ele>
        <time>2023-07-27T07:40:11.563+00:00</time>
      </trkpt>
      <trkpt lat="48.2918" lon="2.59375">
        <ele>97</ele>
        <time>2023-07-27T07:40:15.518+00:00</time>
      </trkpt>
      <trkpt lat="48.29172" lon="2.59376">
        <ele>98</ele>
        <time>2023-07-27T07:40:37.683+00:00</time>
      </trkpt>
      <trkpt lat="48.29173" lon="2.59377">
        <ele>98</ele>
        <time>2023-07-27T07:40:42.335+00:00</time>
      </trkpt>
      <trkpt lat="48.29172" lon="2.59377">
        <ele>98</ele>
        <time>2023-07-27T07:40:46.359+00:00</time>
      </trkpt>
      <trkpt lat="48.29172" lon="2.59379">
        <ele>98</ele>
        <time>2023-07-27T07:40:50.359+00:00</time>
      </trkpt>
      <trkpt lat="48.2917" lon="2.59382">
        <ele>98</ele>
        <time>2023-07-27T07:40:54.877+00:00</time>
      </trkpt>
      <trkpt lat="48.29169" lon="2.59383">
        <ele>98</ele>
        <time>2023-07-27T07:40:58.952+00:00</time>
      </trkpt>
      <trkpt lat="48.29164" lon="2.5939">
        <ele>98</ele>
        <time>2023-07-27T07:41:02.994+00:00</time>
      </trkpt>
      <trkpt lat="48.2916" lon="2.59395">
        <ele>98</ele>
        <time>2023-07-27T07:41:07.102+00:00</time>
      </trkpt>
      <trkpt lat="48.29157" lon="2.59398">
        <ele>98</ele>
        <time>2023-07-27T07:41:11.297+00:00</time>
      </trkpt>
      <trkpt lat="48.29149" lon="2.594">
        <ele>103</ele>
        <time>2023-07-27T07:41:24.480+00:00</time>
      </trkpt>
      <trkpt lat="48.29148" lon="2.594">
        <ele>103</ele>
        <time>2023-07-27T07:41:29.154+00:00</time>
      </trkpt>
      <trkpt lat="48.29146" lon="2.59397">
        <ele>103</ele>
        <time>2023-07-27T07:41:33.888+00:00</time>
      </trkpt>
      <trkpt lat="48.29145" lon="2.59395">
        <ele>103</ele>
        <time>2023-07-27T07:41:38.560+00:00</time>
      </trkpt>
      <trkpt lat="48.29145" lon="2.59393">
        <ele>103</ele>
        <time>2023-07-27T07:41:43.333+00:00</time>
      </trkpt>
      <trkpt lat="48.2914" lon="2.594">
        <ele>103</ele>
        <time>2023-07-27T07:42:05.338+00:00</time>
      </trkpt>
      <trkpt lat="48.29137" lon="2.59399">
        <ele>103</ele>
        <time>2023-07-27T07:42:09.846+00:00</time>
      </trkpt>
      <trkpt lat="48.29132" lon="2.59397">
        <ele>103</ele>
        <time>2023-07-27T07:42:14.108+00:00</time>
      </trkpt>
      <trkpt lat="48.29124" lon="2.59399">
        <ele>108</ele>
        <time>2023-07-27T07:42:18.685+00:00</time>
      </trkpt>
      <trkpt lat="48.29119" lon="2.59401">
        <ele>108</ele>
        <time>2023-07-27T07:42:22.763+00:00</time>
      </trkpt>
      <trkpt lat="48.29114" lon="2.59405">
        <ele>108</ele>
        <time>2023-07-27T07:42:26.844+00:00</time>
      </trkpt>
      <trkpt lat="48.2911" lon="2.59408">
        <ele>108</ele>
        <time>2023-07-27T07:42:30.863+00:00</time>
      </trkpt>
      <trkpt lat="48.29107" lon="2.59414">
        <ele>108</ele>
        <time>2023-07-27T07:42:35.900+00:00</time>
      </trkpt>
      <trkpt lat="48.29103" lon="2.59419">
        <ele>108</ele>
        <time>2023-07-27T07:42:40.097+00:00</time>
      </trkpt>
      <trkpt lat="48.291" lon="2.59421">
        <ele>108</ele>
        <time>2023-07-27T07:42:44.214+00:00</time>
      </trkpt>
      <trkpt lat="48.29098" lon="2.59423">
        <ele>108</ele>
        <time>2023-07-27T07:42:48.459+00:00</time>
      </trkpt>
      <trkpt lat="48.29095" lon="2.59423">
        <ele>112</ele>
        <time>2023-07-27T07:42:52.972+00:00</time>
      </trkpt>
      <trkpt lat="48.29092" lon="2.59419">
        <ele>112</ele>
        <time>2023-07-27T07:42:57.078+00:00</time>
      </trkpt>
      <trkpt lat="48.29091" lon="2.59411">
        <ele>112</ele>
        <time>2023-07-27T07:43:01.639+00:00</time>
      </trkpt>
      <trkpt lat="48.29088" lon="2.59403">
        <ele>113</ele>
        <time>2023-07-27T07:43:06.480+00:00</time>
      </trkpt>
      <trkpt lat="48.29082" lon="2.59398">
        <ele>113</ele>
        <time>2023-07-27T07:43:10.920+00:00</time>
      </trkpt>
      <trkpt lat="48.29078" lon="2.59395">
        <ele>113</ele>
        <time>2023-07-27T07:43:15.424+00:00</time>
      </trkpt>
      <trkpt lat="48.29076" lon="2.5939">
        <ele>113</ele>
        <time>2023-07-27T07:43:19.665+00:00</time>
      </trkpt>
      <trkpt lat="48.29076" lon="2.59384">
        <ele>113</ele>
        <time>2023-07-27T07:43:23.984+00:00</time>
      </trkpt>
      <trkpt lat="48.29075" lon="2.59376">
        <ele>113</ele>
        <time>2023-07-27T07:43:28.883+00:00</time>
      </trkpt>
      <trkpt lat="48.29074" lon="2.59369">
        <ele>112</ele>
        <time>2023-07-27T07:43:33.305+00:00</time>
      </trkpt>
      <trkpt lat="48.29076" lon="2.59361">
        <ele>112</ele>
        <time>2023-07-27T07:43:37.220+00:00</time>
      </trkpt>
      <trkpt lat="48.29079" lon="2.59352">
        <ele>112</ele>
        <time>2023-07-27T07:43:41.777+00:00</time>
      </trkpt>
      <trkpt lat="48.2908" lon="2.59346">
        <ele>113</ele>
        <time>2023-07-27T07:43:46.893+00:00</time>
      </trkpt>
      <trkpt lat="48.29078" lon="2.59339">
        <ele>113</ele>
        <time>2023-07-27T07:43:51.359+00:00</time>
      </trkpt>
      <trkpt lat="48.29077" lon="2.59331">
        <ele>113</ele>
        <time>2023-07-27T07:43:56.106+00:00</time>
      </trkpt>
      <trkpt lat="48.29072" lon="2.59325">
        <ele>113</ele>
        <time>2023-07-27T07:44:00.726+00:00</time>
      </trkpt>
      <trkpt lat="48.29069" lon="2.59319">
        <ele>116</ele>
        <time>2023-07-27T07:44:05.286+00:00</time>
      </trkpt>
      <trkpt lat="48.29068" lon="2.59314">
        <ele>116</ele>
        <time>2023-07-27T07:44:09.202+00:00</time>
      </trkpt>
      <trkpt lat="48.29066" lon="2.59309">
        <ele>116</ele>
        <time>2023-07-27T07:44:13.759+00:00</time>
      </trkpt>
      <trkpt lat="48.29062" lon="2.59303">
        <ele>116</ele>
        <time>2023-07-27T07:44:17.955+00:00</time>
      </trkpt>
      <trkpt lat="48.29059" lon="2.59298">
        <ele>116</ele>
        <time>2023-07-27T07:44:22.512+00:00</time>
      </trkpt>
      <trkpt lat="48.29055" lon="2.59296">
        <ele>116</ele>
        <time>2023-07-27T07:44:27.166+00:00</time>
      </trkpt>
      <trkpt lat="48.2905" lon="2.59296">
        <ele>116</ele>
        <time>2023-07-27T07:44:31.681+00:00</time>
      </trkpt>
      <trkpt lat="48.29046" lon="2.59297">
        <ele>116</ele>
        <time>2023-07-27T07:44:35.876+00:00</time>
      </trkpt>
      <trkpt lat="48.29043" lon="2.59296">
        <ele>116</ele>
        <time>2023-07-27T07:44:39.951+00:00</time>
      </trkpt>
      <trkpt lat="48.29037" lon="2.59292">
        <ele>117</ele>
        <time>2023-07-27T07:44:44.566+00:00</time>
      </trkpt>
      <trkpt lat="48.29033" lon="2.5929">
        <ele>117</ele>
        <time>2023-07-27T07:44:48.721+00:00</time>
      </trkpt>
      <trkpt lat="48.29029" lon="2.59289">
        <ele>117</ele>
        <time>2023-07-27T07:44:52.877+00:00</time>
      </trkpt>
      <trkpt lat="48.29025" lon="2.59286">
        <ele>117</ele>
        <time>2023-07-27T07:44:57.332+00:00</time>
      </trkpt>
      <trkpt lat="48.2902" lon="2.59281">
        <ele>117</ele>
        <time>2023-07-27T07:45:01.525+00:00</time>
      </trkpt>
      <trkpt lat="48.29017" lon="2.59277">
        <ele>117</ele>
        <time>2023-07-27T07:45:05.718+00:00</time>
      </trkpt>
      <trkpt lat="48.29012" lon="2.59276">
        <ele>117</ele>
        <time>2023-07-27T07:45:55.353+00:00</time>
      </trkpt>
      <trkpt lat="48.29011" lon="2.59276">
        <ele>117</ele>
        <time>2023-07-27T07:45:59.549+00:00</time>
      </trkpt>
      <trkpt lat="48.29011" lon="2.59275">
        <ele>117</ele>
        <time>2023-07-27T07:46:04.702+00:00</time>
      </trkpt>
      <trkpt lat="48.29009" lon="2.59271">
        <ele>117</ele>
        <time>2023-07-27T07:46:09.359+00:00</time>
      </trkpt>
      <trkpt lat="48.29007" lon="2.59263">
        <ele>117</ele>
        <time>2023-07-27T07:46:13.655+00:00</time>
      </trkpt>
      <trkpt lat="48.29003" lon="2.59258">
        <ele>117</ele>
        <time>2023-07-27T07:46:18.133+00:00</time>
      </trkpt>
      <trkpt lat="48.29002" lon="2.59249">
        <ele>117</ele>
        <time>2023-07-27T07:46:22.706+00:00</time>
      </trkpt>
      <trkpt lat="48.29" lon="2.59241">
        <ele>117</ele>
        <time>2023-07-27T07:46:26.648+00:00</time>
      </trkpt>
      <trkpt lat="48.29001" lon="2.59235">
        <ele>118</ele>
        <time>2023-07-27T07:46:31.322+00:00</time>
      </trkpt>
      <trkpt lat="48.29004" lon="2.59226">
        <ele>118</ele>
        <time>2023-07-27T07:46:35.693+00:00</time>
      </trkpt>
      <trkpt lat="48.29002" lon="2.59216">
        <ele>118</ele>
        <time>2023-07-27T07:46:40.204+00:00</time>
      </trkpt>
      <trkpt lat="48.29001" lon="2.59207">
        <ele>119</ele>
        <time>2023-07-27T07:46:44.689+00:00</time>
      </trkpt>
      <trkpt lat="48.29" lon="2.59199">
        <ele>119</ele>
        <time>2023-07-27T07:46:48.885+00:00</time>
      </trkpt>
      <trkpt lat="48.28998" lon="2.59191">
        <ele>119</ele>
        <time>2023-07-27T07:46:52.978+00:00</time>
      </trkpt>
      <trkpt lat="48.28996" lon="2.59185">
        <ele>119</ele>
        <time>2023-07-27T07:46:57.083+00:00</time>
      </trkpt>
      <trkpt lat="48.28993" lon="2.59177">
        <ele>119</ele>
        <time>2023-07-27T07:47:01.425+00:00</time>
      </trkpt>
      <trkpt lat="48.28992" lon="2.5917">
        <ele>119</ele>
        <time>2023-07-27T07:47:05.943+00:00</time>
      </trkpt>
      <trkpt lat="48.28992" lon="2.59161">
        <ele>119</ele>
        <time>2023-07-27T07:47:09.935+00:00</time>
      </trkpt>
      <trkpt lat="48.28989" lon="2.59156">
        <ele>119</ele>
        <time>2023-07-27T07:47:14.131+00:00</time>
      </trkpt>
      <trkpt lat="48.28986" lon="2.59153">
        <ele>119</ele>
        <time>2023-07-27T07:47:18.307+00:00</time>
      </trkpt>
      <trkpt lat="48.28982" lon="2.59147">
        <ele>118</ele>
        <time>2023-07-27T07:47:22.860+00:00</time>
      </trkpt>
      <trkpt lat="48.28977" lon="2.59142">
        <ele>118</ele>
        <time>2023-07-27T07:47:27.533+00:00</time>
      </trkpt>
      <trkpt lat="48.28974" lon="2.59137">
        <ele>118</ele>
        <time>2023-07-27T07:47:31.725+00:00</time>
      </trkpt>
      <trkpt lat="48.28971" lon="2.59133">
        <ele>118</ele>
        <time>2023-07-27T07:47:36.359+00:00</time>
      </trkpt>
      <trkpt lat="48.28969" lon="2.59129">
        <ele>118</ele>
        <time>2023-07-27T07:47:40.314+00:00</time>
      </trkpt>
      <trkpt lat="48.28967" lon="2.59123">
        <ele>117</ele>
        <time>2023-07-27T07:47:44.507+00:00</time>
      </trkpt>
      <trkpt lat="48.28965" lon="2.59117">
        <ele>117</ele>
        <time>2023-07-27T07:47:49.180+00:00</time>
      </trkpt>
      <trkpt lat="48.28962" lon="2.59111">
        <ele>117</ele>
        <time>2023-07-27T07:47:53.135+00:00</time>
      </trkpt>
      <trkpt lat="48.28961" lon="2.59111">
        <ele>117</ele>
        <time>2023-07-27T07:47:57.928+00:00</time>
      </trkpt>
      <trkpt lat="48.28961" lon="2.59108">
        <ele>117</ele>
        <time>2023-07-27T07:48:36.956+00:00</time>
      </trkpt>
      <trkpt lat="48.28959" lon="2.59108">
        <ele>117</ele>
        <time>2023-07-27T07:48:40.971+00:00</time>
      </trkpt>
      <trkpt lat="48.28959" lon="2.59109">
        <ele>117</ele>
        <time>2023-07-27T07:48:45.098+00:00</time>
      </trkpt>
      <trkpt lat="48.28954" lon="2.59113">
        <ele>117</ele>
        <time>2023-07-27T07:48:49.891+00:00</time>
      </trkpt>
      <trkpt lat="48.28952" lon="2.59118">
        <ele>117</ele>
        <time>2023-07-27T07:48:54.323+00:00</time>
      </trkpt>
      <trkpt lat="48.28951" lon="2.59125">
        <ele>117</ele>
        <time>2023-07-27T07:48:58.872+00:00</time>
      </trkpt>
      <trkpt lat="48.28951" lon="2.59132">
        <ele>118</ele>
        <time>2023-07-27T07:49:02.786+00:00</time>
      </trkpt>
      <trkpt lat="48.28949" lon="2.59141">
        <ele>118</ele>
        <time>2023-07-27T07:49:07.131+00:00</time>
      </trkpt>
      <trkpt lat="48.28946" lon="2.59147">
        <ele>118</ele>
        <time>2023-07-27T07:49:11.470+00:00</time>
      </trkpt>
      <trkpt lat="48.28947" lon="2.59156">
        <ele>118</ele>
        <time>2023-07-27T07:49:16.022+00:00</time>
      </trkpt>
      <trkpt lat="48.28948" lon="2.59166">
        <ele>118</ele>
        <time>2023-07-27T07:49:20.987+00:00</time>
      </trkpt>
      <trkpt lat="48.28947" lon="2.59175">
        <ele>118</ele>
        <time>2023-07-27T07:49:25.487+00:00</time>
      </trkpt>
      <trkpt lat="48.28944" lon="2.59183">
        <ele>117</ele>
        <time>2023-07-27T07:49:29.905+00:00</time>
      </trkpt>
      <trkpt lat="48.28941" lon="2.59192">
        <ele>117</ele>
        <time>2023-07-27T07:49:34.353+00:00</time>
      </trkpt>
      <trkpt lat="48.28938" lon="2.59199">
        <ele>117</ele>
        <time>2023-07-27T07:49:38.306+00:00</time>
      </trkpt>
      <trkpt lat="48.28935" lon="2.59207">
        <ele>117</ele>
        <time>2023-07-27T07:49:43.098+00:00</time>
      </trkpt>
      <trkpt lat="48.28932" lon="2.59213">
        <ele>116</ele>
        <time>2023-07-27T07:49:47.889+00:00</time>
      </trkpt>
      <trkpt lat="48.28928" lon="2.59218">
        <ele>115</ele>
        <time>2023-07-27T07:49:52.561+00:00</time>
      </trkpt>
      <trkpt lat="48.28924" lon="2.59226">
        <ele>115</ele>
        <time>2023-07-27T07:49:57.351+00:00</time>
      </trkpt>
      <trkpt lat="48.28921" lon="2.59231">
        <ele>115</ele>
        <time>2023-07-27T07:50:01.305+00:00</time>
      </trkpt>
      <trkpt lat="48.28917" lon="2.59236">
        <ele>115</ele>
        <time>2023-07-27T07:50:05.937+00:00</time>
      </trkpt>
      <trkpt lat="48.28913" lon="2.59244">
        <ele>115</ele>
        <time>2023-07-27T07:50:10.250+00:00</time>
      </trkpt>
      <trkpt lat="48.2891" lon="2.59252">
        <ele>115</ele>
        <time>2023-07-27T07:50:14.479+00:00</time>
      </trkpt>
      <trkpt lat="48.28908" lon="2.59259">
        <ele>115</ele>
        <time>2023-07-27T07:50:18.804+00:00</time>
      </trkpt>
      <trkpt lat="48.28907" lon="2.59268">
        <ele>115</ele>
        <time>2023-07-27T07:50:23.281+00:00</time>
      </trkpt>
      <trkpt lat="48.28906" lon="2.59275">
        <ele>115</ele>
        <time>2023-07-27T07:50:27.808+00:00</time>
      </trkpt>
      <trkpt lat="48.28904" lon="2.5928">
        <ele>115</ele>
        <time>2023-07-27T07:50:31.791+00:00</time>
      </trkpt>
      <trkpt lat="48.28901" lon="2.59288">
        <ele>112</ele>
        <time>2023-07-27T07:50:36.070+00:00</time>
      </trkpt>
      <trkpt lat="48.28898" lon="2.59298">
        <ele>111</ele>
        <time>2023-07-27T07:50:40.590+00:00</time>
      </trkpt>
      <trkpt lat="48.28897" lon="2.59305">
        <ele>111</ele>
        <time>2023-07-27T07:50:44.749+00:00</time>
      </trkpt>
      <trkpt lat="48.28896" lon="2.59312">
        <ele>111</ele>
        <time>2023-07-27T07:50:49.253+00:00</time>
      </trkpt>
      <trkpt lat="48.28892" lon="2.59318">
        <ele>111</ele>
        <time>2023-07-27T07:50:53.858+00:00</time>
      </trkpt>
      <trkpt lat="48.28892" lon="2.59323">
        <ele>109</ele>
        <time>2023-07-27T07:50:58.365+00:00</time>
      </trkpt>
      <trkpt lat="48.28893" lon="2.59323">
        <ele>109</ele>
        <time>2023-07-27T07:52:27.720+00:00</time>
      </trkpt>
      <trkpt lat="48.28894" lon="2.59329">
        <ele>109</ele>
        <time>2023-07-27T07:52:32.297+00:00</time>
      </trkpt>
      <trkpt lat="48.28897" lon="2.59334">
        <ele>109</ele>
        <time>2023-07-27T07:52:36.985+00:00</time>
      </trkpt>
      <trkpt lat="48.289" lon="2.59336">
        <ele>109</ele>
        <time>2023-07-27T07:52:41.128+00:00</time>
      </trkpt>
      <trkpt lat="48.28901" lon="2.59337">
        <ele>109</ele>
        <time>2023-07-27T07:52:45.923+00:00</time>
      </trkpt>
      <trkpt lat="48.28902" lon="2.59338">
        <ele>109</ele>
        <time>2023-07-27T07:52:50.659+00:00</time>
      </trkpt>
      <trkpt lat="48.28903" lon="2.59338">
        <ele>109</ele>
        <time>2023-07-27T07:52:55.777+00:00</time>
      </trkpt>
      <trkpt lat="48.28903" lon="2.59339">
        <ele>113</ele>
        <time>2023-07-27T07:52:59.982+00:00</time>
      </trkpt>
      <trkpt lat="48.28905" lon="2.59345">
        <ele>113</ele>
        <time>2023-07-27T07:53:04.493+00:00</time>
      </trkpt>
      <trkpt lat="48.28906" lon="2.5935">
        <ele>113</ele>
        <time>2023-07-27T07:53:08.690+00:00</time>
      </trkpt>
      <trkpt lat="48.28908" lon="2.59355">
        <ele>113</ele>
        <time>2023-07-27T07:53:13.148+00:00</time>
      </trkpt>
      <trkpt lat="48.28905" lon="2.59358">
        <ele>113</ele>
        <time>2023-07-27T07:53:17.664+00:00</time>
      </trkpt>
      <trkpt lat="48.28903" lon="2.59366">
        <ele>109</ele>
        <time>2023-07-27T07:53:22.100+00:00</time>
      </trkpt>
      <trkpt lat="48.28902" lon="2.59373">
        <ele>109</ele>
        <time>2023-07-27T07:53:26.715+00:00</time>
      </trkpt>
      <trkpt lat="48.28902" lon="2.59379">
        <ele>106</ele>
        <time>2023-07-27T07:53:31.432+00:00</time>
      </trkpt>
      <trkpt lat="48.289" lon="2.59383">
        <ele>106</ele>
        <time>2023-07-27T07:53:35.465+00:00</time>
      </trkpt>
      <trkpt lat="48.28898" lon="2.59387">
        <ele>106</ele>
        <time>2023-07-27T07:53:40.003+00:00</time>
      </trkpt>
      <trkpt lat="48.28898" lon="2.59391">
        <ele>106</ele>
        <time>2023-07-27T07:53:44.097+00:00</time>
      </trkpt>
      <trkpt lat="48.28898" lon="2.59394">
        <ele>106</ele>
        <time>2023-07-27T07:53:48.291+00:00</time>
      </trkpt>
      <trkpt lat="48.28897" lon="2.59398">
        <ele>106</ele>
        <time>2023-07-27T07:53:52.359+00:00</time>
      </trkpt>
      <trkpt lat="48.28897" lon="2.59404">
        <ele>103</ele>
        <time>2023-07-27T07:53:57.096+00:00</time>
      </trkpt>
      <trkpt lat="48.28895" lon="2.5941">
        <ele>103</ele>
        <time>2023-07-27T07:54:01.168+00:00</time>
      </trkpt>
      <trkpt lat="48.28889" lon="2.59423">
        <ele>103</ele>
        <time>2023-07-27T07:54:41.557+00:00</time>
      </trkpt>
      <trkpt lat="48.28889" lon="2.59424">
        <ele>103</ele>
        <time>2023-07-27T07:54:45.752+00:00</time>
      </trkpt>
      <trkpt lat="48.28888" lon="2.59424">
        <ele>103</ele>
        <time>2023-07-27T07:54:50.547+00:00</time>
      </trkpt>
      <trkpt lat="48.28889" lon="2.59425">
        <ele>103</ele>
        <time>2023-07-27T07:54:54.503+00:00</time>
      </trkpt>
      <trkpt lat="48.28888" lon="2.59425">
        <ele>103</ele>
        <time>2023-07-27T07:54:59.199+00:00</time>
      </trkpt>
      <trkpt lat="48.28886" lon="2.59431">
        <ele>98</ele>
        <time>2023-07-27T07:57:11.499+00:00</time>
      </trkpt>
      <trkpt lat="48.28886" lon="2.59433">
        <ele>98</ele>
        <time>2023-07-27T07:57:16.732+00:00</time>
      </trkpt>
      <trkpt lat="48.28886" lon="2.59435">
        <ele>98</ele>
        <time>2023-07-27T07:57:21.524+00:00</time>
      </trkpt>
      <trkpt lat="48.28885" lon="2.59437">
        <ele>98</ele>
        <time>2023-07-27T07:57:25.499+00:00</time>
      </trkpt>
      <trkpt lat="48.28884" lon="2.59438">
        <ele>98</ele>
        <time>2023-07-27T07:57:29.535+00:00</time>
      </trkpt>
      <trkpt lat="48.28882" lon="2.59447">
        <ele>98</ele>
        <time>2023-07-27T07:57:51.611+00:00</time>
      </trkpt>
      <trkpt lat="48.28881" lon="2.5945">
        <ele>98</ele>
        <time>2023-07-27T07:57:56.244+00:00</time>
      </trkpt>
      <trkpt lat="48.28879" lon="2.59453">
        <ele>98</ele>
        <time>2023-07-27T07:58:00.905+00:00</time>
      </trkpt>
      <trkpt lat="48.28876" lon="2.59456">
        <ele>98</ele>
        <time>2023-07-27T07:58:05.700+00:00</time>
      </trkpt>
      <trkpt lat="48.28875" lon="2.59457">
        <ele>94</ele>
        <time>2023-07-27T07:58:09.894+00:00</time>
      </trkpt>
      <trkpt lat="48.28873" lon="2.59463">
        <ele>90</ele>
        <time>2023-07-27T07:58:18.509+00:00</time>
      </trkpt>
      <trkpt lat="48.28872" lon="2.59466">
        <ele>90</ele>
        <time>2023-07-27T07:58:22.684+00:00</time>
      </trkpt>
      <trkpt lat="48.28871" lon="2.59468">
        <ele>90</ele>
        <time>2023-07-27T07:58:26.760+00:00</time>
      </trkpt>
      <trkpt lat="48.28869" lon="2.59467">
        <ele>90</ele>
        <time>2023-07-27T07:58:30.933+00:00</time>
      </trkpt>
      <trkpt lat="48.28865" lon="2.59468">
        <ele>90</ele>
        <time>2023-07-27T07:58:34.950+00:00</time>
      </trkpt>
      <trkpt lat="48.28864" lon="2.59477">
        <ele>90</ele>
        <time>2023-07-27T07:59:10.087+00:00</time>
      </trkpt>
      <trkpt lat="48.28864" lon="2.59479">
        <ele>90</ele>
        <time>2023-07-27T07:59:14.484+00:00</time>
      </trkpt>
      <trkpt lat="48.28864" lon="2.5948">
        <ele>90</ele>
        <time>2023-07-27T07:59:18.661+00:00</time>
      </trkpt>
      <trkpt lat="48.28864" lon="2.59484">
        <ele>90</ele>
        <time>2023-07-27T07:59:23.936+00:00</time>
      </trkpt>
      <trkpt lat="48.28863" lon="2.59487">
        <ele>85</ele>
        <time>2023-07-27T07:59:28.131+00:00</time>
      </trkpt>
      <trkpt lat="48.28865" lon="2.59491">
        <ele>85</ele>
        <time>2023-07-27T07:59:32.647+00:00</time>
      </trkpt>
      <trkpt lat="48.28865" lon="2.59492">
        <ele>85</ele>
        <time>2023-07-27T07:59:36.525+00:00</time>
      </trkpt>
      <trkpt lat="48.28863" lon="2.59495">
        <ele>85</ele>
        <time>2023-07-27T07:59:41.143+00:00</time>
      </trkpt>
      <trkpt lat="48.28859" lon="2.595">
        <ele>85</ele>
        <time>2023-07-27T07:59:45.539+00:00</time>
      </trkpt>
      <trkpt lat="48.28856" lon="2.59504">
        <ele>85</ele>
        <time>2023-07-27T07:59:50.042+00:00</time>
      </trkpt>
      <trkpt lat="48.28855" lon="2.59508">
        <ele>85</ele>
        <time>2023-07-27T07:59:54.556+00:00</time>
      </trkpt>
      <trkpt lat="48.28855" lon="2.59509">
        <ele>85</ele>
        <time>2023-07-27T07:59:59.073+00:00</time>
      </trkpt>
      <trkpt lat="48.28854" lon="2.59507">
        <ele>85</ele>
        <time>2023-07-27T08:00:03.086+00:00</time>
      </trkpt>
      <trkpt lat="48.28849" lon="2.59507">
        <ele>85</ele>
        <time>2023-07-27T08:00:07.598+00:00</time>
      </trkpt>
      <trkpt lat="48.28843" lon="2.59508">
        <ele>81</ele>
        <time>2023-07-27T08:00:11.610+00:00</time>
      </trkpt>
      <trkpt lat="48.28838" lon="2.59509">
        <ele>81</ele>
        <time>2023-07-27T08:00:16.222+00:00</time>
      </trkpt>
      <trkpt lat="48.28835" lon="2.59518">
        <ele>79</ele>
        <time>2023-07-27T08:00:20.332+00:00</time>
      </trkpt>
      <trkpt lat="48.28832" lon="2.59524">
        <ele>79</ele>
        <time>2023-07-27T08:00:24.539+00:00</time>
      </trkpt>
      <trkpt lat="48.28831" lon="2.5953">
        <ele>79</ele>
        <time>2023-07-27T08:00:29.049+00:00</time>
      </trkpt>
      <trkpt lat="48.2883" lon="2.59533">
        <ele>79</ele>
        <time>2023-07-27T08:00:33.561+00:00</time>
      </trkpt>
      <trkpt lat="48.2883" lon="2.59532">
        <ele>79</ele>
        <time>2023-07-27T08:00:37.577+00:00</time>
      </trkpt>
      <trkpt lat="48.28831" lon="2.59531">
        <ele>79</ele>
        <time>2023-07-27T08:00:41.592+00:00</time>
      </trkpt>
      <trkpt lat="48.28827" lon="2.59538">
        <ele>79</ele>
        <time>2023-07-27T08:00:45.604+00:00</time>
      </trkpt>
      <trkpt lat="48.2882" lon="2.59538">
        <ele>79</ele>
        <time>2023-07-27T08:00:50.122+00:00</time>
      </trkpt>
      <trkpt lat="48.28815" lon="2.59543">
        <ele>75</ele>
        <time>2023-07-27T08:00:54.126+00:00</time>
      </trkpt>
      <trkpt lat="48.28809" lon="2.59548">
        <ele>75</ele>
        <time>2023-07-27T08:00:58.690+00:00</time>
      </trkpt>
      <trkpt lat="48.28804" lon="2.59552">
        <ele>75</ele>
        <time>2023-07-27T08:01:02.710+00:00</time>
      </trkpt>
      <trkpt lat="48.28799" lon="2.59555">
        <ele>75</ele>
        <time>2023-07-27T08:01:07.253+00:00</time>
      </trkpt>
      <trkpt lat="48.28794" lon="2.59557">
        <ele>75</ele>
        <time>2023-07-27T08:01:11.513+00:00</time>
      </trkpt>
      <trkpt lat="48.2879" lon="2.59559">
        <ele>73</ele>
        <time>2023-07-27T08:01:15.865+00:00</time>
      </trkpt>
      <trkpt lat="48.28786" lon="2.59563">
        <ele>73</ele>
        <time>2023-07-27T08:01:19.752+00:00</time>
      </trkpt>
      <trkpt lat="48.28781" lon="2.59567">
        <ele>73</ele>
        <time>2023-07-27T08:01:24.490+00:00</time>
      </trkpt>
      <trkpt lat="48.28777" lon="2.59571">
        <ele>73</ele>
        <time>2023-07-27T08:01:28.407+00:00</time>
      </trkpt>
      <trkpt lat="48.28773" lon="2.59574">
        <ele>73</ele>
        <time>2023-07-27T08:01:32.208+00:00</time>
      </trkpt>
      <trkpt lat="48.28768" lon="2.59578">
        <ele>73</ele>
        <time>2023-07-27T08:01:36.672+00:00</time>
      </trkpt>
      <trkpt lat="48.28764" lon="2.59583">
        <ele>73</ele>
        <time>2023-07-27T08:01:41.002+00:00</time>
      </trkpt>
      <trkpt lat="48.28762" lon="2.5959">
        <ele>71</ele>
        <time>2023-07-27T08:01:45.401+00:00</time>
      </trkpt>
      <trkpt lat="48.28766" lon="2.596">
        <ele>72</ele>
        <time>2023-07-27T08:01:49.988+00:00</time>
      </trkpt>
      <trkpt lat="48.28767" lon="2.59607">
        <ele>72</ele>
        <time>2023-07-27T08:01:54.475+00:00</time>
      </trkpt>
      <trkpt lat="48.28769" lon="2.59617">
        <ele>72</ele>
        <time>2023-07-27T08:01:59.363+00:00</time>
      </trkpt>
      <trkpt lat="48.2877" lon="2.59624">
        <ele>72</ele>
        <time>2023-07-27T08:02:03.821+00:00</time>
      </trkpt>
      <trkpt lat="48.28772" lon="2.59631">
        <ele>72</ele>
        <time>2023-07-27T08:02:07.769+00:00</time>
      </trkpt>
      <trkpt lat="48.28778" lon="2.59638">
        <ele>72</ele>
        <time>2023-07-27T08:02:12.918+00:00</time>
      </trkpt>
      <trkpt lat="48.28778" lon="2.59644">
        <ele>72</ele>
        <time>2023-07-27T08:02:16.944+00:00</time>
      </trkpt>
      <trkpt lat="48.28785" lon="2.59666">
        <ele>72</ele>
        <time>2023-07-27T08:02:47.044+00:00</time>
      </trkpt>
      <trkpt lat="48.28783" lon="2.59672">
        <ele>72</ele>
        <time>2023-07-27T08:02:51.384+00:00</time>
      </trkpt>
      <trkpt lat="48.28776" lon="2.59672">
        <ele>72</ele>
        <time>2023-07-27T08:02:55.843+00:00</time>
      </trkpt>
      <trkpt lat="48.28771" lon="2.59673">
        <ele>72</ele>
        <time>2023-07-27T08:02:59.680+00:00</time>
      </trkpt>
      <trkpt lat="48.28764" lon="2.59672">
        <ele>72</ele>
        <time>2023-07-27T08:03:04.257+00:00</time>
      </trkpt>
      <trkpt lat="48.28758" lon="2.59672">
        <ele>71</ele>
        <time>2023-07-27T08:03:08.333+00:00</time>
      </trkpt>
      <trkpt lat="48.28752" lon="2.59672">
        <ele>71</ele>
        <time>2023-07-27T08:03:12.829+00:00</time>
      </trkpt>
      <trkpt lat="48.28746" lon="2.59668">
        <ele>71</ele>
        <time>2023-07-27T08:03:17.241+00:00</time>
      </trkpt>
      <trkpt lat="48.2874" lon="2.59668">
        <ele>71</ele>
        <time>2023-07-27T08:03:21.931+00:00</time>
      </trkpt>
      <trkpt lat="48.28733" lon="2.59669">
        <ele>71</ele>
        <time>2023-07-27T08:03:26.946+00:00</time>
      </trkpt>
      <trkpt lat="48.28728" lon="2.59673">
        <ele>71</ele>
        <time>2023-07-27T08:03:31.512+00:00</time>
      </trkpt>
      <trkpt lat="48.28723" lon="2.59674">
        <ele>71</ele>
        <time>2023-07-27T08:03:35.892+00:00</time>
      </trkpt>
      <trkpt lat="48.28718" lon="2.59673">
        <ele>71</ele>
        <time>2023-07-27T08:03:39.943+00:00</time>
      </trkpt>
      <trkpt lat="48.2871" lon="2.59671">
        <ele>71</ele>
        <time>2023-07-27T08:03:44.556+00:00</time>
      </trkpt>
      <trkpt lat="48.28705" lon="2.59671">
        <ele>70</ele>
        <time>2023-07-27T08:03:49.156+00:00</time>
      </trkpt>
      <trkpt lat="48.28699" lon="2.59671">
        <ele>70</ele>
        <time>2023-07-27T08:03:53.538+00:00</time>
      </trkpt>
      <trkpt lat="48.28693" lon="2.59672">
        <ele>70</ele>
        <time>2023-07-27T08:03:58.072+00:00</time>
      </trkpt>
      <trkpt lat="48.28687" lon="2.59674">
        <ele>70</ele>
        <time>2023-07-27T08:04:02.589+00:00</time>
      </trkpt>
      <trkpt lat="48.28682" lon="2.5967">
        <ele>70</ele>
        <time>2023-07-27T08:04:07.461+00:00</time>
      </trkpt>
      <trkpt lat="48.28676" lon="2.59668">
        <ele>70</ele>
        <time>2023-07-27T08:04:11.955+00:00</time>
      </trkpt>
      <trkpt lat="48.28671" lon="2.59669">
        <ele>70</ele>
        <time>2023-07-27T08:04:16.149+00:00</time>
      </trkpt>
      <trkpt lat="48.28666" lon="2.5967">
        <ele>70</ele>
        <time>2023-07-27T08:04:20.580+00:00</time>
      </trkpt>
      <trkpt lat="48.28661" lon="2.5967">
        <ele>70</ele>
        <time>2023-07-27T08:04:25.010+00:00</time>
      </trkpt>
      <trkpt lat="48.28655" lon="2.59671">
        <ele>70</ele>
        <time>2023-07-27T08:04:29.359+00:00</time>
      </trkpt>
      <trkpt lat="48.2865" lon="2.59672">
        <ele>71</ele>
        <time>2023-07-27T08:04:33.359+00:00</time>
      </trkpt>
      <trkpt lat="48.28644" lon="2.59673">
        <ele>71</ele>
        <time>2023-07-27T08:04:37.943+00:00</time>
      </trkpt>
      <trkpt lat="48.2864" lon="2.59674">
        <ele>71</ele>
        <time>2023-07-27T08:04:42.097+00:00</time>
      </trkpt>
      <trkpt lat="48.28635" lon="2.59674">
        <ele>71</ele>
        <time>2023-07-27T08:04:46.289+00:00</time>
      </trkpt>
      <trkpt lat="48.28629" lon="2.59673">
        <ele>71</ele>
        <time>2023-07-27T08:04:50.962+00:00</time>
      </trkpt>
      <trkpt lat="48.28619" lon="2.59672">
        <ele>71</ele>
        <time>2023-07-27T08:05:12.966+00:00</time>
      </trkpt>
      <trkpt lat="48.28617" lon="2.59673">
        <ele>71</ele>
        <time>2023-07-27T08:05:16.849+00:00</time>
      </trkpt>
      <trkpt lat="48.28612" lon="2.59667">
        <ele>71</ele>
        <time>2023-07-27T08:05:21.486+00:00</time>
      </trkpt>
      <trkpt lat="48.28606" lon="2.59665">
        <ele>71</ele>
        <time>2023-07-27T08:05:25.479+00:00</time>
      </trkpt>
      <trkpt lat="48.286" lon="2.59663">
        <ele>71</ele>
        <time>2023-07-27T08:05:29.972+00:00</time>
      </trkpt>
      <trkpt lat="48.28595" lon="2.59662">
        <ele>73</ele>
        <time>2023-07-27T08:05:33.829+00:00</time>
      </trkpt>
      <trkpt lat="48.28589" lon="2.59659">
        <ele>73</ele>
        <time>2023-07-27T08:05:37.904+00:00</time>
      </trkpt>
      <trkpt lat="48.28584" lon="2.59656">
        <ele>73</ele>
        <time>2023-07-27T08:05:42.441+00:00</time>
      </trkpt>
      <trkpt lat="48.28578" lon="2.59653">
        <ele>73</ele>
        <time>2023-07-27T08:05:46.314+00:00</time>
      </trkpt>
      <trkpt lat="48.28572" lon="2.5965">
        <ele>73</ele>
        <time>2023-07-27T08:05:50.830+00:00</time>
      </trkpt>
      <trkpt lat="48.28568" lon="2.59649">
        <ele>73</ele>
        <time>2023-07-27T08:05:54.607+00:00</time>
      </trkpt>
      <trkpt lat="48.28563" lon="2.59646">
        <ele>73</ele>
        <time>2023-07-27T08:05:59.144+00:00</time>
      </trkpt>
      <trkpt lat="48.28558" lon="2.59643">
        <ele>73</ele>
        <time>2023-07-27T08:06:03.543+00:00</time>
      </trkpt>
      <trkpt lat="48.2855" lon="2.59645">
        <ele>73</ele>
        <time>2023-07-27T08:06:07.359+00:00</time>
      </trkpt>
      <trkpt lat="48.2854" lon="2.59643">
        <ele>74</ele>
        <time>2023-07-27T08:06:16.395+00:00</time>
      </trkpt>
      <trkpt lat="48.28535" lon="2.59642">
        <ele>74</ele>
        <time>2023-07-27T08:06:21.001+00:00</time>
      </trkpt>
      <trkpt lat="48.28529" lon="2.59641">
        <ele>74</ele>
        <time>2023-07-27T08:06:25.007+00:00</time>
      </trkpt>
      <trkpt lat="48.28523" lon="2.5964">
        <ele>74</ele>
        <time>2023-07-27T08:06:29.512+00:00</time>
      </trkpt>
      <trkpt lat="48.28517" lon="2.59638">
        <ele>74</ele>
        <time>2023-07-27T08:06:33.634+00:00</time>
      </trkpt>
      <trkpt lat="48.28513" lon="2.59637">
        <ele>74</ele>
        <time>2023-07-27T08:06:37.747+00:00</time>
      </trkpt>
      <trkpt lat="48.2851" lon="2.59635">
        <ele>74</ele>
        <time>2023-07-27T08:06:41.758+00:00</time>
      </trkpt>
      <trkpt lat="48.28508" lon="2.59629">
        <ele>74</ele>
        <time>2023-07-27T08:06:45.767+00:00</time>
      </trkpt>
      <trkpt lat="48.28504" lon="2.59627">
        <ele>74</ele>
        <time>2023-07-27T08:06:50.278+00:00</time>
      </trkpt>
      <trkpt lat="48.28493" lon="2.59629">
        <ele>74</ele>
        <time>2023-07-27T08:06:54.287+00:00</time>
      </trkpt>
      <trkpt lat="48.28488" lon="2.5963">
        <ele>74</ele>
        <time>2023-07-27T08:06:58.801+00:00</time>
      </trkpt>
      <trkpt lat="48.28489" lon="2.59629">
        <ele>74</ele>
        <time>2023-07-27T08:07:02.814+00:00</time>
      </trkpt>
      <trkpt lat="48.2849" lon="2.5963">
        <ele>74</ele>
        <time>2023-07-27T08:07:07.328+00:00</time>
      </trkpt>
      <trkpt lat="48.28485" lon="2.5963">
        <ele>75</ele>
        <time>2023-07-27T08:07:11.455+00:00</time>
      </trkpt>
      <trkpt lat="48.2848" lon="2.59626">
        <ele>75</ele>
        <time>2023-07-27T08:07:15.465+00:00</time>
      </trkpt>
      <trkpt lat="48.28473" lon="2.59624">
        <ele>77</ele>
        <time>2023-07-27T08:07:20.484+00:00</time>
      </trkpt>
      <trkpt lat="48.28468" lon="2.59625">
        <ele>77</ele>
        <time>2023-07-27T08:07:24.597+00:00</time>
      </trkpt>
      <trkpt lat="48.28462" lon="2.59628">
        <ele>75</ele>
        <time>2023-07-27T08:07:29.811+00:00</time>
      </trkpt>
      <trkpt lat="48.28457" lon="2.59625">
        <ele>77</ele>
        <time>2023-07-27T08:07:33.822+00:00</time>
      </trkpt>
      <trkpt lat="48.28452" lon="2.59624">
        <ele>78</ele>
        <time>2023-07-27T08:07:38.330+00:00</time>
      </trkpt>
      <trkpt lat="48.28448" lon="2.5962">
        <ele>78</ele>
        <time>2023-07-27T08:07:42.839+00:00</time>
      </trkpt>
      <trkpt lat="48.28441" lon="2.5962">
        <ele>78</ele>
        <time>2023-07-27T08:07:47.849+00:00</time>
      </trkpt>
      <trkpt lat="48.28438" lon="2.5962">
        <ele>78</ele>
        <time>2023-07-27T08:07:52.359+00:00</time>
      </trkpt>
      <trkpt lat="48.28433" lon="2.59622">
        <ele>78</ele>
        <time>2023-07-27T08:08:09.916+00:00</time>
      </trkpt>
      <trkpt lat="48.28433" lon="2.59623">
        <ele>78</ele>
        <time>2023-07-27T08:08:14.436+00:00</time>
      </trkpt>
      <trkpt lat="48.28428" lon="2.59624">
        <ele>79</ele>
        <time>2023-07-27T08:08:18.467+00:00</time>
      </trkpt>
      <trkpt lat="48.28421" lon="2.59622">
        <ele>79</ele>
        <time>2023-07-27T08:08:22.480+00:00</time>
      </trkpt>
      <trkpt lat="48.28419" lon="2.59619">
        <ele>79</ele>
        <time>2023-07-27T08:08:26.492+00:00</time>
      </trkpt>
      <trkpt lat="48.28415" lon="2.59623">
        <ele>79</ele>
        <time>2023-07-27T08:09:27.882+00:00</time>
      </trkpt>
      <trkpt lat="48.28416" lon="2.59627">
        <ele>79</ele>
        <time>2023-07-27T08:09:31.885+00:00</time>
      </trkpt>
      <trkpt lat="48.28418" lon="2.59633">
        <ele>79</ele>
        <time>2023-07-27T08:09:36.246+00:00</time>
      </trkpt>
      <trkpt lat="48.28425" lon="2.59641">
        <ele>79</ele>
        <time>2023-07-27T08:09:40.126+00:00</time>
      </trkpt>
      <trkpt lat="48.28429" lon="2.59643">
        <ele>79</ele>
        <time>2023-07-27T08:09:44.626+00:00</time>
      </trkpt>
      <trkpt lat="48.28425" lon="2.5965">
        <ele>79</ele>
        <time>2023-07-27T08:09:49.305+00:00</time>
      </trkpt>
      <trkpt lat="48.28416" lon="2.5966">
        <ele>78</ele>
        <time>2023-07-27T08:09:53.819+00:00</time>
      </trkpt>
      <trkpt lat="48.28414" lon="2.59666">
        <ele>78</ele>
        <time>2023-07-27T08:09:57.831+00:00</time>
      </trkpt>
      <trkpt lat="48.28408" lon="2.59668">
        <ele>78</ele>
        <time>2023-07-27T08:10:01.840+00:00</time>
      </trkpt>
      <trkpt lat="48.28404" lon="2.59672">
        <ele>78</ele>
        <time>2023-07-27T08:10:14.473+00:00</time>
      </trkpt>
      <trkpt lat="48.28402" lon="2.59671">
        <ele>80</ele>
        <time>2023-07-27T08:10:18.498+00:00</time>
      </trkpt>
      <trkpt lat="48.2839" lon="2.5968">
        <ele>80</ele>
        <time>2023-07-27T08:10:23.011+00:00</time>
      </trkpt>
      <trkpt lat="48.28383" lon="2.59677">
        <ele>80</ele>
        <time>2023-07-27T08:10:27.023+00:00</time>
      </trkpt>
      <trkpt lat="48.28381" lon="2.59677">
        <ele>80</ele>
        <time>2023-07-27T08:10:31.033+00:00</time>
      </trkpt>
      <trkpt lat="48.28379" lon="2.5968">
        <ele>80</ele>
        <time>2023-07-27T08:10:35.545+00:00</time>
      </trkpt>
      <trkpt lat="48.2838" lon="2.5968">
        <ele>80</ele>
        <time>2023-07-27T08:10:39.558+00:00</time>
      </trkpt>
      <trkpt lat="48.28381" lon="2.5968">
        <ele>80</ele>
        <time>2023-07-27T08:10:43.570+00:00</time>
      </trkpt>
      <trkpt lat="48.28381" lon="2.59663">
        <ele>80</ele>
        <time>2023-07-27T08:10:48.789+00:00</time>
      </trkpt>
      <trkpt lat="48.28381" lon="2.59656">
        <ele>80</ele>
        <time>2023-07-27T08:10:52.491+00:00</time>
      </trkpt>
      <trkpt lat="48.28381" lon="2.59647">
        <ele>82</ele>
        <time>2023-07-27T08:10:57.021+00:00</time>
      </trkpt>
      <trkpt lat="48.28383" lon="2.59639">
        <ele>82</ele>
        <time>2023-07-27T08:11:01.108+00:00</time>
      </trkpt>
      <trkpt lat="48.28386" lon="2.59632">
        <ele>82</ele>
        <time>2023-07-27T08:11:05.617+00:00</time>
      </trkpt>
      <trkpt lat="48.28391" lon="2.59642">
        <ele>82</ele>
        <time>2023-07-27T08:11:46.574+00:00</time>
      </trkpt>
      <trkpt lat="48.28394" lon="2.59641">
        <ele>82</ele>
        <time>2023-07-27T08:11:51.087+00:00</time>
      </trkpt>
      <trkpt lat="48.28401" lon="2.59635">
        <ele>82</ele>
        <time>2023-07-27T08:11:55.612+00:00</time>
      </trkpt>
      <trkpt lat="48.28403" lon="2.59633">
        <ele>79</ele>
        <time>2023-07-27T08:11:59.622+00:00</time>
      </trkpt>
      <trkpt lat="48.28405" lon="2.59634">
        <ele>79</ele>
        <time>2023-07-27T08:12:04.633+00:00</time>
      </trkpt>
      <trkpt lat="48.28395" lon="2.59633">
        <ele>82</ele>
        <time>2023-07-27T08:14:31.705+00:00</time>
      </trkpt>
      <trkpt lat="48.28393" lon="2.59633">
        <ele>82</ele>
        <time>2023-07-27T08:14:36.214+00:00</time>
      </trkpt>
      <trkpt lat="48.28391" lon="2.59631">
        <ele>82</ele>
        <time>2023-07-27T08:14:40.222+00:00</time>
      </trkpt>
      <trkpt lat="48.2839" lon="2.59631">
        <ele>82</ele>
        <time>2023-07-27T08:14:44.830+00:00</time>
      </trkpt>
      <trkpt lat="48.2839" lon="2.59624">
        <ele>83</ele>
        <time>2023-07-27T08:14:48.837+00:00</time>
      </trkpt>
      <trkpt lat="48.28394" lon="2.59607">
        <ele>83</ele>
        <time>2023-07-27T08:15:19.924+00:00</time>
      </trkpt>
      <trkpt lat="48.28395" lon="2.59606">
        <ele>83</ele>
        <time>2023-07-27T08:15:24.428+00:00</time>
      </trkpt>
      <trkpt lat="48.28394" lon="2.59605">
        <ele>83</ele>
        <time>2023-07-27T08:15:28.988+00:00</time>
      </trkpt>
      <trkpt lat="48.28394" lon="2.59604">
        <ele>83</ele>
        <time>2023-07-27T08:15:32.955+00:00</time>
      </trkpt>
      <trkpt lat="48.28396" lon="2.59599">
        <ele>83</ele>
        <time>2023-07-27T08:15:37.055+00:00</time>
      </trkpt>
      <trkpt lat="48.28397" lon="2.59593">
        <ele>82</ele>
        <time>2023-07-27T08:15:41.197+00:00</time>
      </trkpt>
      <trkpt lat="48.28399" lon="2.59589">
        <ele>82</ele>
        <time>2023-07-27T08:15:45.200+00:00</time>
      </trkpt>
      <trkpt lat="48.28401" lon="2.59584">
        <ele>82</ele>
        <time>2023-07-27T08:15:49.961+00:00</time>
      </trkpt>
      <trkpt lat="48.28405" lon="2.59583">
        <ele>80</ele>
        <time>2023-07-27T08:15:54.158+00:00</time>
      </trkpt>
      <trkpt lat="48.28412" lon="2.59585">
        <ele>80</ele>
        <time>2023-07-27T08:16:17.020+00:00</time>
      </trkpt>
      <trkpt lat="48.28412" lon="2.59586">
        <ele>80</ele>
        <time>2023-07-27T08:16:21.632+00:00</time>
      </trkpt>
      <trkpt lat="48.28417" lon="2.59593">
        <ele>80</ele>
        <time>2023-07-27T08:16:25.638+00:00</time>
      </trkpt>
      <trkpt lat="48.2842" lon="2.596">
        <ele>79</ele>
        <time>2023-07-27T08:16:29.644+00:00</time>
      </trkpt>
      <trkpt lat="48.28422" lon="2.59607">
        <ele>79</ele>
        <time>2023-07-27T08:16:34.251+00:00</time>
      </trkpt>
      <trkpt lat="48.28424" lon="2.59613">
        <ele>79</ele>
        <time>2023-07-27T08:16:38.257+00:00</time>
      </trkpt>
      <trkpt lat="48.28426" lon="2.5962">
        <ele>79</ele>
        <time>2023-07-27T08:16:42.763+00:00</time>
      </trkpt>
      <trkpt lat="48.28429" lon="2.59622">
        <ele>79</ele>
        <time>2023-07-27T08:16:46.768+00:00</time>
      </trkpt>
      <trkpt lat="48.28431" lon="2.59628">
        <ele>77</ele>
        <time>2023-07-27T08:16:51.873+00:00</time>
      </trkpt>
      <trkpt lat="48.28427" lon="2.59637">
        <ele>79</ele>
        <time>2023-07-27T08:16:59.481+00:00</time>
      </trkpt>
      <trkpt lat="48.28429" lon="2.59638">
        <ele>79</ele>
        <time>2023-07-27T08:17:04.083+00:00</time>
      </trkpt>
      <trkpt lat="48.2843" lon="2.59641">
        <ele>79</ele>
        <time>2023-07-27T08:17:08.903+00:00</time>
      </trkpt>
      <trkpt lat="48.2843" lon="2.59645">
        <ele>79</ele>
        <time>2023-07-27T08:17:13.204+00:00</time>
      </trkpt>
      <trkpt lat="48.28432" lon="2.59654">
        <ele>76</ele>
        <time>2023-07-27T08:17:17.545+00:00</time>
      </trkpt>
      <trkpt lat="48.28442" lon="2.59666">
        <ele>76</ele>
        <time>2023-07-27T08:17:42.911+00:00</time>
      </trkpt>
      <trkpt lat="48.28441" lon="2.59671">
        <ele>76</ele>
        <time>2023-07-27T08:17:47.446+00:00</time>
      </trkpt>
      <trkpt lat="48.28437" lon="2.59679">
        <ele>76</ele>
        <time>2023-07-27T08:17:51.952+00:00</time>
      </trkpt>
      <trkpt lat="48.28434" lon="2.59686">
        <ele>75</ele>
        <time>2023-07-27T08:17:55.976+00:00</time>
      </trkpt>
      <trkpt lat="48.28436" lon="2.59697">
        <ele>75</ele>
        <time>2023-07-27T08:17:59.979+00:00</time>
      </trkpt>
      <trkpt lat="48.28439" lon="2.59705">
        <ele>75</ele>
        <time>2023-07-27T08:18:04.482+00:00</time>
      </trkpt>
      <trkpt lat="48.28439" lon="2.59713">
        <ele>74</ele>
        <time>2023-07-27T08:18:09.066+00:00</time>
      </trkpt>
      <trkpt lat="48.28439" lon="2.59722">
        <ele>74</ele>
        <time>2023-07-27T08:18:13.226+00:00</time>
      </trkpt>
      <trkpt lat="48.28441" lon="2.59729">
        <ele>74</ele>
        <time>2023-07-27T08:18:17.229+00:00</time>
      </trkpt>
      <trkpt lat="48.28442" lon="2.59734">
        <ele>74</ele>
        <time>2023-07-27T08:18:21.810+00:00</time>
      </trkpt>
      <trkpt lat="48.28444" lon="2.59736">
        <ele>73</ele>
        <time>2023-07-27T08:18:26.230+00:00</time>
      </trkpt>
      <trkpt lat="48.28444" lon="2.59743">
        <ele>73</ele>
        <time>2023-07-27T08:18:30.849+00:00</time>
      </trkpt>
      <trkpt lat="48.2845" lon="2.59745">
        <ele>73</ele>
        <time>2023-07-27T08:18:34.788+00:00</time>
      </trkpt>
      <trkpt lat="48.28448" lon="2.59756">
        <ele>73</ele>
        <time>2023-07-27T08:18:51.865+00:00</time>
      </trkpt>
      <trkpt lat="48.28444" lon="2.59751">
        <ele>73</ele>
        <time>2023-07-27T08:18:55.873+00:00</time>
      </trkpt>
      <trkpt lat="48.28437" lon="2.5975">
        <ele>73</ele>
        <time>2023-07-27T08:18:59.984+00:00</time>
      </trkpt>
      <trkpt lat="48.2843" lon="2.59753">
        <ele>74</ele>
        <time>2023-07-27T08:19:03.990+00:00</time>
      </trkpt>
      <trkpt lat="48.28425" lon="2.59757">
        <ele>74</ele>
        <time>2023-07-27T08:19:08.494+00:00</time>
      </trkpt>
      <trkpt lat="48.28419" lon="2.59751">
        <ele>74</ele>
        <time>2023-07-27T08:19:13.255+00:00</time>
      </trkpt>
      <trkpt lat="48.28413" lon="2.59753">
        <ele>74</ele>
        <time>2023-07-27T08:19:17.536+00:00</time>
      </trkpt>
      <trkpt lat="48.28409" lon="2.59751">
        <ele>74</ele>
        <time>2023-07-27T08:19:22.154+00:00</time>
      </trkpt>
      <trkpt lat="48.28409" lon="2.59746">
        <ele>74</ele>
        <time>2023-07-27T08:19:26.734+00:00</time>
      </trkpt>
      <trkpt lat="48.28407" lon="2.5974">
        <ele>74</ele>
        <time>2023-07-27T08:19:30.797+00:00</time>
      </trkpt>
      <trkpt lat="48.28405" lon="2.59733">
        <ele>75</ele>
        <time>2023-07-27T08:19:34.807+00:00</time>
      </trkpt>
      <trkpt lat="48.28405" lon="2.59728">
        <ele>75</ele>
        <time>2023-07-27T08:19:39.319+00:00</time>
      </trkpt>
      <trkpt lat="48.28408" lon="2.59721">
        <ele>75</ele>
        <time>2023-07-27T08:19:43.832+00:00</time>
      </trkpt>
      <trkpt lat="48.28409" lon="2.59711">
        <ele>75</ele>
        <time>2023-07-27T08:19:48.442+00:00</time>
      </trkpt>
      <trkpt lat="48.28407" lon="2.59708">
        <ele>76</ele>
        <time>2023-07-27T08:19:52.968+00:00</time>
      </trkpt>
      <trkpt lat="48.28406" lon="2.59704">
        <ele>76</ele>
        <time>2023-07-27T08:19:57.479+00:00</time>
      </trkpt>
      <trkpt lat="48.28405" lon="2.59695">
        <ele>76</ele>
        <time>2023-07-27T08:20:01.504+00:00</time>
      </trkpt>
      <trkpt lat="48.28406" lon="2.59687">
        <ele>76</ele>
        <time>2023-07-27T08:20:05.513+00:00</time>
      </trkpt>
      <trkpt lat="48.28407" lon="2.59677">
        <ele>78</ele>
        <time>2023-07-27T08:20:10.022+00:00</time>
      </trkpt>
      <trkpt lat="48.28407" lon="2.59672">
        <ele>78</ele>
        <time>2023-07-27T08:20:14.526+00:00</time>
      </trkpt>
      <trkpt lat="48.28401" lon="2.59672">
        <ele>80</ele>
        <time>2023-07-27T08:20:18.808+00:00</time>
      </trkpt>
      <trkpt lat="48.28394" lon="2.59672">
        <ele>80</ele>
        <time>2023-07-27T08:20:22.685+00:00</time>
      </trkpt>
      <trkpt lat="48.28387" lon="2.59678">
        <ele>80</ele>
        <time>2023-07-27T08:20:27.126+00:00</time>
      </trkpt>
      <trkpt lat="48.28382" lon="2.59681">
        <ele>77</ele>
        <time>2023-07-27T08:20:31.525+00:00</time>
      </trkpt>
      <trkpt lat="48.28379" lon="2.59686">
        <ele>77</ele>
        <time>2023-07-27T08:20:35.869+00:00</time>
      </trkpt>
      <trkpt lat="48.2838" lon="2.59684">
        <ele>77</ele>
        <time>2023-07-27T08:20:39.880+00:00</time>
      </trkpt>
      <trkpt lat="48.28384" lon="2.59683">
        <ele>77</ele>
        <time>2023-07-27T08:20:44.958+00:00</time>
      </trkpt>
      <trkpt lat="48.28383" lon="2.59689">
        <ele>77</ele>
        <time>2023-07-27T08:20:49.949+00:00</time>
      </trkpt>
      <trkpt lat="48.28385" lon="2.59694">
        <ele>77</ele>
        <time>2023-07-27T08:20:53.920+00:00</time>
      </trkpt>
      <trkpt lat="48.28382" lon="2.59699">
        <ele>77</ele>
        <time>2023-07-27T08:20:58.524+00:00</time>
      </trkpt>
      <trkpt lat="48.28379" lon="2.59695">
        <ele>77</ele>
        <time>2023-07-27T08:21:37.619+00:00</time>
      </trkpt>
      <trkpt lat="48.28378" lon="2.59698">
        <ele>77</ele>
        <time>2023-07-27T08:21:41.963+00:00</time>
      </trkpt>
      <trkpt lat="48.28378" lon="2.59696">
        <ele>77</ele>
        <time>2023-07-27T08:21:46.982+00:00</time>
      </trkpt>
      <trkpt lat="48.28379" lon="2.59687">
        <ele>77</ele>
        <time>2023-07-27T08:21:51.132+00:00</time>
      </trkpt>
      <trkpt lat="48.28379" lon="2.59678">
        <ele>80</ele>
        <time>2023-07-27T08:21:55.636+00:00</time>
      </trkpt>
      <trkpt lat="48.2838" lon="2.59669">
        <ele>80</ele>
        <time>2023-07-27T08:21:59.639+00:00</time>
      </trkpt>
      <trkpt lat="48.28381" lon="2.59663">
        <ele>80</ele>
        <time>2023-07-27T08:22:04.020+00:00</time>
      </trkpt>
      <trkpt lat="48.28382" lon="2.59654">
        <ele>80</ele>
        <time>2023-07-27T08:22:08.184+00:00</time>
      </trkpt>
      <trkpt lat="48.28381" lon="2.59646">
        <ele>82</ele>
        <time>2023-07-27T08:22:12.884+00:00</time>
      </trkpt>
      <trkpt lat="48.2838" lon="2.59638">
        <ele>82</ele>
        <time>2023-07-27T08:22:17.225+00:00</time>
      </trkpt>
      <trkpt lat="48.28384" lon="2.5963">
        <ele>82</ele>
        <time>2023-07-27T08:22:21.308+00:00</time>
      </trkpt>
      <trkpt lat="48.28386" lon="2.59622">
        <ele>83</ele>
        <time>2023-07-27T08:22:26.710+00:00</time>
      </trkpt>
      <trkpt lat="48.28389" lon="2.59613">
        <ele>83</ele>
        <time>2023-07-27T08:22:31.189+00:00</time>
      </trkpt>
      <trkpt lat="48.2839" lon="2.59605">
        <ele>83</ele>
        <time>2023-07-27T08:22:35.806+00:00</time>
      </trkpt>
      <trkpt lat="48.28393" lon="2.596">
        <ele>83</ele>
        <time>2023-07-27T08:22:40.359+00:00</time>
      </trkpt>
      <trkpt lat="48.28396" lon="2.59594">
        <ele>82</ele>
        <time>2023-07-27T08:22:44.645+00:00</time>
      </trkpt>
      <trkpt lat="48.28399" lon="2.59588">
        <ele>82</ele>
        <time>2023-07-27T08:22:48.966+00:00</time>
      </trkpt>
      <trkpt lat="48.28402" lon="2.59582">
        <ele>82</ele>
        <time>2023-07-27T08:22:53.925+00:00</time>
      </trkpt>
      <trkpt lat="48.28406" lon="2.59578">
        <ele>80</ele>
        <time>2023-07-27T08:22:58.325+00:00</time>
      </trkpt>
      <trkpt lat="48.28408" lon="2.5957">
        <ele>80</ele>
        <time>2023-07-27T08:23:02.344+00:00</time>
      </trkpt>
      <trkpt lat="48.2841" lon="2.59563">
        <ele>81</ele>
        <time>2023-07-27T08:23:06.740+00:00</time>
      </trkpt>
      <trkpt lat="48.28409" lon="2.59558">
        <ele>81</ele>
        <time>2023-07-27T08:23:11.177+00:00</time>
      </trkpt>
      <trkpt lat="48.28406" lon="2.59554">
        <ele>81</ele>
        <time>2023-07-27T08:23:15.695+00:00</time>
      </trkpt>
      <trkpt lat="48.28401" lon="2.59548">
        <ele>81</ele>
        <time>2023-07-27T08:23:20.844+00:00</time>
      </trkpt>
      <trkpt lat="48.28396" lon="2.59538">
        <ele>80</ele>
        <time>2023-07-27T08:23:24.941+00:00</time>
      </trkpt>
      <trkpt lat="48.28395" lon="2.59523">
        <ele>80</ele>
        <time>2023-07-27T08:23:29.552+00:00</time>
      </trkpt>
      <trkpt lat="48.28394" lon="2.59514">
        <ele>80</ele>
        <time>2023-07-27T08:23:34.058+00:00</time>
      </trkpt>
      <trkpt lat="48.28394" lon="2.59507">
        <ele>80</ele>
        <time>2023-07-27T08:23:38.567+00:00</time>
      </trkpt>
      <trkpt lat="48.28392" lon="2.595">
        <ele>80</ele>
        <time>2023-07-27T08:23:42.576+00:00</time>
      </trkpt>
      <trkpt lat="48.28395" lon="2.59492">
        <ele>80</ele>
        <time>2023-07-27T08:23:47.087+00:00</time>
      </trkpt>
      <trkpt lat="48.28398" lon="2.59485">
        <ele>80</ele>
        <time>2023-07-27T08:23:51.195+00:00</time>
      </trkpt>
      <trkpt lat="48.28401" lon="2.59479">
        <ele>80</ele>
        <time>2023-07-27T08:23:55.702+00:00</time>
      </trkpt>
      <trkpt lat="48.28402" lon="2.59477">
        <ele>80</ele>
        <time>2023-07-27T08:23:59.811+00:00</time>
      </trkpt>
      <trkpt lat="48.28401" lon="2.5947">
        <ele>80</ele>
        <time>2023-07-27T08:24:22.060+00:00</time>
      </trkpt>
      <trkpt lat="48.28403" lon="2.59479">
        <ele>80</ele>
        <time>2023-07-27T08:24:26.573+00:00</time>
      </trkpt>
      <trkpt lat="48.28409" lon="2.59484">
        <ele>79</ele>
        <time>2023-07-27T08:24:31.081+00:00</time>
      </trkpt>
      <trkpt lat="48.28414" lon="2.59492">
        <ele>80</ele>
        <time>2023-07-27T08:24:35.686+00:00</time>
      </trkpt>
      <trkpt lat="48.2842" lon="2.59496">
        <ele>80</ele>
        <time>2023-07-27T08:24:40.707+00:00</time>
      </trkpt>
      <trkpt lat="48.2843" lon="2.59503">
        <ele>80</ele>
        <time>2023-07-27T08:24:48.718+00:00</time>
      </trkpt>
      <trkpt lat="48.28431" lon="2.59501">
        <ele>79</ele>
        <time>2023-07-27T08:24:53.722+00:00</time>
      </trkpt>
      <trkpt lat="48.28431" lon="2.595">
        <ele>79</ele>
        <time>2023-07-27T08:24:58.745+00:00</time>
      </trkpt>
      <trkpt lat="48.28432" lon="2.595">
        <ele>79</ele>
        <time>2023-07-27T08:25:03.287+00:00</time>
      </trkpt>
      <trkpt lat="48.28436" lon="2.59508">
        <ele>79</ele>
        <time>2023-07-27T08:25:07.969+00:00</time>
      </trkpt>
      <trkpt lat="48.2844" lon="2.59513">
        <ele>79</ele>
        <time>2023-07-27T08:25:12.150+00:00</time>
      </trkpt>
      <trkpt lat="48.28446" lon="2.59518">
        <ele>80</ele>
        <time>2023-07-27T08:25:16.772+00:00</time>
      </trkpt>
      <trkpt lat="48.28452" lon="2.59523">
        <ele>80</ele>
        <time>2023-07-27T08:25:21.274+00:00</time>
      </trkpt>
      <trkpt lat="48.28458" lon="2.59525">
        <ele>78</ele>
        <time>2023-07-27T08:25:25.877+00:00</time>
      </trkpt>
      <trkpt lat="48.28463" lon="2.59529">
        <ele>78</ele>
        <time>2023-07-27T08:25:30.198+00:00</time>
      </trkpt>
      <trkpt lat="48.28467" lon="2.59533">
        <ele>78</ele>
        <time>2023-07-27T08:25:34.559+00:00</time>
      </trkpt>
      <trkpt lat="48.28473" lon="2.59537">
        <ele>78</ele>
        <time>2023-07-27T08:25:38.379+00:00</time>
      </trkpt>
      <trkpt lat="48.28478" lon="2.59543">
        <ele>79</ele>
        <time>2023-07-27T08:25:43.159+00:00</time>
      </trkpt>
      <trkpt lat="48.28482" lon="2.59548">
        <ele>79</ele>
        <time>2023-07-27T08:25:47.419+00:00</time>
      </trkpt>
      <trkpt lat="48.28486" lon="2.59552">
        <ele>76</ele>
        <time>2023-07-27T08:25:51.830+00:00</time>
      </trkpt>
      <trkpt lat="48.28487" lon="2.59555">
        <ele>76</ele>
        <time>2023-07-27T08:25:55.933+00:00</time>
      </trkpt>
      <trkpt lat="48.28489" lon="2.59557">
        <ele>76</ele>
        <time>2023-07-27T08:26:00.045+00:00</time>
      </trkpt>
      <trkpt lat="48.28493" lon="2.59556">
        <ele>76</ele>
        <time>2023-07-27T08:26:04.557+00:00</time>
      </trkpt>
      <trkpt lat="48.28495" lon="2.59548">
        <ele>76</ele>
        <time>2023-07-27T08:26:09.069+00:00</time>
      </trkpt>
      <trkpt lat="48.28496" lon="2.5954">
        <ele>76</ele>
        <time>2023-07-27T08:26:13.073+00:00</time>
      </trkpt>
      <trkpt lat="48.28498" lon="2.59531">
        <ele>76</ele>
        <time>2023-07-27T08:26:17.577+00:00</time>
      </trkpt>
      <trkpt lat="48.28502" lon="2.59527">
        <ele>76</ele>
        <time>2023-07-27T08:26:21.580+00:00</time>
      </trkpt>
      <trkpt lat="48.28507" lon="2.59518">
        <ele>76</ele>
        <time>2023-07-27T08:26:26.874+00:00</time>
      </trkpt>
      <trkpt lat="48.2851" lon="2.5951">
        <ele>75</ele>
        <time>2023-07-27T08:26:30.976+00:00</time>
      </trkpt>
      <trkpt lat="48.28513" lon="2.59502">
        <ele>75</ele>
        <time>2023-07-27T08:26:35.277+00:00</time>
      </trkpt>
      <trkpt lat="48.28515" lon="2.59494">
        <ele>75</ele>
        <time>2023-07-27T08:26:39.779+00:00</time>
      </trkpt>
      <trkpt lat="48.2852" lon="2.59491">
        <ele>75</ele>
        <time>2023-07-27T08:26:44.139+00:00</time>
      </trkpt>
      <trkpt lat="48.28523" lon="2.59481">
        <ele>74</ele>
        <time>2023-07-27T08:26:48.439+00:00</time>
      </trkpt>
      <trkpt lat="48.28526" lon="2.59473">
        <ele>74</ele>
        <time>2023-07-27T08:26:52.980+00:00</time>
      </trkpt>
      <trkpt lat="48.28529" lon="2.59465">
        <ele>74</ele>
        <time>2023-07-27T08:26:57.181+00:00</time>
      </trkpt>
      <trkpt lat="48.28531" lon="2.59457">
        <ele>75</ele>
        <time>2023-07-27T08:27:01.943+00:00</time>
      </trkpt>
      <trkpt lat="48.28535" lon="2.5945">
        <ele>75</ele>
        <time>2023-07-27T08:27:06.184+00:00</time>
      </trkpt>
      <trkpt lat="48.28539" lon="2.59442">
        <ele>75</ele>
        <time>2023-07-27T08:27:10.523+00:00</time>
      </trkpt>
      <trkpt lat="48.28541" lon="2.59433">
        <ele>75</ele>
        <time>2023-07-27T08:27:14.962+00:00</time>
      </trkpt>
      <trkpt lat="48.28544" lon="2.59427">
        <ele>74</ele>
        <time>2023-07-27T08:27:19.120+00:00</time>
      </trkpt>
      <trkpt lat="48.28545" lon="2.59421">
        <ele>74</ele>
        <time>2023-07-27T08:27:23.509+00:00</time>
      </trkpt>
      <trkpt lat="48.28547" lon="2.59414">
        <ele>74</ele>
        <time>2023-07-27T08:27:27.473+00:00</time>
      </trkpt>
      <trkpt lat="48.2855" lon="2.59406">
        <ele>74</ele>
        <time>2023-07-27T08:27:32.032+00:00</time>
      </trkpt>
      <trkpt lat="48.28553" lon="2.594">
        <ele>75</ele>
        <time>2023-07-27T08:27:36.349+00:00</time>
      </trkpt>
      <trkpt lat="48.28558" lon="2.59393">
        <ele>75</ele>
        <time>2023-07-27T08:27:40.705+00:00</time>
      </trkpt>
      <trkpt lat="48.28562" lon="2.59388">
        <ele>75</ele>
        <time>2023-07-27T08:27:45.007+00:00</time>
      </trkpt>
      <trkpt lat="48.28567" lon="2.59383">
        <ele>75</ele>
        <time>2023-07-27T08:27:49.336+00:00</time>
      </trkpt>
      <trkpt lat="48.28571" lon="2.59376">
        <ele>74</ele>
        <time>2023-07-27T08:27:53.846+00:00</time>
      </trkpt>
      <trkpt lat="48.28574" lon="2.5937">
        <ele>75</ele>
        <time>2023-07-27T08:27:58.164+00:00</time>
      </trkpt>
      <trkpt lat="48.28577" lon="2.59364">
        <ele>75</ele>
        <time>2023-07-27T08:28:02.145+00:00</time>
      </trkpt>
      <trkpt lat="48.28582" lon="2.59358">
        <ele>75</ele>
        <time>2023-07-27T08:28:06.762+00:00</time>
      </trkpt>
      <trkpt lat="48.28586" lon="2.59353">
        <ele>75</ele>
        <time>2023-07-27T08:28:10.960+00:00</time>
      </trkpt>
      <trkpt lat="48.28588" lon="2.59345">
        <ele>75</ele>
        <time>2023-07-27T08:28:15.351+00:00</time>
      </trkpt>
      <trkpt lat="48.28592" lon="2.59338">
        <ele>75</ele>
        <time>2023-07-27T08:28:19.651+00:00</time>
      </trkpt>
      <trkpt lat="48.28594" lon="2.5933">
        <ele>75</ele>
        <time>2023-07-27T08:28:24.007+00:00</time>
      </trkpt>
      <trkpt lat="48.28597" lon="2.59323">
        <ele>75</ele>
        <time>2023-07-27T08:28:28.090+00:00</time>
      </trkpt>
      <trkpt lat="48.28599" lon="2.59315">
        <ele>77</ele>
        <time>2023-07-27T08:28:32.629+00:00</time>
      </trkpt>
      <trkpt lat="48.28604" lon="2.59311">
        <ele>77</ele>
        <time>2023-07-27T08:28:36.948+00:00</time>
      </trkpt>
      <trkpt lat="48.28608" lon="2.59306">
        <ele>77</ele>
        <time>2023-07-27T08:28:41.505+00:00</time>
      </trkpt>
      <trkpt lat="48.2861" lon="2.59299">
        <ele>77</ele>
        <time>2023-07-27T08:28:46.187+00:00</time>
      </trkpt>
      <trkpt lat="48.28613" lon="2.59294">
        <ele>77</ele>
        <time>2023-07-27T08:28:50.139+00:00</time>
      </trkpt>
      <trkpt lat="48.28615" lon="2.59285">
        <ele>76</ele>
        <time>2023-07-27T08:28:54.649+00:00</time>
      </trkpt>
      <trkpt lat="48.28616" lon="2.59265">
        <ele>76</ele>
        <time>2023-07-27T08:29:13.468+00:00</time>
      </trkpt>
      <trkpt lat="48.28616" lon="2.59262">
        <ele>76</ele>
        <time>2023-07-27T08:29:17.480+00:00</time>
      </trkpt>
      <trkpt lat="48.28619" lon="2.59259">
        <ele>76</ele>
        <time>2023-07-27T08:29:21.591+00:00</time>
      </trkpt>
      <trkpt lat="48.28619" lon="2.59258">
        <ele>76</ele>
        <time>2023-07-27T08:29:26.604+00:00</time>
      </trkpt>
      <trkpt lat="48.28618" lon="2.59256">
        <ele>76</ele>
        <time>2023-07-27T08:29:31.722+00:00</time>
      </trkpt>
      <trkpt lat="48.28618" lon="2.59255">
        <ele>76</ele>
        <time>2023-07-27T08:29:35.736+00:00</time>
      </trkpt>
      <trkpt lat="48.2862" lon="2.59256">
        <ele>76</ele>
        <time>2023-07-27T08:29:40.753+00:00</time>
      </trkpt>
      <trkpt lat="48.28621" lon="2.59256">
        <ele>76</ele>
        <time>2023-07-27T08:29:44.764+00:00</time>
      </trkpt>
      <trkpt lat="48.28625" lon="2.59253">
        <ele>76</ele>
        <time>2023-07-27T08:29:48.872+00:00</time>
      </trkpt>
      <trkpt lat="48.28628" lon="2.59244">
        <ele>77</ele>
        <time>2023-07-27T08:29:53.882+00:00</time>
      </trkpt>
      <trkpt lat="48.28632" lon="2.59232">
        <ele>77</ele>
        <time>2023-07-27T08:30:11.660+00:00</time>
      </trkpt>
      <trkpt lat="48.28632" lon="2.5923">
        <ele>77</ele>
        <time>2023-07-27T08:30:15.680+00:00</time>
      </trkpt>
      <trkpt lat="48.28635" lon="2.5922">
        <ele>77</ele>
        <time>2023-07-27T08:30:20.205+00:00</time>
      </trkpt>
      <trkpt lat="48.28639" lon="2.59209">
        <ele>77</ele>
        <time>2023-07-27T08:30:24.966+00:00</time>
      </trkpt>
      <trkpt lat="48.28644" lon="2.59205">
        <ele>79</ele>
        <time>2023-07-27T08:30:29.465+00:00</time>
      </trkpt>
      <trkpt lat="48.28644" lon="2.59199">
        <ele>79</ele>
        <time>2023-07-27T08:30:37.924+00:00</time>
      </trkpt>
      <trkpt lat="48.28645" lon="2.59197">
        <ele>79</ele>
        <time>2023-07-27T08:30:42.303+00:00</time>
      </trkpt>
      <trkpt lat="48.28648" lon="2.59193">
        <ele>79</ele>
        <time>2023-07-27T08:30:46.808+00:00</time>
      </trkpt>
      <trkpt lat="48.28651" lon="2.59189">
        <ele>79</ele>
        <time>2023-07-27T08:30:50.851+00:00</time>
      </trkpt>
      <trkpt lat="48.2865" lon="2.59186">
        <ele>79</ele>
        <time>2023-07-27T08:30:55.964+00:00</time>
      </trkpt>
      <trkpt lat="48.28655" lon="2.59174">
        <ele>82</ele>
        <time>2023-07-27T08:31:13.767+00:00</time>
      </trkpt>
      <trkpt lat="48.28656" lon="2.59171">
        <ele>82</ele>
        <time>2023-07-27T08:31:17.770+00:00</time>
      </trkpt>
      <trkpt lat="48.28657" lon="2.59171">
        <ele>82</ele>
        <time>2023-07-27T08:31:24.814+00:00</time>
      </trkpt>
      <trkpt lat="48.28662" lon="2.59165">
        <ele>82</ele>
        <time>2023-07-27T08:31:28.823+00:00</time>
      </trkpt>
      <trkpt lat="48.28664" lon="2.59156">
        <ele>82</ele>
        <time>2023-07-27T08:31:32.827+00:00</time>
      </trkpt>
      <trkpt lat="48.28669" lon="2.5916">
        <ele>82</ele>
        <time>2023-07-27T08:32:43.006+00:00</time>
      </trkpt>
      <trkpt lat="48.28668" lon="2.59162">
        <ele>82</ele>
        <time>2023-07-27T08:32:47.316+00:00</time>
      </trkpt>
      <trkpt lat="48.28664" lon="2.59161">
        <ele>82</ele>
        <time>2023-07-27T08:32:51.511+00:00</time>
      </trkpt>
      <trkpt lat="48.28669" lon="2.59146">
        <ele>82</ele>
        <time>2023-07-27T08:32:55.980+00:00</time>
      </trkpt>
      <trkpt lat="48.28672" lon="2.59134">
        <ele>82</ele>
        <time>2023-07-27T08:33:00.720+00:00</time>
      </trkpt>
      <trkpt lat="48.28676" lon="2.5912">
        <ele>82</ele>
        <time>2023-07-27T08:33:07.736+00:00</time>
      </trkpt>
      <trkpt lat="48.28678" lon="2.59109">
        <ele>82</ele>
        <time>2023-07-27T08:33:12.303+00:00</time>
      </trkpt>
      <trkpt lat="48.2868" lon="2.59101">
        <ele>82</ele>
        <time>2023-07-27T08:33:16.325+00:00</time>
      </trkpt>
      <trkpt lat="48.28681" lon="2.59095">
        <ele>86</ele>
        <time>2023-07-27T08:33:20.877+00:00</time>
      </trkpt>
      <trkpt lat="48.28685" lon="2.59085">
        <ele>86</ele>
        <time>2023-07-27T08:33:25.550+00:00</time>
      </trkpt>
      <trkpt lat="48.28687" lon="2.59079">
        <ele>86</ele>
        <time>2023-07-27T08:33:29.940+00:00</time>
      </trkpt>
      <trkpt lat="48.28691" lon="2.59077">
        <ele>86</ele>
        <time>2023-07-27T08:33:33.864+00:00</time>
      </trkpt>
      <trkpt lat="48.28691" lon="2.59067">
        <ele>87</ele>
        <time>2023-07-27T08:33:38.690+00:00</time>
      </trkpt>
      <trkpt lat="48.28692" lon="2.5906">
        <ele>87</ele>
        <time>2023-07-27T08:33:42.725+00:00</time>
      </trkpt>
      <trkpt lat="48.28696" lon="2.59052">
        <ele>87</ele>
        <time>2023-07-27T08:33:47.587+00:00</time>
      </trkpt>
      <trkpt lat="48.28701" lon="2.59044">
        <ele>87</ele>
        <time>2023-07-27T08:33:51.565+00:00</time>
      </trkpt>
      <trkpt lat="48.28704" lon="2.59037">
        <ele>88</ele>
        <time>2023-07-27T08:33:55.517+00:00</time>
      </trkpt>
      <trkpt lat="48.28707" lon="2.59029">
        <ele>88</ele>
        <time>2023-07-27T08:33:59.492+00:00</time>
      </trkpt>
      <trkpt lat="48.28708" lon="2.59021">
        <ele>88</ele>
        <time>2023-07-27T08:34:04.148+00:00</time>
      </trkpt>
      <trkpt lat="48.28711" lon="2.59017">
        <ele>90</ele>
        <time>2023-07-27T08:34:08.600+00:00</time>
      </trkpt>
      <trkpt lat="48.28717" lon="2.59011">
        <ele>92</ele>
        <time>2023-07-27T08:34:13.152+00:00</time>
      </trkpt>
      <trkpt lat="48.2872" lon="2.59">
        <ele>92</ele>
        <time>2023-07-27T08:34:17.726+00:00</time>
      </trkpt>
      <trkpt lat="48.2872" lon="2.58994">
        <ele>92</ele>
        <time>2023-07-27T08:34:21.739+00:00</time>
      </trkpt>
      <trkpt lat="48.28722" lon="2.58986">
        <ele>95</ele>
        <time>2023-07-27T08:34:25.931+00:00</time>
      </trkpt>
      <trkpt lat="48.28724" lon="2.58984">
        <ele>95</ele>
        <time>2023-07-27T08:34:30.124+00:00</time>
      </trkpt>
      <trkpt lat="48.28727" lon="2.58981">
        <ele>95</ele>
        <time>2023-07-27T08:34:34.318+00:00</time>
      </trkpt>
      <trkpt lat="48.28733" lon="2.5898">
        <ele>95</ele>
        <time>2023-07-27T08:34:38.955+00:00</time>
      </trkpt>
      <trkpt lat="48.28738" lon="2.58977">
        <ele>97</ele>
        <time>2023-07-27T08:34:43.359+00:00</time>
      </trkpt>
      <trkpt lat="48.28741" lon="2.58971">
        <ele>97</ele>
        <time>2023-07-27T08:34:47.500+00:00</time>
      </trkpt>
      <trkpt lat="48.28742" lon="2.58966">
        <ele>97</ele>
        <time>2023-07-27T08:34:51.850+00:00</time>
      </trkpt>
      <trkpt lat="48.28745" lon="2.58961">
        <ele>97</ele>
        <time>2023-07-27T08:34:56.333+00:00</time>
      </trkpt>
      <trkpt lat="48.28751" lon="2.58958">
        <ele>101</ele>
        <time>2023-07-27T08:35:00.970+00:00</time>
      </trkpt>
      <trkpt lat="48.28755" lon="2.58953">
        <ele>101</ele>
        <time>2023-07-27T08:35:04.960+00:00</time>
      </trkpt>
      <trkpt lat="48.28759" lon="2.58949">
        <ele>101</ele>
        <time>2023-07-27T08:35:09.121+00:00</time>
      </trkpt>
      <trkpt lat="48.28764" lon="2.58944">
        <ele>101</ele>
        <time>2023-07-27T08:35:13.209+00:00</time>
      </trkpt>
      <trkpt lat="48.28768" lon="2.5894">
        <ele>105</ele>
        <time>2023-07-27T08:35:17.252+00:00</time>
      </trkpt>
      <trkpt lat="48.28771" lon="2.58936">
        <ele>105</ele>
        <time>2023-07-27T08:35:21.326+00:00</time>
      </trkpt>
      <trkpt lat="48.28774" lon="2.58935">
        <ele>105</ele>
        <time>2023-07-27T08:35:25.879+00:00</time>
      </trkpt>
      <trkpt lat="48.28778" lon="2.58932">
        <ele>105</ele>
        <time>2023-07-27T08:35:30.072+00:00</time>
      </trkpt>
      <trkpt lat="48.28782" lon="2.58928">
        <ele>107</ele>
        <time>2023-07-27T08:35:34.866+00:00</time>
      </trkpt>
      <trkpt lat="48.28785" lon="2.58922">
        <ele>107</ele>
        <time>2023-07-27T08:35:39.538+00:00</time>
      </trkpt>
      <trkpt lat="48.28789" lon="2.58918">
        <ele>107</ele>
        <time>2023-07-27T08:35:43.492+00:00</time>
      </trkpt>
      <trkpt lat="48.28793" lon="2.58916">
        <ele>109</ele>
        <time>2023-07-27T08:35:47.565+00:00</time>
      </trkpt>
      <trkpt lat="48.28798" lon="2.58913">
        <ele>109</ele>
        <time>2023-07-27T08:35:51.759+00:00</time>
      </trkpt>
      <trkpt lat="48.28801" lon="2.58908">
        <ele>109</ele>
        <time>2023-07-27T08:35:55.953+00:00</time>
      </trkpt>
      <trkpt lat="48.28805" lon="2.58903">
        <ele>109</ele>
        <time>2023-07-27T08:36:00.731+00:00</time>
      </trkpt>
      <trkpt lat="48.28809" lon="2.58901">
        <ele>110</ele>
        <time>2023-07-27T08:36:04.700+00:00</time>
      </trkpt>
      <trkpt lat="48.28812" lon="2.58899">
        <ele>110</ele>
        <time>2023-07-27T08:36:08.908+00:00</time>
      </trkpt>
      <trkpt lat="48.28814" lon="2.58897">
        <ele>110</ele>
        <time>2023-07-27T08:36:13.088+00:00</time>
      </trkpt>
      <trkpt lat="48.28816" lon="2.58895">
        <ele>110</ele>
        <time>2023-07-27T08:36:17.161+00:00</time>
      </trkpt>
      <trkpt lat="48.28821" lon="2.58893">
        <ele>112</ele>
        <time>2023-07-27T08:36:21.535+00:00</time>
      </trkpt>
      <trkpt lat="48.28824" lon="2.58891">
        <ele>112</ele>
        <time>2023-07-27T08:36:26.169+00:00</time>
      </trkpt>
      <trkpt lat="48.28824" lon="2.58891">
        <ele>112</ele>
        <time>2023-07-27T08:36:30.962+00:00</time>
      </trkpt>
      <trkpt lat="48.28828" lon="2.58889">
        <ele>112</ele>
        <time>2023-07-27T08:36:35.155+00:00</time>
      </trkpt>
      <trkpt lat="48.28833" lon="2.5889">
        <ele>112</ele>
        <time>2023-07-27T08:36:39.312+00:00</time>
      </trkpt>
      <trkpt lat="48.28837" lon="2.5889">
        <ele>112</ele>
        <time>2023-07-27T08:36:43.783+00:00</time>
      </trkpt>
      <trkpt lat="48.28842" lon="2.5889">
        <ele>112</ele>
        <time>2023-07-27T08:36:48.416+00:00</time>
      </trkpt>
      <trkpt lat="48.28847" lon="2.58889">
        <ele>112</ele>
        <time>2023-07-27T08:36:52.950+00:00</time>
      </trkpt>
      <trkpt lat="48.28851" lon="2.5889">
        <ele>114</ele>
        <time>2023-07-27T08:36:56.545+00:00</time>
      </trkpt>
      <trkpt lat="48.28855" lon="2.58891">
        <ele>114</ele>
        <time>2023-07-27T08:37:01.099+00:00</time>
      </trkpt>
      <trkpt lat="48.28858" lon="2.58892">
        <ele>114</ele>
        <time>2023-07-27T08:37:05.292+00:00</time>
      </trkpt>
      <trkpt lat="48.28862" lon="2.58892">
        <ele>114</ele>
        <time>2023-07-27T08:37:09.486+00:00</time>
      </trkpt>
      <trkpt lat="48.28866" lon="2.58891">
        <ele>114</ele>
        <time>2023-07-27T08:37:13.560+00:00</time>
      </trkpt>
      <trkpt lat="48.28869" lon="2.5889">
        <ele>114</ele>
        <time>2023-07-27T08:37:17.514+00:00</time>
      </trkpt>
      <trkpt lat="48.28872" lon="2.5889">
        <ele>114</ele>
        <time>2023-07-27T08:37:21.972+00:00</time>
      </trkpt>
      <trkpt lat="48.28876" lon="2.5889">
        <ele>117</ele>
        <time>2023-07-27T08:37:26.701+00:00</time>
      </trkpt>
      <trkpt lat="48.2888" lon="2.58891">
        <ele>117</ele>
        <time>2023-07-27T08:37:30.894+00:00</time>
      </trkpt>
      <trkpt lat="48.28884" lon="2.58891">
        <ele>117</ele>
        <time>2023-07-27T08:37:35.566+00:00</time>
      </trkpt>
      <trkpt lat="48.28888" lon="2.58892">
        <ele>117</ele>
        <time>2023-07-27T08:37:40.119+00:00</time>
      </trkpt>
      <trkpt lat="48.28891" lon="2.58894">
        <ele>117</ele>
        <time>2023-07-27T08:37:44.153+00:00</time>
      </trkpt>
      <trkpt lat="48.28899" lon="2.58889">
        <ele>117</ele>
        <time>2023-07-27T08:37:52.962+00:00</time>
      </trkpt>
      <trkpt lat="48.28901" lon="2.58891">
        <ele>117</ele>
        <time>2023-07-27T08:37:57.759+00:00</time>
      </trkpt>
      <trkpt lat="48.28901" lon="2.58891">
        <ele>117</ele>
        <time>2023-07-27T08:38:02.549+00:00</time>
      </trkpt>
      <trkpt lat="48.28903" lon="2.58896">
        <ele>120</ele>
        <time>2023-07-27T08:38:06.491+00:00</time>
      </trkpt>
      <trkpt lat="48.28904" lon="2.58904">
        <ele>120</ele>
        <time>2023-07-27T08:38:10.526+00:00</time>
      </trkpt>
      <trkpt lat="48.28905" lon="2.58914">
        <ele>120</ele>
        <time>2023-07-27T08:38:15.320+00:00</time>
      </trkpt>
      <trkpt lat="48.28903" lon="2.58922">
        <ele>120</ele>
        <time>2023-07-27T08:38:19.974+00:00</time>
      </trkpt>
      <trkpt lat="48.28902" lon="2.58931">
        <ele>116</ele>
        <time>2023-07-27T08:38:24.409+00:00</time>
      </trkpt>
      <trkpt lat="48.28901" lon="2.58938">
        <ele>116</ele>
        <time>2023-07-27T08:38:28.359+00:00</time>
      </trkpt>
      <trkpt lat="48.28903" lon="2.58945">
        <ele>119</ele>
        <time>2023-07-27T08:38:32.916+00:00</time>
      </trkpt>
      <trkpt lat="48.28906" lon="2.58952">
        <ele>119</ele>
        <time>2023-07-27T08:38:37.349+00:00</time>
      </trkpt>
      <trkpt lat="48.28908" lon="2.58959">
        <ele>117</ele>
        <time>2023-07-27T08:38:41.543+00:00</time>
      </trkpt>
      <trkpt lat="48.2891" lon="2.58967">
        <ele>117</ele>
        <time>2023-07-27T08:38:46.248+00:00</time>
      </trkpt>
      <trkpt lat="48.28913" lon="2.58976">
        <ele>117</ele>
        <time>2023-07-27T08:38:50.527+00:00</time>
      </trkpt>
      <trkpt lat="48.28917" lon="2.58981">
        <ele>117</ele>
        <time>2023-07-27T08:38:55+00:00</time>
      </trkpt>
      <trkpt lat="48.2892" lon="2.58989">
        <ele>116</ele>
        <time>2023-07-27T08:38:59.554+00:00</time>
      </trkpt>
      <trkpt lat="48.28923" lon="2.58996">
        <ele>116</ele>
        <time>2023-07-27T08:39:04.108+00:00</time>
      </trkpt>
      <trkpt lat="48.28926" lon="2.59002">
        <ele>116</ele>
        <time>2023-07-27T08:39:08.204+00:00</time>
      </trkpt>
      <trkpt lat="48.2893" lon="2.59008">
        <ele>116</ele>
        <time>2023-07-27T08:39:12.555+00:00</time>
      </trkpt>
      <trkpt lat="48.28935" lon="2.59013">
        <ele>118</ele>
        <time>2023-07-27T08:39:17.306+00:00</time>
      </trkpt>
      <trkpt lat="48.2894" lon="2.59017">
        <ele>116</ele>
        <time>2023-07-27T08:39:21.860+00:00</time>
      </trkpt>
      <trkpt lat="48.28944" lon="2.59022">
        <ele>116</ele>
        <time>2023-07-27T08:39:25.934+00:00</time>
      </trkpt>
      <trkpt lat="48.28949" lon="2.59025">
        <ele>116</ele>
        <time>2023-07-27T08:39:30.566+00:00</time>
      </trkpt>
      <trkpt lat="48.28955" lon="2.59027">
        <ele>116</ele>
        <time>2023-07-27T08:39:35.097+00:00</time>
      </trkpt>
      <trkpt lat="48.28959" lon="2.5903">
        <ele>118</ele>
        <time>2023-07-27T08:39:39.150+00:00</time>
      </trkpt>
      <trkpt lat="48.28963" lon="2.59035">
        <ele>118</ele>
        <time>2023-07-27T08:39:43.323+00:00</time>
      </trkpt>
      <trkpt lat="48.28967" lon="2.59039">
        <ele>118</ele>
        <time>2023-07-27T08:39:47.291+00:00</time>
      </trkpt>
      <trkpt lat="48.28971" lon="2.59042">
        <ele>118</ele>
        <time>2023-07-27T08:39:51.483+00:00</time>
      </trkpt>
      <trkpt lat="48.28972" lon="2.59041">
        <ele>118</ele>
        <time>2023-07-27T08:39:56.154+00:00</time>
      </trkpt>
      <trkpt lat="48.28973" lon="2.59039">
        <ele>118</ele>
        <time>2023-07-27T08:40:00.287+00:00</time>
      </trkpt>
      <trkpt lat="48.28974" lon="2.59032">
        <ele>118</ele>
        <time>2023-07-27T08:40:04.840+00:00</time>
      </trkpt>
      <trkpt lat="48.28973" lon="2.59026">
        <ele>118</ele>
        <time>2023-07-27T08:40:08.794+00:00</time>
      </trkpt>
      <trkpt lat="48.28973" lon="2.5902">
        <ele>118</ele>
        <time>2023-07-27T08:40:13.346+00:00</time>
      </trkpt>
      <trkpt lat="48.28974" lon="2.59018">
        <ele>118</ele>
        <time>2023-07-27T08:40:17.297+00:00</time>
      </trkpt>
      <trkpt lat="48.28974" lon="2.59013">
        <ele>119</ele>
        <time>2023-07-27T08:40:21.848+00:00</time>
      </trkpt>
      <trkpt lat="48.28976" lon="2.59008">
        <ele>119</ele>
        <time>2023-07-27T08:40:25.843+00:00</time>
      </trkpt>
      <trkpt lat="48.2898" lon="2.59006">
        <ele>119</ele>
        <time>2023-07-27T08:40:29.878+00:00</time>
      </trkpt>
      <trkpt lat="48.28985" lon="2.59006">
        <ele>119</ele>
        <time>2023-07-27T08:40:34.552+00:00</time>
      </trkpt>
      <trkpt lat="48.28992" lon="2.59005">
        <ele>119</ele>
        <time>2023-07-27T08:40:39.307+00:00</time>
      </trkpt>
      <trkpt lat="48.28996" lon="2.59001">
        <ele>119</ele>
        <time>2023-07-27T08:40:43.302+00:00</time>
      </trkpt>
      <trkpt lat="48.28999" lon="2.58997">
        <ele>119</ele>
        <time>2023-07-27T08:40:47.498+00:00</time>
      </trkpt>
      <trkpt lat="48.29002" lon="2.58992">
        <ele>119</ele>
        <time>2023-07-27T08:40:51.691+00:00</time>
      </trkpt>
      <trkpt lat="48.29008" lon="2.58987">
        <ele>119</ele>
        <time>2023-07-27T08:40:56.483+00:00</time>
      </trkpt>
      <trkpt lat="48.29013" lon="2.58982">
        <ele>120</ele>
        <time>2023-07-27T08:41:01.097+00:00</time>
      </trkpt>
      <trkpt lat="48.29015" lon="2.58975">
        <ele>120</ele>
        <time>2023-07-27T08:41:05.132+00:00</time>
      </trkpt>
      <trkpt lat="48.29023" lon="2.5896">
        <ele>120</ele>
        <time>2023-07-27T08:41:40.901+00:00</time>
      </trkpt>
      <trkpt lat="48.29028" lon="2.58966">
        <ele>120</ele>
        <time>2023-07-27T08:41:45.514+00:00</time>
      </trkpt>
      <trkpt lat="48.29032" lon="2.5897">
        <ele>120</ele>
        <time>2023-07-27T08:41:49.944+00:00</time>
      </trkpt>
      <trkpt lat="48.29035" lon="2.58974">
        <ele>120</ele>
        <time>2023-07-27T08:41:54.107+00:00</time>
      </trkpt>
      <trkpt lat="48.29039" lon="2.58976">
        <ele>120</ele>
        <time>2023-07-27T08:41:58.547+00:00</time>
      </trkpt>
      <trkpt lat="48.29041" lon="2.58976">
        <ele>120</ele>
        <time>2023-07-27T08:42:02.739+00:00</time>
      </trkpt>
      <trkpt lat="48.29045" lon="2.58977">
        <ele>119</ele>
        <time>2023-07-27T08:42:06.893+00:00</time>
      </trkpt>
      <trkpt lat="48.29047" lon="2.58976">
        <ele>119</ele>
        <time>2023-07-27T08:42:11.085+00:00</time>
      </trkpt>
      <trkpt lat="48.29052" lon="2.58978">
        <ele>119</ele>
        <time>2023-07-27T08:42:15.755+00:00</time>
      </trkpt>
      <trkpt lat="48.29055" lon="2.5898">
        <ele>119</ele>
        <time>2023-07-27T08:42:20.429+00:00</time>
      </trkpt>
      <trkpt lat="48.29059" lon="2.5898">
        <ele>119</ele>
        <time>2023-07-27T08:42:25.002+00:00</time>
      </trkpt>
      <trkpt lat="48.29062" lon="2.58982">
        <ele>119</ele>
        <time>2023-07-27T08:42:29.531+00:00</time>
      </trkpt>
      <trkpt lat="48.29066" lon="2.58985">
        <ele>119</ele>
        <time>2023-07-27T08:42:33.984+00:00</time>
      </trkpt>
      <trkpt lat="48.29071" lon="2.58986">
        <ele>115</ele>
        <time>2023-07-27T08:42:38.452+00:00</time>
      </trkpt>
      <trkpt lat="48.29075" lon="2.58987">
        <ele>112</ele>
        <time>2023-07-27T08:42:42.359+00:00</time>
      </trkpt>
      <trkpt lat="48.29079" lon="2.58986">
        <ele>115</ele>
        <time>2023-07-27T08:42:46.974+00:00</time>
      </trkpt>
      <trkpt lat="48.29081" lon="2.58982">
        <ele>115</ele>
        <time>2023-07-27T08:42:51.109+00:00</time>
      </trkpt>
      <trkpt lat="48.29086" lon="2.5898">
        <ele>115</ele>
        <time>2023-07-27T08:43:08.740+00:00</time>
      </trkpt>
      <trkpt lat="48.29087" lon="2.58979">
        <ele>115</ele>
        <time>2023-07-27T08:43:12.932+00:00</time>
      </trkpt>
      <trkpt lat="48.29089" lon="2.58977">
        <ele>115</ele>
        <time>2023-07-27T08:43:17.665+00:00</time>
      </trkpt>
      <trkpt lat="48.29092" lon="2.58975">
        <ele>115</ele>
        <time>2023-07-27T08:43:21.734+00:00</time>
      </trkpt>
      <trkpt lat="48.29095" lon="2.58973">
        <ele>115</ele>
        <time>2023-07-27T08:43:26.286+00:00</time>
      </trkpt>
      <trkpt lat="48.29099" lon="2.58972">
        <ele>107</ele>
        <time>2023-07-27T08:43:30.478+00:00</time>
      </trkpt>
      <trkpt lat="48.29102" lon="2.5897">
        <ele>107</ele>
        <time>2023-07-27T08:43:34.909+00:00</time>
      </trkpt>
      <trkpt lat="48.29106" lon="2.58969">
        <ele>107</ele>
        <time>2023-07-27T08:43:39.100+00:00</time>
      </trkpt>
      <trkpt lat="48.29107" lon="2.58967">
        <ele>107</ele>
        <time>2023-07-27T08:43:43.171+00:00</time>
      </trkpt>
      <trkpt lat="48.2911" lon="2.58966">
        <ele>107</ele>
        <time>2023-07-27T08:43:47.963+00:00</time>
      </trkpt>
      <trkpt lat="48.29114" lon="2.58964">
        <ele>107</ele>
        <time>2023-07-27T08:44:00.993+00:00</time>
      </trkpt>
      <trkpt lat="48.29116" lon="2.58964">
        <ele>107</ele>
        <time>2023-07-27T08:44:05.174+00:00</time>
      </trkpt>
      <trkpt lat="48.29117" lon="2.58963">
        <ele>107</ele>
        <time>2023-07-27T08:44:09.844+00:00</time>
      </trkpt>
      <trkpt lat="48.2912" lon="2.5896">
        <ele>107</ele>
        <time>2023-07-27T08:44:14.514+00:00</time>
      </trkpt>
      <trkpt lat="48.29122" lon="2.58958">
        <ele>108</ele>
        <time>2023-07-27T08:44:19.286+00:00</time>
      </trkpt>
      <trkpt lat="48.29129" lon="2.58959">
        <ele>99</ele>
        <time>2023-07-27T08:44:44.103+00:00</time>
      </trkpt>
      <trkpt lat="48.29129" lon="2.58959">
        <ele>99</ele>
        <time>2023-07-27T08:44:48.116+00:00</time>
      </trkpt>
      <trkpt lat="48.2913" lon="2.58959">
        <ele>99</ele>
        <time>2023-07-27T08:44:52.629+00:00</time>
      </trkpt>
      <trkpt lat="48.29132" lon="2.5896">
        <ele>99</ele>
        <time>2023-07-27T08:44:57.147+00:00</time>
      </trkpt>
      <trkpt lat="48.29134" lon="2.58963">
        <ele>99</ele>
        <time>2023-07-27T08:45:01.163+00:00</time>
      </trkpt>
      <trkpt lat="48.29138" lon="2.58964">
        <ele>99</ele>
        <time>2023-07-27T08:45:05.779+00:00</time>
      </trkpt>
      <trkpt lat="48.2914" lon="2.58965">
        <ele>99</ele>
        <time>2023-07-27T08:45:09.793+00:00</time>
      </trkpt>
      <trkpt lat="48.29142" lon="2.58965">
        <ele>99</ele>
        <time>2023-07-27T08:45:14.308+00:00</time>
      </trkpt>
      <trkpt lat="48.29146" lon="2.58967">
        <ele>99</ele>
        <time>2023-07-27T08:45:18.416+00:00</time>
      </trkpt>
      <trkpt lat="48.2915" lon="2.58965">
        <ele>99</ele>
        <time>2023-07-27T08:45:22.926+00:00</time>
      </trkpt>
      <trkpt lat="48.29154" lon="2.58963">
        <ele>95</ele>
        <time>2023-07-27T08:45:27.535+00:00</time>
      </trkpt>
      <trkpt lat="48.29159" lon="2.58961">
        <ele>95</ele>
        <time>2023-07-27T08:45:31.543+00:00</time>
      </trkpt>
      <trkpt lat="48.29164" lon="2.58962">
        <ele>95</ele>
        <time>2023-07-27T08:45:35.550+00:00</time>
      </trkpt>
      <trkpt lat="48.29168" lon="2.58963">
        <ele>95</ele>
        <time>2023-07-27T08:45:39.557+00:00</time>
      </trkpt>
      <trkpt lat="48.29171" lon="2.58962">
        <ele>95</ele>
        <time>2023-07-27T08:45:43.566+00:00</time>
      </trkpt>
      <trkpt lat="48.29174" lon="2.5896">
        <ele>95</ele>
        <time>2023-07-27T08:45:48.089+00:00</time>
      </trkpt>
      <trkpt lat="48.29177" lon="2.58957">
        <ele>94</ele>
        <time>2023-07-27T08:45:52.190+00:00</time>
      </trkpt>
      <trkpt lat="48.29181" lon="2.58955">
        <ele>91</ele>
        <time>2023-07-27T08:45:56.702+00:00</time>
      </trkpt>
      <trkpt lat="48.29181" lon="2.58953">
        <ele>91</ele>
        <time>2023-07-27T08:46:00.717+00:00</time>
      </trkpt>
      <trkpt lat="48.29181" lon="2.58952">
        <ele>91</ele>
        <time>2023-07-27T08:46:05.224+00:00</time>
      </trkpt>
      <trkpt lat="48.29181" lon="2.58951">
        <ele>91</ele>
        <time>2023-07-27T08:46:09.229+00:00</time>
      </trkpt>
      <trkpt lat="48.29183" lon="2.58946">
        <ele>91</ele>
        <time>2023-07-27T08:46:13.833+00:00</time>
      </trkpt>
      <trkpt lat="48.29187" lon="2.58938">
        <ele>91</ele>
        <time>2023-07-27T08:46:18.359+00:00</time>
      </trkpt>
      <trkpt lat="48.29188" lon="2.58931">
        <ele>91</ele>
        <time>2023-07-27T08:46:23.336+00:00</time>
      </trkpt>
      <trkpt lat="48.29188" lon="2.58926">
        <ele>91</ele>
        <time>2023-07-27T08:46:27.076+00:00</time>
      </trkpt>
      <trkpt lat="48.29189" lon="2.58918">
        <ele>91</ele>
        <time>2023-07-27T08:46:31.728+00:00</time>
      </trkpt>
      <trkpt lat="48.29188" lon="2.58911">
        <ele>91</ele>
        <time>2023-07-27T08:46:35.536+00:00</time>
      </trkpt>
      <trkpt lat="48.29184" lon="2.58906">
        <ele>91</ele>
        <time>2023-07-27T08:46:39.916+00:00</time>
      </trkpt>
      <trkpt lat="48.29183" lon="2.589">
        <ele>91</ele>
        <time>2023-07-27T08:46:44.335+00:00</time>
      </trkpt>
      <trkpt lat="48.2918" lon="2.58895">
        <ele>95</ele>
        <time>2023-07-27T08:46:48.533+00:00</time>
      </trkpt>
      <trkpt lat="48.29178" lon="2.5889">
        <ele>95</ele>
        <time>2023-07-27T08:46:52.621+00:00</time>
      </trkpt>
      <trkpt lat="48.29176" lon="2.58883">
        <ele>95</ele>
        <time>2023-07-27T08:46:56.530+00:00</time>
      </trkpt>
      <trkpt lat="48.29173" lon="2.58878">
        <ele>95</ele>
        <time>2023-07-27T08:47:00.668+00:00</time>
      </trkpt>
      <trkpt lat="48.2917" lon="2.58873">
        <ele>96</ele>
        <time>2023-07-27T08:47:05.107+00:00</time>
      </trkpt>
      <trkpt lat="48.29168" lon="2.58866">
        <ele>96</ele>
        <time>2023-07-27T08:47:09.903+00:00</time>
      </trkpt>
      <trkpt lat="48.29163" lon="2.58855">
        <ele>96</ele>
        <time>2023-07-27T08:47:18.870+00:00</time>
      </trkpt>
      <trkpt lat="48.29163" lon="2.58853">
        <ele>96</ele>
        <time>2023-07-27T08:47:23.383+00:00</time>
      </trkpt>
      <trkpt lat="48.29164" lon="2.58852">
        <ele>96</ele>
        <time>2023-07-27T08:47:27.896+00:00</time>
      </trkpt>
      <trkpt lat="48.29165" lon="2.58851">
        <ele>96</ele>
        <time>2023-07-27T08:47:32.914+00:00</time>
      </trkpt>
      <trkpt lat="48.29165" lon="2.58848">
        <ele>96</ele>
        <time>2023-07-27T08:47:37.044+00:00</time>
      </trkpt>
      <trkpt lat="48.29164" lon="2.58845">
        <ele>98</ele>
        <time>2023-07-27T08:47:41.074+00:00</time>
      </trkpt>
      <trkpt lat="48.2916" lon="2.58843">
        <ele>98</ele>
        <time>2023-07-27T08:47:45.589+00:00</time>
      </trkpt>
      <trkpt lat="48.29157" lon="2.58843">
        <ele>98</ele>
        <time>2023-07-27T08:47:49.604+00:00</time>
      </trkpt>
      <trkpt lat="48.29155" lon="2.5884">
        <ele>98</ele>
        <time>2023-07-27T08:47:54.724+00:00</time>
      </trkpt>
      <trkpt lat="48.29153" lon="2.58835">
        <ele>98</ele>
        <time>2023-07-27T08:47:59.275+00:00</time>
      </trkpt>
      <trkpt lat="48.2915" lon="2.58832">
        <ele>104</ele>
        <time>2023-07-27T08:48:03.346+00:00</time>
      </trkpt>
      <trkpt lat="48.29148" lon="2.58829">
        <ele>104</ele>
        <time>2023-07-27T08:48:07.856+00:00</time>
      </trkpt>
      <trkpt lat="48.29148" lon="2.58828">
        <ele>104</ele>
        <time>2023-07-27T08:48:12.469+00:00</time>
      </trkpt>
      <trkpt lat="48.29146" lon="2.58822">
        <ele>104</ele>
        <time>2023-07-27T08:48:17.082+00:00</time>
      </trkpt>
      <trkpt lat="48.29142" lon="2.58817">
        <ele>107</ele>
        <time>2023-07-27T08:48:21.092+00:00</time>
      </trkpt>
      <trkpt lat="48.2914" lon="2.58811">
        <ele>107</ele>
        <time>2023-07-27T08:48:25.201+00:00</time>
      </trkpt>
      <trkpt lat="48.29141" lon="2.58806">
        <ele>107</ele>
        <time>2023-07-27T08:48:29.212+00:00</time>
      </trkpt>
      <trkpt lat="48.2914" lon="2.58803">
        <ele>107</ele>
        <time>2023-07-27T08:48:33.223+00:00</time>
      </trkpt>
      <trkpt lat="48.29138" lon="2.58799">
        <ele>107</ele>
        <time>2023-07-27T08:48:37.733+00:00</time>
      </trkpt>
      <trkpt lat="48.29134" lon="2.58795">
        <ele>107</ele>
        <time>2023-07-27T08:48:42.242+00:00</time>
      </trkpt>
      <trkpt lat="48.2913" lon="2.58787">
        <ele>109</ele>
        <time>2023-07-27T08:49:35.938+00:00</time>
      </trkpt>
      <trkpt lat="48.29131" lon="2.58785">
        <ele>109</ele>
        <time>2023-07-27T08:49:40.359+00:00</time>
      </trkpt>
      <trkpt lat="48.29132" lon="2.58782">
        <ele>109</ele>
        <time>2023-07-27T08:49:44.937+00:00</time>
      </trkpt>
      <trkpt lat="48.29132" lon="2.58782">
        <ele>109</ele>
        <time>2023-07-27T08:49:48.936+00:00</time>
      </trkpt>
      <trkpt lat="48.29131" lon="2.5878">
        <ele>109</ele>
        <time>2023-07-27T08:49:53.970+00:00</time>
      </trkpt>
      <trkpt lat="48.29128" lon="2.58776">
        <ele>109</ele>
        <time>2023-07-27T08:50:07.856+00:00</time>
      </trkpt>
      <trkpt lat="48.29127" lon="2.58775">
        <ele>109</ele>
        <time>2023-07-27T08:50:11.867+00:00</time>
      </trkpt>
      <trkpt lat="48.29127" lon="2.58772">
        <ele>109</ele>
        <time>2023-07-27T08:50:16.888+00:00</time>
      </trkpt>
      <trkpt lat="48.29125" lon="2.58769">
        <ele>109</ele>
        <time>2023-07-27T08:50:21.506+00:00</time>
      </trkpt>
      <trkpt lat="48.29122" lon="2.58765">
        <ele>112</ele>
        <time>2023-07-27T08:50:26.522+00:00</time>
      </trkpt>
      <trkpt lat="48.29122" lon="2.58766">
        <ele>112</ele>
        <time>2023-07-27T09:05:18.831+00:00</time>
      </trkpt>
      <trkpt lat="48.29123" lon="2.58765">
        <ele>112</ele>
        <time>2023-07-27T09:05:23.542+00:00</time>
      </trkpt>
      <trkpt lat="48.29126" lon="2.58765">
        <ele>109</ele>
        <time>2023-07-27T09:05:27.644+00:00</time>
      </trkpt>
      <trkpt lat="48.29129" lon="2.58765">
        <ele>109</ele>
        <time>2023-07-27T09:05:31.649+00:00</time>
      </trkpt>
      <trkpt lat="48.29131" lon="2.58763">
        <ele>111</ele>
        <time>2023-07-27T09:05:35.852+00:00</time>
      </trkpt>
      <trkpt lat="48.29135" lon="2.58764">
        <ele>111</ele>
        <time>2023-07-27T09:05:48.904+00:00</time>
      </trkpt>
      <trkpt lat="48.29133" lon="2.58757">
        <ele>111</ele>
        <time>2023-07-27T09:05:53.545+00:00</time>
      </trkpt>
      <trkpt lat="48.2913" lon="2.58748">
        <ele>111</ele>
        <time>2023-07-27T09:05:57.547+00:00</time>
      </trkpt>
      <trkpt lat="48.29128" lon="2.58736">
        <ele>112</ele>
        <time>2023-07-27T09:06:02.070+00:00</time>
      </trkpt>
      <trkpt lat="48.29123" lon="2.58729">
        <ele>116</ele>
        <time>2023-07-27T09:06:06.673+00:00</time>
      </trkpt>
      <trkpt lat="48.29123" lon="2.58724">
        <ele>116</ele>
        <time>2023-07-27T09:06:11.178+00:00</time>
      </trkpt>
      <trkpt lat="48.29121" lon="2.58717">
        <ele>116</ele>
        <time>2023-07-27T09:06:15.260+00:00</time>
      </trkpt>
      <trkpt lat="48.29119" lon="2.58715">
        <ele>116</ele>
        <time>2023-07-27T09:06:19.761+00:00</time>
      </trkpt>
      <trkpt lat="48.29116" lon="2.58712">
        <ele>116</ele>
        <time>2023-07-27T09:06:24.081+00:00</time>
      </trkpt>
      <trkpt lat="48.29111" lon="2.58709">
        <ele>116</ele>
        <time>2023-07-27T09:06:28.541+00:00</time>
      </trkpt>
      <trkpt lat="48.29108" lon="2.58706">
        <ele>117</ele>
        <time>2023-07-27T09:06:32.995+00:00</time>
      </trkpt>
      <trkpt lat="48.29108" lon="2.58699">
        <ele>117</ele>
        <time>2023-07-27T09:06:37.070+00:00</time>
      </trkpt>
      <trkpt lat="48.29111" lon="2.58691">
        <ele>117</ele>
        <time>2023-07-27T09:06:41.357+00:00</time>
      </trkpt>
      <trkpt lat="48.29114" lon="2.58681">
        <ele>117</ele>
        <time>2023-07-27T09:06:45.997+00:00</time>
      </trkpt>
      <trkpt lat="48.29115" lon="2.58674">
        <ele>115</ele>
        <time>2023-07-27T09:06:50.139+00:00</time>
      </trkpt>
      <trkpt lat="48.29116" lon="2.58666">
        <ele>115</ele>
        <time>2023-07-27T09:06:54.722+00:00</time>
      </trkpt>
      <trkpt lat="48.29115" lon="2.5866">
        <ele>115</ele>
        <time>2023-07-27T09:06:58.968+00:00</time>
      </trkpt>
      <trkpt lat="48.29114" lon="2.58654">
        <ele>115</ele>
        <time>2023-07-27T09:07:03.362+00:00</time>
      </trkpt>
      <trkpt lat="48.29113" lon="2.58648">
        <ele>112</ele>
        <time>2023-07-27T09:07:08.044+00:00</time>
      </trkpt>
      <trkpt lat="48.29112" lon="2.58644">
        <ele>112</ele>
        <time>2023-07-27T09:07:12.143+00:00</time>
      </trkpt>
      <trkpt lat="48.29112" lon="2.5864">
        <ele>112</ele>
        <time>2023-07-27T09:07:16.644+00:00</time>
      </trkpt>
      <trkpt lat="48.29113" lon="2.58635">
        <ele>112</ele>
        <time>2023-07-27T09:07:25.867+00:00</time>
      </trkpt>
      <trkpt lat="48.29113" lon="2.58633">
        <ele>112</ele>
        <time>2023-07-27T09:07:30.743+00:00</time>
      </trkpt>
      <trkpt lat="48.29115" lon="2.58635">
        <ele>112</ele>
        <time>2023-07-27T09:07:34.794+00:00</time>
      </trkpt>
      <trkpt lat="48.29119" lon="2.58632">
        <ele>112</ele>
        <time>2023-07-27T09:07:38.971+00:00</time>
      </trkpt>
      <trkpt lat="48.29121" lon="2.58632">
        <ele>112</ele>
        <time>2023-07-27T09:07:43.128+00:00</time>
      </trkpt>
      <trkpt lat="48.29122" lon="2.58628">
        <ele>112</ele>
        <time>2023-07-27T09:08:01.954+00:00</time>
      </trkpt>
      <trkpt lat="48.29123" lon="2.58627">
        <ele>112</ele>
        <time>2023-07-27T09:08:05.548+00:00</time>
      </trkpt>
      <trkpt lat="48.29123" lon="2.58627">
        <ele>112</ele>
        <time>2023-07-27T09:08:10.945+00:00</time>
      </trkpt>
      <trkpt lat="48.29124" lon="2.58626">
        <ele>112</ele>
        <time>2023-07-27T09:08:14.544+00:00</time>
      </trkpt>
      <trkpt lat="48.29126" lon="2.58627">
        <ele>108</ele>
        <time>2023-07-27T09:08:19.941+00:00</time>
      </trkpt>
      <trkpt lat="48.29129" lon="2.58638">
        <ele>108</ele>
        <time>2023-07-27T09:09:57.069+00:00</time>
      </trkpt>
      <trkpt lat="48.2913" lon="2.5864">
        <ele>108</ele>
        <time>2023-07-27T09:10:01.693+00:00</time>
      </trkpt>
      <trkpt lat="48.29135" lon="2.58644">
        <ele>108</ele>
        <time>2023-07-27T09:10:05.798+00:00</time>
      </trkpt>
      <trkpt lat="48.2914" lon="2.58649">
        <ele>108</ele>
        <time>2023-07-27T09:10:10.812+00:00</time>
      </trkpt>
      <trkpt lat="48.2914" lon="2.58649">
        <ele>108</ele>
        <time>2023-07-27T09:10:15.927+00:00</time>
      </trkpt>
      <trkpt lat="48.29143" lon="2.58651">
        <ele>108</ele>
        <time>2023-07-27T09:10:19.939+00:00</time>
      </trkpt>
      <trkpt lat="48.29145" lon="2.58656">
        <ele>111</ele>
        <time>2023-07-27T09:10:24.469+00:00</time>
      </trkpt>
      <trkpt lat="48.29146" lon="2.58659">
        <ele>111</ele>
        <time>2023-07-27T09:10:28.478+00:00</time>
      </trkpt>
      <trkpt lat="48.29146" lon="2.58661">
        <ele>111</ele>
        <time>2023-07-27T09:10:33.008+00:00</time>
      </trkpt>
      <trkpt lat="48.29148" lon="2.58664">
        <ele>111</ele>
        <time>2023-07-27T09:10:37.521+00:00</time>
      </trkpt>
      <trkpt lat="48.29149" lon="2.58672">
        <ele>111</ele>
        <time>2023-07-27T09:11:17.670+00:00</time>
      </trkpt>
      <trkpt lat="48.29149" lon="2.58674">
        <ele>111</ele>
        <time>2023-07-27T09:11:22.686+00:00</time>
      </trkpt>
      <trkpt lat="48.29149" lon="2.58675">
        <ele>111</ele>
        <time>2023-07-27T09:11:27.201+00:00</time>
      </trkpt>
      <trkpt lat="48.29149" lon="2.58676">
        <ele>111</ele>
        <time>2023-07-27T09:11:31.766+00:00</time>
      </trkpt>
      <trkpt lat="48.29152" lon="2.58682">
        <ele>112</ele>
        <time>2023-07-27T09:11:35.325+00:00</time>
      </trkpt>
      <trkpt lat="48.29163" lon="2.58692">
        <ele>105</ele>
        <time>2023-07-27T09:12:23.092+00:00</time>
      </trkpt>
      <trkpt lat="48.29164" lon="2.58688">
        <ele>105</ele>
        <time>2023-07-27T09:12:27.106+00:00</time>
      </trkpt>
      <trkpt lat="48.29168" lon="2.58683">
        <ele>105</ele>
        <time>2023-07-27T09:12:31.720+00:00</time>
      </trkpt>
      <trkpt lat="48.29172" lon="2.58685">
        <ele>105</ele>
        <time>2023-07-27T09:12:36.237+00:00</time>
      </trkpt>
      <trkpt lat="48.29173" lon="2.58685">
        <ele>105</ele>
        <time>2023-07-27T09:12:40.551+00:00</time>
      </trkpt>
      <trkpt lat="48.29175" lon="2.5869">
        <ele>105</ele>
        <time>2023-07-27T09:12:49.213+00:00</time>
      </trkpt>
      <trkpt lat="48.29179" lon="2.58688">
        <ele>105</ele>
        <time>2023-07-27T09:12:53.828+00:00</time>
      </trkpt>
      <trkpt lat="48.29181" lon="2.58691">
        <ele>98</ele>
        <time>2023-07-27T09:12:58.843+00:00</time>
      </trkpt>
      <trkpt lat="48.29181" lon="2.58693">
        <ele>98</ele>
        <time>2023-07-27T09:13:03.861+00:00</time>
      </trkpt>
      <trkpt lat="48.29182" lon="2.58694">
        <ele>98</ele>
        <time>2023-07-27T09:13:07.877+00:00</time>
      </trkpt>
      <trkpt lat="48.29189" lon="2.58687">
        <ele>98</ele>
        <time>2023-07-27T09:13:36.010+00:00</time>
      </trkpt>
      <trkpt lat="48.29189" lon="2.58684">
        <ele>98</ele>
        <time>2023-07-27T09:13:40.631+00:00</time>
      </trkpt>
      <trkpt lat="48.29188" lon="2.58681">
        <ele>98</ele>
        <time>2023-07-27T09:13:45.149+00:00</time>
      </trkpt>
      <trkpt lat="48.29188" lon="2.58675">
        <ele>96</ele>
        <time>2023-07-27T09:13:49.666+00:00</time>
      </trkpt>
      <trkpt lat="48.29187" lon="2.58668">
        <ele>96</ele>
        <time>2023-07-27T09:13:54.182+00:00</time>
      </trkpt>
      <trkpt lat="48.29183" lon="2.58656">
        <ele>96</ele>
        <time>2023-07-27T09:14:06.723+00:00</time>
      </trkpt>
      <trkpt lat="48.29183" lon="2.58656">
        <ele>96</ele>
        <time>2023-07-27T09:14:11.738+00:00</time>
      </trkpt>
      <trkpt lat="48.29183" lon="2.58654">
        <ele>96</ele>
        <time>2023-07-27T09:14:15.749+00:00</time>
      </trkpt>
      <trkpt lat="48.29182" lon="2.58651">
        <ele>93</ele>
        <time>2023-07-27T09:14:20.260+00:00</time>
      </trkpt>
      <trkpt lat="48.29181" lon="2.58645">
        <ele>93</ele>
        <time>2023-07-27T09:14:24.269+00:00</time>
      </trkpt>
      <trkpt lat="48.29178" lon="2.58639">
        <ele>102</ele>
        <time>2023-07-27T09:14:28.797+00:00</time>
      </trkpt>
      <trkpt lat="48.29178" lon="2.58635">
        <ele>102</ele>
        <time>2023-07-27T09:14:33.811+00:00</time>
      </trkpt>
      <trkpt lat="48.29178" lon="2.58633">
        <ele>102</ele>
        <time>2023-07-27T09:14:37.822+00:00</time>
      </trkpt>
      <trkpt lat="48.29178" lon="2.58628">
        <ele>102</ele>
        <time>2023-07-27T09:14:42.335+00:00</time>
      </trkpt>
      <trkpt lat="48.29178" lon="2.58625">
        <ele>100</ele>
        <time>2023-07-27T09:14:46.345+00:00</time>
      </trkpt>
      <trkpt lat="48.29176" lon="2.58622">
        <ele>100</ele>
        <time>2023-07-27T09:15:12.945+00:00</time>
      </trkpt>
      <trkpt lat="48.29172" lon="2.58621">
        <ele>100</ele>
        <time>2023-07-27T09:15:17.949+00:00</time>
      </trkpt>
      <trkpt lat="48.29171" lon="2.58618">
        <ele>100</ele>
        <time>2023-07-27T09:15:21.971+00:00</time>
      </trkpt>
      <trkpt lat="48.2917" lon="2.58613">
        <ele>100</ele>
        <time>2023-07-27T09:15:26.583+00:00</time>
      </trkpt>
      <trkpt lat="48.29172" lon="2.58607">
        <ele>100</ele>
        <time>2023-07-27T09:15:30.695+00:00</time>
      </trkpt>
      <trkpt lat="48.29173" lon="2.58599">
        <ele>100</ele>
        <time>2023-07-27T09:15:39.710+00:00</time>
      </trkpt>
      <trkpt lat="48.29172" lon="2.58595">
        <ele>97</ele>
        <time>2023-07-27T09:15:44.213+00:00</time>
      </trkpt>
      <trkpt lat="48.29174" lon="2.58593">
        <ele>97</ele>
        <time>2023-07-27T09:15:48.815+00:00</time>
      </trkpt>
      <trkpt lat="48.29174" lon="2.5859">
        <ele>97</ele>
        <time>2023-07-27T09:15:52.496+00:00</time>
      </trkpt>
      <trkpt lat="48.29172" lon="2.58588">
        <ele>97</ele>
        <time>2023-07-27T09:15:56.895+00:00</time>
      </trkpt>
      <trkpt lat="48.29172" lon="2.58587">
        <ele>97</ele>
        <time>2023-07-27T09:16:01.758+00:00</time>
      </trkpt>
      <trkpt lat="48.29171" lon="2.58588">
        <ele>97</ele>
        <time>2023-07-27T09:16:05.953+00:00</time>
      </trkpt>
      <trkpt lat="48.29167" lon="2.58585">
        <ele>97</ele>
        <time>2023-07-27T09:16:10.592+00:00</time>
      </trkpt>
      <trkpt lat="48.29165" lon="2.58582">
        <ele>97</ele>
        <time>2023-07-27T09:16:15.004+00:00</time>
      </trkpt>
      <trkpt lat="48.29165" lon="2.58578">
        <ele>97</ele>
        <time>2023-07-27T09:16:17.359+00:00</time>
      </trkpt>
      <trkpt lat="48.29165" lon="2.58573">
        <ele>97</ele>
        <time>2023-07-27T09:16:26.433+00:00</time>
      </trkpt>
      <trkpt lat="48.2916" lon="2.58568">
        <ele>94</ele>
        <time>2023-07-27T09:16:30.942+00:00</time>
      </trkpt>
      <trkpt lat="48.29159" lon="2.58565">
        <ele>94</ele>
        <time>2023-07-27T09:16:34.950+00:00</time>
      </trkpt>
      <trkpt lat="48.29159" lon="2.58564">
        <ele>94</ele>
        <time>2023-07-27T09:16:39.959+00:00</time>
      </trkpt>
      <trkpt lat="48.29158" lon="2.58561">
        <ele>94</ele>
        <time>2023-07-27T09:16:44.490+00:00</time>
      </trkpt>
      <trkpt lat="48.29166" lon="2.58556">
        <ele>94</ele>
        <time>2023-07-27T09:16:58.538+00:00</time>
      </trkpt>
      <trkpt lat="48.29166" lon="2.58551">
        <ele>94</ele>
        <time>2023-07-27T09:17:03.553+00:00</time>
      </trkpt>
      <trkpt lat="48.29164" lon="2.58551">
        <ele>94</ele>
        <time>2023-07-27T09:17:08.571+00:00</time>
      </trkpt>
      <trkpt lat="48.29163" lon="2.5855">
        <ele>94</ele>
        <time>2023-07-27T09:17:13.588+00:00</time>
      </trkpt>
      <trkpt lat="48.29162" lon="2.58549">
        <ele>94</ele>
        <time>2023-07-27T09:17:18.101+00:00</time>
      </trkpt>
      <trkpt lat="48.29163" lon="2.58546">
        <ele>94</ele>
        <time>2023-07-27T09:17:22.614+00:00</time>
      </trkpt>
      <trkpt lat="48.29167" lon="2.5854">
        <ele>92</ele>
        <time>2023-07-27T09:17:27.629+00:00</time>
      </trkpt>
      <trkpt lat="48.29169" lon="2.58535">
        <ele>92</ele>
        <time>2023-07-27T09:17:31.637+00:00</time>
      </trkpt>
      <trkpt lat="48.29173" lon="2.58533">
        <ele>92</ele>
        <time>2023-07-27T09:17:36.180+00:00</time>
      </trkpt>
      <trkpt lat="48.29174" lon="2.58532">
        <ele>92</ele>
        <time>2023-07-27T09:17:40.520+00:00</time>
      </trkpt>
      <trkpt lat="48.29175" lon="2.58526">
        <ele>92</ele>
        <time>2023-07-27T09:17:44.760+00:00</time>
      </trkpt>
      <trkpt lat="48.29172" lon="2.58517">
        <ele>92</ele>
        <time>2023-07-27T09:17:49.126+00:00</time>
      </trkpt>
      <trkpt lat="48.29171" lon="2.58508">
        <ele>89</ele>
        <time>2023-07-27T09:17:53.985+00:00</time>
      </trkpt>
      <trkpt lat="48.29174" lon="2.58499">
        <ele>89</ele>
        <time>2023-07-27T09:17:58.185+00:00</time>
      </trkpt>
      <trkpt lat="48.29176" lon="2.58494">
        <ele>89</ele>
        <time>2023-07-27T09:18:02.690+00:00</time>
      </trkpt>
      <trkpt lat="48.29174" lon="2.58487">
        <ele>89</ele>
        <time>2023-07-27T09:18:07.959+00:00</time>
      </trkpt>
      <trkpt lat="48.29169" lon="2.58483">
        <ele>88</ele>
        <time>2023-07-27T09:18:11.573+00:00</time>
      </trkpt>
      <trkpt lat="48.29162" lon="2.58478">
        <ele>88</ele>
        <time>2023-07-27T09:18:16.314+00:00</time>
      </trkpt>
      <trkpt lat="48.29157" lon="2.58475">
        <ele>88</ele>
        <time>2023-07-27T09:18:20.476+00:00</time>
      </trkpt>
      <trkpt lat="48.29153" lon="2.5847">
        <ele>88</ele>
        <time>2023-07-27T09:18:24.737+00:00</time>
      </trkpt>
      <trkpt lat="48.29149" lon="2.58466">
        <ele>90</ele>
        <time>2023-07-27T09:18:29.359+00:00</time>
      </trkpt>
      <trkpt lat="48.29143" lon="2.58459">
        <ele>90</ele>
        <time>2023-07-27T09:18:33.970+00:00</time>
      </trkpt>
      <trkpt lat="48.29139" lon="2.58453">
        <ele>90</ele>
        <time>2023-07-27T09:18:38.359+00:00</time>
      </trkpt>
      <trkpt lat="48.29134" lon="2.58449">
        <ele>90</ele>
        <time>2023-07-27T09:18:42.814+00:00</time>
      </trkpt>
      <trkpt lat="48.2913" lon="2.58446">
        <ele>90</ele>
        <time>2023-07-27T09:18:46.733+00:00</time>
      </trkpt>
      <trkpt lat="48.29127" lon="2.58442">
        <ele>90</ele>
        <time>2023-07-27T09:18:50.930+00:00</time>
      </trkpt>
      <trkpt lat="48.29124" lon="2.58437">
        <ele>95</ele>
        <time>2023-07-27T09:18:55.528+00:00</time>
      </trkpt>
      <trkpt lat="48.29119" lon="2.58432">
        <ele>95</ele>
        <time>2023-07-27T09:19:00.203+00:00</time>
      </trkpt>
      <trkpt lat="48.29115" lon="2.58426">
        <ele>95</ele>
        <time>2023-07-27T09:19:04.881+00:00</time>
      </trkpt>
      <trkpt lat="48.29112" lon="2.5842">
        <ele>95</ele>
        <time>2023-07-27T09:19:08.879+00:00</time>
      </trkpt>
      <trkpt lat="48.29108" lon="2.58416">
        <ele>95</ele>
        <time>2023-07-27T09:19:13.438+00:00</time>
      </trkpt>
      <trkpt lat="48.29103" lon="2.5841">
        <ele>95</ele>
        <time>2023-07-27T09:19:18.076+00:00</time>
      </trkpt>
      <trkpt lat="48.29099" lon="2.58404">
        <ele>95</ele>
        <time>2023-07-27T09:19:22.616+00:00</time>
      </trkpt>
      <trkpt lat="48.29096" lon="2.58399">
        <ele>101</ele>
        <time>2023-07-27T09:19:26.689+00:00</time>
      </trkpt>
      <trkpt lat="48.29093" lon="2.58396">
        <ele>101</ele>
        <time>2023-07-27T09:19:30.258+00:00</time>
      </trkpt>
      <trkpt lat="48.29089" lon="2.58395">
        <ele>101</ele>
        <time>2023-07-27T09:19:34.678+00:00</time>
      </trkpt>
      <trkpt lat="48.29089" lon="2.58396">
        <ele>101</ele>
        <time>2023-07-27T09:19:39.217+00:00</time>
      </trkpt>
      <trkpt lat="48.29087" lon="2.58398">
        <ele>101</ele>
        <time>2023-07-27T09:19:43.825+00:00</time>
      </trkpt>
      <trkpt lat="48.29082" lon="2.58388">
        <ele>101</ele>
        <time>2023-07-27T09:19:48.337+00:00</time>
      </trkpt>
      <trkpt lat="48.2908" lon="2.58383">
        <ele>101</ele>
        <time>2023-07-27T09:19:52.843+00:00</time>
      </trkpt>
      <trkpt lat="48.29078" lon="2.58384">
        <ele>101</ele>
        <time>2023-07-27T09:19:56.884+00:00</time>
      </trkpt>
      <trkpt lat="48.29077" lon="2.5838">
        <ele>101</ele>
        <time>2023-07-27T09:20:00.664+00:00</time>
      </trkpt>
      <trkpt lat="48.29073" lon="2.58375">
        <ele>103</ele>
        <time>2023-07-27T09:20:05.064+00:00</time>
      </trkpt>
      <trkpt lat="48.29069" lon="2.58372">
        <ele>105</ele>
        <time>2023-07-27T09:20:09.345+00:00</time>
      </trkpt>
      <trkpt lat="48.29064" lon="2.5837">
        <ele>105</ele>
        <time>2023-07-27T09:20:13.647+00:00</time>
      </trkpt>
      <trkpt lat="48.29061" lon="2.58369">
        <ele>105</ele>
        <time>2023-07-27T09:20:17.743+00:00</time>
      </trkpt>
      <trkpt lat="48.29057" lon="2.58367">
        <ele>105</ele>
        <time>2023-07-27T09:20:21.861+00:00</time>
      </trkpt>
      <trkpt lat="48.29053" lon="2.58366">
        <ele>105</ele>
        <time>2023-07-27T09:20:26.479+00:00</time>
      </trkpt>
      <trkpt lat="48.29049" lon="2.58363">
        <ele>105</ele>
        <time>2023-07-27T09:20:31.099+00:00</time>
      </trkpt>
      <trkpt lat="48.29045" lon="2.58359">
        <ele>105</ele>
        <time>2023-07-27T09:20:35.116+00:00</time>
      </trkpt>
      <trkpt lat="48.29038" lon="2.58357">
        <ele>107</ele>
        <time>2023-07-27T09:20:39.774+00:00</time>
      </trkpt>
      <trkpt lat="48.29034" lon="2.58364">
        <ele>107</ele>
        <time>2023-07-27T09:21:15.796+00:00</time>
      </trkpt>
      <trkpt lat="48.29035" lon="2.58366">
        <ele>107</ele>
        <time>2023-07-27T09:21:19.735+00:00</time>
      </trkpt>
      <trkpt lat="48.29035" lon="2.58366">
        <ele>107</ele>
        <time>2023-07-27T09:21:24.234+00:00</time>
      </trkpt>
      <trkpt lat="48.29035" lon="2.58369">
        <ele>107</ele>
        <time>2023-07-27T09:21:28.684+00:00</time>
      </trkpt>
      <trkpt lat="48.29034" lon="2.58372">
        <ele>107</ele>
        <time>2023-07-27T09:21:32.571+00:00</time>
      </trkpt>
      <trkpt lat="48.29031" lon="2.58373">
        <ele>107</ele>
        <time>2023-07-27T09:21:45.570+00:00</time>
      </trkpt>
      <trkpt lat="48.29029" lon="2.58373">
        <ele>107</ele>
        <time>2023-07-27T09:21:49.509+00:00</time>
      </trkpt>
      <trkpt lat="48.29028" lon="2.58374">
        <ele>107</ele>
        <time>2023-07-27T09:21:53.468+00:00</time>
      </trkpt>
      <trkpt lat="48.29026" lon="2.58372">
        <ele>107</ele>
        <time>2023-07-27T09:21:57.966+00:00</time>
      </trkpt>
      <trkpt lat="48.29024" lon="2.58373">
        <ele>107</ele>
        <time>2023-07-27T09:22:02.430+00:00</time>
      </trkpt>
      <trkpt lat="48.29027" lon="2.58379">
        <ele>107</ele>
        <time>2023-07-27T09:22:14.878+00:00</time>
      </trkpt>
      <trkpt lat="48.29028" lon="2.58382">
        <ele>107</ele>
        <time>2023-07-27T09:22:19.555+00:00</time>
      </trkpt>
      <trkpt lat="48.29027" lon="2.58384">
        <ele>107</ele>
        <time>2023-07-27T09:22:23.751+00:00</time>
      </trkpt>
      <trkpt lat="48.29026" lon="2.58386">
        <ele>107</ele>
        <time>2023-07-27T09:22:28.871+00:00</time>
      </trkpt>
      <trkpt lat="48.29025" lon="2.5839">
        <ele>107</ele>
        <time>2023-07-27T09:22:32.881+00:00</time>
      </trkpt>
      <trkpt lat="48.29022" lon="2.58399">
        <ele>107</ele>
        <time>2023-07-27T09:24:45.742+00:00</time>
      </trkpt>
      <trkpt lat="48.29025" lon="2.58387">
        <ele>107</ele>
        <time>2023-07-27T09:24:50.256+00:00</time>
      </trkpt>
      <trkpt lat="48.29028" lon="2.5838">
        <ele>107</ele>
        <time>2023-07-27T09:24:54.871+00:00</time>
      </trkpt>
      <trkpt lat="48.2903" lon="2.58377">
        <ele>107</ele>
        <time>2023-07-27T09:24:59.887+00:00</time>
      </trkpt>
      <trkpt lat="48.2903" lon="2.58377">
        <ele>107</ele>
        <time>2023-07-27T09:25:04.400+00:00</time>
      </trkpt>
      <trkpt lat="48.2903" lon="2.58382">
        <ele>107</ele>
        <time>2023-07-27T09:25:23.454+00:00</time>
      </trkpt>
      <trkpt lat="48.29034" lon="2.58368">
        <ele>107</ele>
        <time>2023-07-27T09:25:27.935+00:00</time>
      </trkpt>
      <trkpt lat="48.29038" lon="2.58322">
        <ele>109</ele>
        <time>2023-07-27T09:25:32.928+00:00</time>
      </trkpt>
      <trkpt lat="48.29037" lon="2.58292">
        <ele>117</ele>
        <time>2023-07-27T09:25:36.931+00:00</time>
      </trkpt>
      <trkpt lat="48.29039" lon="2.58277">
        <ele>117</ele>
        <time>2023-07-27T09:25:40.933+00:00</time>
      </trkpt>
      <trkpt lat="48.29042" lon="2.58282">
        <ele>116</ele>
        <time>2023-07-27T09:25:45.928+00:00</time>
      </trkpt>
      <trkpt lat="48.29042" lon="2.58287">
        <ele>116</ele>
        <time>2023-07-27T09:25:49.937+00:00</time>
      </trkpt>
      <trkpt lat="48.29045" lon="2.58299">
        <ele>111</ele>
        <time>2023-07-27T09:25:54.932+00:00</time>
      </trkpt>
      <trkpt lat="48.29037" lon="2.58331">
        <ele>109</ele>
        <time>2023-07-27T09:25:58.939+00:00</time>
      </trkpt>
      <trkpt lat="48.29032" lon="2.58355">
        <ele>107</ele>
        <time>2023-07-27T09:26:03.458+00:00</time>
      </trkpt>
      <trkpt lat="48.2903" lon="2.58361">
        <ele>107</ele>
        <time>2023-07-27T09:26:07.570+00:00</time>
      </trkpt>
      <trkpt lat="48.29028" lon="2.58371">
        <ele>107</ele>
        <time>2023-07-27T09:26:11.577+00:00</time>
      </trkpt>
      <trkpt lat="48.29026" lon="2.58379">
        <ele>107</ele>
        <time>2023-07-27T09:26:15.582+00:00</time>
      </trkpt>
      <trkpt lat="48.29026" lon="2.58389">
        <ele>107</ele>
        <time>2023-07-27T09:26:29.594+00:00</time>
      </trkpt>
      <trkpt lat="48.29024" lon="2.58391">
        <ele>107</ele>
        <time>2023-07-27T09:26:33.874+00:00</time>
      </trkpt>
      <trkpt lat="48.29024" lon="2.58392">
        <ele>107</ele>
        <time>2023-07-27T09:26:38.095+00:00</time>
      </trkpt>
      <trkpt lat="48.29024" lon="2.58394">
        <ele>107</ele>
        <time>2023-07-27T09:26:42.658+00:00</time>
      </trkpt>
      <trkpt lat="48.29022" lon="2.58397">
        <ele>107</ele>
        <time>2023-07-27T09:26:46.661+00:00</time>
      </trkpt>
      <trkpt lat="48.29024" lon="2.584">
        <ele>107</ele>
        <time>2023-07-27T09:28:46.616+00:00</time>
      </trkpt>
      <trkpt lat="48.29026" lon="2.58399">
        <ele>107</ele>
        <time>2023-07-27T09:28:50.619+00:00</time>
      </trkpt>
      <trkpt lat="48.29027" lon="2.58397">
        <ele>107</ele>
        <time>2023-07-27T09:28:54.623+00:00</time>
      </trkpt>
      <trkpt lat="48.29026" lon="2.58393">
        <ele>107</ele>
        <time>2023-07-27T09:28:58.727+00:00</time>
      </trkpt>
      <trkpt lat="48.29028" lon="2.58387">
        <ele>107</ele>
        <time>2023-07-27T09:29:03.232+00:00</time>
      </trkpt>
      <trkpt lat="48.2903" lon="2.58382">
        <ele>107</ele>
        <time>2023-07-27T09:29:07.338+00:00</time>
      </trkpt>
      <trkpt lat="48.29031" lon="2.58377">
        <ele>107</ele>
        <time>2023-07-27T09:29:11.343+00:00</time>
      </trkpt>
      <trkpt lat="48.29031" lon="2.58374">
        <ele>107</ele>
        <time>2023-07-27T09:29:15.345+00:00</time>
      </trkpt>
      <trkpt lat="48.29031" lon="2.5837">
        <ele>107</ele>
        <time>2023-07-27T09:29:19.849+00:00</time>
      </trkpt>
      <trkpt lat="48.29033" lon="2.58362">
        <ele>107</ele>
        <time>2023-07-27T09:29:23.973+00:00</time>
      </trkpt>
      <trkpt lat="48.29039" lon="2.58358">
        <ele>107</ele>
        <time>2023-07-27T09:29:28.079+00:00</time>
      </trkpt>
      <trkpt lat="48.29044" lon="2.5836">
        <ele>105</ele>
        <time>2023-07-27T09:29:32.186+00:00</time>
      </trkpt>
      <trkpt lat="48.29047" lon="2.58364">
        <ele>105</ele>
        <time>2023-07-27T09:29:36.691+00:00</time>
      </trkpt>
      <trkpt lat="48.2905" lon="2.5837">
        <ele>105</ele>
        <time>2023-07-27T09:29:40.694+00:00</time>
      </trkpt>
      <trkpt lat="48.29058" lon="2.58375">
        <ele>105</ele>
        <time>2023-07-27T09:29:45.535+00:00</time>
      </trkpt>
      <trkpt lat="48.29064" lon="2.58378">
        <ele>104</ele>
        <time>2023-07-27T09:29:50.096+00:00</time>
      </trkpt>
      <trkpt lat="48.29069" lon="2.58381">
        <ele>104</ele>
        <time>2023-07-27T09:29:54.516+00:00</time>
      </trkpt>
      <trkpt lat="48.29075" lon="2.58385">
        <ele>101</ele>
        <time>2023-07-27T09:29:58.695+00:00</time>
      </trkpt>
      <trkpt lat="48.29081" lon="2.58387">
        <ele>101</ele>
        <time>2023-07-27T09:30:02.734+00:00</time>
      </trkpt>
      <trkpt lat="48.29087" lon="2.58387">
        <ele>101</ele>
        <time>2023-07-27T09:30:07.012+00:00</time>
      </trkpt>
      <trkpt lat="48.29093" lon="2.58386">
        <ele>101</ele>
        <time>2023-07-27T09:30:11.601+00:00</time>
      </trkpt>
      <trkpt lat="48.29097" lon="2.58383">
        <ele>101</ele>
        <time>2023-07-27T09:30:15.489+00:00</time>
      </trkpt>
      <trkpt lat="48.29102" lon="2.58378">
        <ele>97</ele>
        <time>2023-07-27T09:30:20.548+00:00</time>
      </trkpt>
      <trkpt lat="48.29107" lon="2.58375">
        <ele>100</ele>
        <time>2023-07-27T09:30:25.608+00:00</time>
      </trkpt>
      <trkpt lat="48.29114" lon="2.58372">
        <ele>100</ele>
        <time>2023-07-27T09:30:30.743+00:00</time>
      </trkpt>
      <trkpt lat="48.29119" lon="2.58367">
        <ele>100</ele>
        <time>2023-07-27T09:30:35.065+00:00</time>
      </trkpt>
      <trkpt lat="48.29124" lon="2.58363">
        <ele>100</ele>
        <time>2023-07-27T09:30:39.071+00:00</time>
      </trkpt>
      <trkpt lat="48.29128" lon="2.58357">
        <ele>95</ele>
        <time>2023-07-27T09:30:43.776+00:00</time>
      </trkpt>
      <trkpt lat="48.29135" lon="2.58354">
        <ele>95</ele>
        <time>2023-07-27T09:30:48.279+00:00</time>
      </trkpt>
      <trkpt lat="48.29141" lon="2.58351">
        <ele>95</ele>
        <time>2023-07-27T09:30:52.282+00:00</time>
      </trkpt>
      <trkpt lat="48.29145" lon="2.58348">
        <ele>95</ele>
        <time>2023-07-27T09:30:56.284+00:00</time>
      </trkpt>
      <trkpt lat="48.2915" lon="2.58343">
        <ele>99</ele>
        <time>2023-07-27T09:31:00.388+00:00</time>
      </trkpt>
      <trkpt lat="48.29153" lon="2.58338">
        <ele>94</ele>
        <time>2023-07-27T09:31:04.892+00:00</time>
      </trkpt>
      <trkpt lat="48.29155" lon="2.58333">
        <ele>94</ele>
        <time>2023-07-27T09:31:08.995+00:00</time>
      </trkpt>
      <trkpt lat="48.29157" lon="2.58326">
        <ele>94</ele>
        <time>2023-07-27T09:31:13.590+00:00</time>
      </trkpt>
      <trkpt lat="48.2916" lon="2.58319">
        <ele>96</ele>
        <time>2023-07-27T09:31:17.600+00:00</time>
      </trkpt>
      <trkpt lat="48.29163" lon="2.5831">
        <ele>96</ele>
        <time>2023-07-27T09:31:22.105+00:00</time>
      </trkpt>
      <trkpt lat="48.29167" lon="2.58305">
        <ele>96</ele>
        <time>2023-07-27T09:31:26.209+00:00</time>
      </trkpt>
      <trkpt lat="48.29171" lon="2.58299">
        <ele>96</ele>
        <time>2023-07-27T09:31:30.411+00:00</time>
      </trkpt>
      <trkpt lat="48.29173" lon="2.58293">
        <ele>96</ele>
        <time>2023-07-27T09:31:34.653+00:00</time>
      </trkpt>
      <trkpt lat="48.29174" lon="2.58285">
        <ele>97</ele>
        <time>2023-07-27T09:31:38.854+00:00</time>
      </trkpt>
      <trkpt lat="48.29175" lon="2.58276">
        <ele>97</ele>
        <time>2023-07-27T09:31:43.587+00:00</time>
      </trkpt>
      <trkpt lat="48.29172" lon="2.58266">
        <ele>97</ele>
        <time>2023-07-27T09:31:47.896+00:00</time>
      </trkpt>
      <trkpt lat="48.2917" lon="2.58257">
        <ele>98</ele>
        <time>2023-07-27T09:31:52.256+00:00</time>
      </trkpt>
      <trkpt lat="48.29169" lon="2.58249">
        <ele>98</ele>
        <time>2023-07-27T09:31:56.276+00:00</time>
      </trkpt>
      <trkpt lat="48.29167" lon="2.58241">
        <ele>98</ele>
        <time>2023-07-27T09:32:00.695+00:00</time>
      </trkpt>
      <trkpt lat="48.29165" lon="2.58233">
        <ele>100</ele>
        <time>2023-07-27T09:32:05.095+00:00</time>
      </trkpt>
      <trkpt lat="48.29162" lon="2.58226">
        <ele>100</ele>
        <time>2023-07-27T09:32:09.614+00:00</time>
      </trkpt>
      <trkpt lat="48.29161" lon="2.58219">
        <ele>100</ele>
        <time>2023-07-27T09:32:13.713+00:00</time>
      </trkpt>
      <trkpt lat="48.2916" lon="2.58211">
        <ele>100</ele>
        <time>2023-07-27T09:32:18.092+00:00</time>
      </trkpt>
      <trkpt lat="48.29158" lon="2.58204">
        <ele>100</ele>
        <time>2023-07-27T09:32:22.690+00:00</time>
      </trkpt>
      <trkpt lat="48.29157" lon="2.58204">
        <ele>100</ele>
        <time>2023-07-27T09:32:27.947+00:00</time>
      </trkpt>
      <trkpt lat="48.29157" lon="2.58203">
        <ele>100</ele>
        <time>2023-07-27T09:32:32.505+00:00</time>
      </trkpt>
      <trkpt lat="48.29155" lon="2.58195">
        <ele>100</ele>
        <time>2023-07-27T09:32:36.565+00:00</time>
      </trkpt>
      <trkpt lat="48.29154" lon="2.58186">
        <ele>100</ele>
        <time>2023-07-27T09:32:40.524+00:00</time>
      </trkpt>
      <trkpt lat="48.29156" lon="2.58181">
        <ele>100</ele>
        <time>2023-07-27T09:32:44.543+00:00</time>
      </trkpt>
      <trkpt lat="48.29157" lon="2.58175">
        <ele>101</ele>
        <time>2023-07-27T09:32:49.161+00:00</time>
      </trkpt>
      <trkpt lat="48.29156" lon="2.58168">
        <ele>101</ele>
        <time>2023-07-27T09:32:53.340+00:00</time>
      </trkpt>
      <trkpt lat="48.29157" lon="2.58161">
        <ele>101</ele>
        <time>2023-07-27T09:32:57.319+00:00</time>
      </trkpt>
      <trkpt lat="48.29158" lon="2.58154">
        <ele>101</ele>
        <time>2023-07-27T09:33:01.219+00:00</time>
      </trkpt>
      <trkpt lat="48.29161" lon="2.58148">
        <ele>102</ele>
        <time>2023-07-27T09:33:05.721+00:00</time>
      </trkpt>
      <trkpt lat="48.29164" lon="2.58146">
        <ele>102</ele>
        <time>2023-07-27T09:33:09.402+00:00</time>
      </trkpt>
      <trkpt lat="48.29168" lon="2.58146">
        <ele>102</ele>
        <time>2023-07-27T09:33:13.862+00:00</time>
      </trkpt>
      <trkpt lat="48.29173" lon="2.58145">
        <ele>102</ele>
        <time>2023-07-27T09:33:18.359+00:00</time>
      </trkpt>
      <trkpt lat="48.2918" lon="2.58146">
        <ele>102</ele>
        <time>2023-07-27T09:33:22.921+00:00</time>
      </trkpt>
      <trkpt lat="48.29184" lon="2.58148">
        <ele>100</ele>
        <time>2023-07-27T09:33:27.002+00:00</time>
      </trkpt>
      <trkpt lat="48.29189" lon="2.58149">
        <ele>100</ele>
        <time>2023-07-27T09:33:31.361+00:00</time>
      </trkpt>
      <trkpt lat="48.29195" lon="2.58149">
        <ele>100</ele>
        <time>2023-07-27T09:33:35.763+00:00</time>
      </trkpt>
      <trkpt lat="48.29197" lon="2.58147">
        <ele>100</ele>
        <time>2023-07-27T09:33:39.778+00:00</time>
      </trkpt>
      <trkpt lat="48.29203" lon="2.58147">
        <ele>100</ele>
        <time>2023-07-27T09:33:44.810+00:00</time>
      </trkpt>
      <trkpt lat="48.2921" lon="2.58151">
        <ele>98</ele>
        <time>2023-07-27T09:33:49.423+00:00</time>
      </trkpt>
      <trkpt lat="48.29217" lon="2.58152">
        <ele>98</ele>
        <time>2023-07-27T09:34:01.955+00:00</time>
      </trkpt>
      <trkpt lat="48.2922" lon="2.58152">
        <ele>98</ele>
        <time>2023-07-27T09:34:06.467+00:00</time>
      </trkpt>
      <trkpt lat="48.2922" lon="2.58152">
        <ele>98</ele>
        <time>2023-07-27T09:34:10.981+00:00</time>
      </trkpt>
      <trkpt lat="48.29222" lon="2.58153">
        <ele>95</ele>
        <time>2023-07-27T09:34:15.493+00:00</time>
      </trkpt>
      <trkpt lat="48.29227" lon="2.58148">
        <ele>98</ele>
        <time>2023-07-27T09:34:19.502+00:00</time>
      </trkpt>
      <trkpt lat="48.29232" lon="2.58142">
        <ele>98</ele>
        <time>2023-07-27T09:34:24.012+00:00</time>
      </trkpt>
      <trkpt lat="48.29235" lon="2.58137">
        <ele>98</ele>
        <time>2023-07-27T09:34:28.522+00:00</time>
      </trkpt>
      <trkpt lat="48.29236" lon="2.58133">
        <ele>98</ele>
        <time>2023-07-27T09:34:32.630+00:00</time>
      </trkpt>
      <trkpt lat="48.29236" lon="2.58132">
        <ele>96</ele>
        <time>2023-07-27T09:34:37.142+00:00</time>
      </trkpt>
      <trkpt lat="48.29239" lon="2.58129">
        <ele>96</ele>
        <time>2023-07-27T09:34:41.652+00:00</time>
      </trkpt>
      <trkpt lat="48.29238" lon="2.58125">
        <ele>96</ele>
        <time>2023-07-27T09:34:50.786+00:00</time>
      </trkpt>
      <trkpt lat="48.2924" lon="2.58122">
        <ele>100</ele>
        <time>2023-07-27T09:34:54.891+00:00</time>
      </trkpt>
      <trkpt lat="48.29242" lon="2.5812">
        <ele>100</ele>
        <time>2023-07-27T09:34:59.406+00:00</time>
      </trkpt>
      <trkpt lat="48.29244" lon="2.58118">
        <ele>100</ele>
        <time>2023-07-27T09:35:03.921+00:00</time>
      </trkpt>
      <trkpt lat="48.29244" lon="2.58115">
        <ele>100</ele>
        <time>2023-07-27T09:35:08.436+00:00</time>
      </trkpt>
      <trkpt lat="48.29241" lon="2.58105">
        <ele>100</ele>
        <time>2023-07-27T09:35:43.654+00:00</time>
      </trkpt>
      <trkpt lat="48.2924" lon="2.58105">
        <ele>100</ele>
        <time>2023-07-27T09:35:48.669+00:00</time>
      </trkpt>
      <trkpt lat="48.29239" lon="2.58105">
        <ele>100</ele>
        <time>2023-07-27T09:35:53.680+00:00</time>
      </trkpt>
      <trkpt lat="48.29238" lon="2.58102">
        <ele>100</ele>
        <time>2023-07-27T09:35:58.187+00:00</time>
      </trkpt>
      <trkpt lat="48.29238" lon="2.581">
        <ele>100</ele>
        <time>2023-07-27T09:36:02.693+00:00</time>
      </trkpt>
      <trkpt lat="48.29236" lon="2.58095">
        <ele>105</ele>
        <time>2023-07-27T09:36:15.315+00:00</time>
      </trkpt>
      <trkpt lat="48.29235" lon="2.58089">
        <ele>105</ele>
        <time>2023-07-27T09:36:19.818+00:00</time>
      </trkpt>
      <trkpt lat="48.29235" lon="2.58087">
        <ele>105</ele>
        <time>2023-07-27T09:36:23.840+00:00</time>
      </trkpt>
      <trkpt lat="48.29236" lon="2.58087">
        <ele>105</ele>
        <time>2023-07-27T09:36:28.002+00:00</time>
      </trkpt>
      <trkpt lat="48.29236" lon="2.58086">
        <ele>105</ele>
        <time>2023-07-27T09:36:32.504+00:00</time>
      </trkpt>
      <trkpt lat="48.29236" lon="2.58085">
        <ele>104</ele>
        <time>2023-07-27T09:36:36.206+00:00</time>
      </trkpt>
      <trkpt lat="48.29238" lon="2.58085">
        <ele>104</ele>
        <time>2023-07-27T09:36:40.586+00:00</time>
      </trkpt>
      <trkpt lat="48.29239" lon="2.58084">
        <ele>104</ele>
        <time>2023-07-27T09:36:44.966+00:00</time>
      </trkpt>
      <trkpt lat="48.29241" lon="2.5808">
        <ele>104</ele>
        <time>2023-07-27T09:36:49.986+00:00</time>
      </trkpt>
      <trkpt lat="48.29246" lon="2.5808">
        <ele>104</ele>
        <time>2023-07-27T09:36:54.084+00:00</time>
      </trkpt>
      <trkpt lat="48.2925" lon="2.58084">
        <ele>104</ele>
        <time>2023-07-27T09:36:58.502+00:00</time>
      </trkpt>
      <trkpt lat="48.29251" lon="2.58083">
        <ele>104</ele>
        <time>2023-07-27T09:37:03.093+00:00</time>
      </trkpt>
      <trkpt lat="48.29253" lon="2.58082">
        <ele>104</ele>
        <time>2023-07-27T09:37:07.107+00:00</time>
      </trkpt>
      <trkpt lat="48.29254" lon="2.58077">
        <ele>104</ele>
        <time>2023-07-27T09:37:11.727+00:00</time>
      </trkpt>
      <trkpt lat="48.29254" lon="2.58072">
        <ele>104</ele>
        <time>2023-07-27T09:37:15.834+00:00</time>
      </trkpt>
      <trkpt lat="48.29252" lon="2.58072">
        <ele>104</ele>
        <time>2023-07-27T09:37:29.874+00:00</time>
      </trkpt>
      <trkpt lat="48.29253" lon="2.5807">
        <ele>104</ele>
        <time>2023-07-27T09:37:34.388+00:00</time>
      </trkpt>
      <trkpt lat="48.29258" lon="2.58071">
        <ele>104</ele>
        <time>2023-07-27T09:37:38.901+00:00</time>
      </trkpt>
      <trkpt lat="48.2926" lon="2.58075">
        <ele>104</ele>
        <time>2023-07-27T09:37:42.913+00:00</time>
      </trkpt>
      <trkpt lat="48.29262" lon="2.58074">
        <ele>104</ele>
        <time>2023-07-27T09:37:47.926+00:00</time>
      </trkpt>
      <trkpt lat="48.29269" lon="2.58075">
        <ele>102</ele>
        <time>2023-07-27T09:38:39.594+00:00</time>
      </trkpt>
      <trkpt lat="48.2927" lon="2.58075">
        <ele>102</ele>
        <time>2023-07-27T09:38:43.599+00:00</time>
      </trkpt>
      <trkpt lat="48.2927" lon="2.58074">
        <ele>102</ele>
        <time>2023-07-27T09:38:47.603+00:00</time>
      </trkpt>
      <trkpt lat="48.2927" lon="2.58075">
        <ele>102</ele>
        <time>2023-07-27T09:38:52.608+00:00</time>
      </trkpt>
      <trkpt lat="48.29271" lon="2.58077">
        <ele>102</ele>
        <time>2023-07-27T09:38:57.113+00:00</time>
      </trkpt>
      <trkpt lat="48.29274" lon="2.58087">
        <ele>102</ele>
        <time>2023-07-27T09:41:12.595+00:00</time>
      </trkpt>
      <trkpt lat="48.29274" lon="2.58088">
        <ele>102</ele>
        <time>2023-07-27T09:41:16.604+00:00</time>
      </trkpt>
      <trkpt lat="48.29274" lon="2.58088">
        <ele>102</ele>
        <time>2023-07-27T09:41:21.210+00:00</time>
      </trkpt>
      <trkpt lat="48.29273" lon="2.58091">
        <ele>102</ele>
        <time>2023-07-27T09:41:25.714+00:00</time>
      </trkpt>
      <trkpt lat="48.29272" lon="2.58096">
        <ele>102</ele>
        <time>2023-07-27T09:41:29.718+00:00</time>
      </trkpt>
      <trkpt lat="48.29272" lon="2.58101">
        <ele>98</ele>
        <time>2023-07-27T09:41:34.223+00:00</time>
      </trkpt>
      <trkpt lat="48.29272" lon="2.58103">
        <ele>98</ele>
        <time>2023-07-27T09:41:38.740+00:00</time>
      </trkpt>
      <trkpt lat="48.2927" lon="2.5811">
        <ele>98</ele>
        <time>2023-07-27T09:41:42.857+00:00</time>
      </trkpt>
      <trkpt lat="48.29269" lon="2.58116">
        <ele>98</ele>
        <time>2023-07-27T09:41:46.865+00:00</time>
      </trkpt>
      <trkpt lat="48.29265" lon="2.5812">
        <ele>98</ele>
        <time>2023-07-27T09:41:51.371+00:00</time>
      </trkpt>
      <trkpt lat="48.29266" lon="2.58127">
        <ele>95</ele>
        <time>2023-07-27T09:41:55.474+00:00</time>
      </trkpt>
      <trkpt lat="48.29269" lon="2.58127">
        <ele>95</ele>
        <time>2023-07-27T09:41:59.587+00:00</time>
      </trkpt>
      <trkpt lat="48.2927" lon="2.58127">
        <ele>95</ele>
        <time>2023-07-27T09:42:03.601+00:00</time>
      </trkpt>
      <trkpt lat="48.29272" lon="2.5813">
        <ele>95</ele>
        <time>2023-07-27T09:42:07.615+00:00</time>
      </trkpt>
      <trkpt lat="48.29277" lon="2.58131">
        <ele>95</ele>
        <time>2023-07-27T09:42:46.051+00:00</time>
      </trkpt>
      <trkpt lat="48.29277" lon="2.58131">
        <ele>95</ele>
        <time>2023-07-27T09:42:50.659+00:00</time>
      </trkpt>
      <trkpt lat="48.29278" lon="2.58134">
        <ele>95</ele>
        <time>2023-07-27T09:42:54.778+00:00</time>
      </trkpt>
      <trkpt lat="48.29283" lon="2.58137">
        <ele>95</ele>
        <time>2023-07-27T09:42:59.289+00:00</time>
      </trkpt>
      <trkpt lat="48.29287" lon="2.58137">
        <ele>95</ele>
        <time>2023-07-27T09:43:03.299+00:00</time>
      </trkpt>
      <trkpt lat="48.29292" lon="2.58137">
        <ele>93</ele>
        <time>2023-07-27T09:43:07.908+00:00</time>
      </trkpt>
      <trkpt lat="48.29296" lon="2.58133">
        <ele>93</ele>
        <time>2023-07-27T09:43:12.434+00:00</time>
      </trkpt>
      <trkpt lat="48.293" lon="2.58129">
        <ele>93</ele>
        <time>2023-07-27T09:43:16.519+00:00</time>
      </trkpt>
      <trkpt lat="48.29303" lon="2.58125">
        <ele>93</ele>
        <time>2023-07-27T09:43:20.522+00:00</time>
      </trkpt>
      <trkpt lat="48.29307" lon="2.5812">
        <ele>95</ele>
        <time>2023-07-27T09:43:25.026+00:00</time>
      </trkpt>
      <trkpt lat="48.29309" lon="2.58115">
        <ele>95</ele>
        <time>2023-07-27T09:43:29.028+00:00</time>
      </trkpt>
      <trkpt lat="48.29308" lon="2.58113">
        <ele>95</ele>
        <time>2023-07-27T09:43:33.541+00:00</time>
      </trkpt>
      <trkpt lat="48.2931" lon="2.58114">
        <ele>95</ele>
        <time>2023-07-27T09:43:37.555+00:00</time>
      </trkpt>
      <trkpt lat="48.29314" lon="2.5811">
        <ele>95</ele>
        <time>2023-07-27T09:43:42.066+00:00</time>
      </trkpt>
      <trkpt lat="48.29318" lon="2.58107">
        <ele>95</ele>
        <time>2023-07-27T09:43:46.575+00:00</time>
      </trkpt>
      <trkpt lat="48.29322" lon="2.581">
        <ele>95</ele>
        <time>2023-07-27T09:43:51.081+00:00</time>
      </trkpt>
      <trkpt lat="48.29325" lon="2.58094">
        <ele>97</ele>
        <time>2023-07-27T09:43:55.268+00:00</time>
      </trkpt>
      <trkpt lat="48.29328" lon="2.58089">
        <ele>97</ele>
        <time>2023-07-27T09:43:59.307+00:00</time>
      </trkpt>
      <trkpt lat="48.29331" lon="2.58084">
        <ele>97</ele>
        <time>2023-07-27T09:44:03.834+00:00</time>
      </trkpt>
      <trkpt lat="48.2933" lon="2.58084">
        <ele>97</ele>
        <time>2023-07-27T09:44:07.851+00:00</time>
      </trkpt>
      <trkpt lat="48.29333" lon="2.58083">
        <ele>97</ele>
        <time>2023-07-27T09:44:11.965+00:00</time>
      </trkpt>
      <trkpt lat="48.29337" lon="2.58073">
        <ele>97</ele>
        <time>2023-07-27T09:44:15.976+00:00</time>
      </trkpt>
      <trkpt lat="48.2934" lon="2.58057">
        <ele>98</ele>
        <time>2023-07-27T09:44:47.839+00:00</time>
      </trkpt>
      <trkpt lat="48.29341" lon="2.58056">
        <ele>98</ele>
        <time>2023-07-27T09:44:52.579+00:00</time>
      </trkpt>
      <trkpt lat="48.29343" lon="2.58055">
        <ele>98</ele>
        <time>2023-07-27T09:44:56.762+00:00</time>
      </trkpt>
      <trkpt lat="48.29345" lon="2.58055">
        <ele>98</ele>
        <time>2023-07-27T09:45:01.221+00:00</time>
      </trkpt>
      <trkpt lat="48.29346" lon="2.58056">
        <ele>98</ele>
        <time>2023-07-27T09:45:05.601+00:00</time>
      </trkpt>
      <trkpt lat="48.2935" lon="2.58059">
        <ele>97</ele>
        <time>2023-07-27T09:45:09.520+00:00</time>
      </trkpt>
      <trkpt lat="48.29352" lon="2.58054">
        <ele>97</ele>
        <time>2023-07-27T09:45:13.459+00:00</time>
      </trkpt>
      <trkpt lat="48.29354" lon="2.5805">
        <ele>97</ele>
        <time>2023-07-27T09:45:17.780+00:00</time>
      </trkpt>
      <trkpt lat="48.29353" lon="2.58046">
        <ele>97</ele>
        <time>2023-07-27T09:45:21.901+00:00</time>
      </trkpt>
      <trkpt lat="48.29353" lon="2.58042">
        <ele>96</ele>
        <time>2023-07-27T09:45:26.500+00:00</time>
      </trkpt>
      <trkpt lat="48.29352" lon="2.58034">
        <ele>96</ele>
        <time>2023-07-27T09:45:51.490+00:00</time>
      </trkpt>
      <trkpt lat="48.2935" lon="2.58038">
        <ele>96</ele>
        <time>2023-07-27T09:45:55.493+00:00</time>
      </trkpt>
      <trkpt lat="48.2935" lon="2.58046">
        <ele>97</ele>
        <time>2023-07-27T09:45:59.595+00:00</time>
      </trkpt>
      <trkpt lat="48.29356" lon="2.58048">
        <ele>97</ele>
        <time>2023-07-27T09:46:04.177+00:00</time>
      </trkpt>
      <trkpt lat="48.29359" lon="2.58049">
        <ele>97</ele>
        <time>2023-07-27T09:46:08.801+00:00</time>
      </trkpt>
      <trkpt lat="48.29358" lon="2.58051">
        <ele>97</ele>
        <time>2023-07-27T09:46:26.544+00:00</time>
      </trkpt>
      <trkpt lat="48.29358" lon="2.58051">
        <ele>97</ele>
        <time>2023-07-27T09:46:31.651+00:00</time>
      </trkpt>
      <trkpt lat="48.29357" lon="2.58049">
        <ele>97</ele>
        <time>2023-07-27T09:46:35.655+00:00</time>
      </trkpt>
      <trkpt lat="48.29354" lon="2.58046">
        <ele>97</ele>
        <time>2023-07-27T09:46:39.659+00:00</time>
      </trkpt>
      <trkpt lat="48.29353" lon="2.58039">
        <ele>96</ele>
        <time>2023-07-27T09:46:44.761+00:00</time>
      </trkpt>
      <trkpt lat="48.29354" lon="2.58032">
        <ele>96</ele>
        <time>2023-07-27T09:46:48.881+00:00</time>
      </trkpt>
      <trkpt lat="48.29354" lon="2.58025">
        <ele>96</ele>
        <time>2023-07-27T09:46:52.522+00:00</time>
      </trkpt>
      <trkpt lat="48.29352" lon="2.58019">
        <ele>96</ele>
        <time>2023-07-27T09:46:57.303+00:00</time>
      </trkpt>
      <trkpt lat="48.2935" lon="2.58011">
        <ele>95</ele>
        <time>2023-07-27T09:47:01.905+00:00</time>
      </trkpt>
      <trkpt lat="48.29348" lon="2.58006">
        <ele>95</ele>
        <time>2023-07-27T09:47:06.066+00:00</time>
      </trkpt>
      <trkpt lat="48.29347" lon="2.57998">
        <ele>95</ele>
        <time>2023-07-27T09:47:10.485+00:00</time>
      </trkpt>
      <trkpt lat="48.29347" lon="2.57993">
        <ele>98</ele>
        <time>2023-07-27T09:47:14.505+00:00</time>
      </trkpt>
      <trkpt lat="48.29347" lon="2.5799">
        <ele>98</ele>
        <time>2023-07-27T09:47:18.526+00:00</time>
      </trkpt>
      <trkpt lat="48.29346" lon="2.57988">
        <ele>98</ele>
        <time>2023-07-27T09:47:23.267+00:00</time>
      </trkpt>
      <trkpt lat="48.29346" lon="2.57987">
        <ele>98</ele>
        <time>2023-07-27T09:47:27.924+00:00</time>
      </trkpt>
      <trkpt lat="48.29346" lon="2.57984">
        <ele>98</ele>
        <time>2023-07-27T09:47:32.403+00:00</time>
      </trkpt>
      <trkpt lat="48.29347" lon="2.57978">
        <ele>98</ele>
        <time>2023-07-27T09:47:36.565+00:00</time>
      </trkpt>
      <trkpt lat="48.29349" lon="2.57974">
        <ele>96</ele>
        <time>2023-07-27T09:47:40.770+00:00</time>
      </trkpt>
      <trkpt lat="48.29351" lon="2.57969">
        <ele>96</ele>
        <time>2023-07-27T09:47:44.872+00:00</time>
      </trkpt>
      <trkpt lat="48.29355" lon="2.57967">
        <ele>96</ele>
        <time>2023-07-27T09:47:48.895+00:00</time>
      </trkpt>
      <trkpt lat="48.29359" lon="2.57966">
        <ele>96</ele>
        <time>2023-07-27T09:47:53.470+00:00</time>
      </trkpt>
      <trkpt lat="48.29362" lon="2.57966">
        <ele>96</ele>
        <time>2023-07-27T09:47:57.502+00:00</time>
      </trkpt>
      <trkpt lat="48.29366" lon="2.57964">
        <ele>96</ele>
        <time>2023-07-27T09:48:02.006+00:00</time>
      </trkpt>
      <trkpt lat="48.2937" lon="2.57961">
        <ele>96</ele>
        <time>2023-07-27T09:48:06.512+00:00</time>
      </trkpt>
      <trkpt lat="48.29373" lon="2.5796">
        <ele>96</ele>
        <time>2023-07-27T09:48:10.515+00:00</time>
      </trkpt>
      <trkpt lat="48.29376" lon="2.5796">
        <ele>91</ele>
        <time>2023-07-27T09:48:15.017+00:00</time>
      </trkpt>
      <trkpt lat="48.29382" lon="2.57961">
        <ele>91</ele>
        <time>2023-07-27T09:48:19.739+00:00</time>
      </trkpt>
      <trkpt lat="48.29388" lon="2.57959">
        <ele>91</ele>
        <time>2023-07-27T09:48:23.738+00:00</time>
      </trkpt>
      <trkpt lat="48.29393" lon="2.57957">
        <ele>94</ele>
        <time>2023-07-27T09:48:27.658+00:00</time>
      </trkpt>
      <trkpt lat="48.29398" lon="2.57955">
        <ele>94</ele>
        <time>2023-07-27T09:48:32.117+00:00</time>
      </trkpt>
      <trkpt lat="48.29402" lon="2.57951">
        <ele>94</ele>
        <time>2023-07-27T09:48:36.518+00:00</time>
      </trkpt>
      <trkpt lat="48.29406" lon="2.57948">
        <ele>89</ele>
        <time>2023-07-27T09:48:41.077+00:00</time>
      </trkpt>
      <trkpt lat="48.29411" lon="2.57945">
        <ele>89</ele>
        <time>2023-07-27T09:48:45.318+00:00</time>
      </trkpt>
      <trkpt lat="48.29414" lon="2.57943">
        <ele>89</ele>
        <time>2023-07-27T09:48:49.897+00:00</time>
      </trkpt>
      <trkpt lat="48.29418" lon="2.5794">
        <ele>89</ele>
        <time>2023-07-27T09:48:53.758+00:00</time>
      </trkpt>
      <trkpt lat="48.2942" lon="2.57934">
        <ele>89</ele>
        <time>2023-07-27T09:48:58.290+00:00</time>
      </trkpt>
      <trkpt lat="48.29421" lon="2.57928">
        <ele>92</ele>
        <time>2023-07-27T09:49:02.651+00:00</time>
      </trkpt>
      <trkpt lat="48.29423" lon="2.57924">
        <ele>92</ele>
        <time>2023-07-27T09:49:06.537+00:00</time>
      </trkpt>
      <trkpt lat="48.29424" lon="2.57918">
        <ele>92</ele>
        <time>2023-07-27T09:49:10.898+00:00</time>
      </trkpt>
      <trkpt lat="48.29428" lon="2.57913">
        <ele>92</ele>
        <time>2023-07-27T09:49:14.969+00:00</time>
      </trkpt>
      <trkpt lat="48.29434" lon="2.57911">
        <ele>91</ele>
        <time>2023-07-27T09:49:19.920+00:00</time>
      </trkpt>
      <trkpt lat="48.29438" lon="2.57915">
        <ele>91</ele>
        <time>2023-07-27T09:49:23.800+00:00</time>
      </trkpt>
      <trkpt lat="48.29442" lon="2.57913">
        <ele>91</ele>
        <time>2023-07-27T09:49:28.926+00:00</time>
      </trkpt>
      <trkpt lat="48.29443" lon="2.5791">
        <ele>91</ele>
        <time>2023-07-27T09:49:32.940+00:00</time>
      </trkpt>
      <trkpt lat="48.29447" lon="2.57913">
        <ele>91</ele>
        <time>2023-07-27T09:49:37.453+00:00</time>
      </trkpt>
      <trkpt lat="48.29451" lon="2.57931">
        <ele>90</ele>
        <time>2023-07-27T09:49:41.562+00:00</time>
      </trkpt>
      <trkpt lat="48.29456" lon="2.57933">
        <ele>90</ele>
        <time>2023-07-27T09:49:54.713+00:00</time>
      </trkpt>
      <trkpt lat="48.29457" lon="2.57936">
        <ele>90</ele>
        <time>2023-07-27T09:49:59.227+00:00</time>
      </trkpt>
      <trkpt lat="48.29461" lon="2.57943">
        <ele>89</ele>
        <time>2023-07-27T09:50:03.237+00:00</time>
      </trkpt>
      <trkpt lat="48.29467" lon="2.5795">
        <ele>89</ele>
        <time>2023-07-27T09:50:07.847+00:00</time>
      </trkpt>
      <trkpt lat="48.29474" lon="2.57955">
        <ele>89</ele>
        <time>2023-07-27T09:50:11.869+00:00</time>
      </trkpt>
      <trkpt lat="48.29481" lon="2.57961">
        <ele>88</ele>
        <time>2023-07-27T09:50:16.393+00:00</time>
      </trkpt>
      <trkpt lat="48.29485" lon="2.57963">
        <ele>88</ele>
        <time>2023-07-27T09:50:20.900+00:00</time>
      </trkpt>
      <trkpt lat="48.29489" lon="2.57962">
        <ele>89</ele>
        <time>2023-07-27T09:50:25.407+00:00</time>
      </trkpt>
      <trkpt lat="48.29492" lon="2.57959">
        <ele>89</ele>
        <time>2023-07-27T09:50:29.412+00:00</time>
      </trkpt>
      <trkpt lat="48.29495" lon="2.57956">
        <ele>89</ele>
        <time>2023-07-27T09:50:33.919+00:00</time>
      </trkpt>
      <trkpt lat="48.29497" lon="2.57954">
        <ele>89</ele>
        <time>2023-07-27T09:50:37.924+00:00</time>
      </trkpt>
      <trkpt lat="48.29499" lon="2.57954">
        <ele>89</ele>
        <time>2023-07-27T09:50:41.527+00:00</time>
      </trkpt>
      <trkpt lat="48.29504" lon="2.57949">
        <ele>89</ele>
        <time>2023-07-27T09:50:46.530+00:00</time>
      </trkpt>
      <trkpt lat="48.29508" lon="2.57943">
        <ele>89</ele>
        <time>2023-07-27T09:50:50.592+00:00</time>
      </trkpt>
      <trkpt lat="48.29511" lon="2.57937">
        <ele>89</ele>
        <time>2023-07-27T09:50:54.372+00:00</time>
      </trkpt>
      <trkpt lat="48.29512" lon="2.57931">
        <ele>89</ele>
        <time>2023-07-27T09:50:59.033+00:00</time>
      </trkpt>
      <trkpt lat="48.29513" lon="2.57925">
        <ele>89</ele>
        <time>2023-07-27T09:51:03.493+00:00</time>
      </trkpt>
      <trkpt lat="48.29514" lon="2.57918">
        <ele>89</ele>
        <time>2023-07-27T09:51:07.854+00:00</time>
      </trkpt>
      <trkpt lat="48.29512" lon="2.57911">
        <ele>89</ele>
        <time>2023-07-27T09:51:12.214+00:00</time>
      </trkpt>
      <trkpt lat="48.29511" lon="2.57904">
        <ele>89</ele>
        <time>2023-07-27T09:51:16.494+00:00</time>
      </trkpt>
      <trkpt lat="48.2951" lon="2.57902">
        <ele>91</ele>
        <time>2023-07-27T09:51:20.517+00:00</time>
      </trkpt>
      <trkpt lat="48.29506" lon="2.57897">
        <ele>91</ele>
        <time>2023-07-27T09:51:25.457+00:00</time>
      </trkpt>
      <trkpt lat="48.29504" lon="2.57891">
        <ele>91</ele>
        <time>2023-07-27T09:51:29.494+00:00</time>
      </trkpt>
      <trkpt lat="48.29503" lon="2.57889">
        <ele>91</ele>
        <time>2023-07-27T09:51:33.691+00:00</time>
      </trkpt>
      <trkpt lat="48.29502" lon="2.57886">
        <ele>91</ele>
        <time>2023-07-27T09:51:37.510+00:00</time>
      </trkpt>
      <trkpt lat="48.295" lon="2.5788">
        <ele>91</ele>
        <time>2023-07-27T09:51:41.810+00:00</time>
      </trkpt>
      <trkpt lat="48.29497" lon="2.57871">
        <ele>93</ele>
        <time>2023-07-27T09:51:46.359+00:00</time>
      </trkpt>
      <trkpt lat="48.29499" lon="2.57861">
        <ele>93</ele>
        <time>2023-07-27T09:51:50.869+00:00</time>
      </trkpt>
      <trkpt lat="48.29503" lon="2.57858">
        <ele>93</ele>
        <time>2023-07-27T09:51:54.906+00:00</time>
      </trkpt>
      <trkpt lat="48.29505" lon="2.5785">
        <ele>93</ele>
        <time>2023-07-27T09:51:59.505+00:00</time>
      </trkpt>
      <trkpt lat="48.29506" lon="2.57846">
        <ele>96</ele>
        <time>2023-07-27T09:52:03.484+00:00</time>
      </trkpt>
      <trkpt lat="48.29505" lon="2.57844">
        <ele>96</ele>
        <time>2023-07-27T09:52:08.181+00:00</time>
      </trkpt>
      <trkpt lat="48.29506" lon="2.57837">
        <ele>96</ele>
        <time>2023-07-27T09:52:12.702+00:00</time>
      </trkpt>
      <trkpt lat="48.29509" lon="2.5783">
        <ele>96</ele>
        <time>2023-07-27T09:52:16.639+00:00</time>
      </trkpt>
      <trkpt lat="48.29511" lon="2.57826">
        <ele>96</ele>
        <time>2023-07-27T09:52:20.737+00:00</time>
      </trkpt>
      <trkpt lat="48.29512" lon="2.57819">
        <ele>97</ele>
        <time>2023-07-27T09:52:25.533+00:00</time>
      </trkpt>
      <trkpt lat="48.29512" lon="2.57816">
        <ele>97</ele>
        <time>2023-07-27T09:52:29.730+00:00</time>
      </trkpt>
      <trkpt lat="48.29514" lon="2.57813">
        <ele>97</ele>
        <time>2023-07-27T09:52:34.488+00:00</time>
      </trkpt>
      <trkpt lat="48.29514" lon="2.57809">
        <ele>96</ele>
        <time>2023-07-27T09:52:38.682+00:00</time>
      </trkpt>
      <trkpt lat="48.29515" lon="2.57801">
        <ele>96</ele>
        <time>2023-07-27T09:52:42.757+00:00</time>
      </trkpt>
      <trkpt lat="48.29515" lon="2.57798">
        <ele>96</ele>
        <time>2023-07-27T09:52:47.314+00:00</time>
      </trkpt>
      <trkpt lat="48.29519" lon="2.57795">
        <ele>96</ele>
        <time>2023-07-27T09:52:51.871+00:00</time>
      </trkpt>
      <trkpt lat="48.2952" lon="2.57795">
        <ele>96</ele>
        <time>2023-07-27T09:52:55.948+00:00</time>
      </trkpt>
      <trkpt lat="48.29524" lon="2.57791">
        <ele>99</ele>
        <time>2023-07-27T09:53:00.505+00:00</time>
      </trkpt>
      <trkpt lat="48.29526" lon="2.57787">
        <ele>99</ele>
        <time>2023-07-27T09:53:04.703+00:00</time>
      </trkpt>
      <trkpt lat="48.29527" lon="2.57783">
        <ele>99</ele>
        <time>2023-07-27T09:53:09.142+00:00</time>
      </trkpt>
      <trkpt lat="48.29529" lon="2.57779">
        <ele>99</ele>
        <time>2023-07-27T09:53:13.881+00:00</time>
      </trkpt>
      <trkpt lat="48.2953" lon="2.57779">
        <ele>99</ele>
        <time>2023-07-27T09:53:17.840+00:00</time>
      </trkpt>
      <trkpt lat="48.29533" lon="2.57779">
        <ele>99</ele>
        <time>2023-07-27T09:53:22.517+00:00</time>
      </trkpt>
      <trkpt lat="48.29538" lon="2.57776">
        <ele>99</ele>
        <time>2023-07-27T09:53:26.675+00:00</time>
      </trkpt>
      <trkpt lat="48.29544" lon="2.57776">
        <ele>99</ele>
        <time>2023-07-27T09:53:31.204+00:00</time>
      </trkpt>
      <trkpt lat="48.29547" lon="2.57773">
        <ele>99</ele>
        <time>2023-07-27T09:53:35.150+00:00</time>
      </trkpt>
      <trkpt lat="48.2955" lon="2.57774">
        <ele>99</ele>
        <time>2023-07-27T09:53:39.309+00:00</time>
      </trkpt>
      <trkpt lat="48.29553" lon="2.57774">
        <ele>99</ele>
        <time>2023-07-27T09:53:43.506+00:00</time>
      </trkpt>
      <trkpt lat="48.29557" lon="2.57774">
        <ele>99</ele>
        <time>2023-07-27T09:53:47.505+00:00</time>
      </trkpt>
      <trkpt lat="48.29559" lon="2.57772">
        <ele>99</ele>
        <time>2023-07-27T09:53:52.163+00:00</time>
      </trkpt>
      <trkpt lat="48.29562" lon="2.5777">
        <ele>99</ele>
        <time>2023-07-27T09:53:56.685+00:00</time>
      </trkpt>
      <trkpt lat="48.29564" lon="2.57768">
        <ele>99</ele>
        <time>2023-07-27T09:54:00.841+00:00</time>
      </trkpt>
      <trkpt lat="48.29567" lon="2.57765">
        <ele>99</ele>
        <time>2023-07-27T09:54:05.642+00:00</time>
      </trkpt>
      <trkpt lat="48.2957" lon="2.57761">
        <ele>103</ele>
        <time>2023-07-27T09:54:10.021+00:00</time>
      </trkpt>
      <trkpt lat="48.29577" lon="2.57755">
        <ele>103</ele>
        <time>2023-07-27T09:54:14.539+00:00</time>
      </trkpt>
      <trkpt lat="48.29581" lon="2.57753">
        <ele>103</ele>
        <time>2023-07-27T09:54:19.095+00:00</time>
      </trkpt>
      <trkpt lat="48.29585" lon="2.5775">
        <ele>103</ele>
        <time>2023-07-27T09:54:23.892+00:00</time>
      </trkpt>
      <trkpt lat="48.29588" lon="2.57758">
        <ele>103</ele>
        <time>2023-07-27T09:54:28.531+00:00</time>
      </trkpt>
      <trkpt lat="48.29594" lon="2.57763">
        <ele>103</ele>
        <time>2023-07-27T09:54:33.074+00:00</time>
      </trkpt>
      <trkpt lat="48.29597" lon="2.57766">
        <ele>101</ele>
        <time>2023-07-27T09:54:37.076+00:00</time>
      </trkpt>
      <trkpt lat="48.296" lon="2.57765">
        <ele>102</ele>
        <time>2023-07-27T09:54:41.118+00:00</time>
      </trkpt>
      <trkpt lat="48.29602" lon="2.57764">
        <ele>102</ele>
        <time>2023-07-27T09:54:45.640+00:00</time>
      </trkpt>
      <trkpt lat="48.29606" lon="2.57762">
        <ele>105</ele>
        <time>2023-07-27T09:54:49.821+00:00</time>
      </trkpt>
      <trkpt lat="48.29611" lon="2.57765">
        <ele>102</ele>
        <time>2023-07-27T09:54:54.359+00:00</time>
      </trkpt>
      <trkpt lat="48.29615" lon="2.57761">
        <ele>105</ele>
        <time>2023-07-27T09:54:58.479+00:00</time>
      </trkpt>
      <trkpt lat="48.29619" lon="2.57762">
        <ele>105</ele>
        <time>2023-07-27T09:55:03.158+00:00</time>
      </trkpt>
      <trkpt lat="48.29626" lon="2.57769">
        <ele>105</ele>
        <time>2023-07-27T09:55:07.979+00:00</time>
      </trkpt>
      <trkpt lat="48.2963" lon="2.57776">
        <ele>105</ele>
        <time>2023-07-27T09:55:12.343+00:00</time>
      </trkpt>
      <trkpt lat="48.29632" lon="2.57784">
        <ele>105</ele>
        <time>2023-07-27T09:55:16.308+00:00</time>
      </trkpt>
      <trkpt lat="48.29632" lon="2.5779">
        <ele>105</ele>
        <time>2023-07-27T09:55:20.503+00:00</time>
      </trkpt>
      <trkpt lat="48.29633" lon="2.57797">
        <ele>103</ele>
        <time>2023-07-27T09:55:25.297+00:00</time>
      </trkpt>
      <trkpt lat="48.29637" lon="2.57803">
        <ele>103</ele>
        <time>2023-07-27T09:55:29.834+00:00</time>
      </trkpt>
      <trkpt lat="48.2964" lon="2.57806">
        <ele>103</ele>
        <time>2023-07-27T09:55:33.994+00:00</time>
      </trkpt>
      <trkpt lat="48.29639" lon="2.57812">
        <ele>103</ele>
        <time>2023-07-27T09:55:38.556+00:00</time>
      </trkpt>
      <trkpt lat="48.2964" lon="2.57818">
        <ele>103</ele>
        <time>2023-07-27T09:55:42.981+00:00</time>
      </trkpt>
      <trkpt lat="48.29644" lon="2.57825">
        <ele>100</ele>
        <time>2023-07-27T09:55:47.559+00:00</time>
      </trkpt>
      <trkpt lat="48.29645" lon="2.57834">
        <ele>100</ele>
        <time>2023-07-27T09:55:52.803+00:00</time>
      </trkpt>
      <trkpt lat="48.29646" lon="2.57841">
        <ele>100</ele>
        <time>2023-07-27T09:55:56.661+00:00</time>
      </trkpt>
      <trkpt lat="48.29653" lon="2.57845">
        <ele>104</ele>
        <time>2023-07-27T09:56:01.021+00:00</time>
      </trkpt>
      <trkpt lat="48.29658" lon="2.57847">
        <ele>104</ele>
        <time>2023-07-27T09:56:05.302+00:00</time>
      </trkpt>
      <trkpt lat="48.29661" lon="2.57845">
        <ele>104</ele>
        <time>2023-07-27T09:56:09.442+00:00</time>
      </trkpt>
      <trkpt lat="48.29664" lon="2.57841">
        <ele>104</ele>
        <time>2023-07-27T09:56:14.343+00:00</time>
      </trkpt>
      <trkpt lat="48.29666" lon="2.57838">
        <ele>104</ele>
        <time>2023-07-27T09:56:18.974+00:00</time>
      </trkpt>
      <trkpt lat="48.29668" lon="2.57836">
        <ele>104</ele>
        <time>2023-07-27T09:56:22.644+00:00</time>
      </trkpt>
      <trkpt lat="48.29671" lon="2.57833">
        <ele>104</ele>
        <time>2023-07-27T09:56:27.065+00:00</time>
      </trkpt>
      <trkpt lat="48.29673" lon="2.57833">
        <ele>104</ele>
        <time>2023-07-27T09:56:31.887+00:00</time>
      </trkpt>
      <trkpt lat="48.29675" lon="2.57832">
        <ele>104</ele>
        <time>2023-07-27T09:56:36.864+00:00</time>
      </trkpt>
      <trkpt lat="48.29679" lon="2.57832">
        <ele>104</ele>
        <time>2023-07-27T09:56:41.359+00:00</time>
      </trkpt>
      <trkpt lat="48.29681" lon="2.57833">
        <ele>107</ele>
        <time>2023-07-27T09:56:45.865+00:00</time>
      </trkpt>
      <trkpt lat="48.29685" lon="2.57835">
        <ele>107</ele>
        <time>2023-07-27T09:56:50.467+00:00</time>
      </trkpt>
      <trkpt lat="48.29688" lon="2.57836">
        <ele>107</ele>
        <time>2023-07-27T09:56:54.470+00:00</time>
      </trkpt>
      <trkpt lat="48.2969" lon="2.57843">
        <ele>107</ele>
        <time>2023-07-27T09:56:59.630+00:00</time>
      </trkpt>
      <trkpt lat="48.29691" lon="2.57848">
        <ele>104</ele>
        <time>2023-07-27T09:57:03.633+00:00</time>
      </trkpt>
      <trkpt lat="48.29691" lon="2.57848">
        <ele>104</ele>
        <time>2023-07-27T09:57:08.715+00:00</time>
      </trkpt>
      <trkpt lat="48.29693" lon="2.57852">
        <ele>104</ele>
        <time>2023-07-27T09:57:12.877+00:00</time>
      </trkpt>
      <trkpt lat="48.29697" lon="2.57856">
        <ele>104</ele>
        <time>2023-07-27T09:57:16.977+00:00</time>
      </trkpt>
      <trkpt lat="48.29701" lon="2.57858">
        <ele>104</ele>
        <time>2023-07-27T09:57:21.497+00:00</time>
      </trkpt>
      <trkpt lat="48.29704" lon="2.57863">
        <ele>104</ele>
        <time>2023-07-27T09:57:25.877+00:00</time>
      </trkpt>
      <trkpt lat="48.29705" lon="2.57864">
        <ele>104</ele>
        <time>2023-07-27T09:57:30.976+00:00</time>
      </trkpt>
      <trkpt lat="48.29704" lon="2.57865">
        <ele>104</ele>
        <time>2023-07-27T09:57:35.987+00:00</time>
      </trkpt>
      <trkpt lat="48.29707" lon="2.57869">
        <ele>104</ele>
        <time>2023-07-27T09:57:40.411+00:00</time>
      </trkpt>
      <trkpt lat="48.29712" lon="2.57873">
        <ele>109</ele>
        <time>2023-07-27T09:57:44.970+00:00</time>
      </trkpt>
      <trkpt lat="48.29715" lon="2.57879">
        <ele>105</ele>
        <time>2023-07-27T09:57:49.489+00:00</time>
      </trkpt>
      <trkpt lat="48.29718" lon="2.57886">
        <ele>105</ele>
        <time>2023-07-27T09:57:53.567+00:00</time>
      </trkpt>
      <trkpt lat="48.29719" lon="2.57891">
        <ele>105</ele>
        <time>2023-07-27T09:57:58.106+00:00</time>
      </trkpt>
      <trkpt lat="48.29721" lon="2.57899">
        <ele>105</ele>
        <time>2023-07-27T09:58:02.566+00:00</time>
      </trkpt>
      <trkpt lat="48.29725" lon="2.57902">
        <ele>105</ele>
        <time>2023-07-27T09:58:06.525+00:00</time>
      </trkpt>
      <trkpt lat="48.2973" lon="2.57902">
        <ele>105</ele>
        <time>2023-07-27T09:58:10.663+00:00</time>
      </trkpt>
      <trkpt lat="48.29735" lon="2.57904">
        <ele>100</ele>
        <time>2023-07-27T09:58:15.343+00:00</time>
      </trkpt>
      <trkpt lat="48.29739" lon="2.57904">
        <ele>102</ele>
        <time>2023-07-27T09:58:19.260+00:00</time>
      </trkpt>
      <trkpt lat="48.29741" lon="2.57907">
        <ele>102</ele>
        <time>2023-07-27T09:58:23.937+00:00</time>
      </trkpt>
      <trkpt lat="48.29741" lon="2.57911">
        <ele>102</ele>
        <time>2023-07-27T09:58:27.972+00:00</time>
      </trkpt>
      <trkpt lat="48.2974" lon="2.5792">
        <ele>102</ele>
        <time>2023-07-27T09:58:32.533+00:00</time>
      </trkpt>
      <trkpt lat="48.29744" lon="2.57926">
        <ele>102</ele>
        <time>2023-07-27T09:58:37.149+00:00</time>
      </trkpt>
      <trkpt lat="48.29747" lon="2.57926">
        <ele>102</ele>
        <time>2023-07-27T09:58:45.303+00:00</time>
      </trkpt>
      <trkpt lat="48.29748" lon="2.57928">
        <ele>102</ele>
        <time>2023-07-27T09:58:49.859+00:00</time>
      </trkpt>
      <trkpt lat="48.29747" lon="2.57931">
        <ele>102</ele>
        <time>2023-07-27T09:58:54.536+00:00</time>
      </trkpt>
      <trkpt lat="48.2975" lon="2.57933">
        <ele>97</ele>
        <time>2023-07-27T09:58:59.147+00:00</time>
      </trkpt>
      <trkpt lat="48.29754" lon="2.57934">
        <ele>97</ele>
        <time>2023-07-27T09:59:03.562+00:00</time>
      </trkpt>
      <trkpt lat="48.29758" lon="2.57951">
        <ele>97</ele>
        <time>2023-07-27T09:59:29.644+00:00</time>
      </trkpt>
      <trkpt lat="48.29755" lon="2.57956">
        <ele>97</ele>
        <time>2023-07-27T09:59:34.106+00:00</time>
      </trkpt>
      <trkpt lat="48.2975" lon="2.57959">
        <ele>95</ele>
        <time>2023-07-27T09:59:38.097+00:00</time>
      </trkpt>
      <trkpt lat="48.29747" lon="2.57965">
        <ele>95</ele>
        <time>2023-07-27T09:59:42.883+00:00</time>
      </trkpt>
      <trkpt lat="48.29747" lon="2.57974">
        <ele>95</ele>
        <time>2023-07-27T09:59:47.202+00:00</time>
      </trkpt>
      <trkpt lat="48.29744" lon="2.57979">
        <ele>95</ele>
        <time>2023-07-27T09:59:51.275+00:00</time>
      </trkpt>
      <trkpt lat="48.29741" lon="2.57984">
        <ele>95</ele>
        <time>2023-07-27T09:59:55.810+00:00</time>
      </trkpt>
      <trkpt lat="48.29737" lon="2.57988">
        <ele>92</ele>
        <time>2023-07-27T10:00:00.262+00:00</time>
      </trkpt>
      <trkpt lat="48.29731" lon="2.5799">
        <ele>94</ele>
        <time>2023-07-27T10:00:04.674+00:00</time>
      </trkpt>
      <trkpt lat="48.29729" lon="2.57993">
        <ele>94</ele>
        <time>2023-07-27T10:00:08.750+00:00</time>
      </trkpt>
      <trkpt lat="48.29725" lon="2.57998">
        <ele>94</ele>
        <time>2023-07-27T10:00:13.121+00:00</time>
      </trkpt>
      <trkpt lat="48.2972" lon="2.58">
        <ele>94</ele>
        <time>2023-07-27T10:00:17.291+00:00</time>
      </trkpt>
      <trkpt lat="48.29715" lon="2.57999">
        <ele>94</ele>
        <time>2023-07-27T10:00:21.970+00:00</time>
      </trkpt>
      <trkpt lat="48.29711" lon="2.58">
        <ele>94</ele>
        <time>2023-07-27T10:00:25.790+00:00</time>
      </trkpt>
      <trkpt lat="48.29705" lon="2.58003">
        <ele>89</ele>
        <time>2023-07-27T10:00:30.051+00:00</time>
      </trkpt>
      <trkpt lat="48.29701" lon="2.58002">
        <ele>89</ele>
        <time>2023-07-27T10:00:34.771+00:00</time>
      </trkpt>
      <trkpt lat="48.297" lon="2.58006">
        <ele>89</ele>
        <time>2023-07-27T10:00:39.547+00:00</time>
      </trkpt>
      <trkpt lat="48.29694" lon="2.58007">
        <ele>89</ele>
        <time>2023-07-27T10:00:43.952+00:00</time>
      </trkpt>
      <trkpt lat="48.29689" lon="2.58012">
        <ele>89</ele>
        <time>2023-07-27T10:00:48.455+00:00</time>
      </trkpt>
      <trkpt lat="48.29686" lon="2.58015">
        <ele>88</ele>
        <time>2023-07-27T10:00:52.958+00:00</time>
      </trkpt>
      <trkpt lat="48.29681" lon="2.58018">
        <ele>86</ele>
        <time>2023-07-27T10:00:57.460+00:00</time>
      </trkpt>
      <trkpt lat="48.29676" lon="2.58022">
        <ele>86</ele>
        <time>2023-07-27T10:01:01.964+00:00</time>
      </trkpt>
      <trkpt lat="48.29674" lon="2.58029">
        <ele>86</ele>
        <time>2023-07-27T10:01:06.167+00:00</time>
      </trkpt>
      <trkpt lat="48.29675" lon="2.58037">
        <ele>86</ele>
        <time>2023-07-27T10:01:10.828+00:00</time>
      </trkpt>
      <trkpt lat="48.29675" lon="2.58044">
        <ele>86</ele>
        <time>2023-07-27T10:01:15.350+00:00</time>
      </trkpt>
      <trkpt lat="48.29677" lon="2.58053">
        <ele>86</ele>
        <time>2023-07-27T10:01:19.868+00:00</time>
      </trkpt>
      <trkpt lat="48.29679" lon="2.58058">
        <ele>86</ele>
        <time>2023-07-27T10:01:23.495+00:00</time>
      </trkpt>
      <trkpt lat="48.29681" lon="2.58064">
        <ele>88</ele>
        <time>2023-07-27T10:01:27.997+00:00</time>
      </trkpt>
      <trkpt lat="48.29683" lon="2.58071">
        <ele>87</ele>
        <time>2023-07-27T10:01:32.499+00:00</time>
      </trkpt>
      <trkpt lat="48.29685" lon="2.58078">
        <ele>87</ele>
        <time>2023-07-27T10:01:37.103+00:00</time>
      </trkpt>
      <trkpt lat="48.29687" lon="2.58086">
        <ele>87</ele>
        <time>2023-07-27T10:01:41.713+00:00</time>
      </trkpt>
      <trkpt lat="48.29688" lon="2.58091">
        <ele>87</ele>
        <time>2023-07-27T10:01:45.927+00:00</time>
      </trkpt>
      <trkpt lat="48.29689" lon="2.58099">
        <ele>86</ele>
        <time>2023-07-27T10:01:50.029+00:00</time>
      </trkpt>
      <trkpt lat="48.29691" lon="2.58108">
        <ele>86</ele>
        <time>2023-07-27T10:01:54.190+00:00</time>
      </trkpt>
      <trkpt lat="48.29693" lon="2.58118">
        <ele>86</ele>
        <time>2023-07-27T10:01:58.971+00:00</time>
      </trkpt>
      <trkpt lat="48.29694" lon="2.58125">
        <ele>86</ele>
        <time>2023-07-27T10:02:03.053+00:00</time>
      </trkpt>
      <trkpt lat="48.29696" lon="2.58131">
        <ele>86</ele>
        <time>2023-07-27T10:02:07.555+00:00</time>
      </trkpt>
      <trkpt lat="48.29696" lon="2.58139">
        <ele>86</ele>
        <time>2023-07-27T10:02:12.077+00:00</time>
      </trkpt>
      <trkpt lat="48.29697" lon="2.58142">
        <ele>86</ele>
        <time>2023-07-27T10:02:16.080+00:00</time>
      </trkpt>
      <trkpt lat="48.29698" lon="2.58145">
        <ele>86</ele>
        <time>2023-07-27T10:02:20.083+00:00</time>
      </trkpt>
      <trkpt lat="48.29699" lon="2.58151">
        <ele>86</ele>
        <time>2023-07-27T10:02:24.588+00:00</time>
      </trkpt>
      <trkpt lat="48.29698" lon="2.58159">
        <ele>85</ele>
        <time>2023-07-27T10:02:28.590+00:00</time>
      </trkpt>
      <trkpt lat="48.29701" lon="2.58174">
        <ele>85</ele>
        <time>2023-07-27T10:03:23.983+00:00</time>
      </trkpt>
      <trkpt lat="48.29702" lon="2.58175">
        <ele>85</ele>
        <time>2023-07-27T10:03:28.992+00:00</time>
      </trkpt>
      <trkpt lat="48.29703" lon="2.58177">
        <ele>85</ele>
        <time>2023-07-27T10:03:33.008+00:00</time>
      </trkpt>
      <trkpt lat="48.29703" lon="2.58181">
        <ele>84</ele>
        <time>2023-07-27T10:03:37.971+00:00</time>
      </trkpt>
      <trkpt lat="48.29703" lon="2.58185">
        <ele>84</ele>
        <time>2023-07-27T10:03:42.962+00:00</time>
      </trkpt>
      <trkpt lat="48.29702" lon="2.5819">
        <ele>84</ele>
        <time>2023-07-27T10:03:46.990+00:00</time>
      </trkpt>
      <trkpt lat="48.29699" lon="2.58198">
        <ele>84</ele>
        <time>2023-07-27T10:03:51.959+00:00</time>
      </trkpt>
      <trkpt lat="48.29696" lon="2.58205">
        <ele>84</ele>
        <time>2023-07-27T10:03:55.990+00:00</time>
      </trkpt>
      <trkpt lat="48.29692" lon="2.5821">
        <ele>83</ele>
        <time>2023-07-27T10:04:00.011+00:00</time>
      </trkpt>
      <trkpt lat="48.29687" lon="2.58214">
        <ele>83</ele>
        <time>2023-07-27T10:04:04.511+00:00</time>
      </trkpt>
      <trkpt lat="48.29682" lon="2.58218">
        <ele>83</ele>
        <time>2023-07-27T10:04:09.491+00:00</time>
      </trkpt>
      <trkpt lat="48.29678" lon="2.5822">
        <ele>83</ele>
        <time>2023-07-27T10:04:13.490+00:00</time>
      </trkpt>
      <trkpt lat="48.29673" lon="2.58224">
        <ele>83</ele>
        <time>2023-07-27T10:04:17.948+00:00</time>
      </trkpt>
      <trkpt lat="48.29668" lon="2.58226">
        <ele>83</ele>
        <time>2023-07-27T10:04:22.418+00:00</time>
      </trkpt>
      <trkpt lat="48.29666" lon="2.58228">
        <ele>83</ele>
        <time>2023-07-27T10:04:26.425+00:00</time>
      </trkpt>
      <trkpt lat="48.2966" lon="2.58228">
        <ele>83</ele>
        <time>2023-07-27T10:04:30.542+00:00</time>
      </trkpt>
      <trkpt lat="48.29658" lon="2.58228">
        <ele>83</ele>
        <time>2023-07-27T10:04:35.180+00:00</time>
      </trkpt>
      <trkpt lat="48.29657" lon="2.58231">
        <ele>83</ele>
        <time>2023-07-27T10:04:39.597+00:00</time>
      </trkpt>
      <trkpt lat="48.2966" lon="2.58234">
        <ele>83</ele>
        <time>2023-07-27T10:04:43.823+00:00</time>
      </trkpt>
      <trkpt lat="48.29665" lon="2.58239">
        <ele>82</ele>
        <time>2023-07-27T10:04:47.834+00:00</time>
      </trkpt>
      <trkpt lat="48.29668" lon="2.58245">
        <ele>82</ele>
        <time>2023-07-27T10:04:52.346+00:00</time>
      </trkpt>
      <trkpt lat="48.29669" lon="2.58249">
        <ele>82</ele>
        <time>2023-07-27T10:04:56.861+00:00</time>
      </trkpt>
      <trkpt lat="48.29673" lon="2.58257">
        <ele>82</ele>
        <time>2023-07-27T10:05:01.375+00:00</time>
      </trkpt>
      <trkpt lat="48.29679" lon="2.58264">
        <ele>82</ele>
        <time>2023-07-27T10:05:05.403+00:00</time>
      </trkpt>
      <trkpt lat="48.29684" lon="2.58269">
        <ele>81</ele>
        <time>2023-07-27T10:05:09.415+00:00</time>
      </trkpt>
      <trkpt lat="48.29688" lon="2.58273">
        <ele>81</ele>
        <time>2023-07-27T10:05:13.428+00:00</time>
      </trkpt>
      <trkpt lat="48.29692" lon="2.58276">
        <ele>81</ele>
        <time>2023-07-27T10:05:17.438+00:00</time>
      </trkpt>
      <trkpt lat="48.29696" lon="2.58282">
        <ele>81</ele>
        <time>2023-07-27T10:05:21.550+00:00</time>
      </trkpt>
      <trkpt lat="48.297" lon="2.58286">
        <ele>81</ele>
        <time>2023-07-27T10:05:26.165+00:00</time>
      </trkpt>
      <trkpt lat="48.29704" lon="2.58289">
        <ele>81</ele>
        <time>2023-07-27T10:05:30.676+00:00</time>
      </trkpt>
      <trkpt lat="48.29707" lon="2.58294">
        <ele>80</ele>
        <time>2023-07-27T10:05:34.686+00:00</time>
      </trkpt>
      <trkpt lat="48.2971" lon="2.58299">
        <ele>79</ele>
        <time>2023-07-27T10:05:39.296+00:00</time>
      </trkpt>
      <trkpt lat="48.29715" lon="2.58304">
        <ele>79</ele>
        <time>2023-07-27T10:05:43.809+00:00</time>
      </trkpt>
      <trkpt lat="48.29718" lon="2.58303">
        <ele>79</ele>
        <time>2023-07-27T10:05:48.319+00:00</time>
      </trkpt>
      <trkpt lat="48.2972" lon="2.58306">
        <ele>79</ele>
        <time>2023-07-27T10:05:52.829+00:00</time>
      </trkpt>
      <trkpt lat="48.29721" lon="2.58312">
        <ele>79</ele>
        <time>2023-07-27T10:05:56.839+00:00</time>
      </trkpt>
      <trkpt lat="48.29726" lon="2.58317">
        <ele>79</ele>
        <time>2023-07-27T10:06:01.348+00:00</time>
      </trkpt>
      <trkpt lat="48.29731" lon="2.58324">
        <ele>79</ele>
        <time>2023-07-27T10:06:05.556+00:00</time>
      </trkpt>
      <trkpt lat="48.29735" lon="2.58328">
        <ele>79</ele>
        <time>2023-07-27T10:06:09.564+00:00</time>
      </trkpt>
      <trkpt lat="48.29739" lon="2.58333">
        <ele>78</ele>
        <time>2023-07-27T10:06:14.073+00:00</time>
      </trkpt>
      <trkpt lat="48.29742" lon="2.58338">
        <ele>78</ele>
        <time>2023-07-27T10:06:18.685+00:00</time>
      </trkpt>
      <trkpt lat="48.29746" lon="2.58345">
        <ele>78</ele>
        <time>2023-07-27T10:06:22.790+00:00</time>
      </trkpt>
      <trkpt lat="48.29751" lon="2.58351">
        <ele>78</ele>
        <time>2023-07-27T10:06:27.333+00:00</time>
      </trkpt>
      <trkpt lat="48.29756" lon="2.58356">
        <ele>78</ele>
        <time>2023-07-27T10:06:31.408+00:00</time>
      </trkpt>
      <trkpt lat="48.29758" lon="2.58361">
        <ele>78</ele>
        <time>2023-07-27T10:06:35.415+00:00</time>
      </trkpt>
      <trkpt lat="48.29762" lon="2.58363">
        <ele>78</ele>
        <time>2023-07-27T10:06:39.923+00:00</time>
      </trkpt>
      <trkpt lat="48.29766" lon="2.58367">
        <ele>78</ele>
        <time>2023-07-27T10:06:43.930+00:00</time>
      </trkpt>
      <trkpt lat="48.2977" lon="2.58374">
        <ele>78</ele>
        <time>2023-07-27T10:06:48.940+00:00</time>
      </trkpt>
      <trkpt lat="48.29773" lon="2.5838">
        <ele>79</ele>
        <time>2023-07-27T10:06:52.947+00:00</time>
      </trkpt>
      <trkpt lat="48.29775" lon="2.58386">
        <ele>79</ele>
        <time>2023-07-27T10:06:56.951+00:00</time>
      </trkpt>
      <trkpt lat="48.29776" lon="2.58387">
        <ele>79</ele>
        <time>2023-07-27T10:07:01.573+00:00</time>
      </trkpt>
      <trkpt lat="48.29776" lon="2.58387">
        <ele>79</ele>
        <time>2023-07-27T10:07:05.652+00:00</time>
      </trkpt>
      <trkpt lat="48.29781" lon="2.58391">
        <ele>79</ele>
        <time>2023-07-27T10:07:10.106+00:00</time>
      </trkpt>
      <trkpt lat="48.29786" lon="2.58398">
        <ele>79</ele>
        <time>2023-07-27T10:07:14.051+00:00</time>
      </trkpt>
      <trkpt lat="48.29788" lon="2.58402">
        <ele>79</ele>
        <time>2023-07-27T10:07:18.554+00:00</time>
      </trkpt>
      <trkpt lat="48.2979" lon="2.58407">
        <ele>80</ele>
        <time>2023-07-27T10:07:22.955+00:00</time>
      </trkpt>
      <trkpt lat="48.29795" lon="2.58415">
        <ele>81</ele>
        <time>2023-07-27T10:07:27.334+00:00</time>
      </trkpt>
      <trkpt lat="48.29803" lon="2.58421">
        <ele>81</ele>
        <time>2023-07-27T10:07:31.732+00:00</time>
      </trkpt>
      <trkpt lat="48.29808" lon="2.58426">
        <ele>81</ele>
        <time>2023-07-27T10:07:35.671+00:00</time>
      </trkpt>
      <trkpt lat="48.29814" lon="2.58435">
        <ele>82</ele>
        <time>2023-07-27T10:07:40.210+00:00</time>
      </trkpt>
      <trkpt lat="48.2982" lon="2.58442">
        <ele>83</ele>
        <time>2023-07-27T10:07:44.849+00:00</time>
      </trkpt>
      <trkpt lat="48.29823" lon="2.58446">
        <ele>83</ele>
        <time>2023-07-27T10:07:48.749+00:00</time>
      </trkpt>
      <trkpt lat="48.29828" lon="2.58452">
        <ele>83</ele>
        <time>2023-07-27T10:07:53.309+00:00</time>
      </trkpt>
      <trkpt lat="48.29831" lon="2.58459">
        <ele>82</ele>
        <time>2023-07-27T10:07:57.508+00:00</time>
      </trkpt>
      <trkpt lat="48.29832" lon="2.58468">
        <ele>82</ele>
        <time>2023-07-27T10:08:02.068+00:00</time>
      </trkpt>
      <trkpt lat="48.29837" lon="2.58476">
        <ele>82</ele>
        <time>2023-07-27T10:08:06.359+00:00</time>
      </trkpt>
      <trkpt lat="48.2984" lon="2.58483">
        <ele>82</ele>
        <time>2023-07-27T10:08:10.687+00:00</time>
      </trkpt>
      <trkpt lat="48.29846" lon="2.58483">
        <ele>82</ele>
        <time>2023-07-27T10:08:15.087+00:00</time>
      </trkpt>
      <trkpt lat="48.29851" lon="2.58485">
        <ele>81</ele>
        <time>2023-07-27T10:08:19.165+00:00</time>
      </trkpt>
      <trkpt lat="48.29854" lon="2.58494">
        <ele>80</ele>
        <time>2023-07-27T10:08:23.607+00:00</time>
      </trkpt>
      <trkpt lat="48.29858" lon="2.58497">
        <ele>80</ele>
        <time>2023-07-27T10:08:27.444+00:00</time>
      </trkpt>
      <trkpt lat="48.29863" lon="2.58497">
        <ele>80</ele>
        <time>2023-07-27T10:08:31.523+00:00</time>
      </trkpt>
      <trkpt lat="48.29867" lon="2.58504">
        <ele>80</ele>
        <time>2023-07-27T10:08:36.560+00:00</time>
      </trkpt>
      <trkpt lat="48.29868" lon="2.58514">
        <ele>80</ele>
        <time>2023-07-27T10:08:41.330+00:00</time>
      </trkpt>
      <trkpt lat="48.29871" lon="2.58521">
        <ele>79</ele>
        <time>2023-07-27T10:08:45.909+00:00</time>
      </trkpt>
      <trkpt lat="48.29877" lon="2.58525">
        <ele>76</ele>
        <time>2023-07-27T10:08:50.292+00:00</time>
      </trkpt>
      <trkpt lat="48.29881" lon="2.5853">
        <ele>76</ele>
        <time>2023-07-27T10:08:54.891+00:00</time>
      </trkpt>
      <trkpt lat="48.29884" lon="2.58537">
        <ele>76</ele>
        <time>2023-07-27T10:08:59.830+00:00</time>
      </trkpt>
      <trkpt lat="48.29889" lon="2.58539">
        <ele>76</ele>
        <time>2023-07-27T10:09:03.689+00:00</time>
      </trkpt>
      <trkpt lat="48.29893" lon="2.58541">
        <ele>76</ele>
        <time>2023-07-27T10:09:08.189+00:00</time>
      </trkpt>
      <trkpt lat="48.29896" lon="2.58541">
        <ele>76</ele>
        <time>2023-07-27T10:09:12.569+00:00</time>
      </trkpt>
      <trkpt lat="48.29898" lon="2.58542">
        <ele>77</ele>
        <time>2023-07-27T10:09:17.049+00:00</time>
      </trkpt>
      <trkpt lat="48.29902" lon="2.5855">
        <ele>77</ele>
        <time>2023-07-27T10:09:21.489+00:00</time>
      </trkpt>
      <trkpt lat="48.29906" lon="2.58556">
        <ele>75</ele>
        <time>2023-07-27T10:09:26.111+00:00</time>
      </trkpt>
      <trkpt lat="48.29913" lon="2.58559">
        <ele>75</ele>
        <time>2023-07-27T10:09:30.427+00:00</time>
      </trkpt>
      <trkpt lat="48.29918" lon="2.58563">
        <ele>75</ele>
        <time>2023-07-27T10:09:34.285+00:00</time>
      </trkpt>
      <trkpt lat="48.29923" lon="2.58563">
        <ele>75</ele>
        <time>2023-07-27T10:09:38.626+00:00</time>
      </trkpt>
      <trkpt lat="48.29928" lon="2.58564">
        <ele>75</ele>
        <time>2023-07-27T10:09:43.085+00:00</time>
      </trkpt>
      <trkpt lat="48.29933" lon="2.58564">
        <ele>74</ele>
        <time>2023-07-27T10:09:47.143+00:00</time>
      </trkpt>
      <trkpt lat="48.29938" lon="2.58558">
        <ele>74</ele>
        <time>2023-07-27T10:09:51.844+00:00</time>
      </trkpt>
      <trkpt lat="48.29942" lon="2.58554">
        <ele>74</ele>
        <time>2023-07-27T10:09:55.841+00:00</time>
      </trkpt>
      <trkpt lat="48.29945" lon="2.5855">
        <ele>74</ele>
        <time>2023-07-27T10:10:00.280+00:00</time>
      </trkpt>
      <trkpt lat="48.29948" lon="2.58548">
        <ele>74</ele>
        <time>2023-07-27T10:10:04.501+00:00</time>
      </trkpt>
      <trkpt lat="48.29951" lon="2.58547">
        <ele>74</ele>
        <time>2023-07-27T10:10:08.642+00:00</time>
      </trkpt>
      <trkpt lat="48.29956" lon="2.58534">
        <ele>74</ele>
        <time>2023-07-27T10:10:22.917+00:00</time>
      </trkpt>
      <trkpt lat="48.29953" lon="2.58534">
        <ele>74</ele>
        <time>2023-07-27T10:10:26.934+00:00</time>
      </trkpt>
      <trkpt lat="48.29956" lon="2.58531">
        <ele>74</ele>
        <time>2023-07-27T10:10:31.451+00:00</time>
      </trkpt>
      <trkpt lat="48.29957" lon="2.5853">
        <ele>74</ele>
        <time>2023-07-27T10:10:36.469+00:00</time>
      </trkpt>
      <trkpt lat="48.29959" lon="2.58529">
        <ele>74</ele>
        <time>2023-07-27T10:10:40.983+00:00</time>
      </trkpt>
      <trkpt lat="48.29963" lon="2.58528">
        <ele>74</ele>
        <time>2023-07-27T10:10:45.597+00:00</time>
      </trkpt>
      <trkpt lat="48.29967" lon="2.58529">
        <ele>74</ele>
        <time>2023-07-27T10:10:49.609+00:00</time>
      </trkpt>
      <trkpt lat="48.29971" lon="2.58528">
        <ele>74</ele>
        <time>2023-07-27T10:10:53.621+00:00</time>
      </trkpt>
      <trkpt lat="48.29974" lon="2.58523">
        <ele>74</ele>
        <time>2023-07-27T10:10:58.155+00:00</time>
      </trkpt>
      <trkpt lat="48.29975" lon="2.58521">
        <ele>74</ele>
        <time>2023-07-27T10:11:02.673+00:00</time>
      </trkpt>
      <trkpt lat="48.29977" lon="2.58522">
        <ele>74</ele>
        <time>2023-07-27T10:11:06.684+00:00</time>
      </trkpt>
      <trkpt lat="48.29979" lon="2.58524">
        <ele>74</ele>
        <time>2023-07-27T10:11:11.192+00:00</time>
      </trkpt>
      <trkpt lat="48.29982" lon="2.58519">
        <ele>74</ele>
        <time>2023-07-27T10:11:15.199+00:00</time>
      </trkpt>
      <trkpt lat="48.29984" lon="2.58512">
        <ele>75</ele>
        <time>2023-07-27T10:11:19.719+00:00</time>
      </trkpt>
      <trkpt lat="48.29991" lon="2.58512">
        <ele>75</ele>
        <time>2023-07-27T10:11:23.738+00:00</time>
      </trkpt>
      <trkpt lat="48.29992" lon="2.58509">
        <ele>75</ele>
        <time>2023-07-27T10:11:28.359+00:00</time>
      </trkpt>
      <trkpt lat="48.29988" lon="2.58505">
        <ele>75</ele>
        <time>2023-07-27T10:11:32.877+00:00</time>
      </trkpt>
      <trkpt lat="48.29986" lon="2.58501">
        <ele>75</ele>
        <time>2023-07-27T10:11:37.412+00:00</time>
      </trkpt>
      <trkpt lat="48.29985" lon="2.58495">
        <ele>75</ele>
        <time>2023-07-27T10:11:41.929+00:00</time>
      </trkpt>
      <trkpt lat="48.29987" lon="2.58489">
        <ele>75</ele>
        <time>2023-07-27T10:11:45.474+00:00</time>
      </trkpt>
      <trkpt lat="48.29986" lon="2.58482">
        <ele>75</ele>
        <time>2023-07-27T10:11:50.001+00:00</time>
      </trkpt>
      <trkpt lat="48.29986" lon="2.58477">
        <ele>75</ele>
        <time>2023-07-27T10:11:54.103+00:00</time>
      </trkpt>
      <trkpt lat="48.29981" lon="2.58474">
        <ele>75</ele>
        <time>2023-07-27T10:11:58.118+00:00</time>
      </trkpt>
      <trkpt lat="48.29977" lon="2.58473">
        <ele>75</ele>
        <time>2023-07-27T10:12:02.131+00:00</time>
      </trkpt>
      <trkpt lat="48.29974" lon="2.58474">
        <ele>75</ele>
        <time>2023-07-27T10:12:06.747+00:00</time>
      </trkpt>
      <trkpt lat="48.29971" lon="2.58478">
        <ele>75</ele>
        <time>2023-07-27T10:12:10.761+00:00</time>
      </trkpt>
      <trkpt lat="48.29976" lon="2.585">
        <ele>75</ele>
        <time>2023-07-27T10:13:55.040+00:00</time>
      </trkpt>
      <trkpt lat="48.29977" lon="2.585">
        <ele>75</ele>
        <time>2023-07-27T10:13:59.043+00:00</time>
      </trkpt>
      <trkpt lat="48.29981" lon="2.585">
        <ele>75</ele>
        <time>2023-07-27T10:14:03.545+00:00</time>
      </trkpt>
      <trkpt lat="48.29985" lon="2.58498">
        <ele>75</ele>
        <time>2023-07-27T10:14:08.326+00:00</time>
      </trkpt>
      <trkpt lat="48.29986" lon="2.58505">
        <ele>75</ele>
        <time>2023-07-27T10:14:13.146+00:00</time>
      </trkpt>
      <trkpt lat="48.2999" lon="2.5852">
        <ele>74</ele>
        <time>2023-07-27T10:15:13.779+00:00</time>
      </trkpt>
      <trkpt lat="48.29993" lon="2.58512">
        <ele>75</ele>
        <time>2023-07-27T10:15:18.395+00:00</time>
      </trkpt>
      <trkpt lat="48.29997" lon="2.58505">
        <ele>75</ele>
        <time>2023-07-27T10:15:22.910+00:00</time>
      </trkpt>
      <trkpt lat="48.30001" lon="2.585">
        <ele>75</ele>
        <time>2023-07-27T10:15:26.921+00:00</time>
      </trkpt>
      <trkpt lat="48.30007" lon="2.58499">
        <ele>75</ele>
        <time>2023-07-27T10:15:30.931+00:00</time>
      </trkpt>
      <trkpt lat="48.30013" lon="2.58492">
        <ele>75</ele>
        <time>2023-07-27T10:15:39.553+00:00</time>
      </trkpt>
      <trkpt lat="48.30013" lon="2.58489">
        <ele>75</ele>
        <time>2023-07-27T10:15:44.066+00:00</time>
      </trkpt>
      <trkpt lat="48.30014" lon="2.58486">
        <ele>75</ele>
        <time>2023-07-27T10:15:48.194+00:00</time>
      </trkpt>
      <trkpt lat="48.30014" lon="2.58484">
        <ele>75</ele>
        <time>2023-07-27T10:15:52.706+00:00</time>
      </trkpt>
      <trkpt lat="48.30016" lon="2.5848">
        <ele>75</ele>
        <time>2023-07-27T10:15:56.718+00:00</time>
      </trkpt>
      <trkpt lat="48.30021" lon="2.58476">
        <ele>75</ele>
        <time>2023-07-27T10:16:00.828+00:00</time>
      </trkpt>
      <trkpt lat="48.30025" lon="2.5847">
        <ele>75</ele>
        <time>2023-07-27T10:16:05.339+00:00</time>
      </trkpt>
      <trkpt lat="48.30028" lon="2.58467">
        <ele>75</ele>
        <time>2023-07-27T10:16:09.862+00:00</time>
      </trkpt>
      <trkpt lat="48.30029" lon="2.58464">
        <ele>75</ele>
        <time>2023-07-27T10:16:14.061+00:00</time>
      </trkpt>
      <trkpt lat="48.30042" lon="2.58469">
        <ele>75</ele>
        <time>2023-07-27T10:16:45.653+00:00</time>
      </trkpt>
      <trkpt lat="48.30041" lon="2.5847">
        <ele>75</ele>
        <time>2023-07-27T10:16:50.685+00:00</time>
      </trkpt>
      <trkpt lat="48.30042" lon="2.58469">
        <ele>76</ele>
        <time>2023-07-27T10:16:54.697+00:00</time>
      </trkpt>
      <trkpt lat="48.30043" lon="2.58469">
        <ele>76</ele>
        <time>2023-07-27T10:16:59.713+00:00</time>
      </trkpt>
      <trkpt lat="48.30043" lon="2.58468">
        <ele>76</ele>
        <time>2023-07-27T10:17:03.725+00:00</time>
      </trkpt>
      <trkpt lat="48.30045" lon="2.58463">
        <ele>76</ele>
        <time>2023-07-27T10:17:08.439+00:00</time>
      </trkpt>
      <trkpt lat="48.30051" lon="2.58464">
        <ele>76</ele>
        <time>2023-07-27T10:17:12.952+00:00</time>
      </trkpt>
      <trkpt lat="48.30055" lon="2.58467">
        <ele>76</ele>
        <time>2023-07-27T10:17:17.463+00:00</time>
      </trkpt>
      <trkpt lat="48.30054" lon="2.58469">
        <ele>76</ele>
        <time>2023-07-27T10:17:22.476+00:00</time>
      </trkpt>
      <trkpt lat="48.30054" lon="2.58469">
        <ele>76</ele>
        <time>2023-07-27T10:17:26.991+00:00</time>
      </trkpt>
      <trkpt lat="48.30056" lon="2.58467">
        <ele>76</ele>
        <time>2023-07-27T10:17:31.001+00:00</time>
      </trkpt>
      <trkpt lat="48.3006" lon="2.58467">
        <ele>76</ele>
        <time>2023-07-27T10:17:35.512+00:00</time>
      </trkpt>
      <trkpt lat="48.30067" lon="2.58471">
        <ele>76</ele>
        <time>2023-07-27T10:17:40.022+00:00</time>
      </trkpt>
      <trkpt lat="48.30072" lon="2.58477">
        <ele>77</ele>
        <time>2023-07-27T10:17:44.032+00:00</time>
      </trkpt>
      <trkpt lat="48.30078" lon="2.5848">
        <ele>77</ele>
        <time>2023-07-27T10:17:48.540+00:00</time>
      </trkpt>
      <trkpt lat="48.30084" lon="2.58482">
        <ele>77</ele>
        <time>2023-07-27T10:17:52.647+00:00</time>
      </trkpt>
      <trkpt lat="48.30088" lon="2.58487">
        <ele>76</ele>
        <time>2023-07-27T10:17:56.651+00:00</time>
      </trkpt>
      <trkpt lat="48.30092" lon="2.58496">
        <ele>76</ele>
        <time>2023-07-27T10:18:00.758+00:00</time>
      </trkpt>
      <trkpt lat="48.30094" lon="2.58504">
        <ele>76</ele>
        <time>2023-07-27T10:18:05.270+00:00</time>
      </trkpt>
      <trkpt lat="48.30095" lon="2.58509">
        <ele>76</ele>
        <time>2023-07-27T10:18:09.373+00:00</time>
      </trkpt>
      <trkpt lat="48.30099" lon="2.58517">
        <ele>77</ele>
        <time>2023-07-27T10:18:13.882+00:00</time>
      </trkpt>
      <trkpt lat="48.30102" lon="2.5852">
        <ele>77</ele>
        <time>2023-07-27T10:18:17.887+00:00</time>
      </trkpt>
      <trkpt lat="48.30106" lon="2.58522">
        <ele>77</ele>
        <time>2023-07-27T10:18:22.415+00:00</time>
      </trkpt>
      <trkpt lat="48.30108" lon="2.58531">
        <ele>77</ele>
        <time>2023-07-27T10:18:26.607+00:00</time>
      </trkpt>
      <trkpt lat="48.30114" lon="2.58537">
        <ele>77</ele>
        <time>2023-07-27T10:18:30.794+00:00</time>
      </trkpt>
      <trkpt lat="48.30122" lon="2.58542">
        <ele>77</ele>
        <time>2023-07-27T10:18:34.796+00:00</time>
      </trkpt>
      <trkpt lat="48.30127" lon="2.58546">
        <ele>78</ele>
        <time>2023-07-27T10:18:38.798+00:00</time>
      </trkpt>
      <trkpt lat="48.30134" lon="2.58548">
        <ele>78</ele>
        <time>2023-07-27T10:18:43.301+00:00</time>
      </trkpt>
      <trkpt lat="48.30141" lon="2.5855">
        <ele>78</ele>
        <time>2023-07-27T10:18:47.906+00:00</time>
      </trkpt>
      <trkpt lat="48.30146" lon="2.58554">
        <ele>78</ele>
        <time>2023-07-27T10:18:52.008+00:00</time>
      </trkpt>
      <trkpt lat="48.3015" lon="2.58562">
        <ele>78</ele>
        <time>2023-07-27T10:18:56.564+00:00</time>
      </trkpt>
      <trkpt lat="48.30154" lon="2.5857">
        <ele>78</ele>
        <time>2023-07-27T10:19:00.615+00:00</time>
      </trkpt>
      <trkpt lat="48.30157" lon="2.58579">
        <ele>78</ele>
        <time>2023-07-27T10:19:05.721+00:00</time>
      </trkpt>
      <trkpt lat="48.30162" lon="2.58586">
        <ele>78</ele>
        <time>2023-07-27T10:19:09.823+00:00</time>
      </trkpt>
      <trkpt lat="48.30166" lon="2.58592">
        <ele>78</ele>
        <time>2023-07-27T10:19:13.845+00:00</time>
      </trkpt>
      <trkpt lat="48.3017" lon="2.58595">
        <ele>78</ele>
        <time>2023-07-27T10:19:17.949+00:00</time>
      </trkpt>
      <trkpt lat="48.30175" lon="2.58591">
        <ele>78</ele>
        <time>2023-07-27T10:19:22.502+00:00</time>
      </trkpt>
      <trkpt lat="48.3018" lon="2.58591">
        <ele>78</ele>
        <time>2023-07-27T10:19:26.529+00:00</time>
      </trkpt>
      <trkpt lat="48.30185" lon="2.58591">
        <ele>79</ele>
        <time>2023-07-27T10:19:30.651+00:00</time>
      </trkpt>
      <trkpt lat="48.3019" lon="2.5859">
        <ele>79</ele>
        <time>2023-07-27T10:19:35.154+00:00</time>
      </trkpt>
      <trkpt lat="48.30194" lon="2.58589">
        <ele>79</ele>
        <time>2023-07-27T10:19:39.808+00:00</time>
      </trkpt>
      <trkpt lat="48.30197" lon="2.58591">
        <ele>79</ele>
        <time>2023-07-27T10:19:43.755+00:00</time>
      </trkpt>
      <trkpt lat="48.30199" lon="2.58596">
        <ele>79</ele>
        <time>2023-07-27T10:19:47.694+00:00</time>
      </trkpt>
      <trkpt lat="48.30202" lon="2.58602">
        <ele>79</ele>
        <time>2023-07-27T10:19:52.594+00:00</time>
      </trkpt>
      <trkpt lat="48.30206" lon="2.58606">
        <ele>79</ele>
        <time>2023-07-27T10:19:56.434+00:00</time>
      </trkpt>
      <trkpt lat="48.30208" lon="2.58612">
        <ele>79</ele>
        <time>2023-07-27T10:20:00.854+00:00</time>
      </trkpt>
      <trkpt lat="48.30212" lon="2.58616">
        <ele>81</ele>
        <time>2023-07-27T10:20:04.995+00:00</time>
      </trkpt>
      <trkpt lat="48.30217" lon="2.58621">
        <ele>81</ele>
        <time>2023-07-27T10:20:09.815+00:00</time>
      </trkpt>
      <trkpt lat="48.30222" lon="2.58625">
        <ele>81</ele>
        <time>2023-07-27T10:20:14.925+00:00</time>
      </trkpt>
      <trkpt lat="48.30225" lon="2.58633">
        <ele>80</ele>
        <time>2023-07-27T10:20:19.102+00:00</time>
      </trkpt>
      <trkpt lat="48.30227" lon="2.58636">
        <ele>80</ele>
        <time>2023-07-27T10:20:23.541+00:00</time>
      </trkpt>
      <trkpt lat="48.30231" lon="2.5864">
        <ele>80</ele>
        <time>2023-07-27T10:20:27.359+00:00</time>
      </trkpt>
      <trkpt lat="48.30236" lon="2.58645">
        <ele>82</ele>
        <time>2023-07-27T10:20:31.518+00:00</time>
      </trkpt>
      <trkpt lat="48.3024" lon="2.58648">
        <ele>82</ele>
        <time>2023-07-27T10:20:35.962+00:00</time>
      </trkpt>
      <trkpt lat="48.30242" lon="2.58654">
        <ele>81</ele>
        <time>2023-07-27T10:20:40.797+00:00</time>
      </trkpt>
      <trkpt lat="48.30242" lon="2.58656">
        <ele>81</ele>
        <time>2023-07-27T10:20:45.869+00:00</time>
      </trkpt>
      <trkpt lat="48.30247" lon="2.58664">
        <ele>81</ele>
        <time>2023-07-27T10:20:50.675+00:00</time>
      </trkpt>
      <trkpt lat="48.3025" lon="2.58673">
        <ele>81</ele>
        <time>2023-07-27T10:20:54.715+00:00</time>
      </trkpt>
      <trkpt lat="48.30253" lon="2.58684">
        <ele>82</ele>
        <time>2023-07-27T10:20:59.359+00:00</time>
      </trkpt>
      <trkpt lat="48.30255" lon="2.58693">
        <ele>82</ele>
        <time>2023-07-27T10:21:03.492+00:00</time>
      </trkpt>
      <trkpt lat="48.30256" lon="2.587">
        <ele>82</ele>
        <time>2023-07-27T10:21:07.570+00:00</time>
      </trkpt>
      <trkpt lat="48.30261" lon="2.5871">
        <ele>83</ele>
        <time>2023-07-27T10:21:12.009+00:00</time>
      </trkpt>
      <trkpt lat="48.30263" lon="2.58718">
        <ele>83</ele>
        <time>2023-07-27T10:21:16.450+00:00</time>
      </trkpt>
      <trkpt lat="48.30261" lon="2.58728">
        <ele>83</ele>
        <time>2023-07-27T10:21:20.867+00:00</time>
      </trkpt>
      <trkpt lat="48.30261" lon="2.58738">
        <ele>83</ele>
        <time>2023-07-27T10:21:25.326+00:00</time>
      </trkpt>
      <trkpt lat="48.30263" lon="2.58745">
        <ele>83</ele>
        <time>2023-07-27T10:21:29.924+00:00</time>
      </trkpt>
      <trkpt lat="48.30265" lon="2.58747">
        <ele>85</ele>
        <time>2023-07-27T10:21:33.942+00:00</time>
      </trkpt>
      <trkpt lat="48.30267" lon="2.58752">
        <ele>85</ele>
        <time>2023-07-27T10:21:38.479+00:00</time>
      </trkpt>
      <trkpt lat="48.30271" lon="2.5876">
        <ele>85</ele>
        <time>2023-07-27T10:21:42.798+00:00</time>
      </trkpt>
      <trkpt lat="48.30274" lon="2.58767">
        <ele>86</ele>
        <time>2023-07-27T10:21:47.269+00:00</time>
      </trkpt>
      <trkpt lat="48.30278" lon="2.58773">
        <ele>86</ele>
        <time>2023-07-27T10:21:51.311+00:00</time>
      </trkpt>
      <trkpt lat="48.30281" lon="2.58781">
        <ele>86</ele>
        <time>2023-07-27T10:21:56.067+00:00</time>
      </trkpt>
      <trkpt lat="48.30284" lon="2.58788">
        <ele>86</ele>
        <time>2023-07-27T10:22:00.122+00:00</time>
      </trkpt>
      <trkpt lat="48.30287" lon="2.58796">
        <ele>84</ele>
        <time>2023-07-27T10:22:04.859+00:00</time>
      </trkpt>
      <trkpt lat="48.30289" lon="2.58801">
        <ele>84</ele>
        <time>2023-07-27T10:22:08.898+00:00</time>
      </trkpt>
      <trkpt lat="48.30293" lon="2.58805">
        <ele>86</ele>
        <time>2023-07-27T10:22:13.238+00:00</time>
      </trkpt>
      <trkpt lat="48.30296" lon="2.58811">
        <ele>86</ele>
        <time>2023-07-27T10:22:17.841+00:00</time>
      </trkpt>
      <trkpt lat="48.30297" lon="2.5882">
        <ele>84</ele>
        <time>2023-07-27T10:22:22.021+00:00</time>
      </trkpt>
      <trkpt lat="48.303" lon="2.58829">
        <ele>84</ele>
        <time>2023-07-27T10:22:26.262+00:00</time>
      </trkpt>
      <trkpt lat="48.30303" lon="2.58839">
        <ele>84</ele>
        <time>2023-07-27T10:22:30.201+00:00</time>
      </trkpt>
      <trkpt lat="48.30308" lon="2.58845">
        <ele>84</ele>
        <time>2023-07-27T10:22:34.963+00:00</time>
      </trkpt>
      <trkpt lat="48.30313" lon="2.58861">
        <ele>82</ele>
        <time>2023-07-27T10:22:43.863+00:00</time>
      </trkpt>
      <trkpt lat="48.30317" lon="2.58866">
        <ele>82</ele>
        <time>2023-07-27T10:22:47.819+00:00</time>
      </trkpt>
      <trkpt lat="48.30319" lon="2.58868">
        <ele>82</ele>
        <time>2023-07-27T10:22:52.059+00:00</time>
      </trkpt>
      <trkpt lat="48.30321" lon="2.58875">
        <ele>84</ele>
        <time>2023-07-27T10:22:56.718+00:00</time>
      </trkpt>
      <trkpt lat="48.30324" lon="2.5888">
        <ele>83</ele>
        <time>2023-07-27T10:23:00.497+00:00</time>
      </trkpt>
      <trkpt lat="48.30326" lon="2.58886">
        <ele>83</ele>
        <time>2023-07-27T10:23:04.877+00:00</time>
      </trkpt>
      <trkpt lat="48.30329" lon="2.58894">
        <ele>83</ele>
        <time>2023-07-27T10:23:09.477+00:00</time>
      </trkpt>
      <trkpt lat="48.30329" lon="2.58902">
        <ele>83</ele>
        <time>2023-07-27T10:23:13.878+00:00</time>
      </trkpt>
      <trkpt lat="48.30334" lon="2.5891">
        <ele>83</ele>
        <time>2023-07-27T10:23:18.535+00:00</time>
      </trkpt>
      <trkpt lat="48.30341" lon="2.5891">
        <ele>83</ele>
        <time>2023-07-27T10:23:23.092+00:00</time>
      </trkpt>
      <trkpt lat="48.30346" lon="2.58914">
        <ele>83</ele>
        <time>2023-07-27T10:23:27.129+00:00</time>
      </trkpt>
      <trkpt lat="48.30346" lon="2.58925">
        <ele>83</ele>
        <time>2023-07-27T10:23:31.924+00:00</time>
      </trkpt>
      <trkpt lat="48.30345" lon="2.58934">
        <ele>85</ele>
        <time>2023-07-27T10:23:35.878+00:00</time>
      </trkpt>
      <trkpt lat="48.30348" lon="2.5894">
        <ele>87</ele>
        <time>2023-07-27T10:23:39.978+00:00</time>
      </trkpt>
      <trkpt lat="48.30351" lon="2.58943">
        <ele>87</ele>
        <time>2023-07-27T10:23:44.108+00:00</time>
      </trkpt>
      <trkpt lat="48.30355" lon="2.58948">
        <ele>87</ele>
        <time>2023-07-27T10:23:48.863+00:00</time>
      </trkpt>
      <trkpt lat="48.30356" lon="2.5895">
        <ele>87</ele>
        <time>2023-07-27T10:23:53.743+00:00</time>
      </trkpt>
      <trkpt lat="48.30356" lon="2.58952">
        <ele>87</ele>
        <time>2023-07-27T10:23:57.939+00:00</time>
      </trkpt>
      <trkpt lat="48.30358" lon="2.58959">
        <ele>90</ele>
        <time>2023-07-27T10:24:02.428+00:00</time>
      </trkpt>
      <trkpt lat="48.3036" lon="2.58964">
        <ele>90</ele>
        <time>2023-07-27T10:24:06.873+00:00</time>
      </trkpt>
      <trkpt lat="48.30364" lon="2.5897">
        <ele>90</ele>
        <time>2023-07-27T10:24:16.269+00:00</time>
      </trkpt>
      <trkpt lat="48.30365" lon="2.5897">
        <ele>90</ele>
        <time>2023-07-27T10:24:20.484+00:00</time>
      </trkpt>
      <trkpt lat="48.30366" lon="2.58972">
        <ele>90</ele>
        <time>2023-07-27T10:24:24.979+00:00</time>
      </trkpt>
      <trkpt lat="48.30368" lon="2.58977">
        <ele>90</ele>
        <time>2023-07-27T10:24:28.899+00:00</time>
      </trkpt>
      <trkpt lat="48.30368" lon="2.58981">
        <ele>90</ele>
        <time>2023-07-27T10:24:33.975+00:00</time>
      </trkpt>
      <trkpt lat="48.30369" lon="2.5898">
        <ele>90</ele>
        <time>2023-07-27T10:24:46.808+00:00</time>
      </trkpt>
      <trkpt lat="48.30369" lon="2.5898">
        <ele>90</ele>
        <time>2023-07-27T10:24:51.905+00:00</time>
      </trkpt>
      <trkpt lat="48.3037" lon="2.5898">
        <ele>90</ele>
        <time>2023-07-27T10:24:55.502+00:00</time>
      </trkpt>
      <trkpt lat="48.3037" lon="2.58976">
        <ele>90</ele>
        <time>2023-07-27T10:25:00.692+00:00</time>
      </trkpt>
      <trkpt lat="48.30375" lon="2.58968">
        <ele>92</ele>
        <time>2023-07-27T10:25:04.721+00:00</time>
      </trkpt>
      <trkpt lat="48.30369" lon="2.58978">
        <ele>90</ele>
        <time>2023-07-27T10:25:09.958+00:00</time>
      </trkpt>
      <trkpt lat="48.30366" lon="2.5898">
        <ele>90</ele>
        <time>2023-07-27T10:25:14.936+00:00</time>
      </trkpt>
      <trkpt lat="48.3036" lon="2.58984">
        <ele>90</ele>
        <time>2023-07-27T10:25:18.947+00:00</time>
      </trkpt>
      <trkpt lat="48.30358" lon="2.58989">
        <ele>91</ele>
        <time>2023-07-27T10:25:22.948+00:00</time>
      </trkpt>
      <trkpt lat="48.30362" lon="2.59002">
        <ele>91</ele>
        <time>2023-07-27T10:26:23.928+00:00</time>
      </trkpt>
      <trkpt lat="48.30362" lon="2.5901">
        <ele>91</ele>
        <time>2023-07-27T10:26:28.439+00:00</time>
      </trkpt>
      <trkpt lat="48.30364" lon="2.59016">
        <ele>92</ele>
        <time>2023-07-27T10:26:32.949+00:00</time>
      </trkpt>
      <trkpt lat="48.30367" lon="2.59015">
        <ele>92</ele>
        <time>2023-07-27T10:26:36.958+00:00</time>
      </trkpt>
      <trkpt lat="48.3037" lon="2.59016">
        <ele>92</ele>
        <time>2023-07-27T10:26:41.470+00:00</time>
      </trkpt>
      <trkpt lat="48.30375" lon="2.59018">
        <ele>94</ele>
        <time>2023-07-27T10:26:55.614+00:00</time>
      </trkpt>
      <trkpt lat="48.30379" lon="2.59015">
        <ele>94</ele>
        <time>2023-07-27T10:26:59.628+00:00</time>
      </trkpt>
      <trkpt lat="48.30379" lon="2.59012">
        <ele>93</ele>
        <time>2023-07-27T10:27:03.640+00:00</time>
      </trkpt>
      <trkpt lat="48.30379" lon="2.59011">
        <ele>93</ele>
        <time>2023-07-27T10:27:08.657+00:00</time>
      </trkpt>
      <trkpt lat="48.30381" lon="2.59007">
        <ele>93</ele>
        <time>2023-07-27T10:27:13.171+00:00</time>
      </trkpt>
      <trkpt lat="48.30382" lon="2.59003">
        <ele>93</ele>
        <time>2023-07-27T10:27:17.687+00:00</time>
      </trkpt>
      <trkpt lat="48.30383" lon="2.59">
        <ele>93</ele>
        <time>2023-07-27T10:27:21.702+00:00</time>
      </trkpt>
      <trkpt lat="48.30382" lon="2.59">
        <ele>93</ele>
        <time>2023-07-27T10:27:26.220+00:00</time>
      </trkpt>
      <trkpt lat="48.30382" lon="2.58992">
        <ele>93</ele>
        <time>2023-07-27T10:27:30.735+00:00</time>
      </trkpt>
      <trkpt lat="48.3038" lon="2.58987">
        <ele>93</ele>
        <time>2023-07-27T10:27:35.848+00:00</time>
      </trkpt>
      <trkpt lat="48.30373" lon="2.5898">
        <ele>90</ele>
        <time>2023-07-27T10:27:52.423+00:00</time>
      </trkpt>
      <trkpt lat="48.3037" lon="2.58979">
        <ele>90</ele>
        <time>2023-07-27T10:27:56.936+00:00</time>
      </trkpt>
      <trkpt lat="48.30369" lon="2.5898">
        <ele>90</ele>
        <time>2023-07-27T10:28:00.947+00:00</time>
      </trkpt>
      <trkpt lat="48.30368" lon="2.58979">
        <ele>90</ele>
        <time>2023-07-27T10:28:05.460+00:00</time>
      </trkpt>
      <trkpt lat="48.30367" lon="2.58979">
        <ele>90</ele>
        <time>2023-07-27T10:28:10.078+00:00</time>
      </trkpt>
      <trkpt lat="48.30363" lon="2.58982">
        <ele>90</ele>
        <time>2023-07-27T10:28:14.587+00:00</time>
      </trkpt>
      <trkpt lat="48.3036" lon="2.58986">
        <ele>90</ele>
        <time>2023-07-27T10:28:19.193+00:00</time>
      </trkpt>
      <trkpt lat="48.30358" lon="2.5899">
        <ele>91</ele>
        <time>2023-07-27T10:28:23.198+00:00</time>
      </trkpt>
      <trkpt lat="48.30355" lon="2.58994">
        <ele>91</ele>
        <time>2023-07-27T10:28:27.703+00:00</time>
      </trkpt>
      <trkpt lat="48.30349" lon="2.58998">
        <ele>91</ele>
        <time>2023-07-27T10:28:54.780+00:00</time>
      </trkpt>
      <trkpt lat="48.30349" lon="2.58996">
        <ele>91</ele>
        <time>2023-07-27T10:28:59.949+00:00</time>
      </trkpt>
      <trkpt lat="48.30348" lon="2.58997">
        <ele>91</ele>
        <time>2023-07-27T10:29:03.812+00:00</time>
      </trkpt>
      <trkpt lat="48.30346" lon="2.58999">
        <ele>88</ele>
        <time>2023-07-27T10:29:08.824+00:00</time>
      </trkpt>
      <trkpt lat="48.30344" lon="2.59004">
        <ele>88</ele>
        <time>2023-07-27T10:29:12.857+00:00</time>
      </trkpt>
      <trkpt lat="48.30341" lon="2.59015">
        <ele>89</ele>
        <time>2023-07-27T10:29:21.486+00:00</time>
      </trkpt>
      <trkpt lat="48.30341" lon="2.59016">
        <ele>89</ele>
        <time>2023-07-27T10:29:26.507+00:00</time>
      </trkpt>
      <trkpt lat="48.30339" lon="2.59018">
        <ele>89</ele>
        <time>2023-07-27T10:29:31.024+00:00</time>
      </trkpt>
      <trkpt lat="48.30338" lon="2.59023">
        <ele>89</ele>
        <time>2023-07-27T10:29:35.542+00:00</time>
      </trkpt>
      <trkpt lat="48.30336" lon="2.59028">
        <ele>89</ele>
        <time>2023-07-27T10:29:40.676+00:00</time>
      </trkpt>
      <trkpt lat="48.30336" lon="2.59025">
        <ele>89</ele>
        <time>2023-07-27T10:29:49.711+00:00</time>
      </trkpt>
      <trkpt lat="48.30336" lon="2.59025">
        <ele>89</ele>
        <time>2023-07-27T10:29:53.726+00:00</time>
      </trkpt>
      <trkpt lat="48.30333" lon="2.59026">
        <ele>89</ele>
        <time>2023-07-27T10:29:58.243+00:00</time>
      </trkpt>
      <trkpt lat="48.30332" lon="2.59034">
        <ele>89</ele>
        <time>2023-07-27T10:30:02.758+00:00</time>
      </trkpt>
      <trkpt lat="48.3033" lon="2.59041">
        <ele>89</ele>
        <time>2023-07-27T10:30:06.788+00:00</time>
      </trkpt>
      <trkpt lat="48.3033" lon="2.59058">
        <ele>90</ele>
        <time>2023-07-27T10:30:23.853+00:00</time>
      </trkpt>
      <trkpt lat="48.3033" lon="2.59059">
        <ele>90</ele>
        <time>2023-07-27T10:30:27.869+00:00</time>
      </trkpt>
      <trkpt lat="48.30328" lon="2.59062">
        <ele>90</ele>
        <time>2023-07-27T10:30:31.886+00:00</time>
      </trkpt>
      <trkpt lat="48.30328" lon="2.59066">
        <ele>90</ele>
        <time>2023-07-27T10:30:35.901+00:00</time>
      </trkpt>
      <trkpt lat="48.30329" lon="2.59069">
        <ele>90</ele>
        <time>2023-07-27T10:30:39.916+00:00</time>
      </trkpt>
      <trkpt lat="48.30329" lon="2.59073">
        <ele>91</ele>
        <time>2023-07-27T10:30:53.070+00:00</time>
      </trkpt>
      <trkpt lat="48.3033" lon="2.59076">
        <ele>91</ele>
        <time>2023-07-27T10:30:57.591+00:00</time>
      </trkpt>
      <trkpt lat="48.30333" lon="2.59077">
        <ele>91</ele>
        <time>2023-07-27T10:31:02.114+00:00</time>
      </trkpt>
      <trkpt lat="48.30336" lon="2.59075">
        <ele>91</ele>
        <time>2023-07-27T10:31:06.635+00:00</time>
      </trkpt>
      <trkpt lat="48.30339" lon="2.59077">
        <ele>91</ele>
        <time>2023-07-27T10:31:10.653+00:00</time>
      </trkpt>
      <trkpt lat="48.30333" lon="2.59082">
        <ele>91</ele>
        <time>2023-07-27T11:06:31.542+00:00</time>
      </trkpt>
      <trkpt lat="48.30332" lon="2.59081">
        <ele>91</ele>
        <time>2023-07-27T11:06:36.584+00:00</time>
      </trkpt>
      <trkpt lat="48.30332" lon="2.59083">
        <ele>91</ele>
        <time>2023-07-27T11:06:41.588+00:00</time>
      </trkpt>
      <trkpt lat="48.30333" lon="2.59087">
        <ele>91</ele>
        <time>2023-07-27T11:06:46.193+00:00</time>
      </trkpt>
      <trkpt lat="48.30336" lon="2.59093">
        <ele>91</ele>
        <time>2023-07-27T11:06:50.798+00:00</time>
      </trkpt>
      <trkpt lat="48.30337" lon="2.59092">
        <ele>91</ele>
        <time>2023-07-27T11:06:55.821+00:00</time>
      </trkpt>
      <trkpt lat="48.30337" lon="2.59094">
        <ele>91</ele>
        <time>2023-07-27T11:07:00.350+00:00</time>
      </trkpt>
      <trkpt lat="48.30339" lon="2.59104">
        <ele>92</ele>
        <time>2023-07-27T11:07:04.968+00:00</time>
      </trkpt>
      <trkpt lat="48.30343" lon="2.5911">
        <ele>92</ele>
        <time>2023-07-27T11:07:08.982+00:00</time>
      </trkpt>
      <trkpt lat="48.3035" lon="2.59115">
        <ele>94</ele>
        <time>2023-07-27T11:07:17.611+00:00</time>
      </trkpt>
      <trkpt lat="48.3035" lon="2.59115">
        <ele>94</ele>
        <time>2023-07-27T11:07:21.627+00:00</time>
      </trkpt>
      <trkpt lat="48.30351" lon="2.59118">
        <ele>94</ele>
        <time>2023-07-27T11:07:26.145+00:00</time>
      </trkpt>
      <trkpt lat="48.30355" lon="2.59121">
        <ele>94</ele>
        <time>2023-07-27T11:07:30.660+00:00</time>
      </trkpt>
      <trkpt lat="48.30357" lon="2.59119">
        <ele>94</ele>
        <time>2023-07-27T11:07:35.175+00:00</time>
      </trkpt>
      <trkpt lat="48.30356" lon="2.59127">
        <ele>94</ele>
        <time>2023-07-27T11:07:39.187+00:00</time>
      </trkpt>
      <trkpt lat="48.30358" lon="2.59136">
        <ele>94</ele>
        <time>2023-07-27T11:07:43.701+00:00</time>
      </trkpt>
      <trkpt lat="48.30365" lon="2.59141">
        <ele>94</ele>
        <time>2023-07-27T11:07:47.713+00:00</time>
      </trkpt>
      <trkpt lat="48.30369" lon="2.5915">
        <ele>94</ele>
        <time>2023-07-27T11:07:52.248+00:00</time>
      </trkpt>
      <trkpt lat="48.30372" lon="2.59156">
        <ele>94</ele>
        <time>2023-07-27T11:07:56.260+00:00</time>
      </trkpt>
      <trkpt lat="48.30374" lon="2.59164">
        <ele>94</ele>
        <time>2023-07-27T11:08:00.774+00:00</time>
      </trkpt>
      <trkpt lat="48.30375" lon="2.5917">
        <ele>96</ele>
        <time>2023-07-27T11:08:04.785+00:00</time>
      </trkpt>
      <trkpt lat="48.30375" lon="2.59177">
        <ele>94</ele>
        <time>2023-07-27T11:08:08.894+00:00</time>
      </trkpt>
      <trkpt lat="48.30372" lon="2.59187">
        <ele>92</ele>
        <time>2023-07-27T11:08:17.515+00:00</time>
      </trkpt>
      <trkpt lat="48.30373" lon="2.5919">
        <ele>92</ele>
        <time>2023-07-27T11:08:22.528+00:00</time>
      </trkpt>
      <trkpt lat="48.30372" lon="2.59191">
        <ele>92</ele>
        <time>2023-07-27T11:08:27.144+00:00</time>
      </trkpt>
      <trkpt lat="48.30374" lon="2.59195">
        <ele>92</ele>
        <time>2023-07-27T11:08:31.671+00:00</time>
      </trkpt>
      <trkpt lat="48.30377" lon="2.59196">
        <ele>94</ele>
        <time>2023-07-27T11:08:35.769+00:00</time>
      </trkpt>
      <trkpt lat="48.30378" lon="2.59196">
        <ele>94</ele>
        <time>2023-07-27T11:08:39.782+00:00</time>
      </trkpt>
      <trkpt lat="48.30378" lon="2.59198">
        <ele>94</ele>
        <time>2023-07-27T11:08:44.297+00:00</time>
      </trkpt>
      <trkpt lat="48.3038" lon="2.59205">
        <ele>94</ele>
        <time>2023-07-27T11:08:48.811+00:00</time>
      </trkpt>
      <trkpt lat="48.30382" lon="2.59207">
        <ele>94</ele>
        <time>2023-07-27T11:08:53.328+00:00</time>
      </trkpt>
      <trkpt lat="48.30382" lon="2.59208">
        <ele>94</ele>
        <time>2023-07-27T11:08:57.844+00:00</time>
      </trkpt>
      <trkpt lat="48.30375" lon="2.59202">
        <ele>94</ele>
        <time>2023-07-27T11:10:21.545+00:00</time>
      </trkpt>
      <trkpt lat="48.30373" lon="2.59209">
        <ele>91</ele>
        <time>2023-07-27T11:10:26.072+00:00</time>
      </trkpt>
      <trkpt lat="48.30371" lon="2.5922">
        <ele>91</ele>
        <time>2023-07-27T11:10:30.170+00:00</time>
      </trkpt>
      <trkpt lat="48.30366" lon="2.59228">
        <ele>91</ele>
        <time>2023-07-27T11:10:34.684+00:00</time>
      </trkpt>
      <trkpt lat="48.30364" lon="2.59233">
        <ele>91</ele>
        <time>2023-07-27T11:10:38.696+00:00</time>
      </trkpt>
      <trkpt lat="48.30359" lon="2.59246">
        <ele>92</ele>
        <time>2023-07-27T11:10:55.758+00:00</time>
      </trkpt>
      <trkpt lat="48.30357" lon="2.59248">
        <ele>92</ele>
        <time>2023-07-27T11:11:00.475+00:00</time>
      </trkpt>
      <trkpt lat="48.30358" lon="2.59254">
        <ele>92</ele>
        <time>2023-07-27T11:11:04.587+00:00</time>
      </trkpt>
      <trkpt lat="48.30355" lon="2.59261">
        <ele>92</ele>
        <time>2023-07-27T11:11:08.600+00:00</time>
      </trkpt>
      <trkpt lat="48.30353" lon="2.59269">
        <ele>94</ele>
        <time>2023-07-27T11:11:13.114+00:00</time>
      </trkpt>
      <trkpt lat="48.3035" lon="2.59274">
        <ele>94</ele>
        <time>2023-07-27T11:11:17.627+00:00</time>
      </trkpt>
      <trkpt lat="48.30349" lon="2.59278">
        <ele>94</ele>
        <time>2023-07-27T11:11:21.640+00:00</time>
      </trkpt>
      <trkpt lat="48.30348" lon="2.59283">
        <ele>94</ele>
        <time>2023-07-27T11:11:26.249+00:00</time>
      </trkpt>
      <trkpt lat="48.30348" lon="2.59289">
        <ele>94</ele>
        <time>2023-07-27T11:11:30.256+00:00</time>
      </trkpt>
      <trkpt lat="48.30348" lon="2.59297">
        <ele>95</ele>
        <time>2023-07-27T11:11:57.104+00:00</time>
      </trkpt>
      <trkpt lat="48.30344" lon="2.59307">
        <ele>95</ele>
        <time>2023-07-27T11:12:01.109+00:00</time>
      </trkpt>
      <trkpt lat="48.30342" lon="2.59317">
        <ele>95</ele>
        <time>2023-07-27T11:12:05.613+00:00</time>
      </trkpt>
      <trkpt lat="48.3034" lon="2.59328">
        <ele>95</ele>
        <time>2023-07-27T11:12:10.154+00:00</time>
      </trkpt>
      <trkpt lat="48.30338" lon="2.59337">
        <ele>95</ele>
        <time>2023-07-27T11:12:14.653+00:00</time>
      </trkpt>
      <trkpt lat="48.30336" lon="2.59347">
        <ele>95</ele>
        <time>2023-07-27T11:12:18.952+00:00</time>
      </trkpt>
      <trkpt lat="48.30335" lon="2.59357">
        <ele>96</ele>
        <time>2023-07-27T11:12:23.284+00:00</time>
      </trkpt>
      <trkpt lat="48.30334" lon="2.59363">
        <ele>96</ele>
        <time>2023-07-27T11:12:27.533+00:00</time>
      </trkpt>
      <trkpt lat="48.30333" lon="2.59368">
        <ele>96</ele>
        <time>2023-07-27T11:12:31.612+00:00</time>
      </trkpt>
      <trkpt lat="48.30335" lon="2.59375">
        <ele>97</ele>
        <time>2023-07-27T11:12:36.061+00:00</time>
      </trkpt>
      <trkpt lat="48.30336" lon="2.59381">
        <ele>97</ele>
        <time>2023-07-27T11:12:40.148+00:00</time>
      </trkpt>
      <trkpt lat="48.30337" lon="2.59389">
        <ele>97</ele>
        <time>2023-07-27T11:12:44.847+00:00</time>
      </trkpt>
      <trkpt lat="48.30337" lon="2.59395">
        <ele>97</ele>
        <time>2023-07-27T11:12:48.943+00:00</time>
      </trkpt>
      <trkpt lat="48.30338" lon="2.59401">
        <ele>97</ele>
        <time>2023-07-27T11:12:52.946+00:00</time>
      </trkpt>
      <trkpt lat="48.30338" lon="2.59407">
        <ele>97</ele>
        <time>2023-07-27T11:12:57.114+00:00</time>
      </trkpt>
      <trkpt lat="48.30338" lon="2.59415">
        <ele>97</ele>
        <time>2023-07-27T11:13:01.189+00:00</time>
      </trkpt>
      <trkpt lat="48.30338" lon="2.59422">
        <ele>97</ele>
        <time>2023-07-27T11:13:05.265+00:00</time>
      </trkpt>
      <trkpt lat="48.30338" lon="2.59429">
        <ele>97</ele>
        <time>2023-07-27T11:13:09.461+00:00</time>
      </trkpt>
      <trkpt lat="48.30338" lon="2.59434">
        <ele>96</ele>
        <time>2023-07-27T11:13:14.069+00:00</time>
      </trkpt>
      <trkpt lat="48.30336" lon="2.59439">
        <ele>96</ele>
        <time>2023-07-27T11:13:18.665+00:00</time>
      </trkpt>
      <trkpt lat="48.30338" lon="2.5944">
        <ele>96</ele>
        <time>2023-07-27T11:13:22.860+00:00</time>
      </trkpt>
      <trkpt lat="48.30341" lon="2.59448">
        <ele>96</ele>
        <time>2023-07-27T11:13:27.878+00:00</time>
      </trkpt>
      <trkpt lat="48.30342" lon="2.59445">
        <ele>96</ele>
        <time>2023-07-27T11:14:12.983+00:00</time>
      </trkpt>
      <trkpt lat="48.3034" lon="2.59452">
        <ele>96</ele>
        <time>2023-07-27T11:14:17.495+00:00</time>
      </trkpt>
      <trkpt lat="48.3034" lon="2.59459">
        <ele>96</ele>
        <time>2023-07-27T11:14:21.504+00:00</time>
      </trkpt>
      <trkpt lat="48.30341" lon="2.59463">
        <ele>96</ele>
        <time>2023-07-27T11:14:26.015+00:00</time>
      </trkpt>
      <trkpt lat="48.30341" lon="2.59468">
        <ele>96</ele>
        <time>2023-07-27T11:14:30.122+00:00</time>
      </trkpt>
      <trkpt lat="48.30338" lon="2.59472">
        <ele>96</ele>
        <time>2023-07-27T11:14:34.128+00:00</time>
      </trkpt>
      <trkpt lat="48.30335" lon="2.59479">
        <ele>96</ele>
        <time>2023-07-27T11:14:38.635+00:00</time>
      </trkpt>
      <trkpt lat="48.30333" lon="2.59484">
        <ele>96</ele>
        <time>2023-07-27T11:14:43.143+00:00</time>
      </trkpt>
      <trkpt lat="48.30334" lon="2.59485">
        <ele>96</ele>
        <time>2023-07-27T11:14:47.652+00:00</time>
      </trkpt>
      <trkpt lat="48.30334" lon="2.59486">
        <ele>96</ele>
        <time>2023-07-27T11:14:52.264+00:00</time>
      </trkpt>
      <trkpt lat="48.30331" lon="2.59488">
        <ele>96</ele>
        <time>2023-07-27T11:14:56.372+00:00</time>
      </trkpt>
      <trkpt lat="48.3033" lon="2.59489">
        <ele>96</ele>
        <time>2023-07-27T11:15:00.380+00:00</time>
      </trkpt>
      <trkpt lat="48.30327" lon="2.59492">
        <ele>96</ele>
        <time>2023-07-27T11:15:04.905+00:00</time>
      </trkpt>
      <trkpt lat="48.30322" lon="2.59498">
        <ele>96</ele>
        <time>2023-07-27T11:15:09.413+00:00</time>
      </trkpt>
      <trkpt lat="48.30319" lon="2.59504">
        <ele>92</ele>
        <time>2023-07-27T11:15:13.922+00:00</time>
      </trkpt>
      <trkpt lat="48.30317" lon="2.5951">
        <ele>92</ele>
        <time>2023-07-27T11:15:17.929+00:00</time>
      </trkpt>
      <trkpt lat="48.30315" lon="2.59515">
        <ele>93</ele>
        <time>2023-07-27T11:15:21.937+00:00</time>
      </trkpt>
      <trkpt lat="48.30314" lon="2.59521">
        <ele>93</ele>
        <time>2023-07-27T11:15:26.445+00:00</time>
      </trkpt>
      <trkpt lat="48.30314" lon="2.59522">
        <ele>93</ele>
        <time>2023-07-27T11:15:30.453+00:00</time>
      </trkpt>
      <trkpt lat="48.30314" lon="2.59523">
        <ele>93</ele>
        <time>2023-07-27T11:15:35.465+00:00</time>
      </trkpt>
      <trkpt lat="48.30314" lon="2.59524">
        <ele>93</ele>
        <time>2023-07-27T11:15:39.073+00:00</time>
      </trkpt>
      <trkpt lat="48.30307" lon="2.59534">
        <ele>93</ele>
        <time>2023-07-27T11:15:43.778+00:00</time>
      </trkpt>
      <trkpt lat="48.30303" lon="2.59544">
        <ele>95</ele>
        <time>2023-07-27T11:15:48.423+00:00</time>
      </trkpt>
      <trkpt lat="48.30305" lon="2.59554">
        <ele>95</ele>
        <time>2023-07-27T11:15:52.662+00:00</time>
      </trkpt>
      <trkpt lat="48.30307" lon="2.59563">
        <ele>95</ele>
        <time>2023-07-27T11:15:57.285+00:00</time>
      </trkpt>
      <trkpt lat="48.30306" lon="2.59574">
        <ele>96</ele>
        <time>2023-07-27T11:16:01.789+00:00</time>
      </trkpt>
      <trkpt lat="48.30307" lon="2.59582">
        <ele>96</ele>
        <time>2023-07-27T11:16:06.292+00:00</time>
      </trkpt>
      <trkpt lat="48.30308" lon="2.59591">
        <ele>96</ele>
        <time>2023-07-27T11:16:10.867+00:00</time>
      </trkpt>
      <trkpt lat="48.30309" lon="2.59597">
        <ele>96</ele>
        <time>2023-07-27T11:16:14.457+00:00</time>
      </trkpt>
      <trkpt lat="48.30311" lon="2.59604">
        <ele>97</ele>
        <time>2023-07-27T11:16:19.060+00:00</time>
      </trkpt>
      <trkpt lat="48.30312" lon="2.59611">
        <ele>97</ele>
        <time>2023-07-27T11:16:23.702+00:00</time>
      </trkpt>
      <trkpt lat="48.30312" lon="2.5961">
        <ele>97</ele>
        <time>2023-07-27T11:16:27.964+00:00</time>
      </trkpt>
      <trkpt lat="48.30312" lon="2.59611">
        <ele>97</ele>
        <time>2023-07-27T11:16:32.285+00:00</time>
      </trkpt>
      <trkpt lat="48.30314" lon="2.59618">
        <ele>97</ele>
        <time>2023-07-27T11:16:36.586+00:00</time>
      </trkpt>
      <trkpt lat="48.30316" lon="2.59624">
        <ele>97</ele>
        <time>2023-07-27T11:16:41.349+00:00</time>
      </trkpt>
      <trkpt lat="48.30318" lon="2.59629">
        <ele>95</ele>
        <time>2023-07-27T11:16:45.387+00:00</time>
      </trkpt>
      <trkpt lat="48.30317" lon="2.59629">
        <ele>95</ele>
        <time>2023-07-27T11:16:49.926+00:00</time>
      </trkpt>
      <trkpt lat="48.30315" lon="2.59624">
        <ele>97</ele>
        <time>2023-07-27T11:16:54.906+00:00</time>
      </trkpt>
      <trkpt lat="48.30314" lon="2.59618">
        <ele>97</ele>
        <time>2023-07-27T11:16:59.187+00:00</time>
      </trkpt>
      <trkpt lat="48.30308" lon="2.59618">
        <ele>97</ele>
        <time>2023-07-27T11:17:03.869+00:00</time>
      </trkpt>
      <trkpt lat="48.30304" lon="2.59619">
        <ele>97</ele>
        <time>2023-07-27T11:17:07.874+00:00</time>
      </trkpt>
      <trkpt lat="48.30301" lon="2.59621">
        <ele>97</ele>
        <time>2023-07-27T11:17:11.879+00:00</time>
      </trkpt>
      <trkpt lat="48.30298" lon="2.59625">
        <ele>95</ele>
        <time>2023-07-27T11:17:16.384+00:00</time>
      </trkpt>
      <trkpt lat="48.30297" lon="2.59629">
        <ele>95</ele>
        <time>2023-07-27T11:17:20.887+00:00</time>
      </trkpt>
      <trkpt lat="48.30295" lon="2.59633">
        <ele>95</ele>
        <time>2023-07-27T11:17:24.892+00:00</time>
      </trkpt>
      <trkpt lat="48.30292" lon="2.59637">
        <ele>95</ele>
        <time>2023-07-27T11:17:29.097+00:00</time>
      </trkpt>
      <trkpt lat="48.30289" lon="2.59635">
        <ele>92</ele>
        <time>2023-07-27T11:17:33.138+00:00</time>
      </trkpt>
      <trkpt lat="48.30287" lon="2.59631">
        <ele>92</ele>
        <time>2023-07-27T11:17:37.279+00:00</time>
      </trkpt>
      <trkpt lat="48.30284" lon="2.59629">
        <ele>92</ele>
        <time>2023-07-27T11:17:41.958+00:00</time>
      </trkpt>
      <trkpt lat="48.30286" lon="2.59624">
        <ele>93</ele>
        <time>2023-07-27T11:18:25.772+00:00</time>
      </trkpt>
      <trkpt lat="48.30285" lon="2.59622">
        <ele>93</ele>
        <time>2023-07-27T11:18:30.290+00:00</time>
      </trkpt>
      <trkpt lat="48.30287" lon="2.5962">
        <ele>93</ele>
        <time>2023-07-27T11:18:34.321+00:00</time>
      </trkpt>
      <trkpt lat="48.30288" lon="2.59615">
        <ele>93</ele>
        <time>2023-07-27T11:18:38.334+00:00</time>
      </trkpt>
      <trkpt lat="48.30288" lon="2.59612">
        <ele>93</ele>
        <time>2023-07-27T11:18:42.849+00:00</time>
      </trkpt>
      <trkpt lat="48.30287" lon="2.59612">
        <ele>93</ele>
        <time>2023-07-27T11:18:47.882+00:00</time>
      </trkpt>
      <trkpt lat="48.30286" lon="2.59615">
        <ele>93</ele>
        <time>2023-07-27T11:18:51.896+00:00</time>
      </trkpt>
      <trkpt lat="48.30282" lon="2.59616">
        <ele>93</ele>
        <time>2023-07-27T11:18:56.912+00:00</time>
      </trkpt>
      <trkpt lat="48.3028" lon="2.59615">
        <ele>93</ele>
        <time>2023-07-27T11:19:01.930+00:00</time>
      </trkpt>
      <trkpt lat="48.30278" lon="2.59619">
        <ele>93</ele>
        <time>2023-07-27T11:19:05.944+00:00</time>
      </trkpt>
      <trkpt lat="48.30276" lon="2.59624">
        <ele>93</ele>
        <time>2023-07-27T11:19:10.964+00:00</time>
      </trkpt>
      <trkpt lat="48.30276" lon="2.59625">
        <ele>93</ele>
        <time>2023-07-27T11:19:15.081+00:00</time>
      </trkpt>
      <trkpt lat="48.30277" lon="2.59625">
        <ele>92</ele>
        <time>2023-07-27T11:19:19.614+00:00</time>
      </trkpt>
      <trkpt lat="48.30281" lon="2.59628">
        <ele>92</ele>
        <time>2023-07-27T11:19:23.626+00:00</time>
      </trkpt>
      <trkpt lat="48.30284" lon="2.59633">
        <ele>92</ele>
        <time>2023-07-27T11:19:28.138+00:00</time>
      </trkpt>
      <trkpt lat="48.30288" lon="2.59632">
        <ele>92</ele>
        <time>2023-07-27T11:19:32.650+00:00</time>
      </trkpt>
      <trkpt lat="48.30292" lon="2.59632">
        <ele>95</ele>
        <time>2023-07-27T11:19:36.663+00:00</time>
      </trkpt>
      <trkpt lat="48.30295" lon="2.59636">
        <ele>95</ele>
        <time>2023-07-27T11:19:41.175+00:00</time>
      </trkpt>
      <trkpt lat="48.30301" lon="2.59632">
        <ele>95</ele>
        <time>2023-07-27T11:19:45.185+00:00</time>
      </trkpt>
      <trkpt lat="48.30304" lon="2.59629">
        <ele>95</ele>
        <time>2023-07-27T11:19:49.298+00:00</time>
      </trkpt>
      <trkpt lat="48.30305" lon="2.59628">
        <ele>95</ele>
        <time>2023-07-27T11:19:53.812+00:00</time>
      </trkpt>
      <trkpt lat="48.30306" lon="2.5963">
        <ele>95</ele>
        <time>2023-07-27T11:19:58.341+00:00</time>
      </trkpt>
      <trkpt lat="48.30311" lon="2.5963">
        <ele>95</ele>
        <time>2023-07-27T11:20:02.854+00:00</time>
      </trkpt>
      <trkpt lat="48.30313" lon="2.59633">
        <ele>95</ele>
        <time>2023-07-27T11:20:07.367+00:00</time>
      </trkpt>
      <trkpt lat="48.30315" lon="2.59636">
        <ele>95</ele>
        <time>2023-07-27T11:20:11.880+00:00</time>
      </trkpt>
      <trkpt lat="48.30314" lon="2.59636">
        <ele>95</ele>
        <time>2023-07-27T11:20:16.394+00:00</time>
      </trkpt>
      <trkpt lat="48.30314" lon="2.59637">
        <ele>95</ele>
        <time>2023-07-27T11:20:20.508+00:00</time>
      </trkpt>
      <trkpt lat="48.30316" lon="2.59644">
        <ele>95</ele>
        <time>2023-07-27T11:20:25.525+00:00</time>
      </trkpt>
      <trkpt lat="48.30318" lon="2.59652">
        <ele>95</ele>
        <time>2023-07-27T11:20:29.636+00:00</time>
      </trkpt>
      <trkpt lat="48.30322" lon="2.59665">
        <ele>92</ele>
        <time>2023-07-27T11:20:43.792+00:00</time>
      </trkpt>
      <trkpt lat="48.30322" lon="2.59665">
        <ele>92</ele>
        <time>2023-07-27T11:20:47.798+00:00</time>
      </trkpt>
      <trkpt lat="48.30322" lon="2.59666">
        <ele>92</ele>
        <time>2023-07-27T11:20:51.803+00:00</time>
      </trkpt>
      <trkpt lat="48.30322" lon="2.59668">
        <ele>92</ele>
        <time>2023-07-27T11:20:56.325+00:00</time>
      </trkpt>
      <trkpt lat="48.30323" lon="2.59674">
        <ele>92</ele>
        <time>2023-07-27T11:21:00.871+00:00</time>
      </trkpt>
      <trkpt lat="48.30322" lon="2.59681">
        <ele>90</ele>
        <time>2023-07-27T11:21:04.570+00:00</time>
      </trkpt>
      <trkpt lat="48.30322" lon="2.59689">
        <ele>90</ele>
        <time>2023-07-27T11:21:08.571+00:00</time>
      </trkpt>
      <trkpt lat="48.30323" lon="2.59697">
        <ele>90</ele>
        <time>2023-07-27T11:21:12.832+00:00</time>
      </trkpt>
      <trkpt lat="48.30326" lon="2.59706">
        <ele>90</ele>
        <time>2023-07-27T11:21:17.192+00:00</time>
      </trkpt>
      <trkpt lat="48.30328" lon="2.59712">
        <ele>89</ele>
        <time>2023-07-27T11:21:21.532+00:00</time>
      </trkpt>
      <trkpt lat="48.30329" lon="2.5972">
        <ele>89</ele>
        <time>2023-07-27T11:21:25.952+00:00</time>
      </trkpt>
      <trkpt lat="48.30329" lon="2.59728">
        <ele>89</ele>
        <time>2023-07-27T11:21:29.832+00:00</time>
      </trkpt>
      <trkpt lat="48.30329" lon="2.59735">
        <ele>89</ele>
        <time>2023-07-27T11:21:34.359+00:00</time>
      </trkpt>
      <trkpt lat="48.30331" lon="2.59742">
        <ele>88</ele>
        <time>2023-07-27T11:21:38.633+00:00</time>
      </trkpt>
      <trkpt lat="48.30329" lon="2.59752">
        <ele>88</ele>
        <time>2023-07-27T11:21:43.092+00:00</time>
      </trkpt>
      <trkpt lat="48.30327" lon="2.59759">
        <ele>88</ele>
        <time>2023-07-27T11:21:47.652+00:00</time>
      </trkpt>
      <trkpt lat="48.30331" lon="2.59762">
        <ele>88</ele>
        <time>2023-07-27T11:21:51.731+00:00</time>
      </trkpt>
      <trkpt lat="48.30331" lon="2.59768">
        <ele>86</ele>
        <time>2023-07-27T11:21:56.190+00:00</time>
      </trkpt>
      <trkpt lat="48.30332" lon="2.59777">
        <ele>86</ele>
        <time>2023-07-27T11:22:00.630+00:00</time>
      </trkpt>
      <trkpt lat="48.30334" lon="2.59781">
        <ele>86</ele>
        <time>2023-07-27T11:22:04.771+00:00</time>
      </trkpt>
      <trkpt lat="48.30335" lon="2.59786">
        <ele>86</ele>
        <time>2023-07-27T11:22:09.274+00:00</time>
      </trkpt>
      <trkpt lat="48.30337" lon="2.59793">
        <ele>84</ele>
        <time>2023-07-27T11:22:13.947+00:00</time>
      </trkpt>
      <trkpt lat="48.30337" lon="2.59801">
        <ele>84</ele>
        <time>2023-07-27T11:22:18.038+00:00</time>
      </trkpt>
      <trkpt lat="48.30338" lon="2.59807">
        <ele>84</ele>
        <time>2023-07-27T11:22:22.700+00:00</time>
      </trkpt>
      <trkpt lat="48.30339" lon="2.59808">
        <ele>84</ele>
        <time>2023-07-27T11:22:26.639+00:00</time>
      </trkpt>
      <trkpt lat="48.30338" lon="2.5981">
        <ele>84</ele>
        <time>2023-07-27T11:22:31.019+00:00</time>
      </trkpt>
      <trkpt lat="48.30339" lon="2.59812">
        <ele>84</ele>
        <time>2023-07-27T11:22:35.701+00:00</time>
      </trkpt>
      <trkpt lat="48.30337" lon="2.59816">
        <ele>84</ele>
        <time>2023-07-27T11:22:40.211+00:00</time>
      </trkpt>
      <trkpt lat="48.30338" lon="2.59827">
        <ele>83</ele>
        <time>2023-07-27T11:22:44.510+00:00</time>
      </trkpt>
      <trkpt lat="48.3034" lon="2.59834">
        <ele>83</ele>
        <time>2023-07-27T11:22:49.070+00:00</time>
      </trkpt>
      <trkpt lat="48.30342" lon="2.59841">
        <ele>83</ele>
        <time>2023-07-27T11:22:53.509+00:00</time>
      </trkpt>
      <trkpt lat="48.30341" lon="2.59849">
        <ele>81</ele>
        <time>2023-07-27T11:22:57.946+00:00</time>
      </trkpt>
      <trkpt lat="48.30341" lon="2.59857">
        <ele>81</ele>
        <time>2023-07-27T11:23:02.064+00:00</time>
      </trkpt>
      <trkpt lat="48.30341" lon="2.59864">
        <ele>81</ele>
        <time>2023-07-27T11:23:06.063+00:00</time>
      </trkpt>
      <trkpt lat="48.30341" lon="2.5987">
        <ele>81</ele>
        <time>2023-07-27T11:23:09.982+00:00</time>
      </trkpt>
      <trkpt lat="48.30343" lon="2.59876">
        <ele>80</ele>
        <time>2023-07-27T11:23:14.023+00:00</time>
      </trkpt>
      <trkpt lat="48.30342" lon="2.59882">
        <ele>80</ele>
        <time>2023-07-27T11:23:18.503+00:00</time>
      </trkpt>
      <trkpt lat="48.30342" lon="2.59887">
        <ele>80</ele>
        <time>2023-07-27T11:23:22.422+00:00</time>
      </trkpt>
      <trkpt lat="48.30342" lon="2.59892">
        <ele>80</ele>
        <time>2023-07-27T11:23:26.521+00:00</time>
      </trkpt>
      <trkpt lat="48.30341" lon="2.59894">
        <ele>80</ele>
        <time>2023-07-27T11:23:31.318+00:00</time>
      </trkpt>
      <trkpt lat="48.30339" lon="2.59897">
        <ele>80</ele>
        <time>2023-07-27T11:23:35.755+00:00</time>
      </trkpt>
      <trkpt lat="48.30336" lon="2.59902">
        <ele>80</ele>
        <time>2023-07-27T11:23:39.815+00:00</time>
      </trkpt>
      <trkpt lat="48.30334" lon="2.59908">
        <ele>80</ele>
        <time>2023-07-27T11:23:44.493+00:00</time>
      </trkpt>
      <trkpt lat="48.30335" lon="2.59913">
        <ele>80</ele>
        <time>2023-07-27T11:23:49.691+00:00</time>
      </trkpt>
      <trkpt lat="48.30335" lon="2.59913">
        <ele>80</ele>
        <time>2023-07-27T11:23:54.289+00:00</time>
      </trkpt>
      <trkpt lat="48.30333" lon="2.59918">
        <ele>80</ele>
        <time>2023-07-27T11:23:58.359+00:00</time>
      </trkpt>
      <trkpt lat="48.30331" lon="2.59925">
        <ele>80</ele>
        <time>2023-07-27T11:24:02.687+00:00</time>
      </trkpt>
      <trkpt lat="48.30328" lon="2.59932">
        <ele>79</ele>
        <time>2023-07-27T11:24:06.967+00:00</time>
      </trkpt>
      <trkpt lat="48.30326" lon="2.59938">
        <ele>79</ele>
        <time>2023-07-27T11:24:11.288+00:00</time>
      </trkpt>
      <trkpt lat="48.30324" lon="2.59944">
        <ele>79</ele>
        <time>2023-07-27T11:24:16.049+00:00</time>
      </trkpt>
      <trkpt lat="48.30323" lon="2.5995">
        <ele>79</ele>
        <time>2023-07-27T11:24:20.666+00:00</time>
      </trkpt>
      <trkpt lat="48.30321" lon="2.59955">
        <ele>79</ele>
        <time>2023-07-27T11:24:24.804+00:00</time>
      </trkpt>
      <trkpt lat="48.30317" lon="2.5996">
        <ele>79</ele>
        <time>2023-07-27T11:24:29.343+00:00</time>
      </trkpt>
      <trkpt lat="48.30314" lon="2.59968">
        <ele>79</ele>
        <time>2023-07-27T11:24:34.120+00:00</time>
      </trkpt>
      <trkpt lat="48.30311" lon="2.59976">
        <ele>79</ele>
        <time>2023-07-27T11:24:37.998+00:00</time>
      </trkpt>
      <trkpt lat="48.30312" lon="2.59983">
        <ele>79</ele>
        <time>2023-07-27T11:24:42.918+00:00</time>
      </trkpt>
      <trkpt lat="48.30311" lon="2.59984">
        <ele>79</ele>
        <time>2023-07-27T11:24:47.475+00:00</time>
      </trkpt>
      <trkpt lat="48.30308" lon="2.59992">
        <ele>79</ele>
        <time>2023-07-27T11:24:51.965+00:00</time>
      </trkpt>
      <trkpt lat="48.30304" lon="2.59997">
        <ele>79</ele>
        <time>2023-07-27T11:24:55.987+00:00</time>
      </trkpt>
      <trkpt lat="48.30301" lon="2.60005">
        <ele>79</ele>
        <time>2023-07-27T11:25:00.104+00:00</time>
      </trkpt>
      <trkpt lat="48.30299" lon="2.60014">
        <ele>79</ele>
        <time>2023-07-27T11:25:04.181+00:00</time>
      </trkpt>
      <trkpt lat="48.30295" lon="2.60022">
        <ele>79</ele>
        <time>2023-07-27T11:25:08.700+00:00</time>
      </trkpt>
      <trkpt lat="48.30292" lon="2.60028">
        <ele>79</ele>
        <time>2023-07-27T11:25:13.190+00:00</time>
      </trkpt>
      <trkpt lat="48.30289" lon="2.60034">
        <ele>79</ele>
        <time>2023-07-27T11:25:17.610+00:00</time>
      </trkpt>
      <trkpt lat="48.30286" lon="2.60039">
        <ele>79</ele>
        <time>2023-07-27T11:25:21.511+00:00</time>
      </trkpt>
      <trkpt lat="48.30283" lon="2.60046">
        <ele>79</ele>
        <time>2023-07-27T11:25:25.974+00:00</time>
      </trkpt>
      <trkpt lat="48.3028" lon="2.60053">
        <ele>79</ele>
        <time>2023-07-27T11:25:30.383+00:00</time>
      </trkpt>
      <trkpt lat="48.30277" lon="2.60062">
        <ele>79</ele>
        <time>2023-07-27T11:25:34.953+00:00</time>
      </trkpt>
      <trkpt lat="48.30274" lon="2.60068">
        <ele>79</ele>
        <time>2023-07-27T11:25:38.894+00:00</time>
      </trkpt>
      <trkpt lat="48.30271" lon="2.60078">
        <ele>79</ele>
        <time>2023-07-27T11:25:43.366+00:00</time>
      </trkpt>
      <trkpt lat="48.3027" lon="2.60085">
        <ele>79</ele>
        <time>2023-07-27T11:25:47.748+00:00</time>
      </trkpt>
      <trkpt lat="48.30267" lon="2.60092">
        <ele>79</ele>
        <time>2023-07-27T11:25:51.901+00:00</time>
      </trkpt>
      <trkpt lat="48.30264" lon="2.601">
        <ele>78</ele>
        <time>2023-07-27T11:25:56.098+00:00</time>
      </trkpt>
      <trkpt lat="48.30262" lon="2.60107">
        <ele>79</ele>
        <time>2023-07-27T11:26:00.175+00:00</time>
      </trkpt>
      <trkpt lat="48.30261" lon="2.60113">
        <ele>79</ele>
        <time>2023-07-27T11:26:04.253+00:00</time>
      </trkpt>
      <trkpt lat="48.30255" lon="2.60129">
        <ele>79</ele>
        <time>2023-07-27T11:26:21.484+00:00</time>
      </trkpt>
      <trkpt lat="48.30255" lon="2.6013">
        <ele>79</ele>
        <time>2023-07-27T11:26:26.785+00:00</time>
      </trkpt>
      <trkpt lat="48.30255" lon="2.6013">
        <ele>79</ele>
        <time>2023-07-27T11:26:31.824+00:00</time>
      </trkpt>
      <trkpt lat="48.30254" lon="2.6013">
        <ele>79</ele>
        <time>2023-07-27T11:26:35.902+00:00</time>
      </trkpt>
      <trkpt lat="48.30256" lon="2.60135">
        <ele>79</ele>
        <time>2023-07-27T11:26:40.560+00:00</time>
      </trkpt>
      <trkpt lat="48.30259" lon="2.60139">
        <ele>79</ele>
        <time>2023-07-27T11:26:45.400+00:00</time>
      </trkpt>
      <trkpt lat="48.30264" lon="2.60143">
        <ele>79</ele>
        <time>2023-07-27T11:26:49.860+00:00</time>
      </trkpt>
      <trkpt lat="48.30267" lon="2.6014">
        <ele>78</ele>
        <time>2023-07-27T11:26:54.558+00:00</time>
      </trkpt>
      <trkpt lat="48.3027" lon="2.60136">
        <ele>78</ele>
        <time>2023-07-27T11:26:58.617+00:00</time>
      </trkpt>
      <trkpt lat="48.30274" lon="2.60132">
        <ele>78</ele>
        <time>2023-07-27T11:27:03.037+00:00</time>
      </trkpt>
      <trkpt lat="48.30278" lon="2.6013">
        <ele>78</ele>
        <time>2023-07-27T11:27:07.357+00:00</time>
      </trkpt>
      <trkpt lat="48.30282" lon="2.60128">
        <ele>78</ele>
        <time>2023-07-27T11:27:11.717+00:00</time>
      </trkpt>
      <trkpt lat="48.30287" lon="2.60129">
        <ele>78</ele>
        <time>2023-07-27T11:27:15.914+00:00</time>
      </trkpt>
      <trkpt lat="48.30292" lon="2.60129">
        <ele>80</ele>
        <time>2023-07-27T11:27:19.893+00:00</time>
      </trkpt>
      <trkpt lat="48.30297" lon="2.6013">
        <ele>80</ele>
        <time>2023-07-27T11:27:24.052+00:00</time>
      </trkpt>
      <trkpt lat="48.30301" lon="2.6013">
        <ele>80</ele>
        <time>2023-07-27T11:27:28.510+00:00</time>
      </trkpt>
      <trkpt lat="48.30304" lon="2.60133">
        <ele>80</ele>
        <time>2023-07-27T11:27:33.041+00:00</time>
      </trkpt>
      <trkpt lat="48.30307" lon="2.60139">
        <ele>80</ele>
        <time>2023-07-27T11:27:46.768+00:00</time>
      </trkpt>
      <trkpt lat="48.30307" lon="2.60139">
        <ele>80</ele>
        <time>2023-07-27T11:27:50.781+00:00</time>
      </trkpt>
      <trkpt lat="48.30306" lon="2.60142">
        <ele>80</ele>
        <time>2023-07-27T11:27:55.311+00:00</time>
      </trkpt>
      <trkpt lat="48.30306" lon="2.60149">
        <ele>80</ele>
        <time>2023-07-27T11:27:59.322+00:00</time>
      </trkpt>
      <trkpt lat="48.30309" lon="2.60156">
        <ele>81</ele>
        <time>2023-07-27T11:28:03.834+00:00</time>
      </trkpt>
      <trkpt lat="48.30309" lon="2.60157">
        <ele>81</ele>
        <time>2023-07-27T11:28:08.849+00:00</time>
      </trkpt>
      <trkpt lat="48.3031" lon="2.60159">
        <ele>81</ele>
        <time>2023-07-27T11:28:13.869+00:00</time>
      </trkpt>
      <trkpt lat="48.30312" lon="2.6016">
        <ele>81</ele>
        <time>2023-07-27T11:28:18.887+00:00</time>
      </trkpt>
      <trkpt lat="48.30315" lon="2.60159">
        <ele>81</ele>
        <time>2023-07-27T11:28:23.402+00:00</time>
      </trkpt>
      <trkpt lat="48.30318" lon="2.6015">
        <ele>80</ele>
        <time>2023-07-27T11:28:27.915+00:00</time>
      </trkpt>
      <trkpt lat="48.3031" lon="2.6013">
        <ele>80</ele>
        <time>2023-07-27T11:29:35.254+00:00</time>
      </trkpt>
      <trkpt lat="48.3031" lon="2.60128">
        <ele>80</ele>
        <time>2023-07-27T11:29:39.764+00:00</time>
      </trkpt>
      <trkpt lat="48.3031" lon="2.60127">
        <ele>80</ele>
        <time>2023-07-27T11:29:43.776+00:00</time>
      </trkpt>
      <trkpt lat="48.30312" lon="2.60125">
        <ele>79</ele>
        <time>2023-07-27T11:29:48.289+00:00</time>
      </trkpt>
      <trkpt lat="48.30315" lon="2.60121">
        <ele>79</ele>
        <time>2023-07-27T11:29:52.300+00:00</time>
      </trkpt>
      <trkpt lat="48.3032" lon="2.60119">
        <ele>80</ele>
        <time>2023-07-27T11:29:56.310+00:00</time>
      </trkpt>
      <trkpt lat="48.30324" lon="2.6012">
        <ele>80</ele>
        <time>2023-07-27T11:30:00.320+00:00</time>
      </trkpt>
      <trkpt lat="48.30328" lon="2.60122">
        <ele>80</ele>
        <time>2023-07-27T11:30:04.827+00:00</time>
      </trkpt>
      <trkpt lat="48.30333" lon="2.60121">
        <ele>80</ele>
        <time>2023-07-27T11:30:08.833+00:00</time>
      </trkpt>
      <trkpt lat="48.30338" lon="2.60119">
        <ele>80</ele>
        <time>2023-07-27T11:30:12.838+00:00</time>
      </trkpt>
      <trkpt lat="48.30343" lon="2.60117">
        <ele>80</ele>
        <time>2023-07-27T11:30:16.843+00:00</time>
      </trkpt>
      <trkpt lat="48.30348" lon="2.60115">
        <ele>82</ele>
        <time>2023-07-27T11:30:21.865+00:00</time>
      </trkpt>
      <trkpt lat="48.30354" lon="2.60115">
        <ele>82</ele>
        <time>2023-07-27T11:30:26.526+00:00</time>
      </trkpt>
      <trkpt lat="48.30359" lon="2.60115">
        <ele>82</ele>
        <time>2023-07-27T11:30:30.529+00:00</time>
      </trkpt>
      <trkpt lat="48.30363" lon="2.60115">
        <ele>82</ele>
        <time>2023-07-27T11:30:34.543+00:00</time>
      </trkpt>
      <trkpt lat="48.30368" lon="2.60113">
        <ele>82</ele>
        <time>2023-07-27T11:30:39.065+00:00</time>
      </trkpt>
      <trkpt lat="48.30373" lon="2.60112">
        <ele>82</ele>
        <time>2023-07-27T11:30:43.567+00:00</time>
      </trkpt>
      <trkpt lat="48.30378" lon="2.60113">
        <ele>84</ele>
        <time>2023-07-27T11:30:47.308+00:00</time>
      </trkpt>
      <trkpt lat="48.30382" lon="2.60112">
        <ele>84</ele>
        <time>2023-07-27T11:30:51.708+00:00</time>
      </trkpt>
      <trkpt lat="48.30386" lon="2.60112">
        <ele>84</ele>
        <time>2023-07-27T11:30:56.328+00:00</time>
      </trkpt>
      <trkpt lat="48.3039" lon="2.60119">
        <ele>84</ele>
        <time>2023-07-27T11:31:00.486+00:00</time>
      </trkpt>
      <trkpt lat="48.30395" lon="2.60121">
        <ele>84</ele>
        <time>2023-07-27T11:31:04.886+00:00</time>
      </trkpt>
      <trkpt lat="48.30396" lon="2.60122">
        <ele>84</ele>
        <time>2023-07-27T11:31:09.826+00:00</time>
      </trkpt>
      <trkpt lat="48.30397" lon="2.60121">
        <ele>84</ele>
        <time>2023-07-27T11:31:14.266+00:00</time>
      </trkpt>
      <trkpt lat="48.30402" lon="2.60127">
        <ele>86</ele>
        <time>2023-07-27T11:31:18.780+00:00</time>
      </trkpt>
      <trkpt lat="48.30404" lon="2.60128">
        <ele>90</ele>
        <time>2023-07-27T11:31:22.792+00:00</time>
      </trkpt>
      <trkpt lat="48.30405" lon="2.60127">
        <ele>90</ele>
        <time>2023-07-27T11:31:27.310+00:00</time>
      </trkpt>
      <trkpt lat="48.30406" lon="2.60128">
        <ele>90</ele>
        <time>2023-07-27T11:31:31.820+00:00</time>
      </trkpt>
      <trkpt lat="48.30406" lon="2.60128">
        <ele>90</ele>
        <time>2023-07-27T11:31:35.837+00:00</time>
      </trkpt>
      <trkpt lat="48.30408" lon="2.60135">
        <ele>90</ele>
        <time>2023-07-27T11:31:40.353+00:00</time>
      </trkpt>
      <trkpt lat="48.30413" lon="2.60141">
        <ele>90</ele>
        <time>2023-07-27T11:31:44.974+00:00</time>
      </trkpt>
      <trkpt lat="48.30418" lon="2.60144">
        <ele>90</ele>
        <time>2023-07-27T11:31:49.092+00:00</time>
      </trkpt>
      <trkpt lat="48.30421" lon="2.6015">
        <ele>90</ele>
        <time>2023-07-27T11:31:53.291+00:00</time>
      </trkpt>
      <trkpt lat="48.30425" lon="2.60153">
        <ele>90</ele>
        <time>2023-07-27T11:31:57.904+00:00</time>
      </trkpt>
      <trkpt lat="48.30428" lon="2.60154">
        <ele>92</ele>
        <time>2023-07-27T11:32:02.414+00:00</time>
      </trkpt>
      <trkpt lat="48.30439" lon="2.60162">
        <ele>96</ele>
        <time>2023-07-27T11:32:24.368+00:00</time>
      </trkpt>
      <trkpt lat="48.3044" lon="2.60161">
        <ele>96</ele>
        <time>2023-07-27T11:32:28.882+00:00</time>
      </trkpt>
      <trkpt lat="48.30446" lon="2.60165">
        <ele>96</ele>
        <time>2023-07-27T11:32:33.894+00:00</time>
      </trkpt>
      <trkpt lat="48.30449" lon="2.6017">
        <ele>96</ele>
        <time>2023-07-27T11:32:37.904+00:00</time>
      </trkpt>
      <trkpt lat="48.30449" lon="2.60178">
        <ele>96</ele>
        <time>2023-07-27T11:32:42.415+00:00</time>
      </trkpt>
      <trkpt lat="48.30448" lon="2.60182">
        <ele>98</ele>
        <time>2023-07-27T11:32:55.946+00:00</time>
      </trkpt>
      <trkpt lat="48.30449" lon="2.60183">
        <ele>98</ele>
        <time>2023-07-27T11:33:00.456+00:00</time>
      </trkpt>
      <trkpt lat="48.30449" lon="2.60185">
        <ele>98</ele>
        <time>2023-07-27T11:33:05.470+00:00</time>
      </trkpt>
      <trkpt lat="48.30451" lon="2.6019">
        <ele>98</ele>
        <time>2023-07-27T11:33:10.082+00:00</time>
      </trkpt>
      <trkpt lat="48.30453" lon="2.60196">
        <ele>98</ele>
        <time>2023-07-27T11:33:14.795+00:00</time>
      </trkpt>
      <trkpt lat="48.30466" lon="2.60202">
        <ele>101</ele>
        <time>2023-07-27T11:33:44.868+00:00</time>
      </trkpt>
      <trkpt lat="48.30466" lon="2.60201">
        <ele>101</ele>
        <time>2023-07-27T11:33:48.937+00:00</time>
      </trkpt>
      <trkpt lat="48.30466" lon="2.602">
        <ele>101</ele>
        <time>2023-07-27T11:33:53.973+00:00</time>
      </trkpt>
      <trkpt lat="48.30467" lon="2.602">
        <ele>101</ele>
        <time>2023-07-27T11:33:58.947+00:00</time>
      </trkpt>
      <trkpt lat="48.30468" lon="2.60201">
        <ele>101</ele>
        <time>2023-07-27T11:34:03.946+00:00</time>
      </trkpt>
      <trkpt lat="48.30467" lon="2.60202">
        <ele>101</ele>
        <time>2023-07-27T11:34:07.540+00:00</time>
      </trkpt>
      <trkpt lat="48.30467" lon="2.60207">
        <ele>101</ele>
        <time>2023-07-27T11:34:11.545+00:00</time>
      </trkpt>
      <trkpt lat="48.30467" lon="2.60214">
        <ele>102</ele>
        <time>2023-07-27T11:34:15.548+00:00</time>
      </trkpt>
      <trkpt lat="48.30468" lon="2.60221">
        <ele>102</ele>
        <time>2023-07-27T11:34:20.566+00:00</time>
      </trkpt>
      <trkpt lat="48.30468" lon="2.60227">
        <ele>102</ele>
        <time>2023-07-27T11:34:24.655+00:00</time>
      </trkpt>
      <trkpt lat="48.30467" lon="2.60229">
        <ele>102</ele>
        <time>2023-07-27T11:34:29.776+00:00</time>
      </trkpt>
      <trkpt lat="48.30466" lon="2.60231">
        <ele>102</ele>
        <time>2023-07-27T11:34:38.903+00:00</time>
      </trkpt>
      <trkpt lat="48.30464" lon="2.60237">
        <ele>103</ele>
        <time>2023-07-27T11:34:43.416+00:00</time>
      </trkpt>
      <trkpt lat="48.30463" lon="2.60239">
        <ele>103</ele>
        <time>2023-07-27T11:34:47.925+00:00</time>
      </trkpt>
      <trkpt lat="48.30461" lon="2.60239">
        <ele>103</ele>
        <time>2023-07-27T11:35:05.569+00:00</time>
      </trkpt>
      <trkpt lat="48.30461" lon="2.60241">
        <ele>103</ele>
        <time>2023-07-27T11:35:09.581+00:00</time>
      </trkpt>
      <trkpt lat="48.3046" lon="2.60245">
        <ele>103</ele>
        <time>2023-07-27T11:35:14.594+00:00</time>
      </trkpt>
      <trkpt lat="48.30459" lon="2.60251">
        <ele>103</ele>
        <time>2023-07-27T11:35:19.106+00:00</time>
      </trkpt>
      <trkpt lat="48.3046" lon="2.60255">
        <ele>103</ele>
        <time>2023-07-27T11:35:23.614+00:00</time>
      </trkpt>
      <trkpt lat="48.30462" lon="2.60256">
        <ele>103</ele>
        <time>2023-07-27T11:35:32.138+00:00</time>
      </trkpt>
      <trkpt lat="48.30463" lon="2.6026">
        <ele>103</ele>
        <time>2023-07-27T11:35:36.650+00:00</time>
      </trkpt>
      <trkpt lat="48.30463" lon="2.60263">
        <ele>103</ele>
        <time>2023-07-27T11:35:41.261+00:00</time>
      </trkpt>
      <trkpt lat="48.30464" lon="2.60265">
        <ele>106</ele>
        <time>2023-07-27T11:35:45.269+00:00</time>
      </trkpt>
      <trkpt lat="48.30465" lon="2.60271">
        <ele>106</ele>
        <time>2023-07-27T11:35:49.780+00:00</time>
      </trkpt>
      <trkpt lat="48.30466" lon="2.60272">
        <ele>106</ele>
        <time>2023-07-27T11:35:53.788+00:00</time>
      </trkpt>
      <trkpt lat="48.30467" lon="2.60275">
        <ele>106</ele>
        <time>2023-07-27T11:35:58.359+00:00</time>
      </trkpt>
      <trkpt lat="48.30469" lon="2.60281">
        <ele>106</ele>
        <time>2023-07-27T11:36:02.916+00:00</time>
      </trkpt>
      <trkpt lat="48.30475" lon="2.60283">
        <ele>106</ele>
        <time>2023-07-27T11:36:06.927+00:00</time>
      </trkpt>
      <trkpt lat="48.30478" lon="2.60291">
        <ele>106</ele>
        <time>2023-07-27T11:36:15.452+00:00</time>
      </trkpt>
      <trkpt lat="48.30477" lon="2.60293">
        <ele>109</ele>
        <time>2023-07-27T11:36:20.467+00:00</time>
      </trkpt>
      <trkpt lat="48.30475" lon="2.60296">
        <ele>109</ele>
        <time>2023-07-27T11:36:24.981+00:00</time>
      </trkpt>
      <trkpt lat="48.30476" lon="2.603">
        <ele>109</ele>
        <time>2023-07-27T11:36:29.509+00:00</time>
      </trkpt>
      <trkpt lat="48.30476" lon="2.60301">
        <ele>109</ele>
        <time>2023-07-27T11:36:34.121+00:00</time>
      </trkpt>
      <trkpt lat="48.30478" lon="2.60308">
        <ele>109</ele>
        <time>2023-07-27T11:36:43.261+00:00</time>
      </trkpt>
      <trkpt lat="48.30478" lon="2.60311">
        <ele>109</ele>
        <time>2023-07-27T11:36:47.270+00:00</time>
      </trkpt>
      <trkpt lat="48.30477" lon="2.60314">
        <ele>109</ele>
        <time>2023-07-27T11:36:51.795+00:00</time>
      </trkpt>
      <trkpt lat="48.30475" lon="2.60315">
        <ele>109</ele>
        <time>2023-07-27T11:36:55.804+00:00</time>
      </trkpt>
      <trkpt lat="48.30474" lon="2.60318">
        <ele>109</ele>
        <time>2023-07-27T11:36:59.828+00:00</time>
      </trkpt>
      <trkpt lat="48.30468" lon="2.6032">
        <ele>112</ele>
        <time>2023-07-27T11:37:13.861+00:00</time>
      </trkpt>
      <trkpt lat="48.30468" lon="2.6032">
        <ele>112</ele>
        <time>2023-07-27T11:37:18.873+00:00</time>
      </trkpt>
      <trkpt lat="48.30466" lon="2.6032">
        <ele>112</ele>
        <time>2023-07-27T11:37:23.884+00:00</time>
      </trkpt>
      <trkpt lat="48.30464" lon="2.60321">
        <ele>112</ele>
        <time>2023-07-27T11:37:28.395+00:00</time>
      </trkpt>
      <trkpt lat="48.30463" lon="2.60323">
        <ele>112</ele>
        <time>2023-07-27T11:37:32.402+00:00</time>
      </trkpt>
      <trkpt lat="48.30462" lon="2.60323">
        <ele>112</ele>
        <time>2023-07-27T11:37:36.946+00:00</time>
      </trkpt>
      <trkpt lat="48.30459" lon="2.60319">
        <ele>109</ele>
        <time>2023-07-27T11:37:41.022+00:00</time>
      </trkpt>
      <trkpt lat="48.30456" lon="2.60315">
        <ele>111</ele>
        <time>2023-07-27T11:37:45.029+00:00</time>
      </trkpt>
      <trkpt lat="48.30454" lon="2.60311">
        <ele>111</ele>
        <time>2023-07-27T11:37:49.540+00:00</time>
      </trkpt>
      <trkpt lat="48.30451" lon="2.6031">
        <ele>111</ele>
        <time>2023-07-27T11:37:54.751+00:00</time>
      </trkpt>
      <trkpt lat="48.30447" lon="2.6031">
        <ele>111</ele>
        <time>2023-07-27T11:37:59.262+00:00</time>
      </trkpt>
      <trkpt lat="48.30441" lon="2.60308">
        <ele>111</ele>
        <time>2023-07-27T11:38:03.774+00:00</time>
      </trkpt>
      <trkpt lat="48.30436" lon="2.60308">
        <ele>111</ele>
        <time>2023-07-27T11:38:07.786+00:00</time>
      </trkpt>
      <trkpt lat="48.30435" lon="2.60309">
        <ele>111</ele>
        <time>2023-07-27T11:38:11.798+00:00</time>
      </trkpt>
      <trkpt lat="48.30434" lon="2.60308">
        <ele>111</ele>
        <time>2023-07-27T11:38:16.313+00:00</time>
      </trkpt>
      <trkpt lat="48.30433" lon="2.60307">
        <ele>111</ele>
        <time>2023-07-27T11:38:20.830+00:00</time>
      </trkpt>
      <trkpt lat="48.30428" lon="2.60305">
        <ele>111</ele>
        <time>2023-07-27T11:38:25.349+00:00</time>
      </trkpt>
      <trkpt lat="48.30426" lon="2.60304">
        <ele>111</ele>
        <time>2023-07-27T11:38:26.852+00:00</time>
      </trkpt>
      <trkpt lat="48.30423" lon="2.60299">
        <ele>111</ele>
        <time>2023-07-27T11:38:35.893+00:00</time>
      </trkpt>
      <trkpt lat="48.30425" lon="2.60294">
        <ele>111</ele>
        <time>2023-07-27T11:38:40.412+00:00</time>
      </trkpt>
      <trkpt lat="48.30427" lon="2.60289">
        <ele>108</ele>
        <time>2023-07-27T11:38:44.507+00:00</time>
      </trkpt>
      <trkpt lat="48.3043" lon="2.60284">
        <ele>108</ele>
        <time>2023-07-27T11:38:49.010+00:00</time>
      </trkpt>
      <trkpt lat="48.30426" lon="2.60283">
        <ele>108</ele>
        <time>2023-07-27T11:38:53.013+00:00</time>
      </trkpt>
      <trkpt lat="48.30427" lon="2.60273">
        <ele>108</ele>
        <time>2023-07-27T11:38:57.516+00:00</time>
      </trkpt>
      <trkpt lat="48.30426" lon="2.60266">
        <ele>108</ele>
        <time>2023-07-27T11:39:02.132+00:00</time>
      </trkpt>
      <trkpt lat="48.30425" lon="2.60263">
        <ele>105</ele>
        <time>2023-07-27T11:39:06.649+00:00</time>
      </trkpt>
      <trkpt lat="48.30426" lon="2.60266">
        <ele>108</ele>
        <time>2023-07-27T11:39:24.721+00:00</time>
      </trkpt>
      <trkpt lat="48.30427" lon="2.60267">
        <ele>108</ele>
        <time>2023-07-27T11:39:28.736+00:00</time>
      </trkpt>
      <trkpt lat="48.30426" lon="2.6027">
        <ele>108</ele>
        <time>2023-07-27T11:39:33.250+00:00</time>
      </trkpt>
      <trkpt lat="48.30423" lon="2.60274">
        <ele>108</ele>
        <time>2023-07-27T11:39:37.764+00:00</time>
      </trkpt>
      <trkpt lat="48.30422" lon="2.60279">
        <ele>108</ele>
        <time>2023-07-27T11:39:41.776+00:00</time>
      </trkpt>
      <trkpt lat="48.30421" lon="2.60284">
        <ele>108</ele>
        <time>2023-07-27T11:39:45.788+00:00</time>
      </trkpt>
      <trkpt lat="48.30421" lon="2.60286">
        <ele>108</ele>
        <time>2023-07-27T11:39:50.301+00:00</time>
      </trkpt>
      <trkpt lat="48.30422" lon="2.60292">
        <ele>111</ele>
        <time>2023-07-27T11:39:54.813+00:00</time>
      </trkpt>
      <trkpt lat="48.3042" lon="2.60299">
        <ele>111</ele>
        <time>2023-07-27T11:39:59.326+00:00</time>
      </trkpt>
      <trkpt lat="48.30409" lon="2.60304">
        <ele>111</ele>
        <time>2023-07-27T11:40:17.871+00:00</time>
      </trkpt>
      <trkpt lat="48.30408" lon="2.60304">
        <ele>111</ele>
        <time>2023-07-27T11:40:22.482+00:00</time>
      </trkpt>
      <trkpt lat="48.30405" lon="2.60305">
        <ele>111</ele>
        <time>2023-07-27T11:40:27.192+00:00</time>
      </trkpt>
      <trkpt lat="48.304" lon="2.60307">
        <ele>110</ele>
        <time>2023-07-27T11:40:31.704+00:00</time>
      </trkpt>
      <trkpt lat="48.30395" lon="2.6031">
        <ele>110</ele>
        <time>2023-07-27T11:40:36.240+00:00</time>
      </trkpt>
      <trkpt lat="48.30391" lon="2.60308">
        <ele>110</ele>
        <time>2023-07-27T11:40:40.749+00:00</time>
      </trkpt>
      <trkpt lat="48.30388" lon="2.60305">
        <ele>110</ele>
        <time>2023-07-27T11:40:44.763+00:00</time>
      </trkpt>
      <trkpt lat="48.30388" lon="2.60301">
        <ele>110</ele>
        <time>2023-07-27T11:40:49.286+00:00</time>
      </trkpt>
      <trkpt lat="48.30388" lon="2.60295">
        <ele>110</ele>
        <time>2023-07-27T11:40:53.794+00:00</time>
      </trkpt>
      <trkpt lat="48.30388" lon="2.60294">
        <ele>110</ele>
        <time>2023-07-27T11:40:57.797+00:00</time>
      </trkpt>
      <trkpt lat="48.30388" lon="2.60294">
        <ele>110</ele>
        <time>2023-07-27T11:41:02.379+00:00</time>
      </trkpt>
      <trkpt lat="48.30391" lon="2.60294">
        <ele>110</ele>
        <time>2023-07-27T11:41:06.979+00:00</time>
      </trkpt>
      <trkpt lat="48.30397" lon="2.60292">
        <ele>110</ele>
        <time>2023-07-27T11:41:11.576+00:00</time>
      </trkpt>
      <trkpt lat="48.30407" lon="2.6028">
        <ele>108</ele>
        <time>2023-07-27T11:41:28.644+00:00</time>
      </trkpt>
      <trkpt lat="48.30407" lon="2.60279">
        <ele>108</ele>
        <time>2023-07-27T11:41:32.693+00:00</time>
      </trkpt>
      <trkpt lat="48.30408" lon="2.6028">
        <ele>108</ele>
        <time>2023-07-27T11:41:37.708+00:00</time>
      </trkpt>
      <trkpt lat="48.30408" lon="2.6028">
        <ele>108</ele>
        <time>2023-07-27T11:41:42.724+00:00</time>
      </trkpt>
      <trkpt lat="48.30408" lon="2.6028">
        <ele>108</ele>
        <time>2023-07-27T11:41:46.738+00:00</time>
      </trkpt>
      <trkpt lat="48.30408" lon="2.60279">
        <ele>108</ele>
        <time>2023-07-27T11:42:14.940+00:00</time>
      </trkpt>
      <trkpt lat="48.30407" lon="2.60284">
        <ele>108</ele>
        <time>2023-07-27T11:42:19.471+00:00</time>
      </trkpt>
      <trkpt lat="48.30405" lon="2.60289">
        <ele>108</ele>
        <time>2023-07-27T11:42:23.482+00:00</time>
      </trkpt>
      <trkpt lat="48.30403" lon="2.60293">
        <ele>111</ele>
        <time>2023-07-27T11:42:28.596+00:00</time>
      </trkpt>
      <trkpt lat="48.30402" lon="2.60295">
        <ele>110</ele>
        <time>2023-07-27T11:42:30.104+00:00</time>
      </trkpt>
      <trkpt lat="48.30399" lon="2.60306">
        <ele>110</ele>
        <time>2023-07-27T11:42:37.637+00:00</time>
      </trkpt>
      <trkpt lat="48.30396" lon="2.60307">
        <ele>110</ele>
        <time>2023-07-27T11:42:41.745+00:00</time>
      </trkpt>
      <trkpt lat="48.30391" lon="2.60311">
        <ele>110</ele>
        <time>2023-07-27T11:42:46.349+00:00</time>
      </trkpt>
      <trkpt lat="48.30387" lon="2.60316">
        <ele>110</ele>
        <time>2023-07-27T11:42:50.852+00:00</time>
      </trkpt>
      <trkpt lat="48.30385" lon="2.60322">
        <ele>112</ele>
        <time>2023-07-27T11:42:55.356+00:00</time>
      </trkpt>
      <trkpt lat="48.30383" lon="2.60327">
        <ele>112</ele>
        <time>2023-07-27T11:42:59.437+00:00</time>
      </trkpt>
      <trkpt lat="48.3038" lon="2.60333">
        <ele>112</ele>
        <time>2023-07-27T11:43:03.940+00:00</time>
      </trkpt>
      <trkpt lat="48.30378" lon="2.60338">
        <ele>112</ele>
        <time>2023-07-27T11:43:08.441+00:00</time>
      </trkpt>
      <trkpt lat="48.30375" lon="2.60341">
        <ele>112</ele>
        <time>2023-07-27T11:43:13.666+00:00</time>
      </trkpt>
      <trkpt lat="48.30371" lon="2.60343">
        <ele>111</ele>
        <time>2023-07-27T11:43:17.462+00:00</time>
      </trkpt>
      <trkpt lat="48.30366" lon="2.60343">
        <ele>111</ele>
        <time>2023-07-27T11:43:21.727+00:00</time>
      </trkpt>
      <trkpt lat="48.30361" lon="2.60341">
        <ele>111</ele>
        <time>2023-07-27T11:43:25.944+00:00</time>
      </trkpt>
      <trkpt lat="48.30358" lon="2.60339">
        <ele>111</ele>
        <time>2023-07-27T11:43:30.447+00:00</time>
      </trkpt>
      <trkpt lat="48.30355" lon="2.60338">
        <ele>111</ele>
        <time>2023-07-27T11:43:34.187+00:00</time>
      </trkpt>
      <trkpt lat="48.30353" lon="2.60339">
        <ele>111</ele>
        <time>2023-07-27T11:43:38.587+00:00</time>
      </trkpt>
      <trkpt lat="48.30349" lon="2.6034">
        <ele>111</ele>
        <time>2023-07-27T11:43:43.288+00:00</time>
      </trkpt>
      <trkpt lat="48.30344" lon="2.60339">
        <ele>108</ele>
        <time>2023-07-27T11:43:47.828+00:00</time>
      </trkpt>
      <trkpt lat="48.30341" lon="2.60333">
        <ele>108</ele>
        <time>2023-07-27T11:43:52.347+00:00</time>
      </trkpt>
      <trkpt lat="48.30337" lon="2.60332">
        <ele>108</ele>
        <time>2023-07-27T11:43:56.868+00:00</time>
      </trkpt>
      <trkpt lat="48.30333" lon="2.6033">
        <ele>108</ele>
        <time>2023-07-27T11:44:00.921+00:00</time>
      </trkpt>
      <trkpt lat="48.30329" lon="2.60326">
        <ele>108</ele>
        <time>2023-07-27T11:44:05.440+00:00</time>
      </trkpt>
      <trkpt lat="48.30324" lon="2.60321">
        <ele>108</ele>
        <time>2023-07-27T11:44:09.761+00:00</time>
      </trkpt>
      <trkpt lat="48.30319" lon="2.6032">
        <ele>102</ele>
        <time>2023-07-27T11:44:13.942+00:00</time>
      </trkpt>
      <trkpt lat="48.30315" lon="2.60318">
        <ele>99</ele>
        <time>2023-07-27T11:44:17.800+00:00</time>
      </trkpt>
      <trkpt lat="48.30311" lon="2.60316">
        <ele>99</ele>
        <time>2023-07-27T11:44:22.440+00:00</time>
      </trkpt>
      <trkpt lat="48.30309" lon="2.60311">
        <ele>99</ele>
        <time>2023-07-27T11:48:13.447+00:00</time>
      </trkpt>
      <trkpt lat="48.30313" lon="2.60323">
        <ele>102</ele>
        <time>2023-07-27T11:48:22.579+00:00</time>
      </trkpt>
      <trkpt lat="48.30317" lon="2.60325">
        <ele>102</ele>
        <time>2023-07-27T11:48:27.092+00:00</time>
      </trkpt>
      <trkpt lat="48.30322" lon="2.60326">
        <ele>108</ele>
        <time>2023-07-27T11:48:31.605+00:00</time>
      </trkpt>
      <trkpt lat="48.30327" lon="2.60326">
        <ele>108</ele>
        <time>2023-07-27T11:48:35.617+00:00</time>
      </trkpt>
      <trkpt lat="48.3033" lon="2.60328">
        <ele>108</ele>
        <time>2023-07-27T11:48:39.651+00:00</time>
      </trkpt>
      <trkpt lat="48.30333" lon="2.60331">
        <ele>108</ele>
        <time>2023-07-27T11:48:44.268+00:00</time>
      </trkpt>
      <trkpt lat="48.30336" lon="2.60335">
        <ele>108</ele>
        <time>2023-07-27T11:48:48.375+00:00</time>
      </trkpt>
      <trkpt lat="48.3034" lon="2.60338">
        <ele>108</ele>
        <time>2023-07-27T11:48:52.884+00:00</time>
      </trkpt>
      <trkpt lat="48.30343" lon="2.60341">
        <ele>108</ele>
        <time>2023-07-27T11:48:57.493+00:00</time>
      </trkpt>
      <trkpt lat="48.30343" lon="2.60344">
        <ele>108</ele>
        <time>2023-07-27T11:49:02.001+00:00</time>
      </trkpt>
      <trkpt lat="48.3034" lon="2.60351">
        <ele>109</ele>
        <time>2023-07-27T11:49:06.005+00:00</time>
      </trkpt>
      <trkpt lat="48.30338" lon="2.60359">
        <ele>109</ele>
        <time>2023-07-27T11:49:10.011+00:00</time>
      </trkpt>
      <trkpt lat="48.30339" lon="2.60368">
        <ele>109</ele>
        <time>2023-07-27T11:49:14.515+00:00</time>
      </trkpt>
      <trkpt lat="48.30339" lon="2.60376">
        <ele>108</ele>
        <time>2023-07-27T11:49:18.776+00:00</time>
      </trkpt>
      <trkpt lat="48.30342" lon="2.60381">
        <ele>108</ele>
        <time>2023-07-27T11:49:23.790+00:00</time>
      </trkpt>
      <trkpt lat="48.30342" lon="2.60384">
        <ele>108</ele>
        <time>2023-07-27T11:49:27.806+00:00</time>
      </trkpt>
      <trkpt lat="48.30344" lon="2.60382">
        <ele>108</ele>
        <time>2023-07-27T11:49:32.321+00:00</time>
      </trkpt>
      <trkpt lat="48.30346" lon="2.60387">
        <ele>108</ele>
        <time>2023-07-27T11:49:36.934+00:00</time>
      </trkpt>
      <trkpt lat="48.30354" lon="2.60393">
        <ele>113</ele>
        <time>2023-07-27T11:49:41.045+00:00</time>
      </trkpt>
      <trkpt lat="48.30357" lon="2.60403">
        <ele>112</ele>
        <time>2023-07-27T11:49:45.056+00:00</time>
      </trkpt>
      <trkpt lat="48.30356" lon="2.60415">
        <ele>112</ele>
        <time>2023-07-27T11:49:49.570+00:00</time>
      </trkpt>
      <trkpt lat="48.30357" lon="2.60424">
        <ele>112</ele>
        <time>2023-07-27T11:49:54.687+00:00</time>
      </trkpt>
      <trkpt lat="48.30358" lon="2.60432">
        <ele>109</ele>
        <time>2023-07-27T11:49:58.796+00:00</time>
      </trkpt>
      <trkpt lat="48.30358" lon="2.6044">
        <ele>109</ele>
        <time>2023-07-27T11:50:03.359+00:00</time>
      </trkpt>
      <trkpt lat="48.30359" lon="2.60448">
        <ele>109</ele>
        <time>2023-07-27T11:50:07.922+00:00</time>
      </trkpt>
      <trkpt lat="48.30363" lon="2.60453">
        <ele>109</ele>
        <time>2023-07-27T11:50:12.530+00:00</time>
      </trkpt>
      <trkpt lat="48.30366" lon="2.60457">
        <ele>109</ele>
        <time>2023-07-27T11:50:16.536+00:00</time>
      </trkpt>
      <trkpt lat="48.30368" lon="2.60462">
        <ele>106</ele>
        <time>2023-07-27T11:50:20.559+00:00</time>
      </trkpt>
      <trkpt lat="48.30372" lon="2.60469">
        <ele>106</ele>
        <time>2023-07-27T11:50:25.180+00:00</time>
      </trkpt>
      <trkpt lat="48.30374" lon="2.60476">
        <ele>106</ele>
        <time>2023-07-27T11:50:29.683+00:00</time>
      </trkpt>
      <trkpt lat="48.30378" lon="2.60481">
        <ele>111</ele>
        <time>2023-07-27T11:50:33.685+00:00</time>
      </trkpt>
      <trkpt lat="48.30382" lon="2.60484">
        <ele>111</ele>
        <time>2023-07-27T11:50:38.248+00:00</time>
      </trkpt>
      <trkpt lat="48.30385" lon="2.60483">
        <ele>111</ele>
        <time>2023-07-27T11:50:42.962+00:00</time>
      </trkpt>
      <trkpt lat="48.30387" lon="2.60486">
        <ele>111</ele>
        <time>2023-07-27T11:50:46.749+00:00</time>
      </trkpt>
      <trkpt lat="48.30389" lon="2.60491">
        <ele>109</ele>
        <time>2023-07-27T11:50:51.250+00:00</time>
      </trkpt>
      <trkpt lat="48.30391" lon="2.60499">
        <ele>109</ele>
        <time>2023-07-27T11:50:55.960+00:00</time>
      </trkpt>
      <trkpt lat="48.30395" lon="2.60517">
        <ele>108</ele>
        <time>2023-07-27T11:51:25.497+00:00</time>
      </trkpt>
      <trkpt lat="48.30398" lon="2.60523">
        <ele>108</ele>
        <time>2023-07-27T11:51:29.507+00:00</time>
      </trkpt>
      <trkpt lat="48.30399" lon="2.60531">
        <ele>108</ele>
        <time>2023-07-27T11:51:34.116+00:00</time>
      </trkpt>
      <trkpt lat="48.30401" lon="2.60538">
        <ele>108</ele>
        <time>2023-07-27T11:51:38.123+00:00</time>
      </trkpt>
      <trkpt lat="48.30402" lon="2.60544">
        <ele>108</ele>
        <time>2023-07-27T11:51:42.232+00:00</time>
      </trkpt>
      <trkpt lat="48.30404" lon="2.60552">
        <ele>110</ele>
        <time>2023-07-27T11:51:46.239+00:00</time>
      </trkpt>
      <trkpt lat="48.30406" lon="2.60559">
        <ele>110</ele>
        <time>2023-07-27T11:51:50.747+00:00</time>
      </trkpt>
      <trkpt lat="48.30407" lon="2.60565">
        <ele>110</ele>
        <time>2023-07-27T11:51:55.329+00:00</time>
      </trkpt>
      <trkpt lat="48.30407" lon="2.60572">
        <ele>109</ele>
        <time>2023-07-27T11:51:59.363+00:00</time>
      </trkpt>
      <trkpt lat="48.30406" lon="2.60579">
        <ele>109</ele>
        <time>2023-07-27T11:52:03.872+00:00</time>
      </trkpt>
      <trkpt lat="48.30409" lon="2.60585">
        <ele>109</ele>
        <time>2023-07-27T11:52:08.882+00:00</time>
      </trkpt>
      <trkpt lat="48.3041" lon="2.60591">
        <ele>109</ele>
        <time>2023-07-27T11:52:13.892+00:00</time>
      </trkpt>
      <trkpt lat="48.3041" lon="2.60592">
        <ele>109</ele>
        <time>2023-07-27T11:52:18.904+00:00</time>
      </trkpt>
      <trkpt lat="48.30411" lon="2.60593">
        <ele>109</ele>
        <time>2023-07-27T11:52:30.923+00:00</time>
      </trkpt>
      <trkpt lat="48.30412" lon="2.60594">
        <ele>109</ele>
        <time>2023-07-27T11:52:34.527+00:00</time>
      </trkpt>
      <trkpt lat="48.30416" lon="2.60596">
        <ele>109</ele>
        <time>2023-07-27T11:52:39.708+00:00</time>
      </trkpt>
      <trkpt lat="48.30417" lon="2.606">
        <ele>105</ele>
        <time>2023-07-27T11:52:43.710+00:00</time>
      </trkpt>
      <trkpt lat="48.3042" lon="2.606">
        <ele>105</ele>
        <time>2023-07-27T11:52:47.712+00:00</time>
      </trkpt>
      <trkpt lat="48.30423" lon="2.60605">
        <ele>105</ele>
        <time>2023-07-27T11:52:52.934+00:00</time>
      </trkpt>
      <trkpt lat="48.30429" lon="2.60607">
        <ele>105</ele>
        <time>2023-07-27T11:52:57.974+00:00</time>
      </trkpt>
      <trkpt lat="48.30433" lon="2.60607">
        <ele>108</ele>
        <time>2023-07-27T11:53:02.396+00:00</time>
      </trkpt>
      <trkpt lat="48.30436" lon="2.60603">
        <ele>108</ele>
        <time>2023-07-27T11:53:06.543+00:00</time>
      </trkpt>
      <trkpt lat="48.30437" lon="2.60606">
        <ele>108</ele>
        <time>2023-07-27T11:53:20.586+00:00</time>
      </trkpt>
      <trkpt lat="48.30437" lon="2.60607">
        <ele>108</ele>
        <time>2023-07-27T11:53:24.629+00:00</time>
      </trkpt>
      <trkpt lat="48.30438" lon="2.60608">
        <ele>108</ele>
        <time>2023-07-27T11:53:29.644+00:00</time>
      </trkpt>
      <trkpt lat="48.3044" lon="2.6061">
        <ele>108</ele>
        <time>2023-07-27T11:53:34.659+00:00</time>
      </trkpt>
      <trkpt lat="48.30443" lon="2.60615">
        <ele>108</ele>
        <time>2023-07-27T11:53:39.188+00:00</time>
      </trkpt>
      <trkpt lat="48.3045" lon="2.60623">
        <ele>108</ele>
        <time>2023-07-27T11:54:04.761+00:00</time>
      </trkpt>
      <trkpt lat="48.30452" lon="2.60635">
        <ele>107</ele>
        <time>2023-07-27T11:54:09.269+00:00</time>
      </trkpt>
      <trkpt lat="48.30454" lon="2.60644">
        <ele>107</ele>
        <time>2023-07-27T11:54:13.775+00:00</time>
      </trkpt>
      <trkpt lat="48.30458" lon="2.60654">
        <ele>104</ele>
        <time>2023-07-27T11:54:17.778+00:00</time>
      </trkpt>
      <trkpt lat="48.30463" lon="2.60662">
        <ele>105</ele>
        <time>2023-07-27T11:54:22.381+00:00</time>
      </trkpt>
      <trkpt lat="48.30467" lon="2.6067">
        <ele>105</ele>
        <time>2023-07-27T11:54:26.884+00:00</time>
      </trkpt>
      <trkpt lat="48.3047" lon="2.60678">
        <ele>105</ele>
        <time>2023-07-27T11:54:31.387+00:00</time>
      </trkpt>
      <trkpt lat="48.30473" lon="2.60684">
        <ele>103</ele>
        <time>2023-07-27T11:54:35.428+00:00</time>
      </trkpt>
      <trkpt lat="48.30476" lon="2.60691">
        <ele>103</ele>
        <time>2023-07-27T11:54:40.247+00:00</time>
      </trkpt>
      <trkpt lat="48.30481" lon="2.60698">
        <ele>103</ele>
        <time>2023-07-27T11:54:44.750+00:00</time>
      </trkpt>
      <trkpt lat="48.30485" lon="2.60704">
        <ele>103</ele>
        <time>2023-07-27T11:54:48.687+00:00</time>
      </trkpt>
      <trkpt lat="48.30486" lon="2.60712">
        <ele>104</ele>
        <time>2023-07-27T11:54:53.306+00:00</time>
      </trkpt>
      <trkpt lat="48.30487" lon="2.6072">
        <ele>104</ele>
        <time>2023-07-27T11:54:57.359+00:00</time>
      </trkpt>
      <trkpt lat="48.30487" lon="2.60726">
        <ele>104</ele>
        <time>2023-07-27T11:55:01.864+00:00</time>
      </trkpt>
      <trkpt lat="48.30486" lon="2.6073">
        <ele>101</ele>
        <time>2023-07-27T11:55:06.845+00:00</time>
      </trkpt>
      <trkpt lat="48.30486" lon="2.60733">
        <ele>101</ele>
        <time>2023-07-27T11:55:10.584+00:00</time>
      </trkpt>
      <trkpt lat="48.30483" lon="2.6074">
        <ele>101</ele>
        <time>2023-07-27T11:55:15.359+00:00</time>
      </trkpt>
      <trkpt lat="48.30479" lon="2.60744">
        <ele>101</ele>
        <time>2023-07-27T11:55:19.665+00:00</time>
      </trkpt>
      <trkpt lat="48.30476" lon="2.60751">
        <ele>101</ele>
        <time>2023-07-27T11:55:23.945+00:00</time>
      </trkpt>
      <trkpt lat="48.30472" lon="2.60752">
        <ele>101</ele>
        <time>2023-07-27T11:55:28.086+00:00</time>
      </trkpt>
      <trkpt lat="48.30467" lon="2.60754">
        <ele>101</ele>
        <time>2023-07-27T11:55:32.287+00:00</time>
      </trkpt>
      <trkpt lat="48.30463" lon="2.60759">
        <ele>101</ele>
        <time>2023-07-27T11:56:07.811+00:00</time>
      </trkpt>
      <trkpt lat="48.30461" lon="2.6076">
        <ele>101</ele>
        <time>2023-07-27T11:56:12.322+00:00</time>
      </trkpt>
      <trkpt lat="48.30458" lon="2.60763">
        <ele>95</ele>
        <time>2023-07-27T11:56:16.833+00:00</time>
      </trkpt>
      <trkpt lat="48.30457" lon="2.60774">
        <ele>96</ele>
        <time>2023-07-27T11:56:21.357+00:00</time>
      </trkpt>
      <trkpt lat="48.30456" lon="2.60774">
        <ele>96</ele>
        <time>2023-07-27T11:56:25.867+00:00</time>
      </trkpt>
      <trkpt lat="48.30454" lon="2.60779">
        <ele>96</ele>
        <time>2023-07-27T11:56:51.943+00:00</time>
      </trkpt>
      <trkpt lat="48.30453" lon="2.60779">
        <ele>96</ele>
        <time>2023-07-27T11:56:55.955+00:00</time>
      </trkpt>
      <trkpt lat="48.30452" lon="2.60781">
        <ele>96</ele>
        <time>2023-07-27T11:56:59.967+00:00</time>
      </trkpt>
      <trkpt lat="48.30449" lon="2.60784">
        <ele>96</ele>
        <time>2023-07-27T11:57:04.482+00:00</time>
      </trkpt>
      <trkpt lat="48.30448" lon="2.60793">
        <ele>98</ele>
        <time>2023-07-27T11:57:08.493+00:00</time>
      </trkpt>
      <trkpt lat="48.30446" lon="2.60799">
        <ele>98</ele>
        <time>2023-07-27T11:57:17.519+00:00</time>
      </trkpt>
      <trkpt lat="48.30445" lon="2.608">
        <ele>98</ele>
        <time>2023-07-27T11:57:21.536+00:00</time>
      </trkpt>
      <trkpt lat="48.30444" lon="2.60801">
        <ele>98</ele>
        <time>2023-07-27T11:57:26.544+00:00</time>
      </trkpt>
      <trkpt lat="48.30442" lon="2.60806">
        <ele>98</ele>
        <time>2023-07-27T11:57:30.548+00:00</time>
      </trkpt>
      <trkpt lat="48.30441" lon="2.60813">
        <ele>98</ele>
        <time>2023-07-27T11:57:35.150+00:00</time>
      </trkpt>
      <trkpt lat="48.30438" lon="2.60821">
        <ele>100</ele>
        <time>2023-07-27T11:57:39.831+00:00</time>
      </trkpt>
      <trkpt lat="48.30438" lon="2.60826">
        <ele>100</ele>
        <time>2023-07-27T11:57:44.335+00:00</time>
      </trkpt>
      <trkpt lat="48.30438" lon="2.60831">
        <ele>100</ele>
        <time>2023-07-27T11:57:48.838+00:00</time>
      </trkpt>
      <trkpt lat="48.30438" lon="2.60832">
        <ele>100</ele>
        <time>2023-07-27T11:57:50.359+00:00</time>
      </trkpt>
      <trkpt lat="48.30439" lon="2.60838">
        <ele>100</ele>
        <time>2023-07-27T11:57:56.460+00:00</time>
      </trkpt>
      <trkpt lat="48.3044" lon="2.6085">
        <ele>100</ele>
        <time>2023-07-27T12:00:15.816+00:00</time>
      </trkpt>
      <trkpt lat="48.30441" lon="2.60851">
        <ele>100</ele>
        <time>2023-07-27T12:00:20.835+00:00</time>
      </trkpt>
      <trkpt lat="48.30439" lon="2.60856">
        <ele>100</ele>
        <time>2023-07-27T12:00:25.865+00:00</time>
      </trkpt>
      <trkpt lat="48.30435" lon="2.60857">
        <ele>100</ele>
        <time>2023-07-27T12:00:29.463+00:00</time>
      </trkpt>
      <trkpt lat="48.3043" lon="2.60859">
        <ele>97</ele>
        <time>2023-07-27T12:00:33.979+00:00</time>
      </trkpt>
      <trkpt lat="48.30424" lon="2.60862">
        <ele>97</ele>
        <time>2023-07-27T12:00:42.539+00:00</time>
      </trkpt>
      <trkpt lat="48.30423" lon="2.60863">
        <ele>97</ele>
        <time>2023-07-27T12:00:47.659+00:00</time>
      </trkpt>
      <trkpt lat="48.30422" lon="2.60863">
        <ele>97</ele>
        <time>2023-07-27T12:00:51.675+00:00</time>
      </trkpt>
      <trkpt lat="48.30421" lon="2.60863">
        <ele>97</ele>
        <time>2023-07-27T12:00:56.698+00:00</time>
      </trkpt>
      <trkpt lat="48.30417" lon="2.60862">
        <ele>97</ele>
        <time>2023-07-27T12:01:01.719+00:00</time>
      </trkpt>
      <trkpt lat="48.30416" lon="2.60873">
        <ele>97</ele>
        <time>2023-07-27T12:01:36.461+00:00</time>
      </trkpt>
      <trkpt lat="48.30416" lon="2.60873">
        <ele>97</ele>
        <time>2023-07-27T12:01:40.996+00:00</time>
      </trkpt>
      <trkpt lat="48.30416" lon="2.60877">
        <ele>96</ele>
        <time>2023-07-27T12:01:45.515+00:00</time>
      </trkpt>
      <trkpt lat="48.30412" lon="2.60877">
        <ele>96</ele>
        <time>2023-07-27T12:01:50.035+00:00</time>
      </trkpt>
      <trkpt lat="48.30409" lon="2.60878">
        <ele>96</ele>
        <time>2023-07-27T12:01:54.553+00:00</time>
      </trkpt>
      <trkpt lat="48.30407" lon="2.60881">
        <ele>96</ele>
        <time>2023-07-27T12:02:26.774+00:00</time>
      </trkpt>
      <trkpt lat="48.30404" lon="2.6088">
        <ele>96</ele>
        <time>2023-07-27T12:02:31.394+00:00</time>
      </trkpt>
      <trkpt lat="48.30402" lon="2.60875">
        <ele>97</ele>
        <time>2023-07-27T12:02:35.510+00:00</time>
      </trkpt>
      <trkpt lat="48.30398" lon="2.60874">
        <ele>98</ele>
        <time>2023-07-27T12:02:40.027+00:00</time>
      </trkpt>
      <trkpt lat="48.30397" lon="2.60874">
        <ele>98</ele>
        <time>2023-07-27T12:02:44.545+00:00</time>
      </trkpt>
      <trkpt lat="48.30393" lon="2.60883">
        <ele>97</ele>
        <time>2023-07-27T12:03:15.168+00:00</time>
      </trkpt>
      <trkpt lat="48.30393" lon="2.60882">
        <ele>97</ele>
        <time>2023-07-27T12:03:19.683+00:00</time>
      </trkpt>
      <trkpt lat="48.30391" lon="2.60882">
        <ele>97</ele>
        <time>2023-07-27T12:03:23.700+00:00</time>
      </trkpt>
      <trkpt lat="48.3039" lon="2.60879">
        <ele>97</ele>
        <time>2023-07-27T12:03:28.218+00:00</time>
      </trkpt>
      <trkpt lat="48.30388" lon="2.60879">
        <ele>97</ele>
        <time>2023-07-27T12:03:32.735+00:00</time>
      </trkpt>
      <trkpt lat="48.30389" lon="2.6088">
        <ele>97</ele>
        <time>2023-07-27T12:03:36.750+00:00</time>
      </trkpt>
      <trkpt lat="48.30389" lon="2.60882">
        <ele>97</ele>
        <time>2023-07-27T12:03:41.769+00:00</time>
      </trkpt>
      <trkpt lat="48.30388" lon="2.60883">
        <ele>97</ele>
        <time>2023-07-27T12:03:46.286+00:00</time>
      </trkpt>
      <trkpt lat="48.30384" lon="2.60882">
        <ele>97</ele>
        <time>2023-07-27T12:03:50.300+00:00</time>
      </trkpt>
      <trkpt lat="48.30379" lon="2.60882">
        <ele>97</ele>
        <time>2023-07-27T12:03:54.815+00:00</time>
      </trkpt>
      <trkpt lat="48.30377" lon="2.60882">
        <ele>97</ele>
        <time>2023-07-27T12:03:58.829+00:00</time>
      </trkpt>
      <trkpt lat="48.30372" lon="2.60887">
        <ele>96</ele>
        <time>2023-07-27T12:04:03.444+00:00</time>
      </trkpt>
      <trkpt lat="48.30366" lon="2.60886">
        <ele>96</ele>
        <time>2023-07-27T12:04:08.058+00:00</time>
      </trkpt>
      <trkpt lat="48.30365" lon="2.60884">
        <ele>96</ele>
        <time>2023-07-27T12:04:12.576+00:00</time>
      </trkpt>
      <trkpt lat="48.30359" lon="2.60882">
        <ele>96</ele>
        <time>2023-07-27T12:04:17.193+00:00</time>
      </trkpt>
      <trkpt lat="48.30355" lon="2.6088">
        <ele>96</ele>
        <time>2023-07-27T12:04:21.206+00:00</time>
      </trkpt>
      <trkpt lat="48.30353" lon="2.60879">
        <ele>96</ele>
        <time>2023-07-27T12:04:25.322+00:00</time>
      </trkpt>
      <trkpt lat="48.30349" lon="2.60879">
        <ele>96</ele>
        <time>2023-07-27T12:04:29.850+00:00</time>
      </trkpt>
      <trkpt lat="48.30346" lon="2.60877">
        <ele>96</ele>
        <time>2023-07-27T12:04:33.948+00:00</time>
      </trkpt>
      <trkpt lat="48.30345" lon="2.60871">
        <ele>94</ele>
        <time>2023-07-27T12:04:37.962+00:00</time>
      </trkpt>
      <trkpt lat="48.30343" lon="2.60868">
        <ele>94</ele>
        <time>2023-07-27T12:04:42.479+00:00</time>
      </trkpt>
      <trkpt lat="48.3034" lon="2.60872">
        <ele>94</ele>
        <time>2023-07-27T12:04:46.496+00:00</time>
      </trkpt>
      <trkpt lat="48.30337" lon="2.60871">
        <ele>94</ele>
        <time>2023-07-27T12:04:50.510+00:00</time>
      </trkpt>
      <trkpt lat="48.30327" lon="2.60867">
        <ele>94</ele>
        <time>2023-07-27T12:05:46.935+00:00</time>
      </trkpt>
      <trkpt lat="48.30327" lon="2.60866">
        <ele>94</ele>
        <time>2023-07-27T12:05:51.767+00:00</time>
      </trkpt>
      <trkpt lat="48.30327" lon="2.60864">
        <ele>94</ele>
        <time>2023-07-27T12:05:55.782+00:00</time>
      </trkpt>
      <trkpt lat="48.30328" lon="2.60861">
        <ele>94</ele>
        <time>2023-07-27T12:05:59.796+00:00</time>
      </trkpt>
      <trkpt lat="48.30327" lon="2.60858">
        <ele>94</ele>
        <time>2023-07-27T12:06:03.812+00:00</time>
      </trkpt>
      <trkpt lat="48.30323" lon="2.60854">
        <ele>94</ele>
        <time>2023-07-27T12:06:21.396+00:00</time>
      </trkpt>
      <trkpt lat="48.3032" lon="2.60851">
        <ele>94</ele>
        <time>2023-07-27T12:06:25.913+00:00</time>
      </trkpt>
      <trkpt lat="48.3032" lon="2.60852">
        <ele>94</ele>
        <time>2023-07-27T12:06:30.530+00:00</time>
      </trkpt>
      <trkpt lat="48.30319" lon="2.6085">
        <ele>95</ele>
        <time>2023-07-27T12:06:34.543+00:00</time>
      </trkpt>
      <trkpt lat="48.30318" lon="2.60844">
        <ele>92</ele>
        <time>2023-07-27T12:06:39.059+00:00</time>
      </trkpt>
      <trkpt lat="48.3031" lon="2.60836">
        <ele>92</ele>
        <time>2023-07-27T12:07:58.606+00:00</time>
      </trkpt>
      <trkpt lat="48.30308" lon="2.60838">
        <ele>92</ele>
        <time>2023-07-27T12:08:02.621+00:00</time>
      </trkpt>
      <trkpt lat="48.30305" lon="2.6084">
        <ele>92</ele>
        <time>2023-07-27T12:08:07.641+00:00</time>
      </trkpt>
      <trkpt lat="48.30305" lon="2.6084">
        <ele>92</ele>
        <time>2023-07-27T12:08:12.158+00:00</time>
      </trkpt>
      <trkpt lat="48.30305" lon="2.6084">
        <ele>92</ele>
        <time>2023-07-27T12:08:16.172+00:00</time>
      </trkpt>
      <trkpt lat="48.30297" lon="2.60834">
        <ele>92</ele>
        <time>2023-07-27T12:08:51.284+00:00</time>
      </trkpt>
      <trkpt lat="48.30297" lon="2.60834">
        <ele>92</ele>
        <time>2023-07-27T12:08:52.786+00:00</time>
      </trkpt>
      <trkpt lat="48.30296" lon="2.60833">
        <ele>92</ele>
        <time>2023-07-27T12:09:01.817+00:00</time>
      </trkpt>
      <trkpt lat="48.30296" lon="2.60833">
        <ele>92</ele>
        <time>2023-07-27T12:09:06.335+00:00</time>
      </trkpt>
      <trkpt lat="48.30296" lon="2.60832">
        <ele>92</ele>
        <time>2023-07-27T12:09:10.963+00:00</time>
      </trkpt>
      <trkpt lat="48.30291" lon="2.60837">
        <ele>92</ele>
        <time>2023-07-27T12:09:40.559+00:00</time>
      </trkpt>
      <trkpt lat="48.3029" lon="2.60837">
        <ele>92</ele>
        <time>2023-07-27T12:09:45.767+00:00</time>
      </trkpt>
      <trkpt lat="48.30289" lon="2.60838">
        <ele>92</ele>
        <time>2023-07-27T12:09:50.773+00:00</time>
      </trkpt>
      <trkpt lat="48.30288" lon="2.60839">
        <ele>92</ele>
        <time>2023-07-27T12:09:53.775+00:00</time>
      </trkpt>
      <trkpt lat="48.30287" lon="2.60841">
        <ele>92</ele>
        <time>2023-07-27T12:10:03.304+00:00</time>
      </trkpt>
      <trkpt lat="48.30284" lon="2.60841">
        <ele>92</ele>
        <time>2023-07-27T12:10:24.072+00:00</time>
      </trkpt>
      <trkpt lat="48.30284" lon="2.60845">
        <ele>92</ele>
        <time>2023-07-27T12:10:28.586+00:00</time>
      </trkpt>
      <trkpt lat="48.30284" lon="2.6085">
        <ele>95</ele>
        <time>2023-07-27T12:10:32.598+00:00</time>
      </trkpt>
      <trkpt lat="48.30284" lon="2.60853">
        <ele>95</ele>
        <time>2023-07-27T12:10:37.111+00:00</time>
      </trkpt>
      <trkpt lat="48.30284" lon="2.60854">
        <ele>95</ele>
        <time>2023-07-27T12:10:41.625+00:00</time>
      </trkpt>
      <trkpt lat="48.30282" lon="2.60861">
        <ele>95</ele>
        <time>2023-07-27T12:10:59.182+00:00</time>
      </trkpt>
      <trkpt lat="48.30279" lon="2.60857">
        <ele>95</ele>
        <time>2023-07-27T12:11:03.799+00:00</time>
      </trkpt>
      <trkpt lat="48.30278" lon="2.60857">
        <ele>95</ele>
        <time>2023-07-27T12:11:07.511+00:00</time>
      </trkpt>
      <trkpt lat="48.30276" lon="2.60855">
        <ele>95</ele>
        <time>2023-07-27T12:11:12.544+00:00</time>
      </trkpt>
      <trkpt lat="48.30275" lon="2.60854">
        <ele>95</ele>
        <time>2023-07-27T12:11:17.562+00:00</time>
      </trkpt>
      <trkpt lat="48.30275" lon="2.60855">
        <ele>95</ele>
        <time>2023-07-27T12:12:35.949+00:00</time>
      </trkpt>
      <trkpt lat="48.30277" lon="2.60856">
        <ele>95</ele>
        <time>2023-07-27T12:12:39.930+00:00</time>
      </trkpt>
      <trkpt lat="48.30279" lon="2.60863">
        <ele>95</ele>
        <time>2023-07-27T12:12:44.533+00:00</time>
      </trkpt>
      <trkpt lat="48.30281" lon="2.60868">
        <ele>95</ele>
        <time>2023-07-27T12:12:48.550+00:00</time>
      </trkpt>
      <trkpt lat="48.3028" lon="2.60871">
        <ele>95</ele>
        <time>2023-07-27T12:12:52.651+00:00</time>
      </trkpt>
      <trkpt lat="48.30277" lon="2.60875">
        <ele>95</ele>
        <time>2023-07-27T12:12:56.677+00:00</time>
      </trkpt>
      <trkpt lat="48.30277" lon="2.60882">
        <ele>95</ele>
        <time>2023-07-27T12:13:01.692+00:00</time>
      </trkpt>
      <trkpt lat="48.3028" lon="2.60885">
        <ele>95</ele>
        <time>2023-07-27T12:13:06.708+00:00</time>
      </trkpt>
      <trkpt lat="48.30281" lon="2.60886">
        <ele>95</ele>
        <time>2023-07-27T12:13:11.223+00:00</time>
      </trkpt>
      <trkpt lat="48.30282" lon="2.60889">
        <ele>95</ele>
        <time>2023-07-27T12:13:15.235+00:00</time>
      </trkpt>
      <trkpt lat="48.30282" lon="2.60893">
        <ele>95</ele>
        <time>2023-07-27T12:13:19.765+00:00</time>
      </trkpt>
      <trkpt lat="48.3028" lon="2.60894">
        <ele>95</ele>
        <time>2023-07-27T12:13:23.778+00:00</time>
      </trkpt>
      <trkpt lat="48.30276" lon="2.60894">
        <ele>95</ele>
        <time>2023-07-27T12:13:28.294+00:00</time>
      </trkpt>
      <trkpt lat="48.30273" lon="2.60894">
        <ele>95</ele>
        <time>2023-07-27T12:13:32.811+00:00</time>
      </trkpt>
      <trkpt lat="48.30273" lon="2.60895">
        <ele>95</ele>
        <time>2023-07-27T12:13:37.933+00:00</time>
      </trkpt>
      <trkpt lat="48.30277" lon="2.60905">
        <ele>93</ele>
        <time>2023-07-27T12:14:39.647+00:00</time>
      </trkpt>
      <trkpt lat="48.30277" lon="2.6091">
        <ele>93</ele>
        <time>2023-07-27T12:14:44.150+00:00</time>
      </trkpt>
      <trkpt lat="48.30279" lon="2.60913">
        <ele>93</ele>
        <time>2023-07-27T12:14:48.652+00:00</time>
      </trkpt>
      <trkpt lat="48.30281" lon="2.60915">
        <ele>93</ele>
        <time>2023-07-27T12:14:53.654+00:00</time>
      </trkpt>
      <trkpt lat="48.30281" lon="2.60916">
        <ele>93</ele>
        <time>2023-07-27T12:14:57.695+00:00</time>
      </trkpt>
      <trkpt lat="48.30279" lon="2.60921">
        <ele>93</ele>
        <time>2023-07-27T12:15:01.737+00:00</time>
      </trkpt>
      <trkpt lat="48.30278" lon="2.60927">
        <ele>93</ele>
        <time>2023-07-27T12:15:06.240+00:00</time>
      </trkpt>
      <trkpt lat="48.30279" lon="2.6093">
        <ele>93</ele>
        <time>2023-07-27T12:15:10.281+00:00</time>
      </trkpt>
      <trkpt lat="48.30282" lon="2.60931">
        <ele>90</ele>
        <time>2023-07-27T12:15:14.483+00:00</time>
      </trkpt>
      <trkpt lat="48.30283" lon="2.60933">
        <ele>90</ele>
        <time>2023-07-27T12:15:19.125+00:00</time>
      </trkpt>
      <trkpt lat="48.30284" lon="2.60944">
        <ele>90</ele>
        <time>2023-07-27T12:15:36.314+00:00</time>
      </trkpt>
      <trkpt lat="48.30283" lon="2.60945">
        <ele>90</ele>
        <time>2023-07-27T12:15:40.937+00:00</time>
      </trkpt>
      <trkpt lat="48.30282" lon="2.60946">
        <ele>90</ele>
        <time>2023-07-27T12:15:45.539+00:00</time>
      </trkpt>
      <trkpt lat="48.30281" lon="2.60948">
        <ele>90</ele>
        <time>2023-07-27T12:15:49.660+00:00</time>
      </trkpt>
      <trkpt lat="48.3028" lon="2.60952">
        <ele>90</ele>
        <time>2023-07-27T12:15:53.662+00:00</time>
      </trkpt>
      <trkpt lat="48.30285" lon="2.60955">
        <ele>90</ele>
        <time>2023-07-27T12:16:51.940+00:00</time>
      </trkpt>
      <trkpt lat="48.30285" lon="2.60955">
        <ele>90</ele>
        <time>2023-07-27T12:16:56.938+00:00</time>
      </trkpt>
      <trkpt lat="48.30286" lon="2.60957">
        <ele>90</ele>
        <time>2023-07-27T12:17:00.941+00:00</time>
      </trkpt>
      <trkpt lat="48.30288" lon="2.60958">
        <ele>90</ele>
        <time>2023-07-27T12:17:04.970+00:00</time>
      </trkpt>
      <trkpt lat="48.30291" lon="2.60959">
        <ele>85</ele>
        <time>2023-07-27T12:17:08.973+00:00</time>
      </trkpt>
      <trkpt lat="48.30292" lon="2.60958">
        <ele>90</ele>
        <time>2023-07-27T12:17:13.968+00:00</time>
      </trkpt>
      <trkpt lat="48.30293" lon="2.6096">
        <ele>90</ele>
        <time>2023-07-27T12:17:18.958+00:00</time>
      </trkpt>
      <trkpt lat="48.30292" lon="2.60964">
        <ele>90</ele>
        <time>2023-07-27T12:17:23.967+00:00</time>
      </trkpt>
      <trkpt lat="48.30289" lon="2.60969">
        <ele>85</ele>
        <time>2023-07-27T12:17:28.970+00:00</time>
      </trkpt>
      <trkpt lat="48.30286" lon="2.60972">
        <ele>85</ele>
        <time>2023-07-27T12:17:33.974+00:00</time>
      </trkpt>
      <trkpt lat="48.30286" lon="2.60973">
        <ele>85</ele>
        <time>2023-07-27T12:17:38.974+00:00</time>
      </trkpt>
      <trkpt lat="48.30287" lon="2.60974">
        <ele>85</ele>
        <time>2023-07-27T12:17:43.969+00:00</time>
      </trkpt>
      <trkpt lat="48.30288" lon="2.60979">
        <ele>85</ele>
        <time>2023-07-27T12:17:47.985+00:00</time>
      </trkpt>
      <trkpt lat="48.30289" lon="2.60988">
        <ele>80</ele>
        <time>2023-07-27T12:17:52.976+00:00</time>
      </trkpt>
      <trkpt lat="48.30288" lon="2.60992">
        <ele>80</ele>
        <time>2023-07-27T12:17:57.970+00:00</time>
      </trkpt>
      <trkpt lat="48.30288" lon="2.60989">
        <ele>80</ele>
        <time>2023-07-27T12:18:01.968+00:00</time>
      </trkpt>
      <trkpt lat="48.30285" lon="2.60988">
        <ele>80</ele>
        <time>2023-07-27T12:18:05.977+00:00</time>
      </trkpt>
      <trkpt lat="48.30282" lon="2.60987">
        <ele>80</ele>
        <time>2023-07-27T12:18:10.778+00:00</time>
      </trkpt>
      <trkpt lat="48.30279" lon="2.60987">
        <ele>80</ele>
        <time>2023-07-27T12:18:14.782+00:00</time>
      </trkpt>
      <trkpt lat="48.30273" lon="2.60979">
        <ele>85</ele>
        <time>2023-07-27T12:18:23.790+00:00</time>
      </trkpt>
      <trkpt lat="48.30272" lon="2.60977">
        <ele>85</ele>
        <time>2023-07-27T12:18:28.798+00:00</time>
      </trkpt>
      <trkpt lat="48.30272" lon="2.60976">
        <ele>85</ele>
        <time>2023-07-27T12:18:32.818+00:00</time>
      </trkpt>
      <trkpt lat="48.30271" lon="2.60974">
        <ele>85</ele>
        <time>2023-07-27T12:18:37.340+00:00</time>
      </trkpt>
      <trkpt lat="48.30267" lon="2.60971">
        <ele>85</ele>
        <time>2023-07-27T12:18:41.864+00:00</time>
      </trkpt>
      <trkpt lat="48.30266" lon="2.60965">
        <ele>85</ele>
        <time>2023-07-27T12:18:45.877+00:00</time>
      </trkpt>
      <trkpt lat="48.30266" lon="2.60958">
        <ele>90</ele>
        <time>2023-07-27T12:18:49.887+00:00</time>
      </trkpt>
      <trkpt lat="48.30266" lon="2.60954">
        <ele>90</ele>
        <time>2023-07-27T12:18:53.894+00:00</time>
      </trkpt>
      <trkpt lat="48.30266" lon="2.6095">
        <ele>90</ele>
        <time>2023-07-27T12:18:58+00:00</time>
      </trkpt>
      <trkpt lat="48.30264" lon="2.60947">
        <ele>90</ele>
        <time>2023-07-27T12:19:02.108+00:00</time>
      </trkpt>
      <trkpt lat="48.30259" lon="2.60945">
        <ele>84</ele>
        <time>2023-07-27T12:19:06.618+00:00</time>
      </trkpt>
      <trkpt lat="48.30256" lon="2.60943">
        <ele>84</ele>
        <time>2023-07-27T12:19:10.725+00:00</time>
      </trkpt>
      <trkpt lat="48.30254" lon="2.60942">
        <ele>84</ele>
        <time>2023-07-27T12:19:15.734+00:00</time>
      </trkpt>
      <trkpt lat="48.30253" lon="2.60942">
        <ele>84</ele>
        <time>2023-07-27T12:19:19.741+00:00</time>
      </trkpt>
      <trkpt lat="48.30251" lon="2.60942">
        <ele>84</ele>
        <time>2023-07-27T12:19:24.750+00:00</time>
      </trkpt>
      <trkpt lat="48.30249" lon="2.6094">
        <ele>84</ele>
        <time>2023-07-27T12:19:29.858+00:00</time>
      </trkpt>
      <trkpt lat="48.30245" lon="2.60937">
        <ele>84</ele>
        <time>2023-07-27T12:19:34.501+00:00</time>
      </trkpt>
      <trkpt lat="48.30242" lon="2.60935">
        <ele>84</ele>
        <time>2023-07-27T12:19:38.604+00:00</time>
      </trkpt>
      <trkpt lat="48.30238" lon="2.6093">
        <ele>88</ele>
        <time>2023-07-27T12:20:10.445+00:00</time>
      </trkpt>
      <trkpt lat="48.30237" lon="2.60925">
        <ele>88</ele>
        <time>2023-07-27T12:20:14.449+00:00</time>
      </trkpt>
      <trkpt lat="48.30236" lon="2.6092">
        <ele>81</ele>
        <time>2023-07-27T12:20:18.452+00:00</time>
      </trkpt>
      <trkpt lat="48.30233" lon="2.60916">
        <ele>81</ele>
        <time>2023-07-27T12:20:22.556+00:00</time>
      </trkpt>
      <trkpt lat="48.30228" lon="2.60915">
        <ele>81</ele>
        <time>2023-07-27T12:20:27.064+00:00</time>
      </trkpt>
      <trkpt lat="48.30226" lon="2.60913">
        <ele>81</ele>
        <time>2023-07-27T12:20:31.168+00:00</time>
      </trkpt>
      <trkpt lat="48.30225" lon="2.60907">
        <ele>81</ele>
        <time>2023-07-27T12:20:35.673+00:00</time>
      </trkpt>
      <trkpt lat="48.30226" lon="2.60901">
        <ele>83</ele>
        <time>2023-07-27T12:20:40.278+00:00</time>
      </trkpt>
      <trkpt lat="48.30225" lon="2.60893">
        <ele>83</ele>
        <time>2023-07-27T12:20:44.783+00:00</time>
      </trkpt>
      <trkpt lat="48.30223" lon="2.60885">
        <ele>83</ele>
        <time>2023-07-27T12:20:49.846+00:00</time>
      </trkpt>
      <trkpt lat="48.30221" lon="2.60886">
        <ele>83</ele>
        <time>2023-07-27T12:20:54.869+00:00</time>
      </trkpt>
      <trkpt lat="48.30221" lon="2.60884">
        <ele>83</ele>
        <time>2023-07-27T12:20:58.873+00:00</time>
      </trkpt>
      <trkpt lat="48.30222" lon="2.60874">
        <ele>84</ele>
        <time>2023-07-27T12:21:02.877+00:00</time>
      </trkpt>
      <trkpt lat="48.3022" lon="2.60866">
        <ele>84</ele>
        <time>2023-07-27T12:21:06.961+00:00</time>
      </trkpt>
      <trkpt lat="48.30215" lon="2.60856">
        <ele>84</ele>
        <time>2023-07-27T12:21:50.734+00:00</time>
      </trkpt>
      <trkpt lat="48.30215" lon="2.60854">
        <ele>84</ele>
        <time>2023-07-27T12:21:54.749+00:00</time>
      </trkpt>
      <trkpt lat="48.30214" lon="2.60853">
        <ele>84</ele>
        <time>2023-07-27T12:21:59.364+00:00</time>
      </trkpt>
      <trkpt lat="48.30214" lon="2.60851">
        <ele>84</ele>
        <time>2023-07-27T12:22:03.883+00:00</time>
      </trkpt>
      <trkpt lat="48.30213" lon="2.6085">
        <ele>84</ele>
        <time>2023-07-27T12:22:08.897+00:00</time>
      </trkpt>
      <trkpt lat="48.30209" lon="2.60844">
        <ele>81</ele>
        <time>2023-07-27T12:22:21.943+00:00</time>
      </trkpt>
      <trkpt lat="48.30208" lon="2.60843">
        <ele>76</ele>
        <time>2023-07-27T12:22:25.455+00:00</time>
      </trkpt>
      <trkpt lat="48.30208" lon="2.60842">
        <ele>76</ele>
        <time>2023-07-27T12:22:29.468+00:00</time>
      </trkpt>
      <trkpt lat="48.30207" lon="2.60839">
        <ele>76</ele>
        <time>2023-07-27T12:22:34.081+00:00</time>
      </trkpt>
      <trkpt lat="48.30206" lon="2.60834">
        <ele>76</ele>
        <time>2023-07-27T12:22:38.093+00:00</time>
      </trkpt>
      <trkpt lat="48.30205" lon="2.6083">
        <ele>76</ele>
        <time>2023-07-27T12:22:42.606+00:00</time>
      </trkpt>
      <trkpt lat="48.30203" lon="2.60826">
        <ele>76</ele>
        <time>2023-07-27T12:22:46.718+00:00</time>
      </trkpt>
      <trkpt lat="48.302" lon="2.60822">
        <ele>76</ele>
        <time>2023-07-27T12:22:51.233+00:00</time>
      </trkpt>
      <trkpt lat="48.30198" lon="2.6082">
        <ele>76</ele>
        <time>2023-07-27T12:22:55.763+00:00</time>
      </trkpt>
      <trkpt lat="48.30194" lon="2.60818">
        <ele>74</ele>
        <time>2023-07-27T12:22:59.776+00:00</time>
      </trkpt>
      <trkpt lat="48.30191" lon="2.60815">
        <ele>74</ele>
        <time>2023-07-27T12:23:03.789+00:00</time>
      </trkpt>
      <trkpt lat="48.3019" lon="2.6081">
        <ele>74</ele>
        <time>2023-07-27T12:23:08.301+00:00</time>
      </trkpt>
      <trkpt lat="48.30185" lon="2.60806">
        <ele>74</ele>
        <time>2023-07-27T12:23:12.823+00:00</time>
      </trkpt>
      <trkpt lat="48.3018" lon="2.60801">
        <ele>73</ele>
        <time>2023-07-27T12:23:17.336+00:00</time>
      </trkpt>
      <trkpt lat="48.3018" lon="2.60792">
        <ele>73</ele>
        <time>2023-07-27T12:23:21.912+00:00</time>
      </trkpt>
      <trkpt lat="48.30179" lon="2.60785">
        <ele>72</ele>
        <time>2023-07-27T12:23:26.069+00:00</time>
      </trkpt>
      <trkpt lat="48.30177" lon="2.60772">
        <ele>72</ele>
        <time>2023-07-27T12:23:30.178+00:00</time>
      </trkpt>
      <trkpt lat="48.3018" lon="2.60764">
        <ele>72</ele>
        <time>2023-07-27T12:23:34.685+00:00</time>
      </trkpt>
      <trkpt lat="48.30181" lon="2.60754">
        <ele>73</ele>
        <time>2023-07-27T12:23:39.190+00:00</time>
      </trkpt>
      <trkpt lat="48.30184" lon="2.60747">
        <ele>73</ele>
        <time>2023-07-27T12:23:43.696+00:00</time>
      </trkpt>
      <trkpt lat="48.30187" lon="2.60739">
        <ele>73</ele>
        <time>2023-07-27T12:23:48.199+00:00</time>
      </trkpt>
      <trkpt lat="48.3019" lon="2.60733">
        <ele>72</ele>
        <time>2023-07-27T12:23:52.203+00:00</time>
      </trkpt>
      <trkpt lat="48.30192" lon="2.60727">
        <ele>72</ele>
        <time>2023-07-27T12:23:56.725+00:00</time>
      </trkpt>
      <trkpt lat="48.30193" lon="2.60721">
        <ele>72</ele>
        <time>2023-07-27T12:24:00.727+00:00</time>
      </trkpt>
      <trkpt lat="48.30197" lon="2.60717">
        <ele>72</ele>
        <time>2023-07-27T12:24:05.270+00:00</time>
      </trkpt>
      <trkpt lat="48.30201" lon="2.60712">
        <ele>72</ele>
        <time>2023-07-27T12:24:09.274+00:00</time>
      </trkpt>
      <trkpt lat="48.30206" lon="2.60706">
        <ele>71</ele>
        <time>2023-07-27T12:24:13.777+00:00</time>
      </trkpt>
      <trkpt lat="48.30208" lon="2.60698">
        <ele>71</ele>
        <time>2023-07-27T12:24:17.799+00:00</time>
      </trkpt>
      <trkpt lat="48.30211" lon="2.6069">
        <ele>73</ele>
        <time>2023-07-27T12:24:22.301+00:00</time>
      </trkpt>
      <trkpt lat="48.30212" lon="2.60682">
        <ele>73</ele>
        <time>2023-07-27T12:24:27.005+00:00</time>
      </trkpt>
      <trkpt lat="48.30214" lon="2.60676">
        <ele>72</ele>
        <time>2023-07-27T12:24:31.007+00:00</time>
      </trkpt>
      <trkpt lat="48.30213" lon="2.60668">
        <ele>72</ele>
        <time>2023-07-27T12:24:35.530+00:00</time>
      </trkpt>
      <trkpt lat="48.30213" lon="2.6066">
        <ele>72</ele>
        <time>2023-07-27T12:24:39.532+00:00</time>
      </trkpt>
      <trkpt lat="48.30214" lon="2.60653">
        <ele>72</ele>
        <time>2023-07-27T12:24:44.036+00:00</time>
      </trkpt>
      <trkpt lat="48.30213" lon="2.60643">
        <ele>73</ele>
        <time>2023-07-27T12:24:48.677+00:00</time>
      </trkpt>
      <trkpt lat="48.30215" lon="2.60634">
        <ele>73</ele>
        <time>2023-07-27T12:24:52.978+00:00</time>
      </trkpt>
      <trkpt lat="48.30218" lon="2.60627">
        <ele>73</ele>
        <time>2023-07-27T12:24:57.120+00:00</time>
      </trkpt>
      <trkpt lat="48.30222" lon="2.6062">
        <ele>74</ele>
        <time>2023-07-27T12:25:01.841+00:00</time>
      </trkpt>
      <trkpt lat="48.30227" lon="2.60618">
        <ele>74</ele>
        <time>2023-07-27T12:25:05.982+00:00</time>
      </trkpt>
      <trkpt lat="48.3023" lon="2.60613">
        <ele>74</ele>
        <time>2023-07-27T12:25:10.042+00:00</time>
      </trkpt>
      <trkpt lat="48.30234" lon="2.60607">
        <ele>74</ele>
        <time>2023-07-27T12:25:14.965+00:00</time>
      </trkpt>
      <trkpt lat="48.30239" lon="2.606">
        <ele>74</ele>
        <time>2023-07-27T12:25:19.847+00:00</time>
      </trkpt>
      <trkpt lat="48.30243" lon="2.60594">
        <ele>75</ele>
        <time>2023-07-27T12:25:23.965+00:00</time>
      </trkpt>
      <trkpt lat="48.30246" lon="2.60586">
        <ele>75</ele>
        <time>2023-07-27T12:25:28.325+00:00</time>
      </trkpt>
      <trkpt lat="48.30246" lon="2.60577">
        <ele>75</ele>
        <time>2023-07-27T12:25:32.943+00:00</time>
      </trkpt>
      <trkpt lat="48.30248" lon="2.60569">
        <ele>76</ele>
        <time>2023-07-27T12:25:36.883+00:00</time>
      </trkpt>
      <trkpt lat="48.30249" lon="2.60562">
        <ele>76</ele>
        <time>2023-07-27T12:25:41.247+00:00</time>
      </trkpt>
      <trkpt lat="48.30249" lon="2.60555">
        <ele>76</ele>
        <time>2023-07-27T12:25:45.546+00:00</time>
      </trkpt>
      <trkpt lat="48.30248" lon="2.60548">
        <ele>76</ele>
        <time>2023-07-27T12:25:49.551+00:00</time>
      </trkpt>
      <trkpt lat="48.30249" lon="2.60542">
        <ele>76</ele>
        <time>2023-07-27T12:25:53.554+00:00</time>
      </trkpt>
      <trkpt lat="48.30252" lon="2.60535">
        <ele>76</ele>
        <time>2023-07-27T12:25:58.059+00:00</time>
      </trkpt>
      <trkpt lat="48.30254" lon="2.60527">
        <ele>76</ele>
        <time>2023-07-27T12:26:02.562+00:00</time>
      </trkpt>
      <trkpt lat="48.30255" lon="2.60521">
        <ele>76</ele>
        <time>2023-07-27T12:26:07.065+00:00</time>
      </trkpt>
      <trkpt lat="48.30261" lon="2.60508">
        <ele>77</ele>
        <time>2023-07-27T12:26:56.779+00:00</time>
      </trkpt>
      <trkpt lat="48.30261" lon="2.60505">
        <ele>77</ele>
        <time>2023-07-27T12:27:01.301+00:00</time>
      </trkpt>
      <trkpt lat="48.3026" lon="2.60501">
        <ele>77</ele>
        <time>2023-07-27T12:27:05.320+00:00</time>
      </trkpt>
      <trkpt lat="48.30258" lon="2.60495">
        <ele>77</ele>
        <time>2023-07-27T12:27:09.841+00:00</time>
      </trkpt>
      <trkpt lat="48.30256" lon="2.6049">
        <ele>77</ele>
        <time>2023-07-27T12:27:14.464+00:00</time>
      </trkpt>
      <trkpt lat="48.30255" lon="2.60487">
        <ele>77</ele>
        <time>2023-07-27T12:27:18.483+00:00</time>
      </trkpt>
      <trkpt lat="48.30253" lon="2.60481">
        <ele>79</ele>
        <time>2023-07-27T12:27:22.502+00:00</time>
      </trkpt>
      <trkpt lat="48.30251" lon="2.60476">
        <ele>79</ele>
        <time>2023-07-27T12:27:27.022+00:00</time>
      </trkpt>
      <trkpt lat="48.30248" lon="2.60471">
        <ele>79</ele>
        <time>2023-07-27T12:27:31.559+00:00</time>
      </trkpt>
      <trkpt lat="48.30245" lon="2.60466">
        <ele>79</ele>
        <time>2023-07-27T12:27:36.080+00:00</time>
      </trkpt>
      <trkpt lat="48.3024" lon="2.60463">
        <ele>79</ele>
        <time>2023-07-27T12:27:40.601+00:00</time>
      </trkpt>
      <trkpt lat="48.30235" lon="2.6046">
        <ele>73</ele>
        <time>2023-07-27T12:27:45.324+00:00</time>
      </trkpt>
      <trkpt lat="48.30232" lon="2.60455">
        <ele>76</ele>
        <time>2023-07-27T12:27:49.339+00:00</time>
      </trkpt>
      <trkpt lat="48.30227" lon="2.60449">
        <ele>76</ele>
        <time>2023-07-27T12:27:53.876+00:00</time>
      </trkpt>
      <trkpt lat="48.30224" lon="2.60443">
        <ele>76</ele>
        <time>2023-07-27T12:27:58.395+00:00</time>
      </trkpt>
      <trkpt lat="48.30222" lon="2.60436">
        <ele>76</ele>
        <time>2023-07-27T12:28:02.913+00:00</time>
      </trkpt>
      <trkpt lat="48.3022" lon="2.60429">
        <ele>78</ele>
        <time>2023-07-27T12:28:07.534+00:00</time>
      </trkpt>
      <trkpt lat="48.30218" lon="2.60423">
        <ele>78</ele>
        <time>2023-07-27T12:28:11.551+00:00</time>
      </trkpt>
      <trkpt lat="48.30216" lon="2.60414">
        <ele>78</ele>
        <time>2023-07-27T12:28:15.566+00:00</time>
      </trkpt>
      <trkpt lat="48.30214" lon="2.60405">
        <ele>78</ele>
        <time>2023-07-27T12:28:20.100+00:00</time>
      </trkpt>
      <trkpt lat="48.30215" lon="2.60396">
        <ele>79</ele>
        <time>2023-07-27T12:28:24.618+00:00</time>
      </trkpt>
      <trkpt lat="48.30213" lon="2.60389">
        <ele>79</ele>
        <time>2023-07-27T12:28:28.633+00:00</time>
      </trkpt>
      <trkpt lat="48.30209" lon="2.60382">
        <ele>79</ele>
        <time>2023-07-27T12:28:33.651+00:00</time>
      </trkpt>
      <trkpt lat="48.30209" lon="2.60376">
        <ele>79</ele>
        <time>2023-07-27T12:28:37.667+00:00</time>
      </trkpt>
      <trkpt lat="48.30208" lon="2.60368">
        <ele>75</ele>
        <time>2023-07-27T12:28:42.185+00:00</time>
      </trkpt>
      <trkpt lat="48.30208" lon="2.60362">
        <ele>75</ele>
        <time>2023-07-27T12:28:46.705+00:00</time>
      </trkpt>
      <trkpt lat="48.30208" lon="2.60357">
        <ele>75</ele>
        <time>2023-07-27T12:28:50.817+00:00</time>
      </trkpt>
      <trkpt lat="48.30207" lon="2.6035">
        <ele>75</ele>
        <time>2023-07-27T12:28:55.843+00:00</time>
      </trkpt>
      <trkpt lat="48.30205" lon="2.60341">
        <ele>75</ele>
        <time>2023-07-27T12:28:59.953+00:00</time>
      </trkpt>
      <trkpt lat="48.30204" lon="2.60332">
        <ele>75</ele>
        <time>2023-07-27T12:29:04.462+00:00</time>
      </trkpt>
      <trkpt lat="48.30201" lon="2.6032">
        <ele>75</ele>
        <time>2023-07-27T12:29:08.970+00:00</time>
      </trkpt>
      <trkpt lat="48.30201" lon="2.60311">
        <ele>77</ele>
        <time>2023-07-27T12:29:12.975+00:00</time>
      </trkpt>
      <trkpt lat="48.302" lon="2.60302">
        <ele>77</ele>
        <time>2023-07-27T12:29:17.481+00:00</time>
      </trkpt>
      <trkpt lat="48.302" lon="2.60295">
        <ele>77</ele>
        <time>2023-07-27T12:29:21.986+00:00</time>
      </trkpt>
      <trkpt lat="48.30199" lon="2.6029">
        <ele>77</ele>
        <time>2023-07-27T12:29:26.491+00:00</time>
      </trkpt>
      <trkpt lat="48.30198" lon="2.60287">
        <ele>77</ele>
        <time>2023-07-27T12:29:30.494+00:00</time>
      </trkpt>
      <trkpt lat="48.30198" lon="2.60285">
        <ele>77</ele>
        <time>2023-07-27T12:29:35.097+00:00</time>
      </trkpt>
      <trkpt lat="48.302" lon="2.6028">
        <ele>77</ele>
        <time>2023-07-27T12:29:39.099+00:00</time>
      </trkpt>
      <trkpt lat="48.30202" lon="2.60273">
        <ele>77</ele>
        <time>2023-07-27T12:29:43.607+00:00</time>
      </trkpt>
      <trkpt lat="48.30205" lon="2.60267">
        <ele>77</ele>
        <time>2023-07-27T12:29:47.704+00:00</time>
      </trkpt>
      <trkpt lat="48.30207" lon="2.60258">
        <ele>77</ele>
        <time>2023-07-27T12:29:52.416+00:00</time>
      </trkpt>
      <trkpt lat="48.30209" lon="2.60252">
        <ele>78</ele>
        <time>2023-07-27T12:29:56.730+00:00</time>
      </trkpt>
      <trkpt lat="48.30211" lon="2.60244">
        <ele>78</ele>
        <time>2023-07-27T12:30:01.128+00:00</time>
      </trkpt>
      <trkpt lat="48.30215" lon="2.60236">
        <ele>78</ele>
        <time>2023-07-27T12:30:05.627+00:00</time>
      </trkpt>
      <trkpt lat="48.30218" lon="2.60227">
        <ele>78</ele>
        <time>2023-07-27T12:30:09.961+00:00</time>
      </trkpt>
      <trkpt lat="48.30221" lon="2.60221">
        <ele>78</ele>
        <time>2023-07-27T12:30:14.187+00:00</time>
      </trkpt>
      <trkpt lat="48.30222" lon="2.60217">
        <ele>78</ele>
        <time>2023-07-27T12:30:18.948+00:00</time>
      </trkpt>
      <trkpt lat="48.30221" lon="2.60217">
        <ele>78</ele>
        <time>2023-07-27T12:30:22.568+00:00</time>
      </trkpt>
      <trkpt lat="48.30221" lon="2.60217">
        <ele>78</ele>
        <time>2023-07-27T12:30:27.548+00:00</time>
      </trkpt>
      <trkpt lat="48.30223" lon="2.60212">
        <ele>78</ele>
        <time>2023-07-27T12:30:31.892+00:00</time>
      </trkpt>
      <trkpt lat="48.30226" lon="2.60204">
        <ele>79</ele>
        <time>2023-07-27T12:30:36.329+00:00</time>
      </trkpt>
      <trkpt lat="48.30229" lon="2.60197">
        <ele>79</ele>
        <time>2023-07-27T12:30:40.390+00:00</time>
      </trkpt>
      <trkpt lat="48.30233" lon="2.60191">
        <ele>79</ele>
        <time>2023-07-27T12:30:44.829+00:00</time>
      </trkpt>
      <trkpt lat="48.30235" lon="2.60183">
        <ele>79</ele>
        <time>2023-07-27T12:30:48.708+00:00</time>
      </trkpt>
      <trkpt lat="48.30238" lon="2.60177">
        <ele>79</ele>
        <time>2023-07-27T12:30:53.227+00:00</time>
      </trkpt>
      <trkpt lat="48.30241" lon="2.60171">
        <ele>79</ele>
        <time>2023-07-27T12:30:57.088+00:00</time>
      </trkpt>
      <trkpt lat="48.30243" lon="2.60164">
        <ele>79</ele>
        <time>2023-07-27T12:31:01.587+00:00</time>
      </trkpt>
      <trkpt lat="48.30245" lon="2.60159">
        <ele>79</ele>
        <time>2023-07-27T12:31:06.106+00:00</time>
      </trkpt>
      <trkpt lat="48.30247" lon="2.60152">
        <ele>79</ele>
        <time>2023-07-27T12:31:10.526+00:00</time>
      </trkpt>
      <trkpt lat="48.30249" lon="2.60145">
        <ele>79</ele>
        <time>2023-07-27T12:31:15.245+00:00</time>
      </trkpt>
      <trkpt lat="48.30252" lon="2.60139">
        <ele>79</ele>
        <time>2023-07-27T12:31:19.248+00:00</time>
      </trkpt>
      <trkpt lat="48.30254" lon="2.60134">
        <ele>79</ele>
        <time>2023-07-27T12:31:23.754+00:00</time>
      </trkpt>
      <trkpt lat="48.30255" lon="2.60129">
        <ele>79</ele>
        <time>2023-07-27T12:31:28.258+00:00</time>
      </trkpt>
      <trkpt lat="48.30258" lon="2.60122">
        <ele>79</ele>
        <time>2023-07-27T12:31:32.260+00:00</time>
      </trkpt>
      <trkpt lat="48.30261" lon="2.60116">
        <ele>79</ele>
        <time>2023-07-27T12:31:36.264+00:00</time>
      </trkpt>
      <trkpt lat="48.30263" lon="2.60108">
        <ele>79</ele>
        <time>2023-07-27T12:31:40.267+00:00</time>
      </trkpt>
      <trkpt lat="48.30266" lon="2.60101">
        <ele>78</ele>
        <time>2023-07-27T12:31:44.290+00:00</time>
      </trkpt>
      <trkpt lat="48.30268" lon="2.60093">
        <ele>79</ele>
        <time>2023-07-27T12:31:48.992+00:00</time>
      </trkpt>
      <trkpt lat="48.30271" lon="2.60087">
        <ele>79</ele>
        <time>2023-07-27T12:31:53.496+00:00</time>
      </trkpt>
      <trkpt lat="48.30274" lon="2.6008">
        <ele>79</ele>
        <time>2023-07-27T12:31:57.519+00:00</time>
      </trkpt>
      <trkpt lat="48.30275" lon="2.60074">
        <ele>79</ele>
        <time>2023-07-27T12:32:01.780+00:00</time>
      </trkpt>
      <trkpt lat="48.30278" lon="2.60066">
        <ele>79</ele>
        <time>2023-07-27T12:32:06.300+00:00</time>
      </trkpt>
      <trkpt lat="48.30281" lon="2.60059">
        <ele>79</ele>
        <time>2023-07-27T12:32:10.643+00:00</time>
      </trkpt>
      <trkpt lat="48.30285" lon="2.60052">
        <ele>79</ele>
        <time>2023-07-27T12:32:14.945+00:00</time>
      </trkpt>
      <trkpt lat="48.30289" lon="2.60045">
        <ele>79</ele>
        <time>2023-07-27T12:32:19.359+00:00</time>
      </trkpt>
      <trkpt lat="48.30291" lon="2.60038">
        <ele>79</ele>
        <time>2023-07-27T12:32:23.742+00:00</time>
      </trkpt>
      <trkpt lat="48.30292" lon="2.60031">
        <ele>79</ele>
        <time>2023-07-27T12:32:27.824+00:00</time>
      </trkpt>
      <trkpt lat="48.30294" lon="2.60026">
        <ele>79</ele>
        <time>2023-07-27T12:32:32.348+00:00</time>
      </trkpt>
      <trkpt lat="48.30298" lon="2.6002">
        <ele>79</ele>
        <time>2023-07-27T12:32:36.850+00:00</time>
      </trkpt>
      <trkpt lat="48.30301" lon="2.60013">
        <ele>79</ele>
        <time>2023-07-27T12:32:41.353+00:00</time>
      </trkpt>
      <trkpt lat="48.30304" lon="2.60007">
        <ele>79</ele>
        <time>2023-07-27T12:32:45.455+00:00</time>
      </trkpt>
      <trkpt lat="48.30307" lon="2.6">
        <ele>79</ele>
        <time>2023-07-27T12:32:49.096+00:00</time>
      </trkpt>
      <trkpt lat="48.3031" lon="2.59994">
        <ele>79</ele>
        <time>2023-07-27T12:32:53.595+00:00</time>
      </trkpt>
      <trkpt lat="48.30313" lon="2.59989">
        <ele>79</ele>
        <time>2023-07-27T12:32:57.475+00:00</time>
      </trkpt>
      <trkpt lat="48.30318" lon="2.59987">
        <ele>79</ele>
        <time>2023-07-27T12:33:01.951+00:00</time>
      </trkpt>
      <trkpt lat="48.30321" lon="2.59989">
        <ele>78</ele>
        <time>2023-07-27T12:33:06.512+00:00</time>
      </trkpt>
      <trkpt lat="48.30322" lon="2.5999">
        <ele>78</ele>
        <time>2023-07-27T12:33:07.652+00:00</time>
      </trkpt>
      <trkpt lat="48.30327" lon="2.59996">
        <ele>78</ele>
        <time>2023-07-27T12:46:50.755+00:00</time>
      </trkpt>
      <trkpt lat="48.30316" lon="2.59987">
        <ele>79</ele>
        <time>2023-07-27T12:46:59.822+00:00</time>
      </trkpt>
      <trkpt lat="48.30314" lon="2.59982">
        <ele>79</ele>
        <time>2023-07-27T12:47:03.828+00:00</time>
      </trkpt>
      <trkpt lat="48.30314" lon="2.59974">
        <ele>79</ele>
        <time>2023-07-27T12:47:08.335+00:00</time>
      </trkpt>
      <trkpt lat="48.30313" lon="2.5997">
        <ele>79</ele>
        <time>2023-07-27T12:47:12.341+00:00</time>
      </trkpt>
      <trkpt lat="48.30319" lon="2.59959">
        <ele>79</ele>
        <time>2023-07-27T12:47:34.619+00:00</time>
      </trkpt>
      <trkpt lat="48.30322" lon="2.5995">
        <ele>79</ele>
        <time>2023-07-27T12:47:39.652+00:00</time>
      </trkpt>
      <trkpt lat="48.30326" lon="2.59941">
        <ele>79</ele>
        <time>2023-07-27T12:47:44.203+00:00</time>
      </trkpt>
      <trkpt lat="48.3033" lon="2.59931">
        <ele>79</ele>
        <time>2023-07-27T12:47:48.266+00:00</time>
      </trkpt>
      <trkpt lat="48.30332" lon="2.59922">
        <ele>80</ele>
        <time>2023-07-27T12:47:52.773+00:00</time>
      </trkpt>
      <trkpt lat="48.30331" lon="2.59914">
        <ele>80</ele>
        <time>2023-07-27T12:48:06.893+00:00</time>
      </trkpt>
      <trkpt lat="48.30331" lon="2.59912">
        <ele>80</ele>
        <time>2023-07-27T12:48:10.896+00:00</time>
      </trkpt>
      <trkpt lat="48.30331" lon="2.59911">
        <ele>80</ele>
        <time>2023-07-27T12:48:15.900+00:00</time>
      </trkpt>
      <trkpt lat="48.30336" lon="2.59907">
        <ele>80</ele>
        <time>2023-07-27T12:48:20.005+00:00</time>
      </trkpt>
      <trkpt lat="48.30341" lon="2.599">
        <ele>80</ele>
        <time>2023-07-27T12:48:24.508+00:00</time>
      </trkpt>
      <trkpt lat="48.30344" lon="2.59892">
        <ele>80</ele>
        <time>2023-07-27T12:48:28.514+00:00</time>
      </trkpt>
      <trkpt lat="48.30347" lon="2.59885">
        <ele>80</ele>
        <time>2023-07-27T12:48:33.020+00:00</time>
      </trkpt>
      <trkpt lat="48.30351" lon="2.59879">
        <ele>80</ele>
        <time>2023-07-27T12:48:37.025+00:00</time>
      </trkpt>
      <trkpt lat="48.30355" lon="2.5987">
        <ele>81</ele>
        <time>2023-07-27T12:48:41.527+00:00</time>
      </trkpt>
      <trkpt lat="48.30356" lon="2.59862">
        <ele>81</ele>
        <time>2023-07-27T12:48:46.068+00:00</time>
      </trkpt>
      <trkpt lat="48.30352" lon="2.59855">
        <ele>81</ele>
        <time>2023-07-27T12:48:50.572+00:00</time>
      </trkpt>
      <trkpt lat="48.30347" lon="2.5985">
        <ele>81</ele>
        <time>2023-07-27T12:48:54.594+00:00</time>
      </trkpt>
      <trkpt lat="48.30344" lon="2.59843">
        <ele>83</ele>
        <time>2023-07-27T12:48:59.116+00:00</time>
      </trkpt>
      <trkpt lat="48.30342" lon="2.59838">
        <ele>83</ele>
        <time>2023-07-27T12:49:03.637+00:00</time>
      </trkpt>
      <trkpt lat="48.30342" lon="2.59837">
        <ele>83</ele>
        <time>2023-07-27T12:49:07.639+00:00</time>
      </trkpt>
      <trkpt lat="48.30343" lon="2.59831">
        <ele>83</ele>
        <time>2023-07-27T12:49:12.162+00:00</time>
      </trkpt>
      <trkpt lat="48.30344" lon="2.59825">
        <ele>83</ele>
        <time>2023-07-27T12:49:16.363+00:00</time>
      </trkpt>
      <trkpt lat="48.30342" lon="2.59816">
        <ele>84</ele>
        <time>2023-07-27T12:49:20.883+00:00</time>
      </trkpt>
      <trkpt lat="48.30342" lon="2.59806">
        <ele>84</ele>
        <time>2023-07-27T12:49:25.470+00:00</time>
      </trkpt>
      <trkpt lat="48.30341" lon="2.59797">
        <ele>84</ele>
        <time>2023-07-27T12:49:29.590+00:00</time>
      </trkpt>
      <trkpt lat="48.30339" lon="2.59791">
        <ele>86</ele>
        <time>2023-07-27T12:49:34.133+00:00</time>
      </trkpt>
      <trkpt lat="48.30338" lon="2.59785">
        <ele>86</ele>
        <time>2023-07-27T12:49:38.775+00:00</time>
      </trkpt>
      <trkpt lat="48.30335" lon="2.59779">
        <ele>86</ele>
        <time>2023-07-27T12:49:42.437+00:00</time>
      </trkpt>
      <trkpt lat="48.30333" lon="2.59771">
        <ele>86</ele>
        <time>2023-07-27T12:49:46.975+00:00</time>
      </trkpt>
      <trkpt lat="48.30331" lon="2.59766">
        <ele>86</ele>
        <time>2023-07-27T12:49:51.114+00:00</time>
      </trkpt>
      <trkpt lat="48.30328" lon="2.59765">
        <ele>86</ele>
        <time>2023-07-27T12:49:55.355+00:00</time>
      </trkpt>
      <trkpt lat="48.30322" lon="2.59769">
        <ele>86</ele>
        <time>2023-07-27T12:50:00.287+00:00</time>
      </trkpt>
      <trkpt lat="48.30317" lon="2.59767">
        <ele>87</ele>
        <time>2023-07-27T12:50:04.634+00:00</time>
      </trkpt>
      <trkpt lat="48.30311" lon="2.59768">
        <ele>87</ele>
        <time>2023-07-27T12:50:09.032+00:00</time>
      </trkpt>
      <trkpt lat="48.30306" lon="2.59769">
        <ele>87</ele>
        <time>2023-07-27T12:50:13.651+00:00</time>
      </trkpt>
      <trkpt lat="48.30301" lon="2.59771">
        <ele>87</ele>
        <time>2023-07-27T12:50:18.089+00:00</time>
      </trkpt>
      <trkpt lat="48.30295" lon="2.59771">
        <ele>87</ele>
        <time>2023-07-27T12:50:22.507+00:00</time>
      </trkpt>
      <trkpt lat="48.30289" lon="2.59772">
        <ele>85</ele>
        <time>2023-07-27T12:50:26.964+00:00</time>
      </trkpt>
      <trkpt lat="48.30285" lon="2.59775">
        <ele>85</ele>
        <time>2023-07-27T12:50:31.128+00:00</time>
      </trkpt>
      <trkpt lat="48.3028" lon="2.59778">
        <ele>85</ele>
        <time>2023-07-27T12:50:35.232+00:00</time>
      </trkpt>
      <trkpt lat="48.30268" lon="2.59777">
        <ele>85</ele>
        <time>2023-07-27T12:50:44.371+00:00</time>
      </trkpt>
      <trkpt lat="48.30263" lon="2.59776">
        <ele>83</ele>
        <time>2023-07-27T12:50:48.378+00:00</time>
      </trkpt>
      <trkpt lat="48.30256" lon="2.59773">
        <ele>83</ele>
        <time>2023-07-27T12:50:52.883+00:00</time>
      </trkpt>
      <trkpt lat="48.30253" lon="2.59768">
        <ele>83</ele>
        <time>2023-07-27T12:50:57.407+00:00</time>
      </trkpt>
      <trkpt lat="48.30247" lon="2.59766">
        <ele>83</ele>
        <time>2023-07-27T12:51:01.509+00:00</time>
      </trkpt>
      <trkpt lat="48.30243" lon="2.59761">
        <ele>84</ele>
        <time>2023-07-27T12:51:05.610+00:00</time>
      </trkpt>
      <trkpt lat="48.30245" lon="2.59753">
        <ele>84</ele>
        <time>2023-07-27T12:51:09.692+00:00</time>
      </trkpt>
      <trkpt lat="48.30246" lon="2.59745">
        <ele>84</ele>
        <time>2023-07-27T12:51:14.072+00:00</time>
      </trkpt>
      <trkpt lat="48.30247" lon="2.5974">
        <ele>84</ele>
        <time>2023-07-27T12:51:18.576+00:00</time>
      </trkpt>
      <trkpt lat="48.30247" lon="2.59739">
        <ele>84</ele>
        <time>2023-07-27T12:51:22.579+00:00</time>
      </trkpt>
      <trkpt lat="48.30247" lon="2.5974">
        <ele>84</ele>
        <time>2023-07-27T12:51:27.583+00:00</time>
      </trkpt>
      <trkpt lat="48.30247" lon="2.5974">
        <ele>84</ele>
        <time>2023-07-27T12:51:31.585+00:00</time>
      </trkpt>
      <trkpt lat="48.30248" lon="2.59738">
        <ele>84</ele>
        <time>2023-07-27T12:51:36.088+00:00</time>
      </trkpt>
      <trkpt lat="48.30246" lon="2.59731">
        <ele>85</ele>
        <time>2023-07-27T12:51:40.741+00:00</time>
      </trkpt>
      <trkpt lat="48.3024" lon="2.59725">
        <ele>85</ele>
        <time>2023-07-27T12:51:45.240+00:00</time>
      </trkpt>
      <trkpt lat="48.30236" lon="2.59721">
        <ele>82</ele>
        <time>2023-07-27T12:51:49.329+00:00</time>
      </trkpt>
      <trkpt lat="48.30232" lon="2.59717">
        <ele>82</ele>
        <time>2023-07-27T12:51:54.190+00:00</time>
      </trkpt>
      <trkpt lat="48.3023" lon="2.5971">
        <ele>82</ele>
        <time>2023-07-27T12:51:58.530+00:00</time>
      </trkpt>
      <trkpt lat="48.30225" lon="2.59703">
        <ele>83</ele>
        <time>2023-07-27T12:52:02.949+00:00</time>
      </trkpt>
      <trkpt lat="48.3022" lon="2.59697">
        <ele>83</ele>
        <time>2023-07-27T12:52:07.487+00:00</time>
      </trkpt>
      <trkpt lat="48.30215" lon="2.59692">
        <ele>83</ele>
        <time>2023-07-27T12:52:11.885+00:00</time>
      </trkpt>
      <trkpt lat="48.30211" lon="2.59686">
        <ele>83</ele>
        <time>2023-07-27T12:52:16.204+00:00</time>
      </trkpt>
      <trkpt lat="48.30207" lon="2.5968">
        <ele>80</ele>
        <time>2023-07-27T12:52:20.551+00:00</time>
      </trkpt>
      <trkpt lat="48.30203" lon="2.59672">
        <ele>80</ele>
        <time>2023-07-27T12:52:24.888+00:00</time>
      </trkpt>
      <trkpt lat="48.302" lon="2.59666">
        <ele>80</ele>
        <time>2023-07-27T12:52:29.268+00:00</time>
      </trkpt>
      <trkpt lat="48.30197" lon="2.59661">
        <ele>80</ele>
        <time>2023-07-27T12:52:33.671+00:00</time>
      </trkpt>
      <trkpt lat="48.30193" lon="2.59653">
        <ele>80</ele>
        <time>2023-07-27T12:52:38.124+00:00</time>
      </trkpt>
      <trkpt lat="48.3019" lon="2.59647">
        <ele>81</ele>
        <time>2023-07-27T12:52:42.182+00:00</time>
      </trkpt>
      <trkpt lat="48.30189" lon="2.59641">
        <ele>81</ele>
        <time>2023-07-27T12:52:46.199+00:00</time>
      </trkpt>
      <trkpt lat="48.30186" lon="2.59636">
        <ele>81</ele>
        <time>2023-07-27T12:52:50.276+00:00</time>
      </trkpt>
      <trkpt lat="48.30184" lon="2.59629">
        <ele>81</ele>
        <time>2023-07-27T12:52:54.893+00:00</time>
      </trkpt>
      <trkpt lat="48.3018" lon="2.59624">
        <ele>78</ele>
        <time>2023-07-27T12:52:59.091+00:00</time>
      </trkpt>
      <trkpt lat="48.30176" lon="2.59618">
        <ele>78</ele>
        <time>2023-07-27T12:53:03.683+00:00</time>
      </trkpt>
      <trkpt lat="48.30174" lon="2.59615">
        <ele>78</ele>
        <time>2023-07-27T12:53:07.469+00:00</time>
      </trkpt>
      <trkpt lat="48.3017" lon="2.5961">
        <ele>78</ele>
        <time>2023-07-27T12:53:11.528+00:00</time>
      </trkpt>
      <trkpt lat="48.30164" lon="2.59608">
        <ele>78</ele>
        <time>2023-07-27T12:53:16.166+00:00</time>
      </trkpt>
      <trkpt lat="48.30158" lon="2.59608">
        <ele>78</ele>
        <time>2023-07-27T12:53:20.787+00:00</time>
      </trkpt>
      <trkpt lat="48.30153" lon="2.59609">
        <ele>78</ele>
        <time>2023-07-27T12:53:24.958+00:00</time>
      </trkpt>
      <trkpt lat="48.30149" lon="2.5961">
        <ele>77</ele>
        <time>2023-07-27T12:53:29.104+00:00</time>
      </trkpt>
      <trkpt lat="48.30145" lon="2.59615">
        <ele>77</ele>
        <time>2023-07-27T12:53:33.777+00:00</time>
      </trkpt>
      <trkpt lat="48.30141" lon="2.59616">
        <ele>77</ele>
        <time>2023-07-27T12:53:37.694+00:00</time>
      </trkpt>
      <trkpt lat="48.30136" lon="2.59618">
        <ele>77</ele>
        <time>2023-07-27T12:53:42.251+00:00</time>
      </trkpt>
      <trkpt lat="48.3013" lon="2.59615">
        <ele>77</ele>
        <time>2023-07-27T12:53:46.503+00:00</time>
      </trkpt>
      <trkpt lat="48.30126" lon="2.59617">
        <ele>77</ele>
        <time>2023-07-27T12:53:51.060+00:00</time>
      </trkpt>
      <trkpt lat="48.30124" lon="2.59619">
        <ele>75</ele>
        <time>2023-07-27T12:53:52.581+00:00</time>
      </trkpt>
      <trkpt lat="48.30108" lon="2.59622">
        <ele>75</ele>
        <time>2023-07-27T12:53:59.096+00:00</time>
      </trkpt>
      <trkpt lat="48.30104" lon="2.59625">
        <ele>76</ele>
        <time>2023-07-27T12:54:03.601+00:00</time>
      </trkpt>
      <trkpt lat="48.301" lon="2.59629">
        <ele>76</ele>
        <time>2023-07-27T12:54:07.604+00:00</time>
      </trkpt>
      <trkpt lat="48.30098" lon="2.59636">
        <ele>76</ele>
        <time>2023-07-27T12:54:12.146+00:00</time>
      </trkpt>
      <trkpt lat="48.30094" lon="2.59634">
        <ele>75</ele>
        <time>2023-07-27T12:54:16.449+00:00</time>
      </trkpt>
      <trkpt lat="48.30091" lon="2.59632">
        <ele>75</ele>
        <time>2023-07-27T12:54:20.726+00:00</time>
      </trkpt>
      <trkpt lat="48.30087" lon="2.59629">
        <ele>75</ele>
        <time>2023-07-27T12:54:24.787+00:00</time>
      </trkpt>
      <trkpt lat="48.30082" lon="2.59627">
        <ele>75</ele>
        <time>2023-07-27T12:54:28.969+00:00</time>
      </trkpt>
      <trkpt lat="48.30076" lon="2.59625">
        <ele>75</ele>
        <time>2023-07-27T12:54:33.349+00:00</time>
      </trkpt>
      <trkpt lat="48.3007" lon="2.59623">
        <ele>75</ele>
        <time>2023-07-27T12:54:37.670+00:00</time>
      </trkpt>
      <trkpt lat="48.30065" lon="2.59618">
        <ele>75</ele>
        <time>2023-07-27T12:54:42.250+00:00</time>
      </trkpt>
      <trkpt lat="48.30058" lon="2.59621">
        <ele>75</ele>
        <time>2023-07-27T12:54:46.470+00:00</time>
      </trkpt>
      <trkpt lat="48.30052" lon="2.59623">
        <ele>75</ele>
        <time>2023-07-27T12:54:50.671+00:00</time>
      </trkpt>
      <trkpt lat="48.30045" lon="2.59621">
        <ele>75</ele>
        <time>2023-07-27T12:54:55.373+00:00</time>
      </trkpt>
      <trkpt lat="48.3004" lon="2.59617">
        <ele>77</ele>
        <time>2023-07-27T12:54:59.515+00:00</time>
      </trkpt>
      <trkpt lat="48.30034" lon="2.59616">
        <ele>77</ele>
        <time>2023-07-27T12:55:03.525+00:00</time>
      </trkpt>
      <trkpt lat="48.30029" lon="2.59615">
        <ele>77</ele>
        <time>2023-07-27T12:55:08.046+00:00</time>
      </trkpt>
      <trkpt lat="48.30023" lon="2.59613">
        <ele>77</ele>
        <time>2023-07-27T12:55:12.145+00:00</time>
      </trkpt>
      <trkpt lat="48.30021" lon="2.59612">
        <ele>77</ele>
        <time>2023-07-27T12:55:13.648+00:00</time>
      </trkpt>
      <trkpt lat="48.30012" lon="2.59603">
        <ele>79</ele>
        <time>2023-07-27T12:55:23.182+00:00</time>
      </trkpt>
      <trkpt lat="48.30006" lon="2.596">
        <ele>79</ele>
        <time>2023-07-27T12:55:27.194+00:00</time>
      </trkpt>
      <trkpt lat="48.30002" lon="2.59596">
        <ele>79</ele>
        <time>2023-07-27T12:55:31.307+00:00</time>
      </trkpt>
      <trkpt lat="48.29998" lon="2.59593">
        <ele>79</ele>
        <time>2023-07-27T12:55:35.848+00:00</time>
      </trkpt>
      <trkpt lat="48.29995" lon="2.59588">
        <ele>79</ele>
        <time>2023-07-27T12:55:40.049+00:00</time>
      </trkpt>
      <trkpt lat="48.29992" lon="2.59585">
        <ele>79</ele>
        <time>2023-07-27T12:55:44.663+00:00</time>
      </trkpt>
      <trkpt lat="48.29991" lon="2.59581">
        <ele>79</ele>
        <time>2023-07-27T12:55:49.674+00:00</time>
      </trkpt>
      <trkpt lat="48.29991" lon="2.5958">
        <ele>79</ele>
        <time>2023-07-27T12:55:53.682+00:00</time>
      </trkpt>
      <trkpt lat="48.29991" lon="2.59575">
        <ele>79</ele>
        <time>2023-07-27T12:55:58.188+00:00</time>
      </trkpt>
      <trkpt lat="48.29992" lon="2.59568">
        <ele>79</ele>
        <time>2023-07-27T12:56:02.192+00:00</time>
      </trkpt>
      <trkpt lat="48.29992" lon="2.5956">
        <ele>79</ele>
        <time>2023-07-27T12:56:06.708+00:00</time>
      </trkpt>
      <trkpt lat="48.2999" lon="2.59552">
        <ele>79</ele>
        <time>2023-07-27T12:56:10.813+00:00</time>
      </trkpt>
      <trkpt lat="48.29988" lon="2.59542">
        <ele>79</ele>
        <time>2023-07-27T12:56:15.001+00:00</time>
      </trkpt>
      <trkpt lat="48.29984" lon="2.59536">
        <ele>81</ele>
        <time>2023-07-27T12:56:19.003+00:00</time>
      </trkpt>
      <trkpt lat="48.29978" lon="2.5953">
        <ele>81</ele>
        <time>2023-07-27T12:56:23.566+00:00</time>
      </trkpt>
      <trkpt lat="48.29972" lon="2.59527">
        <ele>81</ele>
        <time>2023-07-27T12:56:27.647+00:00</time>
      </trkpt>
      <trkpt lat="48.29967" lon="2.59523">
        <ele>81</ele>
        <time>2023-07-27T12:56:31.958+00:00</time>
      </trkpt>
      <trkpt lat="48.29962" lon="2.59518">
        <ele>81</ele>
        <time>2023-07-27T12:56:36.110+00:00</time>
      </trkpt>
      <trkpt lat="48.29958" lon="2.59513">
        <ele>82</ele>
        <time>2023-07-27T12:56:40.713+00:00</time>
      </trkpt>
      <trkpt lat="48.29957" lon="2.59515">
        <ele>80</ele>
        <time>2023-07-27T12:56:49.497+00:00</time>
      </trkpt>
      <trkpt lat="48.29957" lon="2.59515">
        <ele>80</ele>
        <time>2023-07-27T12:56:54.519+00:00</time>
      </trkpt>
      <trkpt lat="48.29957" lon="2.59511">
        <ele>82</ele>
        <time>2023-07-27T12:56:59.461+00:00</time>
      </trkpt>
      <trkpt lat="48.29953" lon="2.59505">
        <ele>82</ele>
        <time>2023-07-27T12:57:03.882+00:00</time>
      </trkpt>
      <trkpt lat="48.29948" lon="2.59501">
        <ele>82</ele>
        <time>2023-07-27T12:57:07.883+00:00</time>
      </trkpt>
      <trkpt lat="48.29947" lon="2.59499">
        <ele>82</ele>
        <time>2023-07-27T12:57:11.927+00:00</time>
      </trkpt>
      <trkpt lat="48.29946" lon="2.59497">
        <ele>82</ele>
        <time>2023-07-27T12:57:16.049+00:00</time>
      </trkpt>
      <trkpt lat="48.29943" lon="2.59491">
        <ele>82</ele>
        <time>2023-07-27T12:57:20.344+00:00</time>
      </trkpt>
      <trkpt lat="48.29942" lon="2.59484">
        <ele>83</ele>
        <time>2023-07-27T12:57:24.531+00:00</time>
      </trkpt>
      <trkpt lat="48.29942" lon="2.59476">
        <ele>83</ele>
        <time>2023-07-27T12:57:29.033+00:00</time>
      </trkpt>
      <trkpt lat="48.29943" lon="2.5947">
        <ele>83</ele>
        <time>2023-07-27T12:57:33.076+00:00</time>
      </trkpt>
      <trkpt lat="48.29945" lon="2.59468">
        <ele>83</ele>
        <time>2023-07-27T12:57:37.079+00:00</time>
      </trkpt>
      <trkpt lat="48.29946" lon="2.59467">
        <ele>83</ele>
        <time>2023-07-27T12:57:41.260+00:00</time>
      </trkpt>
      <trkpt lat="48.29949" lon="2.59464">
        <ele>83</ele>
        <time>2023-07-27T12:57:45.783+00:00</time>
      </trkpt>
      <trkpt lat="48.29957" lon="2.59459">
        <ele>83</ele>
        <time>2023-07-27T12:58:15.820+00:00</time>
      </trkpt>
      <trkpt lat="48.29955" lon="2.59451">
        <ele>85</ele>
        <time>2023-07-27T12:58:20.836+00:00</time>
      </trkpt>
      <trkpt lat="48.29956" lon="2.59443">
        <ele>85</ele>
        <time>2023-07-27T12:58:25.449+00:00</time>
      </trkpt>
      <trkpt lat="48.29959" lon="2.59436">
        <ele>87</ele>
        <time>2023-07-27T12:58:30.464+00:00</time>
      </trkpt>
      <trkpt lat="48.29961" lon="2.59435">
        <ele>87</ele>
        <time>2023-07-27T12:58:34.477+00:00</time>
      </trkpt>
      <trkpt lat="48.29963" lon="2.5944">
        <ele>87</ele>
        <time>2023-07-27T12:58:38.991+00:00</time>
      </trkpt>
      <trkpt lat="48.29962" lon="2.59449">
        <ele>87</ele>
        <time>2023-07-27T12:58:43.605+00:00</time>
      </trkpt>
      <trkpt lat="48.29963" lon="2.59451">
        <ele>87</ele>
        <time>2023-07-27T12:58:47.618+00:00</time>
      </trkpt>
      <trkpt lat="48.29964" lon="2.59452">
        <ele>87</ele>
        <time>2023-07-27T12:58:52.131+00:00</time>
      </trkpt>
      <trkpt lat="48.29964" lon="2.59454">
        <ele>87</ele>
        <time>2023-07-27T12:58:56.646+00:00</time>
      </trkpt>
      <trkpt lat="48.29968" lon="2.59454">
        <ele>87</ele>
        <time>2023-07-27T12:59:09.196+00:00</time>
      </trkpt>
      <trkpt lat="48.29969" lon="2.59455">
        <ele>87</ele>
        <time>2023-07-27T12:59:13.715+00:00</time>
      </trkpt>
      <trkpt lat="48.29971" lon="2.59453">
        <ele>87</ele>
        <time>2023-07-27T12:59:17.731+00:00</time>
      </trkpt>
      <trkpt lat="48.29972" lon="2.59449">
        <ele>87</ele>
        <time>2023-07-27T12:59:22.749+00:00</time>
      </trkpt>
      <trkpt lat="48.29974" lon="2.59448">
        <ele>87</ele>
        <time>2023-07-27T12:59:26.764+00:00</time>
      </trkpt>
      <trkpt lat="48.29977" lon="2.59439">
        <ele>87</ele>
        <time>2023-07-27T13:00:02.660+00:00</time>
      </trkpt>
      <trkpt lat="48.29979" lon="2.59439">
        <ele>87</ele>
        <time>2023-07-27T13:00:06.674+00:00</time>
      </trkpt>
      <trkpt lat="48.29982" lon="2.59437">
        <ele>87</ele>
        <time>2023-07-27T13:00:11.693+00:00</time>
      </trkpt>
      <trkpt lat="48.29983" lon="2.59434">
        <ele>87</ele>
        <time>2023-07-27T13:00:15.708+00:00</time>
      </trkpt>
      <trkpt lat="48.29984" lon="2.59434">
        <ele>87</ele>
        <time>2023-07-27T13:00:19.722+00:00</time>
      </trkpt>
      <trkpt lat="48.29987" lon="2.59433">
        <ele>89</ele>
        <time>2023-07-27T13:00:24.238+00:00</time>
      </trkpt>
      <trkpt lat="48.29989" lon="2.59432">
        <ele>89</ele>
        <time>2023-07-27T13:00:28.756+00:00</time>
      </trkpt>
      <trkpt lat="48.29992" lon="2.5943">
        <ele>91</ele>
        <time>2023-07-27T13:00:33.290+00:00</time>
      </trkpt>
      <trkpt lat="48.29995" lon="2.59427">
        <ele>91</ele>
        <time>2023-07-27T13:00:37.390+00:00</time>
      </trkpt>
      <trkpt lat="48.29997" lon="2.59423">
        <ele>91</ele>
        <time>2023-07-27T13:00:41.408+00:00</time>
      </trkpt>
      <trkpt lat="48.29998" lon="2.59407">
        <ele>91</ele>
        <time>2023-07-27T13:01:08.538+00:00</time>
      </trkpt>
      <trkpt lat="48.29999" lon="2.59407">
        <ele>91</ele>
        <time>2023-07-27T13:01:13.058+00:00</time>
      </trkpt>
      <trkpt lat="48.30002" lon="2.59403">
        <ele>91</ele>
        <time>2023-07-27T13:01:17.075+00:00</time>
      </trkpt>
      <trkpt lat="48.30005" lon="2.594">
        <ele>91</ele>
        <time>2023-07-27T13:01:21.592+00:00</time>
      </trkpt>
      <trkpt lat="48.30006" lon="2.59396">
        <ele>91</ele>
        <time>2023-07-27T13:01:26.108+00:00</time>
      </trkpt>
      <trkpt lat="48.30008" lon="2.59394">
        <ele>91</ele>
        <time>2023-07-27T13:01:30.623+00:00</time>
      </trkpt>
      <trkpt lat="48.3001" lon="2.59392">
        <ele>91</ele>
        <time>2023-07-27T13:01:35.140+00:00</time>
      </trkpt>
      <trkpt lat="48.3001" lon="2.5939">
        <ele>91</ele>
        <time>2023-07-27T13:01:39.655+00:00</time>
      </trkpt>
      <trkpt lat="48.3001" lon="2.59387">
        <ele>91</ele>
        <time>2023-07-27T13:01:44.173+00:00</time>
      </trkpt>
      <trkpt lat="48.30011" lon="2.59381">
        <ele>91</ele>
        <time>2023-07-27T13:01:48.690+00:00</time>
      </trkpt>
      <trkpt lat="48.3001" lon="2.59372">
        <ele>90</ele>
        <time>2023-07-27T13:01:52.704+00:00</time>
      </trkpt>
      <trkpt lat="48.30009" lon="2.59363">
        <ele>90</ele>
        <time>2023-07-27T13:01:56.817+00:00</time>
      </trkpt>
      <trkpt lat="48.30011" lon="2.59356">
        <ele>90</ele>
        <time>2023-07-27T13:02:00.830+00:00</time>
      </trkpt>
      <trkpt lat="48.30012" lon="2.59349">
        <ele>90</ele>
        <time>2023-07-27T13:02:05.046+00:00</time>
      </trkpt>
      <trkpt lat="48.30011" lon="2.59343">
        <ele>89</ele>
        <time>2023-07-27T13:02:09.061+00:00</time>
      </trkpt>
      <trkpt lat="48.30007" lon="2.59344">
        <ele>89</ele>
        <time>2023-07-27T13:02:13.092+00:00</time>
      </trkpt>
      <trkpt lat="48.30003" lon="2.59347">
        <ele>89</ele>
        <time>2023-07-27T13:02:17.609+00:00</time>
      </trkpt>
      <trkpt lat="48.30001" lon="2.59345">
        <ele>89</ele>
        <time>2023-07-27T13:02:21.623+00:00</time>
      </trkpt>
      <trkpt lat="48.29999" lon="2.59339">
        <ele>89</ele>
        <time>2023-07-27T13:02:26.139+00:00</time>
      </trkpt>
      <trkpt lat="48.29995" lon="2.59336">
        <ele>89</ele>
        <time>2023-07-27T13:02:30.652+00:00</time>
      </trkpt>
      <trkpt lat="48.29991" lon="2.59339">
        <ele>89</ele>
        <time>2023-07-27T13:02:34.666+00:00</time>
      </trkpt>
      <trkpt lat="48.29987" lon="2.59343">
        <ele>89</ele>
        <time>2023-07-27T13:02:39.181+00:00</time>
      </trkpt>
      <trkpt lat="48.29983" lon="2.59343">
        <ele>85</ele>
        <time>2023-07-27T13:02:43.696+00:00</time>
      </trkpt>
      <trkpt lat="48.29983" lon="2.59337">
        <ele>85</ele>
        <time>2023-07-27T13:02:47.709+00:00</time>
      </trkpt>
      <trkpt lat="48.2998" lon="2.59332">
        <ele>85</ele>
        <time>2023-07-27T13:02:52.224+00:00</time>
      </trkpt>
      <trkpt lat="48.29977" lon="2.59328">
        <ele>85</ele>
        <time>2023-07-27T13:02:56.740+00:00</time>
      </trkpt>
      <trkpt lat="48.29975" lon="2.59324">
        <ele>85</ele>
        <time>2023-07-27T13:03:00.752+00:00</time>
      </trkpt>
      <trkpt lat="48.29968" lon="2.59323">
        <ele>85</ele>
        <time>2023-07-27T13:03:05.268+00:00</time>
      </trkpt>
      <trkpt lat="48.29963" lon="2.5932">
        <ele>85</ele>
        <time>2023-07-27T13:03:09.281+00:00</time>
      </trkpt>
      <trkpt lat="48.29958" lon="2.59318">
        <ele>83</ele>
        <time>2023-07-27T13:03:13.295+00:00</time>
      </trkpt>
      <trkpt lat="48.29954" lon="2.59314">
        <ele>81</ele>
        <time>2023-07-27T13:03:17.811+00:00</time>
      </trkpt>
      <trkpt lat="48.29948" lon="2.59313">
        <ele>81</ele>
        <time>2023-07-27T13:03:21.822+00:00</time>
      </trkpt>
      <trkpt lat="48.29942" lon="2.59314">
        <ele>81</ele>
        <time>2023-07-27T13:03:26.038+00:00</time>
      </trkpt>
      <trkpt lat="48.29938" lon="2.59309">
        <ele>81</ele>
        <time>2023-07-27T13:03:30.548+00:00</time>
      </trkpt>
      <trkpt lat="48.29942" lon="2.59303">
        <ele>81</ele>
        <time>2023-07-27T13:03:34.555+00:00</time>
      </trkpt>
      <trkpt lat="48.29942" lon="2.59294">
        <ele>81</ele>
        <time>2023-07-27T13:03:39.061+00:00</time>
      </trkpt>
      <trkpt lat="48.29937" lon="2.59289">
        <ele>81</ele>
        <time>2023-07-27T13:03:43.566+00:00</time>
      </trkpt>
      <trkpt lat="48.29931" lon="2.59283">
        <ele>81</ele>
        <time>2023-07-27T13:03:48.671+00:00</time>
      </trkpt>
      <trkpt lat="48.29927" lon="2.59278">
        <ele>79</ele>
        <time>2023-07-27T13:03:52.675+00:00</time>
      </trkpt>
      <trkpt lat="48.29924" lon="2.59272">
        <ele>79</ele>
        <time>2023-07-27T13:03:57.179+00:00</time>
      </trkpt>
      <trkpt lat="48.2992" lon="2.59273">
        <ele>79</ele>
        <time>2023-07-27T13:04:01.687+00:00</time>
      </trkpt>
      <trkpt lat="48.29917" lon="2.59271">
        <ele>79</ele>
        <time>2023-07-27T13:04:05.887+00:00</time>
      </trkpt>
      <trkpt lat="48.29913" lon="2.59265">
        <ele>79</ele>
        <time>2023-07-27T13:04:09.892+00:00</time>
      </trkpt>
      <trkpt lat="48.2991" lon="2.59259">
        <ele>79</ele>
        <time>2023-07-27T13:04:13.895+00:00</time>
      </trkpt>
      <trkpt lat="48.29906" lon="2.59253">
        <ele>79</ele>
        <time>2023-07-27T13:04:18.397+00:00</time>
      </trkpt>
      <trkpt lat="48.29903" lon="2.59248">
        <ele>79</ele>
        <time>2023-07-27T13:04:22.967+00:00</time>
      </trkpt>
      <trkpt lat="48.29899" lon="2.59246">
        <ele>78</ele>
        <time>2023-07-27T13:04:26.800+00:00</time>
      </trkpt>
      <trkpt lat="48.29894" lon="2.59243">
        <ele>78</ele>
        <time>2023-07-27T13:04:31.241+00:00</time>
      </trkpt>
      <trkpt lat="48.2989" lon="2.5924">
        <ele>78</ele>
        <time>2023-07-27T13:04:35.601+00:00</time>
      </trkpt>
      <trkpt lat="48.29887" lon="2.59236">
        <ele>78</ele>
        <time>2023-07-27T13:04:39.604+00:00</time>
      </trkpt>
      <trkpt lat="48.29885" lon="2.59231">
        <ele>78</ele>
        <time>2023-07-27T13:04:44.106+00:00</time>
      </trkpt>
      <trkpt lat="48.29884" lon="2.59226">
        <ele>78</ele>
        <time>2023-07-27T13:04:48.447+00:00</time>
      </trkpt>
      <trkpt lat="48.29883" lon="2.5922">
        <ele>78</ele>
        <time>2023-07-27T13:04:52.788+00:00</time>
      </trkpt>
      <trkpt lat="48.29882" lon="2.59211">
        <ele>78</ele>
        <time>2023-07-27T13:04:57.089+00:00</time>
      </trkpt>
      <trkpt lat="48.29881" lon="2.59202">
        <ele>79</ele>
        <time>2023-07-27T13:05:01.643+00:00</time>
      </trkpt>
      <trkpt lat="48.29879" lon="2.59196">
        <ele>79</ele>
        <time>2023-07-27T13:05:05.645+00:00</time>
      </trkpt>
      <trkpt lat="48.29874" lon="2.59187">
        <ele>79</ele>
        <time>2023-07-27T13:05:10.189+00:00</time>
      </trkpt>
      <trkpt lat="48.29872" lon="2.59176">
        <ele>78</ele>
        <time>2023-07-27T13:05:14.952+00:00</time>
      </trkpt>
      <trkpt lat="48.29872" lon="2.59168">
        <ele>78</ele>
        <time>2023-07-27T13:05:19.113+00:00</time>
      </trkpt>
      <trkpt lat="48.29869" lon="2.59159">
        <ele>78</ele>
        <time>2023-07-27T13:05:23.690+00:00</time>
      </trkpt>
      <trkpt lat="48.29866" lon="2.59151">
        <ele>76</ele>
        <time>2023-07-27T13:05:27.758+00:00</time>
      </trkpt>
      <trkpt lat="48.29862" lon="2.59147">
        <ele>76</ele>
        <time>2023-07-27T13:05:32.079+00:00</time>
      </trkpt>
      <trkpt lat="48.29857" lon="2.59144">
        <ele>76</ele>
        <time>2023-07-27T13:05:36.340+00:00</time>
      </trkpt>
      <trkpt lat="48.29852" lon="2.59149">
        <ele>76</ele>
        <time>2023-07-27T13:05:40.461+00:00</time>
      </trkpt>
      <trkpt lat="48.29848" lon="2.59152">
        <ele>76</ele>
        <time>2023-07-27T13:05:44.782+00:00</time>
      </trkpt>
      <trkpt lat="48.29844" lon="2.59156">
        <ele>75</ele>
        <time>2023-07-27T13:05:49.202+00:00</time>
      </trkpt>
      <trkpt lat="48.2984" lon="2.59154">
        <ele>75</ele>
        <time>2023-07-27T13:05:53.182+00:00</time>
      </trkpt>
      <trkpt lat="48.29834" lon="2.59154">
        <ele>75</ele>
        <time>2023-07-27T13:05:57.701+00:00</time>
      </trkpt>
      <trkpt lat="48.29829" lon="2.59152">
        <ele>74</ele>
        <time>2023-07-27T13:06:02.240+00:00</time>
      </trkpt>
      <trkpt lat="48.29824" lon="2.59152">
        <ele>74</ele>
        <time>2023-07-27T13:06:06.580+00:00</time>
      </trkpt>
      <trkpt lat="48.29819" lon="2.59153">
        <ele>72</ele>
        <time>2023-07-27T13:06:10.742+00:00</time>
      </trkpt>
      <trkpt lat="48.29814" lon="2.59156">
        <ele>71</ele>
        <time>2023-07-27T13:06:15.359+00:00</time>
      </trkpt>
      <trkpt lat="48.2981" lon="2.59157">
        <ele>71</ele>
        <time>2023-07-27T13:06:19.065+00:00</time>
      </trkpt>
      <trkpt lat="48.29805" lon="2.59162">
        <ele>71</ele>
        <time>2023-07-27T13:06:23.886+00:00</time>
      </trkpt>
      <trkpt lat="48.298" lon="2.59166">
        <ele>71</ele>
        <time>2023-07-27T13:06:27.927+00:00</time>
      </trkpt>
      <trkpt lat="48.29796" lon="2.59171">
        <ele>71</ele>
        <time>2023-07-27T13:06:32.061+00:00</time>
      </trkpt>
      <trkpt lat="48.2979" lon="2.59175">
        <ele>71</ele>
        <time>2023-07-27T13:06:36.210+00:00</time>
      </trkpt>
      <trkpt lat="48.29785" lon="2.59176">
        <ele>71</ele>
        <time>2023-07-27T13:06:40.313+00:00</time>
      </trkpt>
      <trkpt lat="48.29779" lon="2.59175">
        <ele>71</ele>
        <time>2023-07-27T13:06:44.817+00:00</time>
      </trkpt>
      <trkpt lat="48.29773" lon="2.59179">
        <ele>71</ele>
        <time>2023-07-27T13:06:48.819+00:00</time>
      </trkpt>
      <trkpt lat="48.29767" lon="2.59179">
        <ele>71</ele>
        <time>2023-07-27T13:06:53.324+00:00</time>
      </trkpt>
      <trkpt lat="48.29761" lon="2.5918">
        <ele>72</ele>
        <time>2023-07-27T13:06:57.327+00:00</time>
      </trkpt>
      <trkpt lat="48.29756" lon="2.59182">
        <ele>71</ele>
        <time>2023-07-27T13:07:01.430+00:00</time>
      </trkpt>
      <trkpt lat="48.29753" lon="2.59185">
        <ele>71</ele>
        <time>2023-07-27T13:07:05.451+00:00</time>
      </trkpt>
      <trkpt lat="48.2975" lon="2.59189">
        <ele>71</ele>
        <time>2023-07-27T13:07:09.955+00:00</time>
      </trkpt>
      <trkpt lat="48.29745" lon="2.59189">
        <ele>71</ele>
        <time>2023-07-27T13:07:14.459+00:00</time>
      </trkpt>
      <trkpt lat="48.29742" lon="2.59192">
        <ele>71</ele>
        <time>2023-07-27T13:07:18.962+00:00</time>
      </trkpt>
      <trkpt lat="48.29741" lon="2.59196">
        <ele>71</ele>
        <time>2023-07-27T13:07:22.966+00:00</time>
      </trkpt>
      <trkpt lat="48.29738" lon="2.59199">
        <ele>71</ele>
        <time>2023-07-27T13:07:27.091+00:00</time>
      </trkpt>
      <trkpt lat="48.29734" lon="2.59196">
        <ele>72</ele>
        <time>2023-07-27T13:07:31.751+00:00</time>
      </trkpt>
      <trkpt lat="48.2973" lon="2.59196">
        <ele>72</ele>
        <time>2023-07-27T13:07:35.773+00:00</time>
      </trkpt>
      <trkpt lat="48.29727" lon="2.59197">
        <ele>72</ele>
        <time>2023-07-27T13:07:40.855+00:00</time>
      </trkpt>
      <trkpt lat="48.29727" lon="2.59198">
        <ele>72</ele>
        <time>2023-07-27T13:07:45.458+00:00</time>
      </trkpt>
      <trkpt lat="48.29725" lon="2.59203">
        <ele>72</ele>
        <time>2023-07-27T13:07:50.465+00:00</time>
      </trkpt>
      <trkpt lat="48.29722" lon="2.59208">
        <ele>72</ele>
        <time>2023-07-27T13:07:55.471+00:00</time>
      </trkpt>
      <trkpt lat="48.29719" lon="2.59213">
        <ele>72</ele>
        <time>2023-07-27T13:07:59.475+00:00</time>
      </trkpt>
      <trkpt lat="48.29715" lon="2.59215">
        <ele>72</ele>
        <time>2023-07-27T13:08:04.179+00:00</time>
      </trkpt>
      <trkpt lat="48.29711" lon="2.59214">
        <ele>72</ele>
        <time>2023-07-27T13:08:08.683+00:00</time>
      </trkpt>
      <trkpt lat="48.29705" lon="2.59217">
        <ele>73</ele>
        <time>2023-07-27T13:08:13.725+00:00</time>
      </trkpt>
      <trkpt lat="48.29699" lon="2.5922">
        <ele>73</ele>
        <time>2023-07-27T13:08:18.329+00:00</time>
      </trkpt>
      <trkpt lat="48.29694" lon="2.5922">
        <ele>73</ele>
        <time>2023-07-27T13:08:22.832+00:00</time>
      </trkpt>
      <trkpt lat="48.29689" lon="2.5922">
        <ele>73</ele>
        <time>2023-07-27T13:08:26.855+00:00</time>
      </trkpt>
      <trkpt lat="48.29684" lon="2.59224">
        <ele>73</ele>
        <time>2023-07-27T13:08:31.356+00:00</time>
      </trkpt>
      <trkpt lat="48.29679" lon="2.59227">
        <ele>72</ele>
        <time>2023-07-27T13:08:35.677+00:00</time>
      </trkpt>
      <trkpt lat="48.29675" lon="2.5923">
        <ele>72</ele>
        <time>2023-07-27T13:08:39.779+00:00</time>
      </trkpt>
      <trkpt lat="48.29671" lon="2.59235">
        <ele>72</ele>
        <time>2023-07-27T13:08:43.881+00:00</time>
      </trkpt>
      <trkpt lat="48.2967" lon="2.59245">
        <ele>72</ele>
        <time>2023-07-27T13:08:48.223+00:00</time>
      </trkpt>
      <trkpt lat="48.29665" lon="2.59249">
        <ele>72</ele>
        <time>2023-07-27T13:08:52.462+00:00</time>
      </trkpt>
      <trkpt lat="48.29662" lon="2.59254">
        <ele>72</ele>
        <time>2023-07-27T13:08:56.644+00:00</time>
      </trkpt>
      <trkpt lat="48.29661" lon="2.59253">
        <ele>72</ele>
        <time>2023-07-27T13:09:01.305+00:00</time>
      </trkpt>
      <trkpt lat="48.29658" lon="2.59254">
        <ele>72</ele>
        <time>2023-07-27T13:09:05.526+00:00</time>
      </trkpt>
      <trkpt lat="48.29653" lon="2.59257">
        <ele>72</ele>
        <time>2023-07-27T13:09:10.395+00:00</time>
      </trkpt>
      <trkpt lat="48.29647" lon="2.59264">
        <ele>71</ele>
        <time>2023-07-27T13:09:14.067+00:00</time>
      </trkpt>
      <trkpt lat="48.29644" lon="2.59272">
        <ele>71</ele>
        <time>2023-07-27T13:09:18.669+00:00</time>
      </trkpt>
      <trkpt lat="48.2964" lon="2.59278">
        <ele>71</ele>
        <time>2023-07-27T13:09:23.192+00:00</time>
      </trkpt>
      <trkpt lat="48.29636" lon="2.59281">
        <ele>71</ele>
        <time>2023-07-27T13:09:27.194+00:00</time>
      </trkpt>
      <trkpt lat="48.29632" lon="2.59286">
        <ele>71</ele>
        <time>2023-07-27T13:09:31.214+00:00</time>
      </trkpt>
      <trkpt lat="48.29631" lon="2.59293">
        <ele>70</ele>
        <time>2023-07-27T13:09:35.296+00:00</time>
      </trkpt>
      <trkpt lat="48.29628" lon="2.59298">
        <ele>70</ele>
        <time>2023-07-27T13:09:39.878+00:00</time>
      </trkpt>
      <trkpt lat="48.29623" lon="2.59299">
        <ele>72</ele>
        <time>2023-07-27T13:09:44.441+00:00</time>
      </trkpt>
      <trkpt lat="48.29623" lon="2.59297">
        <ele>72</ele>
        <time>2023-07-27T13:09:57.508+00:00</time>
      </trkpt>
      <trkpt lat="48.29618" lon="2.59296">
        <ele>72</ele>
        <time>2023-07-27T13:10:02.170+00:00</time>
      </trkpt>
      <trkpt lat="48.29614" lon="2.59294">
        <ele>72</ele>
        <time>2023-07-27T13:10:06.491+00:00</time>
      </trkpt>
      <trkpt lat="48.2961" lon="2.59292">
        <ele>72</ele>
        <time>2023-07-27T13:10:10.711+00:00</time>
      </trkpt>
      <trkpt lat="48.29606" lon="2.5929">
        <ele>73</ele>
        <time>2023-07-27T13:10:15.190+00:00</time>
      </trkpt>
      <trkpt lat="48.29602" lon="2.59286">
        <ele>73</ele>
        <time>2023-07-27T13:10:19.873+00:00</time>
      </trkpt>
      <trkpt lat="48.29598" lon="2.59287">
        <ele>73</ele>
        <time>2023-07-27T13:10:24.377+00:00</time>
      </trkpt>
      <trkpt lat="48.29595" lon="2.59291">
        <ele>79</ele>
        <time>2023-07-27T13:10:28.881+00:00</time>
      </trkpt>
      <trkpt lat="48.29591" lon="2.59296">
        <ele>79</ele>
        <time>2023-07-27T13:10:32.883+00:00</time>
      </trkpt>
      <trkpt lat="48.29587" lon="2.59299">
        <ele>79</ele>
        <time>2023-07-27T13:10:37.406+00:00</time>
      </trkpt>
      <trkpt lat="48.29585" lon="2.59298">
        <ele>79</ele>
        <time>2023-07-27T13:10:41.968+00:00</time>
      </trkpt>
      <trkpt lat="48.29582" lon="2.59296">
        <ele>79</ele>
        <time>2023-07-27T13:10:46.472+00:00</time>
      </trkpt>
      <trkpt lat="48.29578" lon="2.59296">
        <ele>79</ele>
        <time>2023-07-27T13:10:50.994+00:00</time>
      </trkpt>
      <trkpt lat="48.29575" lon="2.593">
        <ele>79</ele>
        <time>2023-07-27T13:10:55.016+00:00</time>
      </trkpt>
      <trkpt lat="48.29573" lon="2.59303">
        <ele>79</ele>
        <time>2023-07-27T13:10:59.520+00:00</time>
      </trkpt>
      <trkpt lat="48.29569" lon="2.59303">
        <ele>88</ele>
        <time>2023-07-27T13:11:03.524+00:00</time>
      </trkpt>
      <trkpt lat="48.29563" lon="2.59302">
        <ele>88</ele>
        <time>2023-07-27T13:11:08.526+00:00</time>
      </trkpt>
      <trkpt lat="48.29559" lon="2.59302">
        <ele>88</ele>
        <time>2023-07-27T13:11:12.548+00:00</time>
      </trkpt>
      <trkpt lat="48.29555" lon="2.59304">
        <ele>88</ele>
        <time>2023-07-27T13:11:16.553+00:00</time>
      </trkpt>
      <trkpt lat="48.29551" lon="2.59304">
        <ele>88</ele>
        <time>2023-07-27T13:11:21.256+00:00</time>
      </trkpt>
      <trkpt lat="48.29547" lon="2.59305">
        <ele>88</ele>
        <time>2023-07-27T13:11:25.298+00:00</time>
      </trkpt>
      <trkpt lat="48.29544" lon="2.59307">
        <ele>88</ele>
        <time>2023-07-27T13:11:29.300+00:00</time>
      </trkpt>
      <trkpt lat="48.29538" lon="2.59309">
        <ele>93</ele>
        <time>2023-07-27T13:11:42.266+00:00</time>
      </trkpt>
      <trkpt lat="48.29534" lon="2.59309">
        <ele>93</ele>
        <time>2023-07-27T13:11:46.849+00:00</time>
      </trkpt>
      <trkpt lat="48.29534" lon="2.5931">
        <ele>93</ele>
        <time>2023-07-27T13:11:51.430+00:00</time>
      </trkpt>
      <trkpt lat="48.29533" lon="2.59305">
        <ele>93</ele>
        <time>2023-07-27T13:11:55.631+00:00</time>
      </trkpt>
      <trkpt lat="48.29532" lon="2.59302">
        <ele>93</ele>
        <time>2023-07-27T13:11:59.634+00:00</time>
      </trkpt>
      <trkpt lat="48.29532" lon="2.59302">
        <ele>93</ele>
        <time>2023-07-27T13:12:04.139+00:00</time>
      </trkpt>
      <trkpt lat="48.29533" lon="2.59299">
        <ele>93</ele>
        <time>2023-07-27T13:12:08.702+00:00</time>
      </trkpt>
      <trkpt lat="48.29533" lon="2.59298">
        <ele>93</ele>
        <time>2023-07-27T13:12:10.843+00:00</time>
      </trkpt>
      <trkpt lat="48.29532" lon="2.59295">
        <ele>93</ele>
        <time>2023-07-27T13:12:19.383+00:00</time>
      </trkpt>
      <trkpt lat="48.29531" lon="2.59287">
        <ele>93</ele>
        <time>2023-07-27T13:12:23.493+00:00</time>
      </trkpt>
      <trkpt lat="48.29535" lon="2.5926">
        <ele>92</ele>
        <time>2023-07-27T13:13:03.644+00:00</time>
      </trkpt>
      <trkpt lat="48.29536" lon="2.59254">
        <ele>92</ele>
        <time>2023-07-27T13:13:07.649+00:00</time>
      </trkpt>
      <trkpt lat="48.29538" lon="2.59245">
        <ele>92</ele>
        <time>2023-07-27T13:13:11.753+00:00</time>
      </trkpt>
      <trkpt lat="48.29539" lon="2.59234">
        <ele>93</ele>
        <time>2023-07-27T13:13:16.359+00:00</time>
      </trkpt>
      <trkpt lat="48.29541" lon="2.59227">
        <ele>93</ele>
        <time>2023-07-27T13:13:20.964+00:00</time>
      </trkpt>
      <trkpt lat="48.29542" lon="2.59221">
        <ele>87</ele>
        <time>2023-07-27T13:13:24.968+00:00</time>
      </trkpt>
      <trkpt lat="48.29544" lon="2.59214">
        <ele>87</ele>
        <time>2023-07-27T13:13:28.971+00:00</time>
      </trkpt>
      <trkpt lat="48.29544" lon="2.59203">
        <ele>87</ele>
        <time>2023-07-27T13:13:32.975+00:00</time>
      </trkpt>
      <trkpt lat="48.29542" lon="2.59197">
        <ele>87</ele>
        <time>2023-07-27T13:13:37.017+00:00</time>
      </trkpt>
      <trkpt lat="48.29544" lon="2.59194">
        <ele>87</ele>
        <time>2023-07-27T13:13:41.521+00:00</time>
      </trkpt>
      <trkpt lat="48.29544" lon="2.59191">
        <ele>87</ele>
        <time>2023-07-27T13:13:46.024+00:00</time>
      </trkpt>
      <trkpt lat="48.29544" lon="2.59184">
        <ele>87</ele>
        <time>2023-07-27T13:13:50.686+00:00</time>
      </trkpt>
      <trkpt lat="48.29545" lon="2.59177">
        <ele>85</ele>
        <time>2023-07-27T13:13:54.689+00:00</time>
      </trkpt>
      <trkpt lat="48.29543" lon="2.59161">
        <ele>85</ele>
        <time>2023-07-27T13:15:32.899+00:00</time>
      </trkpt>
      <trkpt lat="48.29543" lon="2.5916">
        <ele>85</ele>
        <time>2023-07-27T13:15:36.903+00:00</time>
      </trkpt>
      <trkpt lat="48.2954" lon="2.59161">
        <ele>91</ele>
        <time>2023-07-27T13:15:41.406+00:00</time>
      </trkpt>
      <trkpt lat="48.29534" lon="2.59158">
        <ele>91</ele>
        <time>2023-07-27T13:15:46.005+00:00</time>
      </trkpt>
      <trkpt lat="48.2953" lon="2.59154">
        <ele>91</ele>
        <time>2023-07-27T13:15:50.012+00:00</time>
      </trkpt>
      <trkpt lat="48.29523" lon="2.59156">
        <ele>91</ele>
        <time>2023-07-27T13:16:07.311+00:00</time>
      </trkpt>
      <trkpt lat="48.29521" lon="2.59147">
        <ele>88</ele>
        <time>2023-07-27T13:16:11.418+00:00</time>
      </trkpt>
      <trkpt lat="48.29518" lon="2.5914">
        <ele>88</ele>
        <time>2023-07-27T13:16:15.421+00:00</time>
      </trkpt>
      <trkpt lat="48.29515" lon="2.59131">
        <ele>88</ele>
        <time>2023-07-27T13:16:19.543+00:00</time>
      </trkpt>
      <trkpt lat="48.29512" lon="2.59123">
        <ele>89</ele>
        <time>2023-07-27T13:16:23.644+00:00</time>
      </trkpt>
      <trkpt lat="48.2951" lon="2.59117">
        <ele>89</ele>
        <time>2023-07-27T13:16:27.686+00:00</time>
      </trkpt>
      <trkpt lat="48.29508" lon="2.59116">
        <ele>89</ele>
        <time>2023-07-27T13:16:32.692+00:00</time>
      </trkpt>
      <trkpt lat="48.29507" lon="2.59115">
        <ele>89</ele>
        <time>2023-07-27T13:16:36.706+00:00</time>
      </trkpt>
      <trkpt lat="48.29503" lon="2.59111">
        <ele>89</ele>
        <time>2023-07-27T13:16:41.724+00:00</time>
      </trkpt>
      <trkpt lat="48.295" lon="2.59105">
        <ele>89</ele>
        <time>2023-07-27T13:16:46.238+00:00</time>
      </trkpt>
      <trkpt lat="48.29499" lon="2.591">
        <ele>89</ele>
        <time>2023-07-27T13:16:50.853+00:00</time>
      </trkpt>
      <trkpt lat="48.295" lon="2.59094">
        <ele>87</ele>
        <time>2023-07-27T13:16:54.864+00:00</time>
      </trkpt>
      <trkpt lat="48.29499" lon="2.5909">
        <ele>87</ele>
        <time>2023-07-27T13:16:58.876+00:00</time>
      </trkpt>
      <trkpt lat="48.29499" lon="2.59088">
        <ele>87</ele>
        <time>2023-07-27T13:17:02.889+00:00</time>
      </trkpt>
      <trkpt lat="48.29499" lon="2.59083">
        <ele>87</ele>
        <time>2023-07-27T13:17:07.905+00:00</time>
      </trkpt>
      <trkpt lat="48.29501" lon="2.59083">
        <ele>87</ele>
        <time>2023-07-27T13:17:29.572+00:00</time>
      </trkpt>
      <trkpt lat="48.295" lon="2.59084">
        <ele>87</ele>
        <time>2023-07-27T13:17:33.731+00:00</time>
      </trkpt>
      <trkpt lat="48.29496" lon="2.59087">
        <ele>87</ele>
        <time>2023-07-27T13:17:37.833+00:00</time>
      </trkpt>
      <trkpt lat="48.29493" lon="2.59089">
        <ele>87</ele>
        <time>2023-07-27T13:17:42.855+00:00</time>
      </trkpt>
      <trkpt lat="48.29491" lon="2.59089">
        <ele>87</ele>
        <time>2023-07-27T13:17:46.868+00:00</time>
      </trkpt>
      <trkpt lat="48.29482" lon="2.59096">
        <ele>87</ele>
        <time>2023-07-27T13:17:51.384+00:00</time>
      </trkpt>
      <trkpt lat="48.29485" lon="2.59101">
        <ele>90</ele>
        <time>2023-07-27T13:17:55.891+00:00</time>
      </trkpt>
      <trkpt lat="48.29481" lon="2.59108">
        <ele>90</ele>
        <time>2023-07-27T13:18:00.097+00:00</time>
      </trkpt>
      <trkpt lat="48.29478" lon="2.59113">
        <ele>90</ele>
        <time>2023-07-27T13:18:04.704+00:00</time>
      </trkpt>
      <trkpt lat="48.29474" lon="2.5912">
        <ele>90</ele>
        <time>2023-07-27T13:18:09.210+00:00</time>
      </trkpt>
      <trkpt lat="48.29471" lon="2.59127">
        <ele>92</ele>
        <time>2023-07-27T13:18:13.716+00:00</time>
      </trkpt>
      <trkpt lat="48.29468" lon="2.59132">
        <ele>92</ele>
        <time>2023-07-27T13:18:17.720+00:00</time>
      </trkpt>
      <trkpt lat="48.29465" lon="2.59137">
        <ele>92</ele>
        <time>2023-07-27T13:18:21.742+00:00</time>
      </trkpt>
      <trkpt lat="48.2946" lon="2.59143">
        <ele>92</ele>
        <time>2023-07-27T13:18:25.744+00:00</time>
      </trkpt>
      <trkpt lat="48.29457" lon="2.59149">
        <ele>88</ele>
        <time>2023-07-27T13:18:30.246+00:00</time>
      </trkpt>
      <trkpt lat="48.29455" lon="2.59155">
        <ele>90</ele>
        <time>2023-07-27T13:18:34.749+00:00</time>
      </trkpt>
      <trkpt lat="48.29457" lon="2.59162">
        <ele>90</ele>
        <time>2023-07-27T13:18:39.759+00:00</time>
      </trkpt>
      <trkpt lat="48.29458" lon="2.59165">
        <ele>94</ele>
        <time>2023-07-27T13:18:44.780+00:00</time>
      </trkpt>
      <trkpt lat="48.29458" lon="2.59166">
        <ele>90</ele>
        <time>2023-07-27T13:18:48.797+00:00</time>
      </trkpt>
      <trkpt lat="48.29455" lon="2.59174">
        <ele>90</ele>
        <time>2023-07-27T13:18:53.816+00:00</time>
      </trkpt>
      <trkpt lat="48.29457" lon="2.59183">
        <ele>92</ele>
        <time>2023-07-27T13:18:57.833+00:00</time>
      </trkpt>
      <trkpt lat="48.29457" lon="2.5919">
        <ele>92</ele>
        <time>2023-07-27T13:19:02.349+00:00</time>
      </trkpt>
      <trkpt lat="48.29458" lon="2.59198">
        <ele>94</ele>
        <time>2023-07-27T13:19:06.363+00:00</time>
      </trkpt>
      <trkpt lat="48.29459" lon="2.59204">
        <ele>94</ele>
        <time>2023-07-27T13:19:10.878+00:00</time>
      </trkpt>
      <trkpt lat="48.2946" lon="2.59205">
        <ele>94</ele>
        <time>2023-07-27T13:19:15.896+00:00</time>
      </trkpt>
      <trkpt lat="48.2946" lon="2.59205">
        <ele>94</ele>
        <time>2023-07-27T13:19:24.532+00:00</time>
      </trkpt>
      <trkpt lat="48.29461" lon="2.59206">
        <ele>94</ele>
        <time>2023-07-27T13:19:28.553+00:00</time>
      </trkpt>
      <trkpt lat="48.2946" lon="2.59208">
        <ele>94</ele>
        <time>2023-07-27T13:19:33.575+00:00</time>
      </trkpt>
      <trkpt lat="48.29459" lon="2.59212">
        <ele>94</ele>
        <time>2023-07-27T13:19:37.591+00:00</time>
      </trkpt>
      <trkpt lat="48.29455" lon="2.59218">
        <ele>92</ele>
        <time>2023-07-27T13:19:41.606+00:00</time>
      </trkpt>
      <trkpt lat="48.29452" lon="2.59224">
        <ele>92</ele>
        <time>2023-07-27T13:19:46.141+00:00</time>
      </trkpt>
      <trkpt lat="48.29449" lon="2.59229">
        <ele>92</ele>
        <time>2023-07-27T13:19:50.154+00:00</time>
      </trkpt>
      <trkpt lat="48.29444" lon="2.59233">
        <ele>92</ele>
        <time>2023-07-27T13:19:54.767+00:00</time>
      </trkpt>
      <trkpt lat="48.2944" lon="2.59237">
        <ele>92</ele>
        <time>2023-07-27T13:19:58.775+00:00</time>
      </trkpt>
      <trkpt lat="48.29435" lon="2.59247">
        <ele>92</ele>
        <time>2023-07-27T13:20:46.592+00:00</time>
      </trkpt>
      <trkpt lat="48.29434" lon="2.59256">
        <ele>92</ele>
        <time>2023-07-27T13:20:51.101+00:00</time>
      </trkpt>
      <trkpt lat="48.29432" lon="2.59263">
        <ele>92</ele>
        <time>2023-07-27T13:20:55.107+00:00</time>
      </trkpt>
      <trkpt lat="48.29434" lon="2.59271">
        <ele>93</ele>
        <time>2023-07-27T13:20:59.613+00:00</time>
      </trkpt>
      <trkpt lat="48.29434" lon="2.59278">
        <ele>93</ele>
        <time>2023-07-27T13:21:04.119+00:00</time>
      </trkpt>
      <trkpt lat="48.29432" lon="2.59283">
        <ele>93</ele>
        <time>2023-07-27T13:21:08.625+00:00</time>
      </trkpt>
      <trkpt lat="48.29429" lon="2.59287">
        <ele>89</ele>
        <time>2023-07-27T13:21:12.730+00:00</time>
      </trkpt>
      <trkpt lat="48.29428" lon="2.59289">
        <ele>89</ele>
        <time>2023-07-27T13:21:16.734+00:00</time>
      </trkpt>
      <trkpt lat="48.29424" lon="2.59289">
        <ele>89</ele>
        <time>2023-07-27T13:21:21.238+00:00</time>
      </trkpt>
      <trkpt lat="48.29419" lon="2.5929">
        <ele>89</ele>
        <time>2023-07-27T13:21:25.741+00:00</time>
      </trkpt>
      <trkpt lat="48.29416" lon="2.59293">
        <ele>89</ele>
        <time>2023-07-27T13:21:29.744+00:00</time>
      </trkpt>
      <trkpt lat="48.29416" lon="2.59291">
        <ele>89</ele>
        <time>2023-07-27T13:21:34.748+00:00</time>
      </trkpt>
      <trkpt lat="48.29413" lon="2.5929">
        <ele>89</ele>
        <time>2023-07-27T13:21:39.251+00:00</time>
      </trkpt>
      <trkpt lat="48.29412" lon="2.59281">
        <ele>89</ele>
        <time>2023-07-27T13:21:43.755+00:00</time>
      </trkpt>
      <trkpt lat="48.29409" lon="2.5927">
        <ele>89</ele>
        <time>2023-07-27T13:21:47.757+00:00</time>
      </trkpt>
      <trkpt lat="48.29408" lon="2.59263">
        <ele>89</ele>
        <time>2023-07-27T13:21:51.760+00:00</time>
      </trkpt>
      <trkpt lat="48.29408" lon="2.59255">
        <ele>89</ele>
        <time>2023-07-27T13:21:56.766+00:00</time>
      </trkpt>
      <trkpt lat="48.29409" lon="2.59249">
        <ele>89</ele>
        <time>2023-07-27T13:22:01.770+00:00</time>
      </trkpt>
      <trkpt lat="48.29413" lon="2.59245">
        <ele>89</ele>
        <time>2023-07-27T13:22:05.773+00:00</time>
      </trkpt>
      <trkpt lat="48.29415" lon="2.59235">
        <ele>88</ele>
        <time>2023-07-27T13:22:10.780+00:00</time>
      </trkpt>
      <trkpt lat="48.29416" lon="2.59228">
        <ele>88</ele>
        <time>2023-07-27T13:22:15.359+00:00</time>
      </trkpt>
      <trkpt lat="48.2942" lon="2.59224">
        <ele>88</ele>
        <time>2023-07-27T13:22:19.888+00:00</time>
      </trkpt>
      <trkpt lat="48.29424" lon="2.5922">
        <ele>88</ele>
        <time>2023-07-27T13:22:23.904+00:00</time>
      </trkpt>
      <trkpt lat="48.29425" lon="2.5922">
        <ele>88</ele>
        <time>2023-07-27T13:22:33.946+00:00</time>
      </trkpt>
      <trkpt lat="48.29424" lon="2.59216">
        <ele>88</ele>
        <time>2023-07-27T13:22:38.467+00:00</time>
      </trkpt>
      <trkpt lat="48.29423" lon="2.59213">
        <ele>88</ele>
        <time>2023-07-27T13:22:42.581+00:00</time>
      </trkpt>
      <trkpt lat="48.29422" lon="2.59213">
        <ele>88</ele>
        <time>2023-07-27T13:22:47.098+00:00</time>
      </trkpt>
      <trkpt lat="48.29424" lon="2.59209">
        <ele>88</ele>
        <time>2023-07-27T13:22:51.614+00:00</time>
      </trkpt>
      <trkpt lat="48.29424" lon="2.59202">
        <ele>86</ele>
        <time>2023-07-27T13:23:00.644+00:00</time>
      </trkpt>
      <trkpt lat="48.29421" lon="2.59202">
        <ele>86</ele>
        <time>2023-07-27T13:23:05.662+00:00</time>
      </trkpt>
      <trkpt lat="48.29419" lon="2.59201">
        <ele>86</ele>
        <time>2023-07-27T13:23:10.177+00:00</time>
      </trkpt>
      <trkpt lat="48.29416" lon="2.59202">
        <ele>86</ele>
        <time>2023-07-27T13:23:14.692+00:00</time>
      </trkpt>
      <trkpt lat="48.29414" lon="2.59203">
        <ele>86</ele>
        <time>2023-07-27T13:23:18.705+00:00</time>
      </trkpt>
      <trkpt lat="48.29411" lon="2.59202">
        <ele>86</ele>
        <time>2023-07-27T13:23:23.220+00:00</time>
      </trkpt>
      <trkpt lat="48.29411" lon="2.59196">
        <ele>86</ele>
        <time>2023-07-27T13:23:27.837+00:00</time>
      </trkpt>
      <trkpt lat="48.29407" lon="2.59196">
        <ele>86</ele>
        <time>2023-07-27T13:23:31.851+00:00</time>
      </trkpt>
      <trkpt lat="48.29403" lon="2.59197">
        <ele>86</ele>
        <time>2023-07-27T13:23:35.865+00:00</time>
      </trkpt>
      <trkpt lat="48.294" lon="2.59193">
        <ele>82</ele>
        <time>2023-07-27T13:23:40.380+00:00</time>
      </trkpt>
      <trkpt lat="48.29396" lon="2.59191">
        <ele>82</ele>
        <time>2023-07-27T13:23:44.894+00:00</time>
      </trkpt>
      <trkpt lat="48.29393" lon="2.59194">
        <ele>82</ele>
        <time>2023-07-27T13:23:49.909+00:00</time>
      </trkpt>
      <trkpt lat="48.29391" lon="2.59198">
        <ele>82</ele>
        <time>2023-07-27T13:23:53.925+00:00</time>
      </trkpt>
      <trkpt lat="48.29388" lon="2.59199">
        <ele>82</ele>
        <time>2023-07-27T13:23:57.934+00:00</time>
      </trkpt>
      <trkpt lat="48.29384" lon="2.59197">
        <ele>82</ele>
        <time>2023-07-27T13:24:01.941+00:00</time>
      </trkpt>
      <trkpt lat="48.29381" lon="2.59199">
        <ele>82</ele>
        <time>2023-07-27T13:24:05.948+00:00</time>
      </trkpt>
      <trkpt lat="48.29377" lon="2.59196">
        <ele>82</ele>
        <time>2023-07-27T13:24:10.054+00:00</time>
      </trkpt>
      <trkpt lat="48.29373" lon="2.59204">
        <ele>80</ele>
        <time>2023-07-27T13:24:14.560+00:00</time>
      </trkpt>
      <trkpt lat="48.29369" lon="2.59207">
        <ele>80</ele>
        <time>2023-07-27T13:24:18.564+00:00</time>
      </trkpt>
      <trkpt lat="48.29365" lon="2.59211">
        <ele>79</ele>
        <time>2023-07-27T13:24:23.068+00:00</time>
      </trkpt>
      <trkpt lat="48.29361" lon="2.59215">
        <ele>79</ele>
        <time>2023-07-27T13:24:27.074+00:00</time>
      </trkpt>
      <trkpt lat="48.29358" lon="2.59216">
        <ele>79</ele>
        <time>2023-07-27T13:24:31.580+00:00</time>
      </trkpt>
      <trkpt lat="48.29359" lon="2.59227">
        <ele>79</ele>
        <time>2023-07-27T13:24:36.084+00:00</time>
      </trkpt>
      <trkpt lat="48.29362" lon="2.59236">
        <ele>79</ele>
        <time>2023-07-27T13:24:40.691+00:00</time>
      </trkpt>
      <trkpt lat="48.29364" lon="2.59243">
        <ele>79</ele>
        <time>2023-07-27T13:24:44.694+00:00</time>
      </trkpt>
      <trkpt lat="48.29364" lon="2.59251">
        <ele>79</ele>
        <time>2023-07-27T13:24:49.209+00:00</time>
      </trkpt>
      <trkpt lat="48.29361" lon="2.59258">
        <ele>79</ele>
        <time>2023-07-27T13:24:53.802+00:00</time>
      </trkpt>
      <trkpt lat="48.29362" lon="2.59262">
        <ele>79</ele>
        <time>2023-07-27T13:24:57.805+00:00</time>
      </trkpt>
      <trkpt lat="48.29364" lon="2.59266">
        <ele>80</ele>
        <time>2023-07-27T13:25:01.807+00:00</time>
      </trkpt>
      <trkpt lat="48.29361" lon="2.59274">
        <ele>80</ele>
        <time>2023-07-27T13:25:06.910+00:00</time>
      </trkpt>
      <trkpt lat="48.29359" lon="2.59294">
        <ele>81</ele>
        <time>2023-07-27T13:25:44.232+00:00</time>
      </trkpt>
      <trkpt lat="48.29358" lon="2.59296">
        <ele>81</ele>
        <time>2023-07-27T13:25:48.749+00:00</time>
      </trkpt>
      <trkpt lat="48.29357" lon="2.59307">
        <ele>81</ele>
        <time>2023-07-27T13:25:52.764+00:00</time>
      </trkpt>
      <trkpt lat="48.29357" lon="2.59313">
        <ele>81</ele>
        <time>2023-07-27T13:25:56.774+00:00</time>
      </trkpt>
      <trkpt lat="48.29357" lon="2.59314">
        <ele>81</ele>
        <time>2023-07-27T13:26:01.782+00:00</time>
      </trkpt>
      <trkpt lat="48.29357" lon="2.59313">
        <ele>81</ele>
        <time>2023-07-27T13:26:05.807+00:00</time>
      </trkpt>
      <trkpt lat="48.29357" lon="2.59314">
        <ele>81</ele>
        <time>2023-07-27T13:26:09.814+00:00</time>
      </trkpt>
      <trkpt lat="48.29355" lon="2.59318">
        <ele>81</ele>
        <time>2023-07-27T13:26:14.319+00:00</time>
      </trkpt>
      <trkpt lat="48.29353" lon="2.59325">
        <ele>82</ele>
        <time>2023-07-27T13:26:18.824+00:00</time>
      </trkpt>
      <trkpt lat="48.29352" lon="2.59329">
        <ele>82</ele>
        <time>2023-07-27T13:26:23.831+00:00</time>
      </trkpt>
      <trkpt lat="48.29353" lon="2.59329">
        <ele>82</ele>
        <time>2023-07-27T13:26:27.836+00:00</time>
      </trkpt>
      <trkpt lat="48.29353" lon="2.59333">
        <ele>82</ele>
        <time>2023-07-27T13:26:32.942+00:00</time>
      </trkpt>
      <trkpt lat="48.29351" lon="2.59337">
        <ele>82</ele>
        <time>2023-07-27T13:26:36.946+00:00</time>
      </trkpt>
      <trkpt lat="48.29351" lon="2.59344">
        <ele>82</ele>
        <time>2023-07-27T13:26:40.951+00:00</time>
      </trkpt>
      <trkpt lat="48.29349" lon="2.59347">
        <ele>82</ele>
        <time>2023-07-27T13:26:45.457+00:00</time>
      </trkpt>
      <trkpt lat="48.29348" lon="2.59352">
        <ele>83</ele>
        <time>2023-07-27T13:26:49.561+00:00</time>
      </trkpt>
      <trkpt lat="48.2935" lon="2.5936">
        <ele>83</ele>
        <time>2023-07-27T13:26:54.064+00:00</time>
      </trkpt>
      <trkpt lat="48.29355" lon="2.59363">
        <ele>83</ele>
        <time>2023-07-27T13:26:58.669+00:00</time>
      </trkpt>
      <trkpt lat="48.29356" lon="2.59374">
        <ele>83</ele>
        <time>2023-07-27T13:27:16.788+00:00</time>
      </trkpt>
      <trkpt lat="48.29353" lon="2.59373">
        <ele>83</ele>
        <time>2023-07-27T13:27:20.806+00:00</time>
      </trkpt>
      <trkpt lat="48.29352" lon="2.59381">
        <ele>83</ele>
        <time>2023-07-27T13:27:25.425+00:00</time>
      </trkpt>
      <trkpt lat="48.2935" lon="2.59387">
        <ele>83</ele>
        <time>2023-07-27T13:27:29.941+00:00</time>
      </trkpt>
      <trkpt lat="48.29352" lon="2.59394">
        <ele>83</ele>
        <time>2023-07-27T13:27:33.952+00:00</time>
      </trkpt>
      <trkpt lat="48.29354" lon="2.59397">
        <ele>83</ele>
        <time>2023-07-27T13:27:42.979+00:00</time>
      </trkpt>
      <trkpt lat="48.29355" lon="2.59399">
        <ele>83</ele>
        <time>2023-07-27T13:27:47.495+00:00</time>
      </trkpt>
      <trkpt lat="48.29356" lon="2.59401">
        <ele>83</ele>
        <time>2023-07-27T13:27:52.515+00:00</time>
      </trkpt>
      <trkpt lat="48.29357" lon="2.59403">
        <ele>83</ele>
        <time>2023-07-27T13:27:56.523+00:00</time>
      </trkpt>
      <trkpt lat="48.29358" lon="2.59412">
        <ele>83</ele>
        <time>2023-07-27T13:28:01.029+00:00</time>
      </trkpt>
      <trkpt lat="48.29359" lon="2.59416">
        <ele>83</ele>
        <time>2023-07-27T13:28:05.534+00:00</time>
      </trkpt>
      <trkpt lat="48.29362" lon="2.5942">
        <ele>83</ele>
        <time>2023-07-27T13:28:09.537+00:00</time>
      </trkpt>
      <trkpt lat="48.29363" lon="2.59427">
        <ele>83</ele>
        <time>2023-07-27T13:28:13.539+00:00</time>
      </trkpt>
      <trkpt lat="48.29362" lon="2.59434">
        <ele>84</ele>
        <time>2023-07-27T13:28:18.062+00:00</time>
      </trkpt>
      <trkpt lat="48.29363" lon="2.59442">
        <ele>84</ele>
        <time>2023-07-27T13:28:22.183+00:00</time>
      </trkpt>
      <trkpt lat="48.29366" lon="2.59446">
        <ele>84</ele>
        <time>2023-07-27T13:28:26.689+00:00</time>
      </trkpt>
      <trkpt lat="48.29369" lon="2.59445">
        <ele>84</ele>
        <time>2023-07-27T13:28:30.705+00:00</time>
      </trkpt>
      <trkpt lat="48.29368" lon="2.59458">
        <ele>84</ele>
        <time>2023-07-27T13:28:35.726+00:00</time>
      </trkpt>
      <trkpt lat="48.29369" lon="2.59474">
        <ele>85</ele>
        <time>2023-07-27T13:28:44.353+00:00</time>
      </trkpt>
      <trkpt lat="48.29371" lon="2.59476">
        <ele>85</ele>
        <time>2023-07-27T13:28:48.396+00:00</time>
      </trkpt>
      <trkpt lat="48.29371" lon="2.59477">
        <ele>85</ele>
        <time>2023-07-27T13:28:52.509+00:00</time>
      </trkpt>
      <trkpt lat="48.29372" lon="2.59477">
        <ele>85</ele>
        <time>2023-07-27T13:28:56.523+00:00</time>
      </trkpt>
      <trkpt lat="48.29374" lon="2.59477">
        <ele>85</ele>
        <time>2023-07-27T13:29:01.040+00:00</time>
      </trkpt>
      <trkpt lat="48.2937" lon="2.59481">
        <ele>85</ele>
        <time>2023-07-27T13:30:58.968+00:00</time>
      </trkpt>
      <trkpt lat="48.2937" lon="2.59486">
        <ele>85</ele>
        <time>2023-07-27T13:31:02.984+00:00</time>
      </trkpt>
      <trkpt lat="48.2937" lon="2.59489">
        <ele>85</ele>
        <time>2023-07-27T13:31:07.499+00:00</time>
      </trkpt>
      <trkpt lat="48.2937" lon="2.59491">
        <ele>85</ele>
        <time>2023-07-27T13:31:11.512+00:00</time>
      </trkpt>
      <trkpt lat="48.2937" lon="2.59493">
        <ele>85</ele>
        <time>2023-07-27T13:31:15.524+00:00</time>
      </trkpt>
      <trkpt lat="48.29369" lon="2.595">
        <ele>85</ele>
        <time>2023-07-27T13:31:19.531+00:00</time>
      </trkpt>
      <trkpt lat="48.29374" lon="2.5951">
        <ele>85</ele>
        <time>2023-07-27T13:31:24.041+00:00</time>
      </trkpt>
      <trkpt lat="48.29377" lon="2.59518">
        <ele>85</ele>
        <time>2023-07-27T13:31:28.547+00:00</time>
      </trkpt>
      <trkpt lat="48.29381" lon="2.59526">
        <ele>85</ele>
        <time>2023-07-27T13:31:32.555+00:00</time>
      </trkpt>
      <trkpt lat="48.29383" lon="2.59536">
        <ele>85</ele>
        <time>2023-07-27T13:31:37.061+00:00</time>
      </trkpt>
      <trkpt lat="48.29385" lon="2.59546">
        <ele>82</ele>
        <time>2023-07-27T13:31:41.770+00:00</time>
      </trkpt>
      <trkpt lat="48.29385" lon="2.59555">
        <ele>82</ele>
        <time>2023-07-27T13:31:45.871+00:00</time>
      </trkpt>
      <trkpt lat="48.29386" lon="2.59563">
        <ele>82</ele>
        <time>2023-07-27T13:31:49.976+00:00</time>
      </trkpt>
      <trkpt lat="48.29387" lon="2.59574">
        <ele>79</ele>
        <time>2023-07-27T13:31:54.481+00:00</time>
      </trkpt>
      <trkpt lat="48.29388" lon="2.59581">
        <ele>79</ele>
        <time>2023-07-27T13:31:58.987+00:00</time>
      </trkpt>
      <trkpt lat="48.29389" lon="2.59589">
        <ele>79</ele>
        <time>2023-07-27T13:32:02.992+00:00</time>
      </trkpt>
      <trkpt lat="48.29389" lon="2.59597">
        <ele>79</ele>
        <time>2023-07-27T13:32:07.497+00:00</time>
      </trkpt>
      <trkpt lat="48.29388" lon="2.59604">
        <ele>76</ele>
        <time>2023-07-27T13:32:12.002+00:00</time>
      </trkpt>
      <trkpt lat="48.29388" lon="2.5961">
        <ele>76</ele>
        <time>2023-07-27T13:32:16.506+00:00</time>
      </trkpt>
      <trkpt lat="48.29388" lon="2.59616">
        <ele>76</ele>
        <time>2023-07-27T13:32:21.009+00:00</time>
      </trkpt>
      <trkpt lat="48.29389" lon="2.59621">
        <ele>76</ele>
        <time>2023-07-27T13:32:25.512+00:00</time>
      </trkpt>
      <trkpt lat="48.29392" lon="2.59626">
        <ele>74</ele>
        <time>2023-07-27T13:33:01.638+00:00</time>
      </trkpt>
      <trkpt lat="48.29394" lon="2.59634">
        <ele>74</ele>
        <time>2023-07-27T13:33:05.661+00:00</time>
      </trkpt>
      <trkpt lat="48.29395" lon="2.59641">
        <ele>74</ele>
        <time>2023-07-27T13:33:09.663+00:00</time>
      </trkpt>
      <trkpt lat="48.29396" lon="2.5965">
        <ele>74</ele>
        <time>2023-07-27T13:33:14.419+00:00</time>
      </trkpt>
      <trkpt lat="48.29398" lon="2.59656">
        <ele>72</ele>
        <time>2023-07-27T13:33:18.028+00:00</time>
      </trkpt>
      <trkpt lat="48.29399" lon="2.59662">
        <ele>72</ele>
        <time>2023-07-27T13:33:22.329+00:00</time>
      </trkpt>
      <trkpt lat="48.29399" lon="2.59672">
        <ele>72</ele>
        <time>2023-07-27T13:33:27.069+00:00</time>
      </trkpt>
      <trkpt lat="48.29398" lon="2.59682">
        <ele>72</ele>
        <time>2023-07-27T13:33:31.806+00:00</time>
      </trkpt>
      <trkpt lat="48.29395" lon="2.59689">
        <ele>72</ele>
        <time>2023-07-27T13:33:35.930+00:00</time>
      </trkpt>
      <trkpt lat="48.29391" lon="2.59695">
        <ele>72</ele>
        <time>2023-07-27T13:33:39.710+00:00</time>
      </trkpt>
      <trkpt lat="48.29387" lon="2.59701">
        <ele>72</ele>
        <time>2023-07-27T13:33:44.190+00:00</time>
      </trkpt>
      <trkpt lat="48.29386" lon="2.59708">
        <ele>72</ele>
        <time>2023-07-27T13:33:48.650+00:00</time>
      </trkpt>
      <trkpt lat="48.29386" lon="2.59716">
        <ele>71</ele>
        <time>2023-07-27T13:33:52.831+00:00</time>
      </trkpt>
      <trkpt lat="48.29387" lon="2.59727">
        <ele>71</ele>
        <time>2023-07-27T13:33:57.433+00:00</time>
      </trkpt>
      <trkpt lat="48.29387" lon="2.59732">
        <ele>71</ele>
        <time>2023-07-27T13:34:01.615+00:00</time>
      </trkpt>
      <trkpt lat="48.29382" lon="2.59732">
        <ele>71</ele>
        <time>2023-07-27T13:34:05.915+00:00</time>
      </trkpt>
      <trkpt lat="48.29376" lon="2.59734">
        <ele>71</ele>
        <time>2023-07-27T13:34:10.116+00:00</time>
      </trkpt>
      <trkpt lat="48.29371" lon="2.59734">
        <ele>73</ele>
        <time>2023-07-27T13:34:14.619+00:00</time>
      </trkpt>
      <trkpt lat="48.29367" lon="2.59734">
        <ele>73</ele>
        <time>2023-07-27T13:34:18.624+00:00</time>
      </trkpt>
      <trkpt lat="48.29364" lon="2.59732">
        <ele>73</ele>
        <time>2023-07-27T13:34:22.627+00:00</time>
      </trkpt>
      <trkpt lat="48.29361" lon="2.5973">
        <ele>73</ele>
        <time>2023-07-27T13:34:27.630+00:00</time>
      </trkpt>
      <trkpt lat="48.29359" lon="2.59729">
        <ele>73</ele>
        <time>2023-07-27T13:34:31.651+00:00</time>
      </trkpt>
      <trkpt lat="48.29359" lon="2.59731">
        <ele>73</ele>
        <time>2023-07-27T13:34:35.812+00:00</time>
      </trkpt>
      <trkpt lat="48.29358" lon="2.59733">
        <ele>73</ele>
        <time>2023-07-27T13:34:40.335+00:00</time>
      </trkpt>
      <trkpt lat="48.29355" lon="2.59733">
        <ele>73</ele>
        <time>2023-07-27T13:34:44.338+00:00</time>
      </trkpt>
      <trkpt lat="48.29349" lon="2.59732">
        <ele>73</ele>
        <time>2023-07-27T13:34:49.343+00:00</time>
      </trkpt>
      <trkpt lat="48.29345" lon="2.59728">
        <ele>73</ele>
        <time>2023-07-27T13:36:12.967+00:00</time>
      </trkpt>
      <trkpt lat="48.29344" lon="2.59726">
        <ele>73</ele>
        <time>2023-07-27T13:36:17.973+00:00</time>
      </trkpt>
      <trkpt lat="48.2934" lon="2.59724">
        <ele>73</ele>
        <time>2023-07-27T13:36:22.359+00:00</time>
      </trkpt>
      <trkpt lat="48.29336" lon="2.59724">
        <ele>73</ele>
        <time>2023-07-27T13:36:26.191+00:00</time>
      </trkpt>
      <trkpt lat="48.29333" lon="2.59723">
        <ele>73</ele>
        <time>2023-07-27T13:36:30.973+00:00</time>
      </trkpt>
      <trkpt lat="48.29328" lon="2.59721">
        <ele>73</ele>
        <time>2023-07-27T13:36:35.555+00:00</time>
      </trkpt>
      <trkpt lat="48.29322" lon="2.59719">
        <ele>73</ele>
        <time>2023-07-27T13:36:40.197+00:00</time>
      </trkpt>
      <trkpt lat="48.29317" lon="2.59718">
        <ele>73</ele>
        <time>2023-07-27T13:36:44.918+00:00</time>
      </trkpt>
      <trkpt lat="48.29314" lon="2.59717">
        <ele>73</ele>
        <time>2023-07-27T13:36:48.878+00:00</time>
      </trkpt>
      <trkpt lat="48.29313" lon="2.59718">
        <ele>73</ele>
        <time>2023-07-27T13:36:53.639+00:00</time>
      </trkpt>
      <trkpt lat="48.29311" lon="2.59717">
        <ele>73</ele>
        <time>2023-07-27T13:36:58.600+00:00</time>
      </trkpt>
      <trkpt lat="48.29305" lon="2.59717">
        <ele>73</ele>
        <time>2023-07-27T13:37:02.320+00:00</time>
      </trkpt>
      <trkpt lat="48.29301" lon="2.59715">
        <ele>73</ele>
        <time>2023-07-27T13:37:06.961+00:00</time>
      </trkpt>
      <trkpt lat="48.29299" lon="2.59715">
        <ele>73</ele>
        <time>2023-07-27T13:37:10.742+00:00</time>
      </trkpt>
      <trkpt lat="48.29298" lon="2.59714">
        <ele>73</ele>
        <time>2023-07-27T13:37:15.443+00:00</time>
      </trkpt>
      <trkpt lat="48.29293" lon="2.59712">
        <ele>73</ele>
        <time>2023-07-27T13:37:19.463+00:00</time>
      </trkpt>
      <trkpt lat="48.29288" lon="2.5971">
        <ele>72</ele>
        <time>2023-07-27T13:37:23.683+00:00</time>
      </trkpt>
      <trkpt lat="48.29283" lon="2.59709">
        <ele>72</ele>
        <time>2023-07-27T13:37:28.384+00:00</time>
      </trkpt>
      <trkpt lat="48.29278" lon="2.59709">
        <ele>72</ele>
        <time>2023-07-27T13:37:32.745+00:00</time>
      </trkpt>
      <trkpt lat="48.29272" lon="2.59706">
        <ele>73</ele>
        <time>2023-07-27T13:37:37.248+00:00</time>
      </trkpt>
      <trkpt lat="48.29267" lon="2.59704">
        <ele>73</ele>
        <time>2023-07-27T13:37:41.753+00:00</time>
      </trkpt>
      <trkpt lat="48.29262" lon="2.59701">
        <ele>72</ele>
        <time>2023-07-27T13:37:45.756+00:00</time>
      </trkpt>
      <trkpt lat="48.29257" lon="2.597">
        <ele>72</ele>
        <time>2023-07-27T13:37:50.764+00:00</time>
      </trkpt>
      <trkpt lat="48.29252" lon="2.59698">
        <ele>72</ele>
        <time>2023-07-27T13:37:55.041+00:00</time>
      </trkpt>
      <trkpt lat="48.29247" lon="2.59695">
        <ele>72</ele>
        <time>2023-07-27T13:37:59.920+00:00</time>
      </trkpt>
      <trkpt lat="48.29234" lon="2.59694">
        <ele>72</ele>
        <time>2023-07-27T13:38:16.728+00:00</time>
      </trkpt>
      <trkpt lat="48.29233" lon="2.59694">
        <ele>72</ele>
        <time>2023-07-27T13:38:20.731+00:00</time>
      </trkpt>
      <trkpt lat="48.29228" lon="2.5969">
        <ele>72</ele>
        <time>2023-07-27T13:38:25.407+00:00</time>
      </trkpt>
      <trkpt lat="48.29221" lon="2.5969">
        <ele>72</ele>
        <time>2023-07-27T13:38:28.977+00:00</time>
      </trkpt>
      <trkpt lat="48.29216" lon="2.5969">
        <ele>72</ele>
        <time>2023-07-27T13:38:33.480+00:00</time>
      </trkpt>
      <trkpt lat="48.29211" lon="2.59689">
        <ele>72</ele>
        <time>2023-07-27T13:38:37.985+00:00</time>
      </trkpt>
      <trkpt lat="48.29205" lon="2.59689">
        <ele>71</ele>
        <time>2023-07-27T13:38:42.488+00:00</time>
      </trkpt>
      <trkpt lat="48.29199" lon="2.5969">
        <ele>71</ele>
        <time>2023-07-27T13:38:46.992+00:00</time>
      </trkpt>
      <trkpt lat="48.29194" lon="2.59688">
        <ele>71</ele>
        <time>2023-07-27T13:38:51.498+00:00</time>
      </trkpt>
      <trkpt lat="48.29188" lon="2.59691">
        <ele>71</ele>
        <time>2023-07-27T13:38:56.505+00:00</time>
      </trkpt>
      <trkpt lat="48.29183" lon="2.59693">
        <ele>71</ele>
        <time>2023-07-27T13:39:00.508+00:00</time>
      </trkpt>
      <trkpt lat="48.29177" lon="2.59696">
        <ele>70</ele>
        <time>2023-07-27T13:39:05.211+00:00</time>
      </trkpt>
      <trkpt lat="48.29171" lon="2.597">
        <ele>70</ele>
        <time>2023-07-27T13:39:09.716+00:00</time>
      </trkpt>
      <trkpt lat="48.29165" lon="2.59701">
        <ele>70</ele>
        <time>2023-07-27T13:39:14.323+00:00</time>
      </trkpt>
      <trkpt lat="48.29159" lon="2.59703">
        <ele>70</ele>
        <time>2023-07-27T13:39:18.331+00:00</time>
      </trkpt>
      <trkpt lat="48.29154" lon="2.59707">
        <ele>70</ele>
        <time>2023-07-27T13:39:22.944+00:00</time>
      </trkpt>
      <trkpt lat="48.29148" lon="2.5971">
        <ele>71</ele>
        <time>2023-07-27T13:39:27.455+00:00</time>
      </trkpt>
      <trkpt lat="48.29143" lon="2.59713">
        <ele>71</ele>
        <time>2023-07-27T13:39:32.067+00:00</time>
      </trkpt>
      <trkpt lat="48.29139" lon="2.59716">
        <ele>71</ele>
        <time>2023-07-27T13:39:36.578+00:00</time>
      </trkpt>
      <trkpt lat="48.29132" lon="2.59717">
        <ele>71</ele>
        <time>2023-07-27T13:39:40.586+00:00</time>
      </trkpt>
      <trkpt lat="48.29126" lon="2.59719">
        <ele>71</ele>
        <time>2023-07-27T13:39:45.093+00:00</time>
      </trkpt>
      <trkpt lat="48.29121" lon="2.59725">
        <ele>75</ele>
        <time>2023-07-27T13:39:49.601+00:00</time>
      </trkpt>
      <trkpt lat="48.29123" lon="2.59729">
        <ele>75</ele>
        <time>2023-07-27T13:39:53.610+00:00</time>
      </trkpt>
      <trkpt lat="48.29125" lon="2.59729">
        <ele>71</ele>
        <time>2023-07-27T13:39:57.628+00:00</time>
      </trkpt>
      <trkpt lat="48.29129" lon="2.59734">
        <ele>71</ele>
        <time>2023-07-27T13:40:02.150+00:00</time>
      </trkpt>
      <trkpt lat="48.29132" lon="2.59741">
        <ele>69</ele>
        <time>2023-07-27T13:40:06.164+00:00</time>
      </trkpt>
      <trkpt lat="48.29138" lon="2.59746">
        <ele>69</ele>
        <time>2023-07-27T13:40:10.675+00:00</time>
      </trkpt>
      <trkpt lat="48.29143" lon="2.59751">
        <ele>69</ele>
        <time>2023-07-27T13:40:14.681+00:00</time>
      </trkpt>
      <trkpt lat="48.29148" lon="2.59755">
        <ele>69</ele>
        <time>2023-07-27T13:40:19.188+00:00</time>
      </trkpt>
      <trkpt lat="48.29153" lon="2.5976">
        <ele>68</ele>
        <time>2023-07-27T13:40:23.693+00:00</time>
      </trkpt>
      <trkpt lat="48.29156" lon="2.59766">
        <ele>68</ele>
        <time>2023-07-27T13:40:27.798+00:00</time>
      </trkpt>
      <trkpt lat="48.2916" lon="2.59775">
        <ele>68</ele>
        <time>2023-07-27T13:40:32.404+00:00</time>
      </trkpt>
      <trkpt lat="48.29165" lon="2.59779">
        <ele>68</ele>
        <time>2023-07-27T13:40:36.908+00:00</time>
      </trkpt>
      <trkpt lat="48.29173" lon="2.59794">
        <ele>68</ele>
        <time>2023-07-27T13:41:08.542+00:00</time>
      </trkpt>
      <trkpt lat="48.29177" lon="2.59797">
        <ele>68</ele>
        <time>2023-07-27T13:41:12.144+00:00</time>
      </trkpt>
      <trkpt lat="48.29183" lon="2.59801">
        <ele>69</ele>
        <time>2023-07-27T13:41:16.687+00:00</time>
      </trkpt>
      <trkpt lat="48.29188" lon="2.59808">
        <ele>69</ele>
        <time>2023-07-27T13:41:21.789+00:00</time>
      </trkpt>
      <trkpt lat="48.2919" lon="2.59815">
        <ele>69</ele>
        <time>2023-07-27T13:41:25.793+00:00</time>
      </trkpt>
      <trkpt lat="48.29194" lon="2.59824">
        <ele>68</ele>
        <time>2023-07-27T13:41:30.796+00:00</time>
      </trkpt>
      <trkpt lat="48.29198" lon="2.59832">
        <ele>68</ele>
        <time>2023-07-27T13:41:35.299+00:00</time>
      </trkpt>
      <trkpt lat="48.29203" lon="2.59837">
        <ele>68</ele>
        <time>2023-07-27T13:41:39.321+00:00</time>
      </trkpt>
      <trkpt lat="48.29209" lon="2.59842">
        <ele>69</ele>
        <time>2023-07-27T13:41:43.924+00:00</time>
      </trkpt>
      <trkpt lat="48.29215" lon="2.59845">
        <ele>69</ele>
        <time>2023-07-27T13:41:48.427+00:00</time>
      </trkpt>
      <trkpt lat="48.2922" lon="2.59852">
        <ele>67</ele>
        <time>2023-07-27T13:41:53.030+00:00</time>
      </trkpt>
      <trkpt lat="48.29225" lon="2.59855">
        <ele>67</ele>
        <time>2023-07-27T13:41:57.534+00:00</time>
      </trkpt>
      <trkpt lat="48.29229" lon="2.59859">
        <ele>67</ele>
        <time>2023-07-27T13:42:01.537+00:00</time>
      </trkpt>
      <trkpt lat="48.29235" lon="2.59863">
        <ele>67</ele>
        <time>2023-07-27T13:42:05.541+00:00</time>
      </trkpt>
      <trkpt lat="48.29239" lon="2.59865">
        <ele>68</ele>
        <time>2023-07-27T13:42:09.543+00:00</time>
      </trkpt>
      <trkpt lat="48.29244" lon="2.59871">
        <ele>68</ele>
        <time>2023-07-27T13:42:14.826+00:00</time>
      </trkpt>
      <trkpt lat="48.29249" lon="2.59875">
        <ele>66</ele>
        <time>2023-07-27T13:42:18.546+00:00</time>
      </trkpt>
      <trkpt lat="48.29253" lon="2.59881">
        <ele>66</ele>
        <time>2023-07-27T13:42:23.048+00:00</time>
      </trkpt>
      <trkpt lat="48.29259" lon="2.59886">
        <ele>66</ele>
        <time>2023-07-27T13:42:27.610+00:00</time>
      </trkpt>
      <trkpt lat="48.29263" lon="2.5989">
        <ele>66</ele>
        <time>2023-07-27T13:42:31.732+00:00</time>
      </trkpt>
      <trkpt lat="48.29267" lon="2.59895">
        <ele>67</ele>
        <time>2023-07-27T13:42:35.873+00:00</time>
      </trkpt>
      <trkpt lat="48.29271" lon="2.59902">
        <ele>67</ele>
        <time>2023-07-27T13:42:40.167+00:00</time>
      </trkpt>
      <trkpt lat="48.29276" lon="2.59907">
        <ele>67</ele>
        <time>2023-07-27T13:42:44.448+00:00</time>
      </trkpt>
      <trkpt lat="48.29281" lon="2.59913">
        <ele>67</ele>
        <time>2023-07-27T13:42:48.476+00:00</time>
      </trkpt>
      <trkpt lat="48.29286" lon="2.59919">
        <ele>67</ele>
        <time>2023-07-27T13:42:53.015+00:00</time>
      </trkpt>
      <trkpt lat="48.2929" lon="2.59924">
        <ele>67</ele>
        <time>2023-07-27T13:42:57.019+00:00</time>
      </trkpt>
      <trkpt lat="48.29295" lon="2.5993">
        <ele>69</ele>
        <time>2023-07-27T13:43:01.707+00:00</time>
      </trkpt>
      <trkpt lat="48.29301" lon="2.59933">
        <ele>69</ele>
        <time>2023-07-27T13:43:05.727+00:00</time>
      </trkpt>
      <trkpt lat="48.29305" lon="2.59938">
        <ele>69</ele>
        <time>2023-07-27T13:43:10.232+00:00</time>
      </trkpt>
      <trkpt lat="48.29309" lon="2.59946">
        <ele>69</ele>
        <time>2023-07-27T13:43:14.737+00:00</time>
      </trkpt>
      <trkpt lat="48.29312" lon="2.59952">
        <ele>69</ele>
        <time>2023-07-27T13:43:18.741+00:00</time>
      </trkpt>
      <trkpt lat="48.29316" lon="2.59959">
        <ele>69</ele>
        <time>2023-07-27T13:43:23.347+00:00</time>
      </trkpt>
      <trkpt lat="48.29321" lon="2.59965">
        <ele>70</ele>
        <time>2023-07-27T13:43:27.352+00:00</time>
      </trkpt>
      <trkpt lat="48.29326" lon="2.59971">
        <ele>70</ele>
        <time>2023-07-27T13:43:32.056+00:00</time>
      </trkpt>
      <trkpt lat="48.29329" lon="2.59978">
        <ele>70</ele>
        <time>2023-07-27T13:43:36.660+00:00</time>
      </trkpt>
      <trkpt lat="48.2933" lon="2.59985">
        <ele>70</ele>
        <time>2023-07-27T13:43:40.682+00:00</time>
      </trkpt>
      <trkpt lat="48.29334" lon="2.59991">
        <ele>70</ele>
        <time>2023-07-27T13:43:45.186+00:00</time>
      </trkpt>
      <trkpt lat="48.29338" lon="2.59999">
        <ele>70</ele>
        <time>2023-07-27T13:43:49.189+00:00</time>
      </trkpt>
      <trkpt lat="48.29343" lon="2.60004">
        <ele>70</ele>
        <time>2023-07-27T13:43:53.792+00:00</time>
      </trkpt>
      <trkpt lat="48.29346" lon="2.60009">
        <ele>70</ele>
        <time>2023-07-27T13:43:57.794+00:00</time>
      </trkpt>
      <trkpt lat="48.29349" lon="2.60014">
        <ele>70</ele>
        <time>2023-07-27T13:44:01.934+00:00</time>
      </trkpt>
      <trkpt lat="48.29352" lon="2.60022">
        <ele>69</ele>
        <time>2023-07-27T13:44:06.577+00:00</time>
      </trkpt>
      <trkpt lat="48.29356" lon="2.60029">
        <ele>69</ele>
        <time>2023-07-27T13:44:10.578+00:00</time>
      </trkpt>
      <trkpt lat="48.29359" lon="2.60038">
        <ele>69</ele>
        <time>2023-07-27T13:44:15.603+00:00</time>
      </trkpt>
      <trkpt lat="48.29362" lon="2.60046">
        <ele>68</ele>
        <time>2023-07-27T13:44:19.704+00:00</time>
      </trkpt>
      <trkpt lat="48.29366" lon="2.60053">
        <ele>68</ele>
        <time>2023-07-27T13:44:23.708+00:00</time>
      </trkpt>
      <trkpt lat="48.2937" lon="2.6006">
        <ele>68</ele>
        <time>2023-07-27T13:44:28.712+00:00</time>
      </trkpt>
      <trkpt lat="48.29374" lon="2.60067">
        <ele>68</ele>
        <time>2023-07-27T13:44:33.913+00:00</time>
      </trkpt>
      <trkpt lat="48.29378" lon="2.60073">
        <ele>69</ele>
        <time>2023-07-27T13:44:38.036+00:00</time>
      </trkpt>
      <trkpt lat="48.29381" lon="2.6008">
        <ele>69</ele>
        <time>2023-07-27T13:44:42.541+00:00</time>
      </trkpt>
      <trkpt lat="48.29386" lon="2.60086">
        <ele>69</ele>
        <time>2023-07-27T13:44:47.643+00:00</time>
      </trkpt>
      <trkpt lat="48.29389" lon="2.60093">
        <ele>69</ele>
        <time>2023-07-27T13:44:51.503+00:00</time>
      </trkpt>
      <trkpt lat="48.29392" lon="2.60099">
        <ele>68</ele>
        <time>2023-07-27T13:44:55.483+00:00</time>
      </trkpt>
      <trkpt lat="48.29394" lon="2.60104">
        <ele>68</ele>
        <time>2023-07-27T13:44:59.953+00:00</time>
      </trkpt>
      <trkpt lat="48.29399" lon="2.60109">
        <ele>68</ele>
        <time>2023-07-27T13:45:04.063+00:00</time>
      </trkpt>
      <trkpt lat="48.29404" lon="2.60114">
        <ele>70</ele>
        <time>2023-07-27T13:45:08.125+00:00</time>
      </trkpt>
      <trkpt lat="48.29406" lon="2.60123">
        <ele>70</ele>
        <time>2023-07-27T13:45:12.628+00:00</time>
      </trkpt>
      <trkpt lat="48.29409" lon="2.60128">
        <ele>69</ele>
        <time>2023-07-27T13:45:16.630+00:00</time>
      </trkpt>
      <trkpt lat="48.29413" lon="2.60136">
        <ele>69</ele>
        <time>2023-07-27T13:45:21.633+00:00</time>
      </trkpt>
      <trkpt lat="48.29416" lon="2.60143">
        <ele>69</ele>
        <time>2023-07-27T13:45:25.854+00:00</time>
      </trkpt>
      <trkpt lat="48.29419" lon="2.60149">
        <ele>69</ele>
        <time>2023-07-27T13:45:30.214+00:00</time>
      </trkpt>
      <trkpt lat="48.29423" lon="2.60176">
        <ele>68</ele>
        <time>2023-07-27T13:46:26.620+00:00</time>
      </trkpt>
      <trkpt lat="48.29426" lon="2.60177">
        <ele>68</ele>
        <time>2023-07-27T13:46:30.636+00:00</time>
      </trkpt>
      <trkpt lat="48.29427" lon="2.60178">
        <ele>68</ele>
        <time>2023-07-27T13:46:35.651+00:00</time>
      </trkpt>
      <trkpt lat="48.29428" lon="2.60178">
        <ele>68</ele>
        <time>2023-07-27T13:46:39.659+00:00</time>
      </trkpt>
      <trkpt lat="48.2943" lon="2.60181">
        <ele>68</ele>
        <time>2023-07-27T13:46:44.666+00:00</time>
      </trkpt>
      <trkpt lat="48.29435" lon="2.60187">
        <ele>69</ele>
        <time>2023-07-27T13:46:48.671+00:00</time>
      </trkpt>
      <trkpt lat="48.29439" lon="2.60193">
        <ele>69</ele>
        <time>2023-07-27T13:46:52.676+00:00</time>
      </trkpt>
      <trkpt lat="48.29443" lon="2.602">
        <ele>69</ele>
        <time>2023-07-27T13:46:57.282+00:00</time>
      </trkpt>
      <trkpt lat="48.29447" lon="2.60206">
        <ele>69</ele>
        <time>2023-07-27T13:47:01.285+00:00</time>
      </trkpt>
      <trkpt lat="48.2945" lon="2.60213">
        <ele>69</ele>
        <time>2023-07-27T13:47:05.789+00:00</time>
      </trkpt>
      <trkpt lat="48.29452" lon="2.60222">
        <ele>69</ele>
        <time>2023-07-27T13:47:10.293+00:00</time>
      </trkpt>
      <trkpt lat="48.29454" lon="2.6023">
        <ele>69</ele>
        <time>2023-07-27T13:47:14.796+00:00</time>
      </trkpt>
      <trkpt lat="48.29457" lon="2.60235">
        <ele>69</ele>
        <time>2023-07-27T13:47:18.799+00:00</time>
      </trkpt>
      <trkpt lat="48.29459" lon="2.60241">
        <ele>69</ele>
        <time>2023-07-27T13:47:23.002+00:00</time>
      </trkpt>
      <trkpt lat="48.29463" lon="2.60246">
        <ele>69</ele>
        <time>2023-07-27T13:47:27.007+00:00</time>
      </trkpt>
      <trkpt lat="48.29468" lon="2.60251">
        <ele>69</ele>
        <time>2023-07-27T13:47:31.511+00:00</time>
      </trkpt>
      <trkpt lat="48.29472" lon="2.6026">
        <ele>69</ele>
        <time>2023-07-27T13:47:36.015+00:00</time>
      </trkpt>
      <trkpt lat="48.29476" lon="2.60267">
        <ele>68</ele>
        <time>2023-07-27T13:47:40.537+00:00</time>
      </trkpt>
      <trkpt lat="48.29479" lon="2.60274">
        <ele>68</ele>
        <time>2023-07-27T13:47:44.538+00:00</time>
      </trkpt>
      <trkpt lat="48.29482" lon="2.60282">
        <ele>68</ele>
        <time>2023-07-27T13:47:49.042+00:00</time>
      </trkpt>
      <trkpt lat="48.29486" lon="2.60288">
        <ele>68</ele>
        <time>2023-07-27T13:47:53.645+00:00</time>
      </trkpt>
      <trkpt lat="48.2949" lon="2.60297">
        <ele>69</ele>
        <time>2023-07-27T13:47:58.649+00:00</time>
      </trkpt>
      <trkpt lat="48.29492" lon="2.60303">
        <ele>69</ele>
        <time>2023-07-27T13:48:02.653+00:00</time>
      </trkpt>
      <trkpt lat="48.29495" lon="2.60312">
        <ele>69</ele>
        <time>2023-07-27T13:48:07.715+00:00</time>
      </trkpt>
      <trkpt lat="48.29499" lon="2.60319">
        <ele>69</ele>
        <time>2023-07-27T13:48:11.737+00:00</time>
      </trkpt>
      <trkpt lat="48.29503" lon="2.60325">
        <ele>69</ele>
        <time>2023-07-27T13:48:16.741+00:00</time>
      </trkpt>
      <trkpt lat="48.29505" lon="2.60332">
        <ele>69</ele>
        <time>2023-07-27T13:48:20.746+00:00</time>
      </trkpt>
      <trkpt lat="48.29509" lon="2.60339">
        <ele>69</ele>
        <time>2023-07-27T13:48:25.749+00:00</time>
      </trkpt>
      <trkpt lat="48.29511" lon="2.60346">
        <ele>69</ele>
        <time>2023-07-27T13:48:29.970+00:00</time>
      </trkpt>
      <trkpt lat="48.29513" lon="2.60354">
        <ele>68</ele>
        <time>2023-07-27T13:48:33.972+00:00</time>
      </trkpt>
      <trkpt lat="48.29515" lon="2.60361">
        <ele>69</ele>
        <time>2023-07-27T13:48:37.974+00:00</time>
      </trkpt>
      <trkpt lat="48.29518" lon="2.60369">
        <ele>69</ele>
        <time>2023-07-27T13:48:42.477+00:00</time>
      </trkpt>
      <trkpt lat="48.29521" lon="2.60376">
        <ele>69</ele>
        <time>2023-07-27T13:48:46.480+00:00</time>
      </trkpt>
      <trkpt lat="48.29524" lon="2.60381">
        <ele>69</ele>
        <time>2023-07-27T13:48:50.701+00:00</time>
      </trkpt>
      <trkpt lat="48.29524" lon="2.60386">
        <ele>69</ele>
        <time>2023-07-27T13:48:54.522+00:00</time>
      </trkpt>
      <trkpt lat="48.29526" lon="2.60395">
        <ele>69</ele>
        <time>2023-07-27T13:48:59.025+00:00</time>
      </trkpt>
      <trkpt lat="48.2953" lon="2.60403">
        <ele>69</ele>
        <time>2023-07-27T13:49:03.528+00:00</time>
      </trkpt>
      <trkpt lat="48.29534" lon="2.6041">
        <ele>69</ele>
        <time>2023-07-27T13:49:07.531+00:00</time>
      </trkpt>
      <trkpt lat="48.29536" lon="2.60419">
        <ele>69</ele>
        <time>2023-07-27T13:49:12.550+00:00</time>
      </trkpt>
      <trkpt lat="48.29539" lon="2.60427">
        <ele>69</ele>
        <time>2023-07-27T13:49:16.157+00:00</time>
      </trkpt>
      <trkpt lat="48.29543" lon="2.60435">
        <ele>69</ele>
        <time>2023-07-27T13:49:20.660+00:00</time>
      </trkpt>
      <trkpt lat="48.29545" lon="2.60443">
        <ele>69</ele>
        <time>2023-07-27T13:49:24.721+00:00</time>
      </trkpt>
      <trkpt lat="48.29548" lon="2.60451">
        <ele>69</ele>
        <time>2023-07-27T13:49:28.942+00:00</time>
      </trkpt>
      <trkpt lat="48.2955" lon="2.60458">
        <ele>69</ele>
        <time>2023-07-27T13:49:33.126+00:00</time>
      </trkpt>
      <trkpt lat="48.29553" lon="2.60464">
        <ele>69</ele>
        <time>2023-07-27T13:49:37.669+00:00</time>
      </trkpt>
      <trkpt lat="48.29555" lon="2.60469">
        <ele>69</ele>
        <time>2023-07-27T13:49:41.687+00:00</time>
      </trkpt>
      <trkpt lat="48.29559" lon="2.60477">
        <ele>69</ele>
        <time>2023-07-27T13:49:46.209+00:00</time>
      </trkpt>
      <trkpt lat="48.29561" lon="2.60486">
        <ele>69</ele>
        <time>2023-07-27T13:49:50.792+00:00</time>
      </trkpt>
      <trkpt lat="48.29564" lon="2.60494">
        <ele>68</ele>
        <time>2023-07-27T13:49:55.593+00:00</time>
      </trkpt>
      <trkpt lat="48.29567" lon="2.60498">
        <ele>68</ele>
        <time>2023-07-27T13:49:59.253+00:00</time>
      </trkpt>
      <trkpt lat="48.2957" lon="2.60504">
        <ele>69</ele>
        <time>2023-07-27T13:50:03.394+00:00</time>
      </trkpt>
      <trkpt lat="48.29572" lon="2.6051">
        <ele>69</ele>
        <time>2023-07-27T13:50:07.714+00:00</time>
      </trkpt>
      <trkpt lat="48.29576" lon="2.60517">
        <ele>68</ele>
        <time>2023-07-27T13:50:12.217+00:00</time>
      </trkpt>
      <trkpt lat="48.29579" lon="2.60525">
        <ele>68</ele>
        <time>2023-07-27T13:50:16.798+00:00</time>
      </trkpt>
      <trkpt lat="48.29581" lon="2.60532">
        <ele>68</ele>
        <time>2023-07-27T13:50:20.880+00:00</time>
      </trkpt>
      <trkpt lat="48.29584" lon="2.6054">
        <ele>68</ele>
        <time>2023-07-27T13:50:25.042+00:00</time>
      </trkpt>
      <trkpt lat="48.29587" lon="2.60548">
        <ele>67</ele>
        <time>2023-07-27T13:50:29.183+00:00</time>
      </trkpt>
      <trkpt lat="48.2959" lon="2.60556">
        <ele>67</ele>
        <time>2023-07-27T13:50:33.523+00:00</time>
      </trkpt>
      <trkpt lat="48.29592" lon="2.60564">
        <ele>67</ele>
        <time>2023-07-27T13:50:37.522+00:00</time>
      </trkpt>
      <trkpt lat="48.29594" lon="2.60568">
        <ele>67</ele>
        <time>2023-07-27T13:50:41.842+00:00</time>
      </trkpt>
      <trkpt lat="48.29594" lon="2.60569">
        <ele>67</ele>
        <time>2023-07-27T13:50:46.584+00:00</time>
      </trkpt>
      <trkpt lat="48.29603" lon="2.6056">
        <ele>67</ele>
        <time>2023-07-27T13:51:12.587+00:00</time>
      </trkpt>
      <trkpt lat="48.29603" lon="2.60561">
        <ele>67</ele>
        <time>2023-07-27T13:51:16.706+00:00</time>
      </trkpt>
      <trkpt lat="48.29604" lon="2.60561">
        <ele>67</ele>
        <time>2023-07-27T13:51:21.205+00:00</time>
      </trkpt>
      <trkpt lat="48.29604" lon="2.60561">
        <ele>67</ele>
        <time>2023-07-27T13:51:25.585+00:00</time>
      </trkpt>
      <trkpt lat="48.29604" lon="2.60561">
        <ele>67</ele>
        <time>2023-07-27T13:51:30.105+00:00</time>
      </trkpt>
      <trkpt lat="48.29602" lon="2.60562">
        <ele>67</ele>
        <time>2023-07-27T13:52:28.966+00:00</time>
      </trkpt>
      <trkpt lat="48.296" lon="2.60563">
        <ele>67</ele>
        <time>2023-07-27T13:52:33.550+00:00</time>
      </trkpt>
      <trkpt lat="48.29597" lon="2.60566">
        <ele>67</ele>
        <time>2023-07-27T13:52:38.107+00:00</time>
      </trkpt>
      <trkpt lat="48.29598" lon="2.60577">
        <ele>67</ele>
        <time>2023-07-27T13:52:42.808+00:00</time>
      </trkpt>
      <trkpt lat="48.29601" lon="2.60582">
        <ele>67</ele>
        <time>2023-07-27T13:52:46.761+00:00</time>
      </trkpt>
      <trkpt lat="48.29604" lon="2.60588">
        <ele>67</ele>
        <time>2023-07-27T13:52:51.317+00:00</time>
      </trkpt>
      <trkpt lat="48.29606" lon="2.60593">
        <ele>67</ele>
        <time>2023-07-27T13:52:55.366+00:00</time>
      </trkpt>
      <trkpt lat="48.29609" lon="2.60599">
        <ele>66</ele>
        <time>2023-07-27T13:52:59.310+00:00</time>
      </trkpt>
      <trkpt lat="48.29612" lon="2.60606">
        <ele>66</ele>
        <time>2023-07-27T13:53:03.359+00:00</time>
      </trkpt>
      <trkpt lat="48.29615" lon="2.60613">
        <ele>66</ele>
        <time>2023-07-27T13:53:07.949+00:00</time>
      </trkpt>
      <trkpt lat="48.29617" lon="2.6062">
        <ele>66</ele>
        <time>2023-07-27T13:53:11.901+00:00</time>
      </trkpt>
      <trkpt lat="48.29619" lon="2.60629">
        <ele>65</ele>
        <time>2023-07-27T13:53:16.569+00:00</time>
      </trkpt>
      <trkpt lat="48.29623" lon="2.60635">
        <ele>65</ele>
        <time>2023-07-27T13:53:20.533+00:00</time>
      </trkpt>
      <trkpt lat="48.29627" lon="2.6064">
        <ele>66</ele>
        <time>2023-07-27T13:53:25.345+00:00</time>
      </trkpt>
      <trkpt lat="48.2963" lon="2.60646">
        <ele>66</ele>
        <time>2023-07-27T13:53:29.455+00:00</time>
      </trkpt>
      <trkpt lat="48.29633" lon="2.60651">
        <ele>66</ele>
        <time>2023-07-27T13:53:33.497+00:00</time>
      </trkpt>
      <trkpt lat="48.29636" lon="2.60657">
        <ele>65</ele>
        <time>2023-07-27T13:53:37.999+00:00</time>
      </trkpt>
      <trkpt lat="48.29639" lon="2.60664">
        <ele>65</ele>
        <time>2023-07-27T13:53:42.620+00:00</time>
      </trkpt>
      <trkpt lat="48.29642" lon="2.60671">
        <ele>65</ele>
        <time>2023-07-27T13:53:47.080+00:00</time>
      </trkpt>
      <trkpt lat="48.29645" lon="2.60678">
        <ele>65</ele>
        <time>2023-07-27T13:53:51.059+00:00</time>
      </trkpt>
      <trkpt lat="48.2965" lon="2.60685">
        <ele>64</ele>
        <time>2023-07-27T13:53:55.879+00:00</time>
      </trkpt>
      <trkpt lat="48.29652" lon="2.60693">
        <ele>64</ele>
        <time>2023-07-27T13:54:00.518+00:00</time>
      </trkpt>
      <trkpt lat="48.29655" lon="2.60698">
        <ele>65</ele>
        <time>2023-07-27T13:54:04.708+00:00</time>
      </trkpt>
      <trkpt lat="48.29658" lon="2.60702">
        <ele>65</ele>
        <time>2023-07-27T13:54:08.655+00:00</time>
      </trkpt>
      <trkpt lat="48.29661" lon="2.60709">
        <ele>64</ele>
        <time>2023-07-27T13:54:13.733+00:00</time>
      </trkpt>
      <trkpt lat="48.29661" lon="2.60716">
        <ele>64</ele>
        <time>2023-07-27T13:54:17.872+00:00</time>
      </trkpt>
      <trkpt lat="48.29662" lon="2.60723">
        <ele>64</ele>
        <time>2023-07-27T13:54:21.930+00:00</time>
      </trkpt>
      <trkpt lat="48.29667" lon="2.60731">
        <ele>64</ele>
        <time>2023-07-27T13:54:26.348+00:00</time>
      </trkpt>
      <trkpt lat="48.29671" lon="2.60738">
        <ele>64</ele>
        <time>2023-07-27T13:54:30.546+00:00</time>
      </trkpt>
      <trkpt lat="48.29674" lon="2.60745">
        <ele>64</ele>
        <time>2023-07-27T13:54:35.145+00:00</time>
      </trkpt>
      <trkpt lat="48.29677" lon="2.60751">
        <ele>64</ele>
        <time>2023-07-27T13:54:39.465+00:00</time>
      </trkpt>
      <trkpt lat="48.2968" lon="2.60757">
        <ele>64</ele>
        <time>2023-07-27T13:54:44.263+00:00</time>
      </trkpt>
      <trkpt lat="48.29683" lon="2.60763">
        <ele>66</ele>
        <time>2023-07-27T13:54:48.900+00:00</time>
      </trkpt>
      <trkpt lat="48.29687" lon="2.60769">
        <ele>66</ele>
        <time>2023-07-27T13:54:53.097+00:00</time>
      </trkpt>
      <trkpt lat="48.2969" lon="2.60776">
        <ele>66</ele>
        <time>2023-07-27T13:54:57.175+00:00</time>
      </trkpt>
      <trkpt lat="48.29692" lon="2.60782">
        <ele>66</ele>
        <time>2023-07-27T13:55:01.234+00:00</time>
      </trkpt>
      <trkpt lat="48.29695" lon="2.60788">
        <ele>66</ele>
        <time>2023-07-27T13:55:05.312+00:00</time>
      </trkpt>
      <trkpt lat="48.29698" lon="2.60795">
        <ele>66</ele>
        <time>2023-07-27T13:55:09.871+00:00</time>
      </trkpt>
      <trkpt lat="48.29701" lon="2.60801">
        <ele>66</ele>
        <time>2023-07-27T13:55:14.842+00:00</time>
      </trkpt>
      <trkpt lat="48.29704" lon="2.60807">
        <ele>66</ele>
        <time>2023-07-27T13:55:18.551+00:00</time>
      </trkpt>
      <trkpt lat="48.29707" lon="2.60813">
        <ele>66</ele>
        <time>2023-07-27T13:55:23.029+00:00</time>
      </trkpt>
      <trkpt lat="48.29709" lon="2.60817">
        <ele>68</ele>
        <time>2023-07-27T13:55:27.930+00:00</time>
      </trkpt>
      <trkpt lat="48.29709" lon="2.60817">
        <ele>68</ele>
        <time>2023-07-27T13:55:31.691+00:00</time>
      </trkpt>
      <trkpt lat="48.2971" lon="2.60821">
        <ele>67</ele>
        <time>2023-07-27T13:55:36.110+00:00</time>
      </trkpt>
      <trkpt lat="48.29712" lon="2.6083">
        <ele>67</ele>
        <time>2023-07-27T13:55:40.851+00:00</time>
      </trkpt>
      <trkpt lat="48.29717" lon="2.60839">
        <ele>67</ele>
        <time>2023-07-27T13:55:45.343+00:00</time>
      </trkpt>
      <trkpt lat="48.29721" lon="2.60845">
        <ele>67</ele>
        <time>2023-07-27T13:55:49.291+00:00</time>
      </trkpt>
      <trkpt lat="48.29725" lon="2.60853">
        <ele>66</ele>
        <time>2023-07-27T13:55:53.953+00:00</time>
      </trkpt>
      <trkpt lat="48.2973" lon="2.6086">
        <ele>66</ele>
        <time>2023-07-27T13:55:58.309+00:00</time>
      </trkpt>
      <trkpt lat="48.29731" lon="2.60867">
        <ele>66</ele>
        <time>2023-07-27T13:56:02.268+00:00</time>
      </trkpt>
      <trkpt lat="48.29734" lon="2.60872">
        <ele>66</ele>
        <time>2023-07-27T13:56:07.066+00:00</time>
      </trkpt>
      <trkpt lat="48.29737" lon="2.60877">
        <ele>67</ele>
        <time>2023-07-27T13:56:11.664+00:00</time>
      </trkpt>
      <trkpt lat="48.29739" lon="2.60884">
        <ele>67</ele>
        <time>2023-07-27T13:56:15.703+00:00</time>
      </trkpt>
      <trkpt lat="48.29741" lon="2.6089">
        <ele>67</ele>
        <time>2023-07-27T13:56:43.937+00:00</time>
      </trkpt>
      <trkpt lat="48.29741" lon="2.6089">
        <ele>67</ele>
        <time>2023-07-27T13:56:47.945+00:00</time>
      </trkpt>
      <trkpt lat="48.29742" lon="2.60893">
        <ele>67</ele>
        <time>2023-07-27T13:56:52.858+00:00</time>
      </trkpt>
      <trkpt lat="48.29743" lon="2.60896">
        <ele>67</ele>
        <time>2023-07-27T13:56:57.039+00:00</time>
      </trkpt>
      <trkpt lat="48.29747" lon="2.60902">
        <ele>67</ele>
        <time>2023-07-27T13:57:01.060+00:00</time>
      </trkpt>
      <trkpt lat="48.29751" lon="2.60908">
        <ele>67</ele>
        <time>2023-07-27T13:57:05.241+00:00</time>
      </trkpt>
      <trkpt lat="48.29756" lon="2.60918">
        <ele>67</ele>
        <time>2023-07-27T13:57:10.066+00:00</time>
      </trkpt>
      <trkpt lat="48.2976" lon="2.60924">
        <ele>67</ele>
        <time>2023-07-27T13:57:14.520+00:00</time>
      </trkpt>
      <trkpt lat="48.29763" lon="2.60931">
        <ele>67</ele>
        <time>2023-07-27T13:57:18.952+00:00</time>
      </trkpt>
      <trkpt lat="48.29766" lon="2.6094">
        <ele>70</ele>
        <time>2023-07-27T13:57:23.369+00:00</time>
      </trkpt>
      <trkpt lat="48.29768" lon="2.60947">
        <ele>70</ele>
        <time>2023-07-27T13:57:27.359+00:00</time>
      </trkpt>
      <trkpt lat="48.29771" lon="2.60954">
        <ele>70</ele>
        <time>2023-07-27T13:57:32.172+00:00</time>
      </trkpt>
      <trkpt lat="48.29774" lon="2.60962">
        <ele>68</ele>
        <time>2023-07-27T13:57:36.810+00:00</time>
      </trkpt>
      <trkpt lat="48.29777" lon="2.60968">
        <ele>68</ele>
        <time>2023-07-27T13:57:40.888+00:00</time>
      </trkpt>
      <trkpt lat="48.29779" lon="2.60976">
        <ele>68</ele>
        <time>2023-07-27T13:57:45.487+00:00</time>
      </trkpt>
      <trkpt lat="48.2978" lon="2.60984">
        <ele>68</ele>
        <time>2023-07-27T13:57:50.085+00:00</time>
      </trkpt>
      <trkpt lat="48.29784" lon="2.60991">
        <ele>66</ele>
        <time>2023-07-27T13:57:54.123+00:00</time>
      </trkpt>
      <trkpt lat="48.29787" lon="2.60998">
        <ele>66</ele>
        <time>2023-07-27T13:57:58.681+00:00</time>
      </trkpt>
      <trkpt lat="48.29792" lon="2.61004">
        <ele>67</ele>
        <time>2023-07-27T13:58:03.239+00:00</time>
      </trkpt>
      <trkpt lat="48.29794" lon="2.61012">
        <ele>67</ele>
        <time>2023-07-27T13:58:07.612+00:00</time>
      </trkpt>
      <trkpt lat="48.29798" lon="2.6102">
        <ele>66</ele>
        <time>2023-07-27T13:58:11.971+00:00</time>
      </trkpt>
      <trkpt lat="48.29802" lon="2.61026">
        <ele>66</ele>
        <time>2023-07-27T13:58:16.445+00:00</time>
      </trkpt>
      <trkpt lat="48.29806" lon="2.61033">
        <ele>66</ele>
        <time>2023-07-27T13:58:20.925+00:00</time>
      </trkpt>
      <trkpt lat="48.29809" lon="2.6104">
        <ele>66</ele>
        <time>2023-07-27T13:58:25.351+00:00</time>
      </trkpt>
      <trkpt lat="48.29812" lon="2.61046">
        <ele>67</ele>
        <time>2023-07-27T13:58:29.810+00:00</time>
      </trkpt>
      <trkpt lat="48.29816" lon="2.61053">
        <ele>67</ele>
        <time>2023-07-27T13:58:34.287+00:00</time>
      </trkpt>
      <trkpt lat="48.29819" lon="2.61061">
        <ele>67</ele>
        <time>2023-07-27T13:58:38.705+00:00</time>
      </trkpt>
      <trkpt lat="48.29822" lon="2.61069">
        <ele>69</ele>
        <time>2023-07-27T13:58:42.965+00:00</time>
      </trkpt>
      <trkpt lat="48.29824" lon="2.61076">
        <ele>69</ele>
        <time>2023-07-27T13:58:47.137+00:00</time>
      </trkpt>
      <trkpt lat="48.29827" lon="2.61085">
        <ele>69</ele>
        <time>2023-07-27T13:58:51.933+00:00</time>
      </trkpt>
      <trkpt lat="48.29828" lon="2.61093">
        <ele>69</ele>
        <time>2023-07-27T13:58:56.449+00:00</time>
      </trkpt>
      <trkpt lat="48.29832" lon="2.61098">
        <ele>68</ele>
        <time>2023-07-27T13:59:00.467+00:00</time>
      </trkpt>
      <trkpt lat="48.29836" lon="2.61106">
        <ele>68</ele>
        <time>2023-07-27T13:59:05.204+00:00</time>
      </trkpt>
      <trkpt lat="48.29839" lon="2.61114">
        <ele>68</ele>
        <time>2023-07-27T13:59:09.682+00:00</time>
      </trkpt>
      <trkpt lat="48.29842" lon="2.61121">
        <ele>68</ele>
        <time>2023-07-27T13:59:13.721+00:00</time>
      </trkpt>
      <trkpt lat="48.29843" lon="2.61129">
        <ele>67</ele>
        <time>2023-07-27T13:59:17.799+00:00</time>
      </trkpt>
      <trkpt lat="48.29846" lon="2.61135">
        <ele>67</ele>
        <time>2023-07-27T13:59:22.297+00:00</time>
      </trkpt>
      <trkpt lat="48.2985" lon="2.61141">
        <ele>70</ele>
        <time>2023-07-27T13:59:26.716+00:00</time>
      </trkpt>
      <trkpt lat="48.29853" lon="2.61149">
        <ele>70</ele>
        <time>2023-07-27T13:59:31.255+00:00</time>
      </trkpt>
      <trkpt lat="48.29856" lon="2.61159">
        <ele>71</ele>
        <time>2023-07-27T13:59:35.714+00:00</time>
      </trkpt>
      <trkpt lat="48.29858" lon="2.61167">
        <ele>71</ele>
        <time>2023-07-27T13:59:40.054+00:00</time>
      </trkpt>
      <trkpt lat="48.2986" lon="2.61175">
        <ele>71</ele>
        <time>2023-07-27T13:59:44.675+00:00</time>
      </trkpt>
      <trkpt lat="48.29864" lon="2.61182">
        <ele>71</ele>
        <time>2023-07-27T13:59:49.346+00:00</time>
      </trkpt>
      <trkpt lat="48.29867" lon="2.61187">
        <ele>71</ele>
        <time>2023-07-27T13:59:53.806+00:00</time>
      </trkpt>
      <trkpt lat="48.29869" lon="2.61194">
        <ele>71</ele>
        <time>2023-07-27T13:59:58.193+00:00</time>
      </trkpt>
      <trkpt lat="48.29872" lon="2.61201">
        <ele>71</ele>
        <time>2023-07-27T14:00:02.633+00:00</time>
      </trkpt>
      <trkpt lat="48.29874" lon="2.61209">
        <ele>71</ele>
        <time>2023-07-27T14:00:07.044+00:00</time>
      </trkpt>
      <trkpt lat="48.29876" lon="2.61218">
        <ele>74</ele>
        <time>2023-07-27T14:00:11.452+00:00</time>
      </trkpt>
      <trkpt lat="48.2988" lon="2.61226">
        <ele>74</ele>
        <time>2023-07-27T14:00:15.713+00:00</time>
      </trkpt>
      <trkpt lat="48.29883" lon="2.61233">
        <ele>74</ele>
        <time>2023-07-27T14:00:20.094+00:00</time>
      </trkpt>
      <trkpt lat="48.29887" lon="2.61241">
        <ele>74</ele>
        <time>2023-07-27T14:00:24.713+00:00</time>
      </trkpt>
      <trkpt lat="48.2989" lon="2.6125">
        <ele>74</ele>
        <time>2023-07-27T14:00:29.313+00:00</time>
      </trkpt>
      <trkpt lat="48.29892" lon="2.61258">
        <ele>74</ele>
        <time>2023-07-27T14:00:33.792+00:00</time>
      </trkpt>
      <trkpt lat="48.29895" lon="2.61264">
        <ele>74</ele>
        <time>2023-07-27T14:00:37.772+00:00</time>
      </trkpt>
      <trkpt lat="48.299" lon="2.61272">
        <ele>74</ele>
        <time>2023-07-27T14:00:42.433+00:00</time>
      </trkpt>
      <trkpt lat="48.29903" lon="2.61276">
        <ele>74</ele>
        <time>2023-07-27T14:00:46.194+00:00</time>
      </trkpt>
      <trkpt lat="48.29907" lon="2.61283">
        <ele>74</ele>
        <time>2023-07-27T14:00:51.134+00:00</time>
      </trkpt>
      <trkpt lat="48.2991" lon="2.61287">
        <ele>74</ele>
        <time>2023-07-27T14:00:55.173+00:00</time>
      </trkpt>
      <trkpt lat="48.29912" lon="2.61295">
        <ele>74</ele>
        <time>2023-07-27T14:00:59.723+00:00</time>
      </trkpt>
      <trkpt lat="48.29915" lon="2.61303">
        <ele>74</ele>
        <time>2023-07-27T14:01:04.091+00:00</time>
      </trkpt>
      <trkpt lat="48.29919" lon="2.61311">
        <ele>74</ele>
        <time>2023-07-27T14:01:08.272+00:00</time>
      </trkpt>
      <trkpt lat="48.29922" lon="2.61319">
        <ele>74</ele>
        <time>2023-07-27T14:01:12.651+00:00</time>
      </trkpt>
      <trkpt lat="48.29926" lon="2.61325">
        <ele>74</ele>
        <time>2023-07-27T14:01:16.690+00:00</time>
      </trkpt>
      <trkpt lat="48.2993" lon="2.61332">
        <ele>74</ele>
        <time>2023-07-27T14:01:21.749+00:00</time>
      </trkpt>
      <trkpt lat="48.29933" lon="2.61339">
        <ele>74</ele>
        <time>2023-07-27T14:01:26.169+00:00</time>
      </trkpt>
      <trkpt lat="48.29932" lon="2.61345">
        <ele>74</ele>
        <time>2023-07-27T14:01:34.944+00:00</time>
      </trkpt>
      <trkpt lat="48.29933" lon="2.61346">
        <ele>74</ele>
        <time>2023-07-27T14:01:38.908+00:00</time>
      </trkpt>
      <trkpt lat="48.29935" lon="2.6134">
        <ele>74</ele>
        <time>2023-07-27T14:01:43.470+00:00</time>
      </trkpt>
      <trkpt lat="48.2994" lon="2.61335">
        <ele>74</ele>
        <time>2023-07-27T14:01:47.465+00:00</time>
      </trkpt>
      <trkpt lat="48.29944" lon="2.61331">
        <ele>74</ele>
        <time>2023-07-27T14:01:51.503+00:00</time>
      </trkpt>
      <trkpt lat="48.29945" lon="2.61326">
        <ele>74</ele>
        <time>2023-07-27T14:01:56.062+00:00</time>
      </trkpt>
      <trkpt lat="48.29948" lon="2.61319">
        <ele>75</ele>
        <time>2023-07-27T14:02:00.521+00:00</time>
      </trkpt>
      <trkpt lat="48.29951" lon="2.61311">
        <ele>75</ele>
        <time>2023-07-27T14:02:04.964+00:00</time>
      </trkpt>
      <trkpt lat="48.29953" lon="2.61304">
        <ele>75</ele>
        <time>2023-07-27T14:02:08.839+00:00</time>
      </trkpt>
      <trkpt lat="48.29957" lon="2.61298">
        <ele>75</ele>
        <time>2023-07-27T14:02:13.500+00:00</time>
      </trkpt>
      <trkpt lat="48.2996" lon="2.6129">
        <ele>74</ele>
        <time>2023-07-27T14:02:18.322+00:00</time>
      </trkpt>
      <trkpt lat="48.29963" lon="2.61283">
        <ele>74</ele>
        <time>2023-07-27T14:02:22.660+00:00</time>
      </trkpt>
      <trkpt lat="48.29967" lon="2.61276">
        <ele>74</ele>
        <time>2023-07-27T14:02:27.139+00:00</time>
      </trkpt>
      <trkpt lat="48.29971" lon="2.61267">
        <ele>74</ele>
        <time>2023-07-27T14:02:31.757+00:00</time>
      </trkpt>
      <trkpt lat="48.29974" lon="2.61259">
        <ele>73</ele>
        <time>2023-07-27T14:02:36.097+00:00</time>
      </trkpt>
      <trkpt lat="48.29977" lon="2.6125">
        <ele>73</ele>
        <time>2023-07-27T14:02:40.715+00:00</time>
      </trkpt>
      <trkpt lat="48.29979" lon="2.61243">
        <ele>73</ele>
        <time>2023-07-27T14:02:44.613+00:00</time>
      </trkpt>
      <trkpt lat="48.29981" lon="2.61234">
        <ele>72</ele>
        <time>2023-07-27T14:02:49.090+00:00</time>
      </trkpt>
      <trkpt lat="48.29984" lon="2.61224">
        <ele>72</ele>
        <time>2023-07-27T14:02:53.886+00:00</time>
      </trkpt>
      <trkpt lat="48.29986" lon="2.61216">
        <ele>73</ele>
        <time>2023-07-27T14:02:58.323+00:00</time>
      </trkpt>
      <trkpt lat="48.29989" lon="2.61207">
        <ele>72</ele>
        <time>2023-07-27T14:03:02.780+00:00</time>
      </trkpt>
      <trkpt lat="48.29991" lon="2.61201">
        <ele>72</ele>
        <time>2023-07-27T14:03:07.834+00:00</time>
      </trkpt>
      <trkpt lat="48.29994" lon="2.61195">
        <ele>72</ele>
        <time>2023-07-27T14:03:11.795+00:00</time>
      </trkpt>
      <trkpt lat="48.29997" lon="2.61187">
        <ele>72</ele>
        <time>2023-07-27T14:03:16.367+00:00</time>
      </trkpt>
      <trkpt lat="48.30001" lon="2.6118">
        <ele>73</ele>
        <time>2023-07-27T14:03:20.732+00:00</time>
      </trkpt>
      <trkpt lat="48.30005" lon="2.61172">
        <ele>73</ele>
        <time>2023-07-27T14:03:25.282+00:00</time>
      </trkpt>
      <trkpt lat="48.30006" lon="2.61164">
        <ele>73</ele>
        <time>2023-07-27T14:03:29.872+00:00</time>
      </trkpt>
      <trkpt lat="48.30006" lon="2.61155">
        <ele>73</ele>
        <time>2023-07-27T14:03:34.206+00:00</time>
      </trkpt>
      <trkpt lat="48.30007" lon="2.61147">
        <ele>74</ele>
        <time>2023-07-27T14:03:38.725+00:00</time>
      </trkpt>
      <trkpt lat="48.30009" lon="2.61139">
        <ele>74</ele>
        <time>2023-07-27T14:03:42.946+00:00</time>
      </trkpt>
      <trkpt lat="48.3001" lon="2.61131">
        <ele>74</ele>
        <time>2023-07-27T14:03:47.687+00:00</time>
      </trkpt>
      <trkpt lat="48.30011" lon="2.61125">
        <ele>74</ele>
        <time>2023-07-27T14:03:51.626+00:00</time>
      </trkpt>
      <trkpt lat="48.30011" lon="2.61119">
        <ele>75</ele>
        <time>2023-07-27T14:03:55.868+00:00</time>
      </trkpt>
      <trkpt lat="48.30013" lon="2.61111">
        <ele>75</ele>
        <time>2023-07-27T14:04:00.649+00:00</time>
      </trkpt>
      <trkpt lat="48.30017" lon="2.61105">
        <ele>77</ele>
        <time>2023-07-27T14:04:04.651+00:00</time>
      </trkpt>
      <trkpt lat="48.30018" lon="2.61097">
        <ele>78</ele>
        <time>2023-07-27T14:04:09.359+00:00</time>
      </trkpt>
      <trkpt lat="48.3002" lon="2.61089">
        <ele>78</ele>
        <time>2023-07-27T14:04:13.573+00:00</time>
      </trkpt>
      <trkpt lat="48.30021" lon="2.61081">
        <ele>78</ele>
        <time>2023-07-27T14:04:18.196+00:00</time>
      </trkpt>
      <trkpt lat="48.30022" lon="2.61074">
        <ele>78</ele>
        <time>2023-07-27T14:04:22.359+00:00</time>
      </trkpt>
      <trkpt lat="48.30024" lon="2.61067">
        <ele>77</ele>
        <time>2023-07-27T14:04:26.403+00:00</time>
      </trkpt>
      <trkpt lat="48.30026" lon="2.61061">
        <ele>77</ele>
        <time>2023-07-27T14:04:30.925+00:00</time>
      </trkpt>
      <trkpt lat="48.30027" lon="2.61053">
        <ele>77</ele>
        <time>2023-07-27T14:04:35.067+00:00</time>
      </trkpt>
      <trkpt lat="48.30028" lon="2.61043">
        <ele>77</ele>
        <time>2023-07-27T14:04:39.570+00:00</time>
      </trkpt>
      <trkpt lat="48.30029" lon="2.61033">
        <ele>76</ele>
        <time>2023-07-27T14:04:43.573+00:00</time>
      </trkpt>
      <trkpt lat="48.30032" lon="2.61022">
        <ele>76</ele>
        <time>2023-07-27T14:04:48.334+00:00</time>
      </trkpt>
      <trkpt lat="48.30034" lon="2.6101">
        <ele>74</ele>
        <time>2023-07-27T14:04:52.435+00:00</time>
      </trkpt>
      <trkpt lat="48.30035" lon="2.61001">
        <ele>74</ele>
        <time>2023-07-27T14:04:57.037+00:00</time>
      </trkpt>
      <trkpt lat="48.30036" lon="2.60994">
        <ele>74</ele>
        <time>2023-07-27T14:05:01.678+00:00</time>
      </trkpt>
      <trkpt lat="48.30037" lon="2.60984">
        <ele>71</ele>
        <time>2023-07-27T14:05:05.898+00:00</time>
      </trkpt>
      <trkpt lat="48.30039" lon="2.60976">
        <ele>71</ele>
        <time>2023-07-27T14:05:10.001+00:00</time>
      </trkpt>
      <trkpt lat="48.3004" lon="2.60969">
        <ele>71</ele>
        <time>2023-07-27T14:05:14.062+00:00</time>
      </trkpt>
      <trkpt lat="48.3004" lon="2.60961">
        <ele>71</ele>
        <time>2023-07-27T14:05:18.923+00:00</time>
      </trkpt>
      <trkpt lat="48.30042" lon="2.60954">
        <ele>70</ele>
        <time>2023-07-27T14:05:22.925+00:00</time>
      </trkpt>
      <trkpt lat="48.30044" lon="2.60946">
        <ele>69</ele>
        <time>2023-07-27T14:05:27.127+00:00</time>
      </trkpt>
      <trkpt lat="48.30046" lon="2.60938">
        <ele>69</ele>
        <time>2023-07-27T14:05:31.689+00:00</time>
      </trkpt>
      <trkpt lat="48.30048" lon="2.60932">
        <ele>69</ele>
        <time>2023-07-27T14:05:36.310+00:00</time>
      </trkpt>
      <trkpt lat="48.30049" lon="2.60923">
        <ele>69</ele>
        <time>2023-07-27T14:05:41.032+00:00</time>
      </trkpt>
      <trkpt lat="48.3005" lon="2.60914">
        <ele>69</ele>
        <time>2023-07-27T14:05:45.312+00:00</time>
      </trkpt>
      <trkpt lat="48.30051" lon="2.60905">
        <ele>69</ele>
        <time>2023-07-27T14:05:49.314+00:00</time>
      </trkpt>
      <trkpt lat="48.30053" lon="2.60895">
        <ele>68</ele>
        <time>2023-07-27T14:05:53.831+00:00</time>
      </trkpt>
      <trkpt lat="48.30054" lon="2.60887">
        <ele>68</ele>
        <time>2023-07-27T14:05:57.418+00:00</time>
      </trkpt>
      <trkpt lat="48.30056" lon="2.60881">
        <ele>68</ele>
        <time>2023-07-27T14:06:01.359+00:00</time>
      </trkpt>
      <trkpt lat="48.30057" lon="2.60876">
        <ele>68</ele>
        <time>2023-07-27T14:06:05.479+00:00</time>
      </trkpt>
      <trkpt lat="48.30057" lon="2.6087">
        <ele>69</ele>
        <time>2023-07-27T14:06:10.520+00:00</time>
      </trkpt>
      <trkpt lat="48.30057" lon="2.60864">
        <ele>69</ele>
        <time>2023-07-27T14:06:14.662+00:00</time>
      </trkpt>
      <trkpt lat="48.30056" lon="2.60858">
        <ele>69</ele>
        <time>2023-07-27T14:06:19.165+00:00</time>
      </trkpt>
      <trkpt lat="48.30058" lon="2.60852">
        <ele>69</ele>
        <time>2023-07-27T14:06:23.669+00:00</time>
      </trkpt>
      <trkpt lat="48.3006" lon="2.60846">
        <ele>69</ele>
        <time>2023-07-27T14:06:27.673+00:00</time>
      </trkpt>
      <trkpt lat="48.30062" lon="2.60841">
        <ele>69</ele>
        <time>2023-07-27T14:06:32.175+00:00</time>
      </trkpt>
      <trkpt lat="48.30065" lon="2.60833">
        <ele>69</ele>
        <time>2023-07-27T14:06:36.378+00:00</time>
      </trkpt>
      <trkpt lat="48.30068" lon="2.60824">
        <ele>69</ele>
        <time>2023-07-27T14:06:40.481+00:00</time>
      </trkpt>
      <trkpt lat="48.3007" lon="2.60815">
        <ele>68</ele>
        <time>2023-07-27T14:06:44.485+00:00</time>
      </trkpt>
      <trkpt lat="48.30071" lon="2.60807">
        <ele>68</ele>
        <time>2023-07-27T14:06:48.989+00:00</time>
      </trkpt>
      <trkpt lat="48.30073" lon="2.608">
        <ele>68</ele>
        <time>2023-07-27T14:06:52.992+00:00</time>
      </trkpt>
      <trkpt lat="48.30075" lon="2.60792">
        <ele>68</ele>
        <time>2023-07-27T14:06:57.597+00:00</time>
      </trkpt>
      <trkpt lat="48.30077" lon="2.60785">
        <ele>70</ele>
        <time>2023-07-27T14:07:01.602+00:00</time>
      </trkpt>
      <trkpt lat="48.3008" lon="2.60776">
        <ele>70</ele>
        <time>2023-07-27T14:07:06.107+00:00</time>
      </trkpt>
      <trkpt lat="48.30082" lon="2.60768">
        <ele>70</ele>
        <time>2023-07-27T14:07:10.612+00:00</time>
      </trkpt>
      <trkpt lat="48.30084" lon="2.6076">
        <ele>72</ele>
        <time>2023-07-27T14:07:15.117+00:00</time>
      </trkpt>
      <trkpt lat="48.30087" lon="2.60752">
        <ele>72</ele>
        <time>2023-07-27T14:07:19.624+00:00</time>
      </trkpt>
      <trkpt lat="48.30088" lon="2.60744">
        <ele>72</ele>
        <time>2023-07-27T14:07:24.131+00:00</time>
      </trkpt>
      <trkpt lat="48.3009" lon="2.60737">
        <ele>72</ele>
        <time>2023-07-27T14:07:28.638+00:00</time>
      </trkpt>
      <trkpt lat="48.30091" lon="2.6073">
        <ele>73</ele>
        <time>2023-07-27T14:07:32.643+00:00</time>
      </trkpt>
      <trkpt lat="48.30093" lon="2.60722">
        <ele>73</ele>
        <time>2023-07-27T14:07:37.147+00:00</time>
      </trkpt>
      <trkpt lat="48.30095" lon="2.60714">
        <ele>73</ele>
        <time>2023-07-27T14:07:41.654+00:00</time>
      </trkpt>
      <trkpt lat="48.30098" lon="2.60708">
        <ele>73</ele>
        <time>2023-07-27T14:07:46.229+00:00</time>
      </trkpt>
      <trkpt lat="48.30099" lon="2.607">
        <ele>73</ele>
        <time>2023-07-27T14:07:50.266+00:00</time>
      </trkpt>
      <trkpt lat="48.301" lon="2.60693">
        <ele>73</ele>
        <time>2023-07-27T14:07:54.907+00:00</time>
      </trkpt>
      <trkpt lat="48.30102" lon="2.60688">
        <ele>73</ele>
        <time>2023-07-27T14:07:59.109+00:00</time>
      </trkpt>
      <trkpt lat="48.30105" lon="2.60679">
        <ele>73</ele>
        <time>2023-07-27T14:08:03.469+00:00</time>
      </trkpt>
      <trkpt lat="48.30107" lon="2.60672">
        <ele>73</ele>
        <time>2023-07-27T14:08:07.403+00:00</time>
      </trkpt>
      <trkpt lat="48.30109" lon="2.60662">
        <ele>73</ele>
        <time>2023-07-27T14:08:12.124+00:00</time>
      </trkpt>
      <trkpt lat="48.30112" lon="2.60654">
        <ele>73</ele>
        <time>2023-07-27T14:08:16.824+00:00</time>
      </trkpt>
      <trkpt lat="48.30115" lon="2.60645">
        <ele>74</ele>
        <time>2023-07-27T14:08:21.107+00:00</time>
      </trkpt>
      <trkpt lat="48.30117" lon="2.60636">
        <ele>74</ele>
        <time>2023-07-27T14:08:25.668+00:00</time>
      </trkpt>
      <trkpt lat="48.30118" lon="2.60629">
        <ele>74</ele>
        <time>2023-07-27T14:08:29.789+00:00</time>
      </trkpt>
      <trkpt lat="48.3012" lon="2.60622">
        <ele>74</ele>
        <time>2023-07-27T14:08:34.029+00:00</time>
      </trkpt>
      <trkpt lat="48.30121" lon="2.60616">
        <ele>74</ele>
        <time>2023-07-27T14:08:38.359+00:00</time>
      </trkpt>
      <trkpt lat="48.30121" lon="2.6061">
        <ele>74</ele>
        <time>2023-07-27T14:08:42.669+00:00</time>
      </trkpt>
      <trkpt lat="48.30123" lon="2.60602">
        <ele>74</ele>
        <time>2023-07-27T14:08:47.168+00:00</time>
      </trkpt>
      <trkpt lat="48.30124" lon="2.60594">
        <ele>74</ele>
        <time>2023-07-27T14:08:51.251+00:00</time>
      </trkpt>
      <trkpt lat="48.30124" lon="2.60585">
        <ele>74</ele>
        <time>2023-07-27T14:08:55.106+00:00</time>
      </trkpt>
      <trkpt lat="48.30124" lon="2.60578">
        <ele>74</ele>
        <time>2023-07-27T14:08:59.613+00:00</time>
      </trkpt>
      <trkpt lat="48.30128" lon="2.60566">
        <ele>74</ele>
        <time>2023-07-27T14:09:03.619+00:00</time>
      </trkpt>
      <trkpt lat="48.30129" lon="2.60556">
        <ele>74</ele>
        <time>2023-07-27T14:09:08.625+00:00</time>
      </trkpt>
      <trkpt lat="48.3013" lon="2.60548">
        <ele>74</ele>
        <time>2023-07-27T14:09:12.629+00:00</time>
      </trkpt>
      <trkpt lat="48.30131" lon="2.6054">
        <ele>73</ele>
        <time>2023-07-27T14:09:16.631+00:00</time>
      </trkpt>
      <trkpt lat="48.30134" lon="2.60531">
        <ele>73</ele>
        <time>2023-07-27T14:09:21.154+00:00</time>
      </trkpt>
      <trkpt lat="48.30136" lon="2.60524">
        <ele>73</ele>
        <time>2023-07-27T14:09:25.158+00:00</time>
      </trkpt>
      <trkpt lat="48.30136" lon="2.60516">
        <ele>73</ele>
        <time>2023-07-27T14:09:29.760+00:00</time>
      </trkpt>
      <trkpt lat="48.30138" lon="2.60509">
        <ele>73</ele>
        <time>2023-07-27T14:09:33.862+00:00</time>
      </trkpt>
      <trkpt lat="48.30139" lon="2.60501">
        <ele>73</ele>
        <time>2023-07-27T14:09:37.984+00:00</time>
      </trkpt>
      <trkpt lat="48.30141" lon="2.60495">
        <ele>73</ele>
        <time>2023-07-27T14:09:42.185+00:00</time>
      </trkpt>
      <trkpt lat="48.30143" lon="2.60488">
        <ele>73</ele>
        <time>2023-07-27T14:09:46.866+00:00</time>
      </trkpt>
      <trkpt lat="48.30144" lon="2.60479">
        <ele>73</ele>
        <time>2023-07-27T14:09:51.470+00:00</time>
      </trkpt>
      <trkpt lat="48.30147" lon="2.60469">
        <ele>73</ele>
        <time>2023-07-27T14:09:55.570+00:00</time>
      </trkpt>
      <trkpt lat="48.30149" lon="2.6046">
        <ele>73</ele>
        <time>2023-07-27T14:10:00.073+00:00</time>
      </trkpt>
      <trkpt lat="48.3015" lon="2.60452">
        <ele>73</ele>
        <time>2023-07-27T14:10:04.314+00:00</time>
      </trkpt>
      <trkpt lat="48.30152" lon="2.60444">
        <ele>73</ele>
        <time>2023-07-27T14:10:08.734+00:00</time>
      </trkpt>
      <trkpt lat="48.30154" lon="2.60437">
        <ele>73</ele>
        <time>2023-07-27T14:10:12.794+00:00</time>
      </trkpt>
      <trkpt lat="48.30157" lon="2.6043">
        <ele>74</ele>
        <time>2023-07-27T14:10:17.471+00:00</time>
      </trkpt>
      <trkpt lat="48.30158" lon="2.60423">
        <ele>74</ele>
        <time>2023-07-27T14:10:22.149+00:00</time>
      </trkpt>
      <trkpt lat="48.3016" lon="2.60418">
        <ele>74</ele>
        <time>2023-07-27T14:10:26.107+00:00</time>
      </trkpt>
      <trkpt lat="48.30163" lon="2.60414">
        <ele>74</ele>
        <time>2023-07-27T14:10:30.705+00:00</time>
      </trkpt>
      <trkpt lat="48.30165" lon="2.60409">
        <ele>74</ele>
        <time>2023-07-27T14:10:34.904+00:00</time>
      </trkpt>
      <trkpt lat="48.30167" lon="2.60402">
        <ele>74</ele>
        <time>2023-07-27T14:10:39.359+00:00</time>
      </trkpt>
      <trkpt lat="48.30168" lon="2.60389">
        <ele>74</ele>
        <time>2023-07-27T14:10:43.680+00:00</time>
      </trkpt>
      <trkpt lat="48.3017" lon="2.6038">
        <ele>74</ele>
        <time>2023-07-27T14:10:48.079+00:00</time>
      </trkpt>
      <trkpt lat="48.30172" lon="2.60371">
        <ele>73</ele>
        <time>2023-07-27T14:10:52.643+00:00</time>
      </trkpt>
      <trkpt lat="48.30174" lon="2.60362">
        <ele>73</ele>
        <time>2023-07-27T14:10:57.023+00:00</time>
      </trkpt>
      <trkpt lat="48.30176" lon="2.60354">
        <ele>73</ele>
        <time>2023-07-27T14:11:01.439+00:00</time>
      </trkpt>
      <trkpt lat="48.30179" lon="2.60345">
        <ele>74</ele>
        <time>2023-07-27T14:11:05.938+00:00</time>
      </trkpt>
      <trkpt lat="48.30181" lon="2.60337">
        <ele>75</ele>
        <time>2023-07-27T14:11:10.415+00:00</time>
      </trkpt>
      <trkpt lat="48.30184" lon="2.60328">
        <ele>75</ele>
        <time>2023-07-27T14:11:14.911+00:00</time>
      </trkpt>
      <trkpt lat="48.30187" lon="2.6032">
        <ele>75</ele>
        <time>2023-07-27T14:11:19.470+00:00</time>
      </trkpt>
      <trkpt lat="48.30188" lon="2.60313">
        <ele>77</ele>
        <time>2023-07-27T14:11:23.359+00:00</time>
      </trkpt>
      <trkpt lat="48.30189" lon="2.60304">
        <ele>77</ele>
        <time>2023-07-27T14:11:27.974+00:00</time>
      </trkpt>
      <trkpt lat="48.30191" lon="2.60296">
        <ele>77</ele>
        <time>2023-07-27T14:11:32.588+00:00</time>
      </trkpt>
      <trkpt lat="48.30194" lon="2.60289">
        <ele>77</ele>
        <time>2023-07-27T14:11:36.532+00:00</time>
      </trkpt>
      <trkpt lat="48.30196" lon="2.60282">
        <ele>77</ele>
        <time>2023-07-27T14:11:41.143+00:00</time>
      </trkpt>
      <trkpt lat="48.30199" lon="2.60274">
        <ele>77</ele>
        <time>2023-07-27T14:11:45.584+00:00</time>
      </trkpt>
      <trkpt lat="48.30202" lon="2.60267">
        <ele>77</ele>
        <time>2023-07-27T14:11:49.974+00:00</time>
      </trkpt>
      <trkpt lat="48.30205" lon="2.60261">
        <ele>77</ele>
        <time>2023-07-27T14:11:53.955+00:00</time>
      </trkpt>
      <trkpt lat="48.30207" lon="2.60256">
        <ele>77</ele>
        <time>2023-07-27T14:11:58.111+00:00</time>
      </trkpt>
      <trkpt lat="48.30209" lon="2.60251">
        <ele>78</ele>
        <time>2023-07-27T14:12:02.292+00:00</time>
      </trkpt>
      <trkpt lat="48.30212" lon="2.60235">
        <ele>78</ele>
        <time>2023-07-27T14:12:31.926+00:00</time>
      </trkpt>
      <trkpt lat="48.30213" lon="2.60235">
        <ele>78</ele>
        <time>2023-07-27T14:12:36.107+00:00</time>
      </trkpt>
      <trkpt lat="48.30218" lon="2.6023">
        <ele>78</ele>
        <time>2023-07-27T14:12:40.488+00:00</time>
      </trkpt>
      <trkpt lat="48.30221" lon="2.60223">
        <ele>78</ele>
        <time>2023-07-27T14:12:44.688+00:00</time>
      </trkpt>
      <trkpt lat="48.30226" lon="2.60214">
        <ele>78</ele>
        <time>2023-07-27T14:12:49.909+00:00</time>
      </trkpt>
      <trkpt lat="48.30227" lon="2.60208">
        <ele>79</ele>
        <time>2023-07-27T14:12:53.689+00:00</time>
      </trkpt>
      <trkpt lat="48.30229" lon="2.60202">
        <ele>79</ele>
        <time>2023-07-27T14:12:58.110+00:00</time>
      </trkpt>
      <trkpt lat="48.30232" lon="2.60195">
        <ele>79</ele>
        <time>2023-07-27T14:13:02.630+00:00</time>
      </trkpt>
      <trkpt lat="48.30235" lon="2.60189">
        <ele>79</ele>
        <time>2023-07-27T14:13:07.021+00:00</time>
      </trkpt>
      <trkpt lat="48.30238" lon="2.6018">
        <ele>79</ele>
        <time>2023-07-27T14:13:11.359+00:00</time>
      </trkpt>
      <trkpt lat="48.30241" lon="2.60173">
        <ele>79</ele>
        <time>2023-07-27T14:13:15.609+00:00</time>
      </trkpt>
      <trkpt lat="48.30244" lon="2.60166">
        <ele>79</ele>
        <time>2023-07-27T14:13:19.690+00:00</time>
      </trkpt>
      <trkpt lat="48.30246" lon="2.60158">
        <ele>79</ele>
        <time>2023-07-27T14:13:24.192+00:00</time>
      </trkpt>
      <trkpt lat="48.30249" lon="2.60152">
        <ele>79</ele>
        <time>2023-07-27T14:13:28.196+00:00</time>
      </trkpt>
      <trkpt lat="48.30252" lon="2.60144">
        <ele>79</ele>
        <time>2023-07-27T14:13:32.738+00:00</time>
      </trkpt>
      <trkpt lat="48.30255" lon="2.60138">
        <ele>79</ele>
        <time>2023-07-27T14:13:37.539+00:00</time>
      </trkpt>
      <trkpt lat="48.30258" lon="2.60131">
        <ele>79</ele>
        <time>2023-07-27T14:13:41.720+00:00</time>
      </trkpt>
      <trkpt lat="48.30261" lon="2.60123">
        <ele>79</ele>
        <time>2023-07-27T14:13:46.381+00:00</time>
      </trkpt>
      <trkpt lat="48.30264" lon="2.60116">
        <ele>78</ele>
        <time>2023-07-27T14:13:50.861+00:00</time>
      </trkpt>
      <trkpt lat="48.30267" lon="2.60108">
        <ele>78</ele>
        <time>2023-07-27T14:13:55.042+00:00</time>
      </trkpt>
      <trkpt lat="48.30271" lon="2.601">
        <ele>78</ele>
        <time>2023-07-27T14:13:59.263+00:00</time>
      </trkpt>
      <trkpt lat="48.30273" lon="2.60093">
        <ele>79</ele>
        <time>2023-07-27T14:14:03.265+00:00</time>
      </trkpt>
      <trkpt lat="48.30276" lon="2.60085">
        <ele>79</ele>
        <time>2023-07-27T14:14:07.768+00:00</time>
      </trkpt>
      <trkpt lat="48.30277" lon="2.60079">
        <ele>79</ele>
        <time>2023-07-27T14:14:11.968+00:00</time>
      </trkpt>
      <trkpt lat="48.3028" lon="2.60072">
        <ele>79</ele>
        <time>2023-07-27T14:14:16.586+00:00</time>
      </trkpt>
      <trkpt lat="48.30282" lon="2.60065">
        <ele>79</ele>
        <time>2023-07-27T14:14:20.178+00:00</time>
      </trkpt>
      <trkpt lat="48.30283" lon="2.60059">
        <ele>79</ele>
        <time>2023-07-27T14:14:24.681+00:00</time>
      </trkpt>
      <trkpt lat="48.30284" lon="2.60052">
        <ele>79</ele>
        <time>2023-07-27T14:14:28.683+00:00</time>
      </trkpt>
      <trkpt lat="48.30287" lon="2.60045">
        <ele>79</ele>
        <time>2023-07-27T14:14:32.923+00:00</time>
      </trkpt>
      <trkpt lat="48.30291" lon="2.60039">
        <ele>79</ele>
        <time>2023-07-27T14:14:36.985+00:00</time>
      </trkpt>
      <trkpt lat="48.30294" lon="2.60032">
        <ele>79</ele>
        <time>2023-07-27T14:14:41.492+00:00</time>
      </trkpt>
      <trkpt lat="48.30296" lon="2.60026">
        <ele>79</ele>
        <time>2023-07-27T14:14:45.591+00:00</time>
      </trkpt>
      <trkpt lat="48.30299" lon="2.60018">
        <ele>79</ele>
        <time>2023-07-27T14:14:50.093+00:00</time>
      </trkpt>
      <trkpt lat="48.30301" lon="2.6001">
        <ele>79</ele>
        <time>2023-07-27T14:14:54.596+00:00</time>
      </trkpt>
      <trkpt lat="48.30304" lon="2.60005">
        <ele>79</ele>
        <time>2023-07-27T14:14:59.100+00:00</time>
      </trkpt>
      <trkpt lat="48.30308" lon="2.60001">
        <ele>79</ele>
        <time>2023-07-27T14:15:03.644+00:00</time>
      </trkpt>
      <trkpt lat="48.30311" lon="2.59997">
        <ele>79</ele>
        <time>2023-07-27T14:15:07.767+00:00</time>
      </trkpt>
      <trkpt lat="48.30314" lon="2.59994">
        <ele>79</ele>
        <time>2023-07-27T14:15:11.772+00:00</time>
      </trkpt>
      <trkpt lat="48.30315" lon="2.5999">
        <ele>79</ele>
        <time>2023-07-27T14:15:16.278+00:00</time>
      </trkpt>
      <trkpt lat="48.30315" lon="2.59985">
        <ele>79</ele>
        <time>2023-07-27T14:15:20.419+00:00</time>
      </trkpt>
      <trkpt lat="48.30315" lon="2.59976">
        <ele>79</ele>
        <time>2023-07-27T14:15:24.981+00:00</time>
      </trkpt>
      <trkpt lat="48.30316" lon="2.59969">
        <ele>79</ele>
        <time>2023-07-27T14:15:29.243+00:00</time>
      </trkpt>
      <trkpt lat="48.30316" lon="2.59963">
        <ele>79</ele>
        <time>2023-07-27T14:15:33.404+00:00</time>
      </trkpt>
      <trkpt lat="48.30318" lon="2.59958">
        <ele>79</ele>
        <time>2023-07-27T14:15:37.646+00:00</time>
      </trkpt>
      <trkpt lat="48.30321" lon="2.59952">
        <ele>79</ele>
        <time>2023-07-27T14:15:42.149+00:00</time>
      </trkpt>
      <trkpt lat="48.30323" lon="2.59945">
        <ele>79</ele>
        <time>2023-07-27T14:15:46.673+00:00</time>
      </trkpt>
      <trkpt lat="48.30325" lon="2.59938">
        <ele>79</ele>
        <time>2023-07-27T14:15:50.676+00:00</time>
      </trkpt>
      <trkpt lat="48.30328" lon="2.59932">
        <ele>79</ele>
        <time>2023-07-27T14:15:54.679+00:00</time>
      </trkpt>
      <trkpt lat="48.3033" lon="2.59926">
        <ele>80</ele>
        <time>2023-07-27T14:15:59.180+00:00</time>
      </trkpt>
      <trkpt lat="48.3033" lon="2.59922">
        <ele>80</ele>
        <time>2023-07-27T14:16:25.455+00:00</time>
      </trkpt>
      <trkpt lat="48.30329" lon="2.59922">
        <ele>80</ele>
        <time>2023-07-27T14:16:29.457+00:00</time>
      </trkpt>
      <trkpt lat="48.30329" lon="2.59922">
        <ele>80</ele>
        <time>2023-07-27T14:16:33.958+00:00</time>
      </trkpt>
      <trkpt lat="48.30326" lon="2.59919">
        <ele>80</ele>
        <time>2023-07-27T14:16:38.519+00:00</time>
      </trkpt>
      <trkpt lat="48.30322" lon="2.59918">
        <ele>80</ele>
        <time>2023-07-27T14:16:43.022+00:00</time>
      </trkpt>
      <trkpt lat="48.30317" lon="2.59917">
        <ele>79</ele>
        <time>2023-07-27T14:16:47.526+00:00</time>
      </trkpt>
      <trkpt lat="48.30313" lon="2.59915">
        <ele>79</ele>
        <time>2023-07-27T14:16:51.528+00:00</time>
      </trkpt>
      <trkpt lat="48.30309" lon="2.59914">
        <ele>79</ele>
        <time>2023-07-27T14:16:55.570+00:00</time>
      </trkpt>
      <trkpt lat="48.30305" lon="2.59912">
        <ele>79</ele>
        <time>2023-07-27T14:17:00.211+00:00</time>
      </trkpt>
      <trkpt lat="48.30297" lon="2.59912">
        <ele>79</ele>
        <time>2023-07-27T14:17:13.739+00:00</time>
      </trkpt>
      <trkpt lat="48.30296" lon="2.59913">
        <ele>79</ele>
        <time>2023-07-27T14:17:17.741+00:00</time>
      </trkpt>
      <trkpt lat="48.30295" lon="2.59914">
        <ele>79</ele>
        <time>2023-07-27T14:17:22.359+00:00</time>
      </trkpt>
      <trkpt lat="48.30293" lon="2.59911">
        <ele>79</ele>
        <time>2023-07-27T14:17:26.662+00:00</time>
      </trkpt>
      <trkpt lat="48.30287" lon="2.59908">
        <ele>79</ele>
        <time>2023-07-27T14:17:30.962+00:00</time>
      </trkpt>
      <trkpt lat="48.30281" lon="2.59906">
        <ele>79</ele>
        <time>2023-07-27T14:17:35.142+00:00</time>
      </trkpt>
      <trkpt lat="48.30274" lon="2.59905">
        <ele>79</ele>
        <time>2023-07-27T14:17:39.542+00:00</time>
      </trkpt>
      <trkpt lat="48.30269" lon="2.59904">
        <ele>79</ele>
        <time>2023-07-27T14:17:43.501+00:00</time>
      </trkpt>
      <trkpt lat="48.30264" lon="2.59904">
        <ele>79</ele>
        <time>2023-07-27T14:17:48.298+00:00</time>
      </trkpt>
      <trkpt lat="48.30258" lon="2.59901">
        <ele>78</ele>
        <time>2023-07-27T14:17:52.539+00:00</time>
      </trkpt>
      <trkpt lat="48.30253" lon="2.59898">
        <ele>78</ele>
        <time>2023-07-27T14:17:57.180+00:00</time>
      </trkpt>
      <trkpt lat="48.30249" lon="2.59896">
        <ele>78</ele>
        <time>2023-07-27T14:18:01.781+00:00</time>
      </trkpt>
      <trkpt lat="48.30244" lon="2.59895">
        <ele>78</ele>
        <time>2023-07-27T14:18:06.061+00:00</time>
      </trkpt>
      <trkpt lat="48.30238" lon="2.59892">
        <ele>78</ele>
        <time>2023-07-27T14:18:10.401+00:00</time>
      </trkpt>
      <trkpt lat="48.30231" lon="2.59891">
        <ele>78</ele>
        <time>2023-07-27T14:18:14.582+00:00</time>
      </trkpt>
      <trkpt lat="48.30224" lon="2.59892">
        <ele>78</ele>
        <time>2023-07-27T14:18:19.084+00:00</time>
      </trkpt>
      <trkpt lat="48.30218" lon="2.5989">
        <ele>78</ele>
        <time>2023-07-27T14:18:23.166+00:00</time>
      </trkpt>
      <trkpt lat="48.30211" lon="2.59889">
        <ele>78</ele>
        <time>2023-07-27T14:18:27.748+00:00</time>
      </trkpt>
      <trkpt lat="48.30205" lon="2.59888">
        <ele>79</ele>
        <time>2023-07-27T14:18:32.107+00:00</time>
      </trkpt>
      <trkpt lat="48.30198" lon="2.59887">
        <ele>79</ele>
        <time>2023-07-27T14:18:36.268+00:00</time>
      </trkpt>
      <trkpt lat="48.30192" lon="2.59887">
        <ele>79</ele>
        <time>2023-07-27T14:18:40.787+00:00</time>
      </trkpt>
      <trkpt lat="48.30187" lon="2.59887">
        <ele>79</ele>
        <time>2023-07-27T14:18:44.969+00:00</time>
      </trkpt>
      <trkpt lat="48.30182" lon="2.59886">
        <ele>79</ele>
        <time>2023-07-27T14:18:49.468+00:00</time>
      </trkpt>
      <trkpt lat="48.30175" lon="2.59887">
        <ele>78</ele>
        <time>2023-07-27T14:18:53.629+00:00</time>
      </trkpt>
      <trkpt lat="48.30169" lon="2.59886">
        <ele>78</ele>
        <time>2023-07-27T14:18:58.149+00:00</time>
      </trkpt>
      <trkpt lat="48.30163" lon="2.59883">
        <ele>78</ele>
        <time>2023-07-27T14:19:02.711+00:00</time>
      </trkpt>
      <trkpt lat="48.30157" lon="2.59885">
        <ele>78</ele>
        <time>2023-07-27T14:19:07.334+00:00</time>
      </trkpt>
      <trkpt lat="48.30152" lon="2.59885">
        <ele>78</ele>
        <time>2023-07-27T14:19:11.416+00:00</time>
      </trkpt>
      <trkpt lat="48.30145" lon="2.59886">
        <ele>78</ele>
        <time>2023-07-27T14:19:16.911+00:00</time>
      </trkpt>
      <trkpt lat="48.3014" lon="2.59885">
        <ele>78</ele>
        <time>2023-07-27T14:19:20.948+00:00</time>
      </trkpt>
      <trkpt lat="48.30134" lon="2.59885">
        <ele>78</ele>
        <time>2023-07-27T14:19:24.967+00:00</time>
      </trkpt>
      <trkpt lat="48.30129" lon="2.59884">
        <ele>78</ele>
        <time>2023-07-27T14:19:29.194+00:00</time>
      </trkpt>
      <trkpt lat="48.30124" lon="2.59885">
        <ele>80</ele>
        <time>2023-07-27T14:19:33.650+00:00</time>
      </trkpt>
      <trkpt lat="48.30119" lon="2.59885">
        <ele>80</ele>
        <time>2023-07-27T14:19:37.672+00:00</time>
      </trkpt>
      <trkpt lat="48.30112" lon="2.59886">
        <ele>80</ele>
        <time>2023-07-27T14:19:42.310+00:00</time>
      </trkpt>
      <trkpt lat="48.30107" lon="2.59886">
        <ele>80</ele>
        <time>2023-07-27T14:19:46.359+00:00</time>
      </trkpt>
      <trkpt lat="48.301" lon="2.59886">
        <ele>80</ele>
        <time>2023-07-27T14:19:51.108+00:00</time>
      </trkpt>
      <trkpt lat="48.30095" lon="2.59885">
        <ele>82</ele>
        <time>2023-07-27T14:19:55.528+00:00</time>
      </trkpt>
      <trkpt lat="48.30089" lon="2.59885">
        <ele>82</ele>
        <time>2023-07-27T14:20:00.571+00:00</time>
      </trkpt>
      <trkpt lat="48.30085" lon="2.59887">
        <ele>82</ele>
        <time>2023-07-27T14:20:04.943+00:00</time>
      </trkpt>
      <trkpt lat="48.3008" lon="2.59889">
        <ele>82</ele>
        <time>2023-07-27T14:20:09.359+00:00</time>
      </trkpt>
      <trkpt lat="48.30073" lon="2.59889">
        <ele>82</ele>
        <time>2023-07-27T14:20:13.817+00:00</time>
      </trkpt>
      <trkpt lat="48.30067" lon="2.59888">
        <ele>81</ele>
        <time>2023-07-27T14:20:17.773+00:00</time>
      </trkpt>
      <trkpt lat="48.3006" lon="2.59887">
        <ele>81</ele>
        <time>2023-07-27T14:20:22.449+00:00</time>
      </trkpt>
      <trkpt lat="48.30054" lon="2.59888">
        <ele>81</ele>
        <time>2023-07-27T14:20:26.963+00:00</time>
      </trkpt>
      <trkpt lat="48.30048" lon="2.59889">
        <ele>81</ele>
        <time>2023-07-27T14:20:31.426+00:00</time>
      </trkpt>
      <trkpt lat="48.30042" lon="2.59889">
        <ele>81</ele>
        <time>2023-07-27T14:20:35.844+00:00</time>
      </trkpt>
      <trkpt lat="48.30037" lon="2.59888">
        <ele>78</ele>
        <time>2023-07-27T14:20:40.245+00:00</time>
      </trkpt>
      <trkpt lat="48.30031" lon="2.59887">
        <ele>78</ele>
        <time>2023-07-27T14:20:44.461+00:00</time>
      </trkpt>
      <trkpt lat="48.30024" lon="2.59886">
        <ele>78</ele>
        <time>2023-07-27T14:20:48.960+00:00</time>
      </trkpt>
      <trkpt lat="48.30019" lon="2.59887">
        <ele>78</ele>
        <time>2023-07-27T14:20:53.365+00:00</time>
      </trkpt>
      <trkpt lat="48.30013" lon="2.59888">
        <ele>76</ele>
        <time>2023-07-27T14:20:57.710+00:00</time>
      </trkpt>
      <trkpt lat="48.30007" lon="2.59887">
        <ele>76</ele>
        <time>2023-07-27T14:21:01.498+00:00</time>
      </trkpt>
      <trkpt lat="48.30001" lon="2.59887">
        <ele>76</ele>
        <time>2023-07-27T14:21:06.216+00:00</time>
      </trkpt>
      <trkpt lat="48.29994" lon="2.59888">
        <ele>76</ele>
        <time>2023-07-27T14:21:10.806+00:00</time>
      </trkpt>
      <trkpt lat="48.29989" lon="2.59888">
        <ele>76</ele>
        <time>2023-07-27T14:21:15.266+00:00</time>
      </trkpt>
      <trkpt lat="48.29984" lon="2.59887">
        <ele>76</ele>
        <time>2023-07-27T14:21:19.282+00:00</time>
      </trkpt>
      <trkpt lat="48.29979" lon="2.59889">
        <ele>76</ele>
        <time>2023-07-27T14:21:23.268+00:00</time>
      </trkpt>
      <trkpt lat="48.29973" lon="2.59888">
        <ele>76</ele>
        <time>2023-07-27T14:21:27.825+00:00</time>
      </trkpt>
      <trkpt lat="48.29968" lon="2.59888">
        <ele>76</ele>
        <time>2023-07-27T14:21:31.902+00:00</time>
      </trkpt>
      <trkpt lat="48.29962" lon="2.5989">
        <ele>76</ele>
        <time>2023-07-27T14:21:36.464+00:00</time>
      </trkpt>
      <trkpt lat="48.29957" lon="2.59889">
        <ele>79</ele>
        <time>2023-07-27T14:21:40.878+00:00</time>
      </trkpt>
      <trkpt lat="48.2995" lon="2.5989">
        <ele>79</ele>
        <time>2023-07-27T14:21:45.898+00:00</time>
      </trkpt>
      <trkpt lat="48.29944" lon="2.5989">
        <ele>79</ele>
        <time>2023-07-27T14:21:50.359+00:00</time>
      </trkpt>
      <trkpt lat="48.29938" lon="2.59891">
        <ele>79</ele>
        <time>2023-07-27T14:21:54.892+00:00</time>
      </trkpt>
      <trkpt lat="48.29933" lon="2.59892">
        <ele>79</ele>
        <time>2023-07-27T14:21:58.929+00:00</time>
      </trkpt>
      <trkpt lat="48.29927" lon="2.59892">
        <ele>79</ele>
        <time>2023-07-27T14:22:03.124+00:00</time>
      </trkpt>
      <trkpt lat="48.29921" lon="2.59891">
        <ele>79</ele>
        <time>2023-07-27T14:22:07.281+00:00</time>
      </trkpt>
      <trkpt lat="48.29915" lon="2.59891">
        <ele>79</ele>
        <time>2023-07-27T14:22:11.927+00:00</time>
      </trkpt>
      <trkpt lat="48.29909" lon="2.59891">
        <ele>79</ele>
        <time>2023-07-27T14:22:16.348+00:00</time>
      </trkpt>
      <trkpt lat="48.29903" lon="2.59892">
        <ele>79</ele>
        <time>2023-07-27T14:22:20.853+00:00</time>
      </trkpt>
      <trkpt lat="48.29898" lon="2.59892">
        <ele>77</ele>
        <time>2023-07-27T14:22:25.331+00:00</time>
      </trkpt>
      <trkpt lat="48.29892" lon="2.59891">
        <ele>77</ele>
        <time>2023-07-27T14:22:29.884+00:00</time>
      </trkpt>
      <trkpt lat="48.29887" lon="2.59889">
        <ele>77</ele>
        <time>2023-07-27T14:22:34.230+00:00</time>
      </trkpt>
      <trkpt lat="48.29881" lon="2.59887">
        <ele>77</ele>
        <time>2023-07-27T14:22:38.650+00:00</time>
      </trkpt>
      <trkpt lat="48.29875" lon="2.59888">
        <ele>73</ele>
        <time>2023-07-27T14:22:43.227+00:00</time>
      </trkpt>
      <trkpt lat="48.29869" lon="2.59888">
        <ele>73</ele>
        <time>2023-07-27T14:22:47.746+00:00</time>
      </trkpt>
      <trkpt lat="48.29862" lon="2.59887">
        <ele>73</ele>
        <time>2023-07-27T14:22:52.166+00:00</time>
      </trkpt>
      <trkpt lat="48.29857" lon="2.59886">
        <ele>73</ele>
        <time>2023-07-27T14:22:56.283+00:00</time>
      </trkpt>
      <trkpt lat="48.2985" lon="2.59885">
        <ele>73</ele>
        <time>2023-07-27T14:23:00.961+00:00</time>
      </trkpt>
      <trkpt lat="48.29844" lon="2.59884">
        <ele>71</ele>
        <time>2023-07-27T14:23:05.473+00:00</time>
      </trkpt>
      <trkpt lat="48.29838" lon="2.59884">
        <ele>71</ele>
        <time>2023-07-27T14:23:09.890+00:00</time>
      </trkpt>
      <trkpt lat="48.29833" lon="2.59883">
        <ele>71</ele>
        <time>2023-07-27T14:23:14.346+00:00</time>
      </trkpt>
      <trkpt lat="48.29828" lon="2.59881">
        <ele>71</ele>
        <time>2023-07-27T14:23:18.432+00:00</time>
      </trkpt>
      <trkpt lat="48.29822" lon="2.59881">
        <ele>71</ele>
        <time>2023-07-27T14:23:22.672+00:00</time>
      </trkpt>
      <trkpt lat="48.29816" lon="2.5988">
        <ele>70</ele>
        <time>2023-07-27T14:23:27.681+00:00</time>
      </trkpt>
      <trkpt lat="48.29812" lon="2.59879">
        <ele>70</ele>
        <time>2023-07-27T14:23:31.789+00:00</time>
      </trkpt>
      <trkpt lat="48.29808" lon="2.59876">
        <ele>70</ele>
        <time>2023-07-27T14:23:35.795+00:00</time>
      </trkpt>
      <trkpt lat="48.29801" lon="2.59875">
        <ele>69</ele>
        <time>2023-07-27T14:23:40.400+00:00</time>
      </trkpt>
      <trkpt lat="48.29794" lon="2.59874">
        <ele>69</ele>
        <time>2023-07-27T14:23:44.403+00:00</time>
      </trkpt>
      <trkpt lat="48.29788" lon="2.59872">
        <ele>69</ele>
        <time>2023-07-27T14:23:49.104+00:00</time>
      </trkpt>
      <trkpt lat="48.29782" lon="2.59871">
        <ele>69</ele>
        <time>2023-07-27T14:23:53.866+00:00</time>
      </trkpt>
      <trkpt lat="48.29776" lon="2.59872">
        <ele>69</ele>
        <time>2023-07-27T14:23:58.048+00:00</time>
      </trkpt>
      <trkpt lat="48.29771" lon="2.59869">
        <ele>69</ele>
        <time>2023-07-27T14:24:02.652+00:00</time>
      </trkpt>
      <trkpt lat="48.29766" lon="2.59868">
        <ele>69</ele>
        <time>2023-07-27T14:24:07.714+00:00</time>
      </trkpt>
      <trkpt lat="48.29763" lon="2.59869">
        <ele>70</ele>
        <time>2023-07-27T14:24:11.776+00:00</time>
      </trkpt>
      <trkpt lat="48.29762" lon="2.59869">
        <ele>70</ele>
        <time>2023-07-27T14:24:15.857+00:00</time>
      </trkpt>
      <trkpt lat="48.29761" lon="2.59868">
        <ele>70</ele>
        <time>2023-07-27T14:24:20.859+00:00</time>
      </trkpt>
      <trkpt lat="48.29757" lon="2.59868">
        <ele>70</ele>
        <time>2023-07-27T14:24:43.573+00:00</time>
      </trkpt>
      <trkpt lat="48.29756" lon="2.59868">
        <ele>70</ele>
        <time>2023-07-27T14:24:47.959+00:00</time>
      </trkpt>
      <trkpt lat="48.29756" lon="2.59865">
        <ele>70</ele>
        <time>2023-07-27T14:24:52.078+00:00</time>
      </trkpt>
      <trkpt lat="48.29759" lon="2.59855">
        <ele>70</ele>
        <time>2023-07-27T14:24:56.880+00:00</time>
      </trkpt>
      <trkpt lat="48.29759" lon="2.59845">
        <ele>69</ele>
        <time>2023-07-27T14:25:01.036+00:00</time>
      </trkpt>
      <trkpt lat="48.29758" lon="2.59837">
        <ele>69</ele>
        <time>2023-07-27T14:25:05.539+00:00</time>
      </trkpt>
      <trkpt lat="48.29757" lon="2.59829">
        <ele>69</ele>
        <time>2023-07-27T14:25:09.740+00:00</time>
      </trkpt>
      <trkpt lat="48.29756" lon="2.59821">
        <ele>69</ele>
        <time>2023-07-27T14:25:14.541+00:00</time>
      </trkpt>
      <trkpt lat="48.29756" lon="2.59813">
        <ele>68</ele>
        <time>2023-07-27T14:25:19.060+00:00</time>
      </trkpt>
      <trkpt lat="48.29756" lon="2.59804">
        <ele>68</ele>
        <time>2023-07-27T14:25:23.682+00:00</time>
      </trkpt>
      <trkpt lat="48.29756" lon="2.59795">
        <ele>68</ele>
        <time>2023-07-27T14:25:28.062+00:00</time>
      </trkpt>
      <trkpt lat="48.29755" lon="2.59787">
        <ele>69</ele>
        <time>2023-07-27T14:25:32.061+00:00</time>
      </trkpt>
      <trkpt lat="48.29754" lon="2.59784">
        <ele>69</ele>
        <time>2023-07-27T14:25:36.080+00:00</time>
      </trkpt>
      <trkpt lat="48.29754" lon="2.59778">
        <ele>69</ele>
        <time>2023-07-27T14:25:40.762+00:00</time>
      </trkpt>
      <trkpt lat="48.29752" lon="2.59773">
        <ele>69</ele>
        <time>2023-07-27T14:25:44.522+00:00</time>
      </trkpt>
      <trkpt lat="48.29749" lon="2.59769">
        <ele>69</ele>
        <time>2023-07-27T14:25:48.764+00:00</time>
      </trkpt>
      <trkpt lat="48.29745" lon="2.59766">
        <ele>69</ele>
        <time>2023-07-27T14:25:53.766+00:00</time>
      </trkpt>
      <trkpt lat="48.29743" lon="2.59765">
        <ele>69</ele>
        <time>2023-07-27T14:26:31.960+00:00</time>
      </trkpt>
      <trkpt lat="48.29743" lon="2.59765">
        <ele>69</ele>
        <time>2023-07-27T14:26:36.937+00:00</time>
      </trkpt>
      <trkpt lat="48.29741" lon="2.59763">
        <ele>70</ele>
        <time>2023-07-27T14:26:40.963+00:00</time>
      </trkpt>
      <trkpt lat="48.29739" lon="2.5976">
        <ele>70</ele>
        <time>2023-07-27T14:26:45.073+00:00</time>
      </trkpt>
      <trkpt lat="48.29735" lon="2.59754">
        <ele>70</ele>
        <time>2023-07-27T14:26:49.553+00:00</time>
      </trkpt>
      <trkpt lat="48.29729" lon="2.59751">
        <ele>70</ele>
        <time>2023-07-27T14:26:53.814+00:00</time>
      </trkpt>
      <trkpt lat="48.29724" lon="2.59753">
        <ele>70</ele>
        <time>2023-07-27T14:26:58.415+00:00</time>
      </trkpt>
      <trkpt lat="48.2972" lon="2.59755">
        <ele>70</ele>
        <time>2023-07-27T14:27:02.417+00:00</time>
      </trkpt>
      <trkpt lat="48.29715" lon="2.59756">
        <ele>70</ele>
        <time>2023-07-27T14:27:07.967+00:00</time>
      </trkpt>
      <trkpt lat="48.29714" lon="2.59756">
        <ele>70</ele>
        <time>2023-07-27T14:27:12.721+00:00</time>
      </trkpt>
      <trkpt lat="48.29715" lon="2.59755">
        <ele>70</ele>
        <time>2023-07-27T14:27:16.841+00:00</time>
      </trkpt>
      <trkpt lat="48.29717" lon="2.59747">
        <ele>70</ele>
        <time>2023-07-27T14:27:21.383+00:00</time>
      </trkpt>
      <trkpt lat="48.29714" lon="2.59739">
        <ele>70</ele>
        <time>2023-07-27T14:27:25.723+00:00</time>
      </trkpt>
      <trkpt lat="48.29712" lon="2.59735">
        <ele>71</ele>
        <time>2023-07-27T14:27:29.984+00:00</time>
      </trkpt>
      <trkpt lat="48.29711" lon="2.59726">
        <ele>71</ele>
        <time>2023-07-27T14:27:34.125+00:00</time>
      </trkpt>
      <trkpt lat="48.29708" lon="2.59719">
        <ele>71</ele>
        <time>2023-07-27T14:27:38.905+00:00</time>
      </trkpt>
      <trkpt lat="48.29703" lon="2.59714">
        <ele>71</ele>
        <time>2023-07-27T14:27:43.587+00:00</time>
      </trkpt>
      <trkpt lat="48.29699" lon="2.5971">
        <ele>71</ele>
        <time>2023-07-27T14:27:47.748+00:00</time>
      </trkpt>
      <trkpt lat="48.29695" lon="2.59705">
        <ele>73</ele>
        <time>2023-07-27T14:27:52.226+00:00</time>
      </trkpt>
      <trkpt lat="48.29691" lon="2.59703">
        <ele>73</ele>
        <time>2023-07-27T14:27:56.747+00:00</time>
      </trkpt>
      <trkpt lat="48.29687" lon="2.597">
        <ele>73</ele>
        <time>2023-07-27T14:28:00.525+00:00</time>
      </trkpt>
      <trkpt lat="48.29683" lon="2.59695">
        <ele>73</ele>
        <time>2023-07-27T14:28:05.445+00:00</time>
      </trkpt>
      <trkpt lat="48.29679" lon="2.59692">
        <ele>74</ele>
        <time>2023-07-27T14:28:09.825+00:00</time>
      </trkpt>
      <trkpt lat="48.29674" lon="2.59687">
        <ele>74</ele>
        <time>2023-07-27T14:28:13.645+00:00</time>
      </trkpt>
      <trkpt lat="48.29669" lon="2.59682">
        <ele>74</ele>
        <time>2023-07-27T14:28:18.044+00:00</time>
      </trkpt>
      <trkpt lat="48.29663" lon="2.59679">
        <ele>74</ele>
        <time>2023-07-27T14:28:22.605+00:00</time>
      </trkpt>
      <trkpt lat="48.29659" lon="2.59676">
        <ele>74</ele>
        <time>2023-07-27T14:28:27.647+00:00</time>
      </trkpt>
      <trkpt lat="48.29656" lon="2.59669">
        <ele>74</ele>
        <time>2023-07-27T14:28:32.811+00:00</time>
      </trkpt>
      <trkpt lat="48.29652" lon="2.59666">
        <ele>73</ele>
        <time>2023-07-27T14:28:36.628+00:00</time>
      </trkpt>
      <trkpt lat="48.29648" lon="2.59665">
        <ele>73</ele>
        <time>2023-07-27T14:28:40.888+00:00</time>
      </trkpt>
      <trkpt lat="48.29644" lon="2.59662">
        <ele>73</ele>
        <time>2023-07-27T14:28:45.470+00:00</time>
      </trkpt>
      <trkpt lat="48.29642" lon="2.59657">
        <ele>73</ele>
        <time>2023-07-27T14:28:50.072+00:00</time>
      </trkpt>
      <trkpt lat="48.29638" lon="2.59649">
        <ele>73</ele>
        <time>2023-07-27T14:28:54.647+00:00</time>
      </trkpt>
      <trkpt lat="48.29636" lon="2.59643">
        <ele>73</ele>
        <time>2023-07-27T14:28:58.833+00:00</time>
      </trkpt>
      <trkpt lat="48.29636" lon="2.59643">
        <ele>73</ele>
        <time>2023-07-27T14:29:03.835+00:00</time>
      </trkpt>
      <trkpt lat="48.29635" lon="2.59643">
        <ele>73</ele>
        <time>2023-07-27T14:29:07.959+00:00</time>
      </trkpt>
      <trkpt lat="48.29632" lon="2.59638">
        <ele>73</ele>
        <time>2023-07-27T14:29:12.230+00:00</time>
      </trkpt>
      <trkpt lat="48.29629" lon="2.59632">
        <ele>73</ele>
        <time>2023-07-27T14:29:16.419+00:00</time>
      </trkpt>
      <trkpt lat="48.29627" lon="2.59627">
        <ele>73</ele>
        <time>2023-07-27T14:29:20.562+00:00</time>
      </trkpt>
      <trkpt lat="48.29626" lon="2.59624">
        <ele>72</ele>
        <time>2023-07-27T14:29:24.603+00:00</time>
      </trkpt>
      <trkpt lat="48.29625" lon="2.59617">
        <ele>71</ele>
        <time>2023-07-27T14:29:29.494+00:00</time>
      </trkpt>
      <trkpt lat="48.29623" lon="2.59609">
        <ele>71</ele>
        <time>2023-07-27T14:29:34.074+00:00</time>
      </trkpt>
      <trkpt lat="48.29622" lon="2.59599">
        <ele>71</ele>
        <time>2023-07-27T14:29:38.155+00:00</time>
      </trkpt>
      <trkpt lat="48.29618" lon="2.59591">
        <ele>71</ele>
        <time>2023-07-27T14:29:42.977+00:00</time>
      </trkpt>
      <trkpt lat="48.29616" lon="2.59583">
        <ele>71</ele>
        <time>2023-07-27T14:29:47.817+00:00</time>
      </trkpt>
      <trkpt lat="48.29615" lon="2.59574">
        <ele>71</ele>
        <time>2023-07-27T14:29:52.317+00:00</time>
      </trkpt>
      <trkpt lat="48.29615" lon="2.59567">
        <ele>72</ele>
        <time>2023-07-27T14:29:56.197+00:00</time>
      </trkpt>
      <trkpt lat="48.29615" lon="2.59558">
        <ele>72</ele>
        <time>2023-07-27T14:30:00.940+00:00</time>
      </trkpt>
      <trkpt lat="48.29616" lon="2.5955">
        <ele>72</ele>
        <time>2023-07-27T14:30:04.999+00:00</time>
      </trkpt>
      <trkpt lat="48.29617" lon="2.59542">
        <ele>72</ele>
        <time>2023-07-27T14:30:09.100+00:00</time>
      </trkpt>
      <trkpt lat="48.29617" lon="2.59534">
        <ele>73</ele>
        <time>2023-07-27T14:30:13.922+00:00</time>
      </trkpt>
      <trkpt lat="48.29618" lon="2.59526">
        <ele>73</ele>
        <time>2023-07-27T14:30:18.702+00:00</time>
      </trkpt>
      <trkpt lat="48.29621" lon="2.5952">
        <ele>73</ele>
        <time>2023-07-27T14:30:22.522+00:00</time>
      </trkpt>
      <trkpt lat="48.29623" lon="2.59512">
        <ele>73</ele>
        <time>2023-07-27T14:30:26.962+00:00</time>
      </trkpt>
      <trkpt lat="48.29625" lon="2.59502">
        <ele>73</ele>
        <time>2023-07-27T14:30:31.242+00:00</time>
      </trkpt>
      <trkpt lat="48.29626" lon="2.59494">
        <ele>72</ele>
        <time>2023-07-27T14:30:35.503+00:00</time>
      </trkpt>
      <trkpt lat="48.29628" lon="2.59485">
        <ele>73</ele>
        <time>2023-07-27T14:30:40.359+00:00</time>
      </trkpt>
      <trkpt lat="48.29629" lon="2.59476">
        <ele>73</ele>
        <time>2023-07-27T14:30:45.201+00:00</time>
      </trkpt>
      <trkpt lat="48.29628" lon="2.59466">
        <ele>73</ele>
        <time>2023-07-27T14:30:49.780+00:00</time>
      </trkpt>
      <trkpt lat="48.29629" lon="2.59457">
        <ele>74</ele>
        <time>2023-07-27T14:30:54.299+00:00</time>
      </trkpt>
      <trkpt lat="48.29628" lon="2.59449">
        <ele>74</ele>
        <time>2023-07-27T14:30:59.018+00:00</time>
      </trkpt>
      <trkpt lat="48.29629" lon="2.59441">
        <ele>74</ele>
        <time>2023-07-27T14:31:03.239+00:00</time>
      </trkpt>
      <trkpt lat="48.29628" lon="2.59421">
        <ele>73</ele>
        <time>2023-07-27T14:31:44.939+00:00</time>
      </trkpt>
      <trkpt lat="48.29627" lon="2.59421">
        <ele>73</ele>
        <time>2023-07-27T14:31:48.969+00:00</time>
      </trkpt>
      <trkpt lat="48.29626" lon="2.5942">
        <ele>73</ele>
        <time>2023-07-27T14:31:52.974+00:00</time>
      </trkpt>
      <trkpt lat="48.29626" lon="2.5942">
        <ele>73</ele>
        <time>2023-07-27T14:31:57.097+00:00</time>
      </trkpt>
      <trkpt lat="48.29625" lon="2.59419">
        <ele>73</ele>
        <time>2023-07-27T14:32:01.716+00:00</time>
      </trkpt>
      <trkpt lat="48.29626" lon="2.59418">
        <ele>73</ele>
        <time>2023-07-27T14:32:42.966+00:00</time>
      </trkpt>
      <trkpt lat="48.29625" lon="2.59417">
        <ele>73</ele>
        <time>2023-07-27T14:32:47.708+00:00</time>
      </trkpt>
      <trkpt lat="48.29625" lon="2.59414">
        <ele>76</ele>
        <time>2023-07-27T14:32:52.768+00:00</time>
      </trkpt>
      <trkpt lat="48.29624" lon="2.5941">
        <ele>76</ele>
        <time>2023-07-27T14:32:56.791+00:00</time>
      </trkpt>
      <trkpt lat="48.29623" lon="2.59403">
        <ele>76</ele>
        <time>2023-07-27T14:33:00.912+00:00</time>
      </trkpt>
      <trkpt lat="48.29621" lon="2.59393">
        <ele>74</ele>
        <time>2023-07-27T14:33:05.793+00:00</time>
      </trkpt>
      <trkpt lat="48.29617" lon="2.59386">
        <ele>74</ele>
        <time>2023-07-27T14:33:10.414+00:00</time>
      </trkpt>
      <trkpt lat="48.29614" lon="2.59382">
        <ele>74</ele>
        <time>2023-07-27T14:33:14.516+00:00</time>
      </trkpt>
      <trkpt lat="48.29613" lon="2.5938">
        <ele>74</ele>
        <time>2023-07-27T14:33:18.518+00:00</time>
      </trkpt>
      <trkpt lat="48.29613" lon="2.5938">
        <ele>74</ele>
        <time>2023-07-27T14:33:23.022+00:00</time>
      </trkpt>
      <trkpt lat="48.29613" lon="2.59379">
        <ele>74</ele>
        <time>2023-07-27T14:33:27.626+00:00</time>
      </trkpt>
      <trkpt lat="48.29612" lon="2.59377">
        <ele>74</ele>
        <time>2023-07-27T14:33:32.668+00:00</time>
      </trkpt>
      <trkpt lat="48.29611" lon="2.59371">
        <ele>72</ele>
        <time>2023-07-27T14:33:36.869+00:00</time>
      </trkpt>
      <trkpt lat="48.2961" lon="2.59364">
        <ele>72</ele>
        <time>2023-07-27T14:33:41.571+00:00</time>
      </trkpt>
      <trkpt lat="48.2961" lon="2.5936">
        <ele>72</ele>
        <time>2023-07-27T14:33:49.934+00:00</time>
      </trkpt>
      <trkpt lat="48.2961" lon="2.59359">
        <ele>72</ele>
        <time>2023-07-27T14:33:54.873+00:00</time>
      </trkpt>
      <trkpt lat="48.2961" lon="2.59358">
        <ele>72</ele>
        <time>2023-07-27T14:33:58.875+00:00</time>
      </trkpt>
      <trkpt lat="48.29611" lon="2.59356">
        <ele>72</ele>
        <time>2023-07-27T14:34:03.056+00:00</time>
      </trkpt>
      <trkpt lat="48.29613" lon="2.59346">
        <ele>71</ele>
        <time>2023-07-27T14:34:07.356+00:00</time>
      </trkpt>
      <trkpt lat="48.29613" lon="2.59341">
        <ele>71</ele>
        <time>2023-07-27T14:34:21.641+00:00</time>
      </trkpt>
      <trkpt lat="48.29613" lon="2.59339">
        <ele>71</ele>
        <time>2023-07-27T14:34:26.521+00:00</time>
      </trkpt>
      <trkpt lat="48.2961" lon="2.59333">
        <ele>71</ele>
        <time>2023-07-27T14:34:30.742+00:00</time>
      </trkpt>
      <trkpt lat="48.29607" lon="2.59331">
        <ele>71</ele>
        <time>2023-07-27T14:34:35.242+00:00</time>
      </trkpt>
      <trkpt lat="48.29605" lon="2.59329">
        <ele>71</ele>
        <time>2023-07-27T14:34:39.800+00:00</time>
      </trkpt>
      <trkpt lat="48.29603" lon="2.59327">
        <ele>71</ele>
        <time>2023-07-27T14:34:44.021+00:00</time>
      </trkpt>
      <trkpt lat="48.296" lon="2.59324">
        <ele>71</ele>
        <time>2023-07-27T14:34:48.401+00:00</time>
      </trkpt>
      <trkpt lat="48.29596" lon="2.59325">
        <ele>78</ele>
        <time>2023-07-27T14:34:52.941+00:00</time>
      </trkpt>
      <trkpt lat="48.29594" lon="2.59325">
        <ele>78</ele>
        <time>2023-07-27T14:34:56.544+00:00</time>
      </trkpt>
      <trkpt lat="48.29592" lon="2.59321">
        <ele>78</ele>
        <time>2023-07-27T14:35:01.606+00:00</time>
      </trkpt>
      <trkpt lat="48.29592" lon="2.59319">
        <ele>79</ele>
        <time>2023-07-27T14:35:05.648+00:00</time>
      </trkpt>
      <trkpt lat="48.29594" lon="2.59313">
        <ele>79</ele>
        <time>2023-07-27T14:35:10.209+00:00</time>
      </trkpt>
      <trkpt lat="48.29593" lon="2.59307">
        <ele>79</ele>
        <time>2023-07-27T14:35:14.771+00:00</time>
      </trkpt>
      <trkpt lat="48.2959" lon="2.59304">
        <ele>79</ele>
        <time>2023-07-27T14:35:18.794+00:00</time>
      </trkpt>
      <trkpt lat="48.2959" lon="2.59304">
        <ele>79</ele>
        <time>2023-07-27T14:36:14.966+00:00</time>
      </trkpt>
      <trkpt lat="48.29592" lon="2.59309">
        <ele>79</ele>
        <time>2023-07-27T14:36:19.018+00:00</time>
      </trkpt>
      <trkpt lat="48.29593" lon="2.59316">
        <ele>79</ele>
        <time>2023-07-27T14:36:23.319+00:00</time>
      </trkpt>
      <trkpt lat="48.29592" lon="2.59323">
        <ele>78</ele>
        <time>2023-07-27T14:36:27.822+00:00</time>
      </trkpt>
      <trkpt lat="48.29592" lon="2.59324">
        <ele>78</ele>
        <time>2023-07-27T14:36:31.824+00:00</time>
      </trkpt>
      <trkpt lat="48.29592" lon="2.59329">
        <ele>78</ele>
        <time>2023-07-27T14:36:35.826+00:00</time>
      </trkpt>
      <trkpt lat="48.29591" lon="2.59334">
        <ele>78</ele>
        <time>2023-07-27T14:36:40.369+00:00</time>
      </trkpt>
      <trkpt lat="48.29589" lon="2.59338">
        <ele>78</ele>
        <time>2023-07-27T14:36:45.032+00:00</time>
      </trkpt>
      <trkpt lat="48.29588" lon="2.59341">
        <ele>78</ele>
        <time>2023-07-27T14:36:49.533+00:00</time>
      </trkpt>
      <trkpt lat="48.29588" lon="2.59346">
        <ele>78</ele>
        <time>2023-07-27T14:36:54.096+00:00</time>
      </trkpt>
      <trkpt lat="48.29585" lon="2.59358">
        <ele>79</ele>
        <time>2023-07-27T14:37:25.827+00:00</time>
      </trkpt>
      <trkpt lat="48.29586" lon="2.59362">
        <ele>79</ele>
        <time>2023-07-27T14:37:30.845+00:00</time>
      </trkpt>
      <trkpt lat="48.29586" lon="2.59366">
        <ele>79</ele>
        <time>2023-07-27T14:37:34.859+00:00</time>
      </trkpt>
      <trkpt lat="48.29584" lon="2.59368">
        <ele>79</ele>
        <time>2023-07-27T14:37:38.870+00:00</time>
      </trkpt>
      <trkpt lat="48.29582" lon="2.5937">
        <ele>79</ele>
        <time>2023-07-27T14:37:42.880+00:00</time>
      </trkpt>
      <trkpt lat="48.2958" lon="2.5937">
        <ele>79</ele>
        <time>2023-07-27T14:37:46.989+00:00</time>
      </trkpt>
      <trkpt lat="48.29578" lon="2.5937">
        <ele>79</ele>
        <time>2023-07-27T14:37:51.495+00:00</time>
      </trkpt>
      <trkpt lat="48.29578" lon="2.59374">
        <ele>79</ele>
        <time>2023-07-27T14:37:56.015+00:00</time>
      </trkpt>
      <trkpt lat="48.29579" lon="2.59381">
        <ele>82</ele>
        <time>2023-07-27T14:38:00.206+00:00</time>
      </trkpt>
      <trkpt lat="48.29579" lon="2.59389">
        <ele>82</ele>
        <time>2023-07-27T14:38:04.713+00:00</time>
      </trkpt>
      <trkpt lat="48.29576" lon="2.59391">
        <ele>82</ele>
        <time>2023-07-27T14:38:13.725+00:00</time>
      </trkpt>
      <trkpt lat="48.29575" lon="2.59391">
        <ele>82</ele>
        <time>2023-07-27T14:38:18.229+00:00</time>
      </trkpt>
      <trkpt lat="48.29573" lon="2.59395">
        <ele>82</ele>
        <time>2023-07-27T14:38:22.734+00:00</time>
      </trkpt>
      <trkpt lat="48.29571" lon="2.59401">
        <ele>82</ele>
        <time>2023-07-27T14:38:26.738+00:00</time>
      </trkpt>
      <trkpt lat="48.29571" lon="2.59405">
        <ele>83</ele>
        <time>2023-07-27T14:38:31.241+00:00</time>
      </trkpt>
      <trkpt lat="48.29569" lon="2.59405">
        <ele>91</ele>
        <time>2023-07-27T14:38:35.344+00:00</time>
      </trkpt>
      <trkpt lat="48.29567" lon="2.59407">
        <ele>91</ele>
        <time>2023-07-27T14:38:39.948+00:00</time>
      </trkpt>
      <trkpt lat="48.29566" lon="2.59411">
        <ele>91</ele>
        <time>2023-07-27T14:38:44.451+00:00</time>
      </trkpt>
      <trkpt lat="48.29564" lon="2.59413">
        <ele>91</ele>
        <time>2023-07-27T14:38:49.072+00:00</time>
      </trkpt>
      <trkpt lat="48.29563" lon="2.59417">
        <ele>91</ele>
        <time>2023-07-27T14:38:53.575+00:00</time>
      </trkpt>
      <trkpt lat="48.29552" lon="2.59426">
        <ele>91</ele>
        <time>2023-07-27T14:39:11.592+00:00</time>
      </trkpt>
      <trkpt lat="48.29552" lon="2.59426">
        <ele>91</ele>
        <time>2023-07-27T14:39:15.753+00:00</time>
      </trkpt>
      <trkpt lat="48.29552" lon="2.59428">
        <ele>91</ele>
        <time>2023-07-27T14:39:20.256+00:00</time>
      </trkpt>
      <trkpt lat="48.29552" lon="2.59429">
        <ele>91</ele>
        <time>2023-07-27T14:39:24.758+00:00</time>
      </trkpt>
      <trkpt lat="48.29552" lon="2.59429">
        <ele>91</ele>
        <time>2023-07-27T14:39:28.955+00:00</time>
      </trkpt>
      <trkpt lat="48.29551" lon="2.5943">
        <ele>91</ele>
        <time>2023-07-27T14:39:38.945+00:00</time>
      </trkpt>
      <trkpt lat="48.29551" lon="2.59429">
        <ele>91</ele>
        <time>2023-07-27T14:39:43.943+00:00</time>
      </trkpt>
      <trkpt lat="48.2955" lon="2.5943">
        <ele>91</ele>
        <time>2023-07-27T14:39:47.975+00:00</time>
      </trkpt>
      <trkpt lat="48.29546" lon="2.59435">
        <ele>89</ele>
        <time>2023-07-27T14:39:52.976+00:00</time>
      </trkpt>
      <trkpt lat="48.29542" lon="2.59438">
        <ele>89</ele>
        <time>2023-07-27T14:39:57.168+00:00</time>
      </trkpt>
      <trkpt lat="48.29539" lon="2.59446">
        <ele>91</ele>
        <time>2023-07-27T14:40:01.710+00:00</time>
      </trkpt>
      <trkpt lat="48.29539" lon="2.59453">
        <ele>91</ele>
        <time>2023-07-27T14:40:06.212+00:00</time>
      </trkpt>
      <trkpt lat="48.29535" lon="2.59455">
        <ele>91</ele>
        <time>2023-07-27T14:40:10.333+00:00</time>
      </trkpt>
      <trkpt lat="48.29532" lon="2.59455">
        <ele>91</ele>
        <time>2023-07-27T14:40:14.356+00:00</time>
      </trkpt>
      <trkpt lat="48.29527" lon="2.59455">
        <ele>91</ele>
        <time>2023-07-27T14:40:18.862+00:00</time>
      </trkpt>
      <trkpt lat="48.29524" lon="2.59464">
        <ele>89</ele>
        <time>2023-07-27T14:40:22.869+00:00</time>
      </trkpt>
      <trkpt lat="48.29525" lon="2.5947">
        <ele>89</ele>
        <time>2023-07-27T14:40:26.876+00:00</time>
      </trkpt>
      <trkpt lat="48.29522" lon="2.59475">
        <ele>89</ele>
        <time>2023-07-27T14:40:31.382+00:00</time>
      </trkpt>
      <trkpt lat="48.29517" lon="2.59478">
        <ele>89</ele>
        <time>2023-07-27T14:40:35.900+00:00</time>
      </trkpt>
      <trkpt lat="48.29515" lon="2.59482">
        <ele>89</ele>
        <time>2023-07-27T14:40:39.905+00:00</time>
      </trkpt>
      <trkpt lat="48.2951" lon="2.59487">
        <ele>87</ele>
        <time>2023-07-27T14:40:44.409+00:00</time>
      </trkpt>
      <trkpt lat="48.29504" lon="2.59491">
        <ele>87</ele>
        <time>2023-07-27T14:40:48.514+00:00</time>
      </trkpt>
      <trkpt lat="48.29502" lon="2.59494">
        <ele>87</ele>
        <time>2023-07-27T14:40:53.018+00:00</time>
      </trkpt>
      <trkpt lat="48.29499" lon="2.59501">
        <ele>87</ele>
        <time>2023-07-27T14:40:57.525+00:00</time>
      </trkpt>
      <trkpt lat="48.29494" lon="2.59507">
        <ele>87</ele>
        <time>2023-07-27T14:41:02.030+00:00</time>
      </trkpt>
      <trkpt lat="48.2949" lon="2.59508">
        <ele>87</ele>
        <time>2023-07-27T14:41:06.534+00:00</time>
      </trkpt>
      <trkpt lat="48.29489" lon="2.5951">
        <ele>87</ele>
        <time>2023-07-27T14:41:11.539+00:00</time>
      </trkpt>
      <trkpt lat="48.29487" lon="2.59515">
        <ele>85</ele>
        <time>2023-07-27T14:41:33.554+00:00</time>
      </trkpt>
      <trkpt lat="48.29487" lon="2.59519">
        <ele>85</ele>
        <time>2023-07-27T14:41:37.596+00:00</time>
      </trkpt>
      <trkpt lat="48.29487" lon="2.59521">
        <ele>85</ele>
        <time>2023-07-27T14:41:41.637+00:00</time>
      </trkpt>
      <trkpt lat="48.29485" lon="2.59522">
        <ele>86</ele>
        <time>2023-07-27T14:41:46.719+00:00</time>
      </trkpt>
      <trkpt lat="48.29485" lon="2.59529">
        <ele>86</ele>
        <time>2023-07-27T14:41:50.740+00:00</time>
      </trkpt>
      <trkpt lat="48.29487" lon="2.5953">
        <ele>85</ele>
        <time>2023-07-27T14:41:54.743+00:00</time>
      </trkpt>
      <trkpt lat="48.29486" lon="2.59531">
        <ele>85</ele>
        <time>2023-07-27T14:41:58.846+00:00</time>
      </trkpt>
      <trkpt lat="48.29485" lon="2.59534">
        <ele>86</ele>
        <time>2023-07-27T14:42:03.368+00:00</time>
      </trkpt>
      <trkpt lat="48.29484" lon="2.5954">
        <ele>86</ele>
        <time>2023-07-27T14:42:07.371+00:00</time>
      </trkpt>
      <trkpt lat="48.29484" lon="2.59546">
        <ele>82</ele>
        <time>2023-07-27T14:42:11.962+00:00</time>
      </trkpt>
      <trkpt lat="48.29487" lon="2.59558">
        <ele>80</ele>
        <time>2023-07-27T14:42:25.856+00:00</time>
      </trkpt>
      <trkpt lat="48.29487" lon="2.59559">
        <ele>80</ele>
        <time>2023-07-27T14:42:29.776+00:00</time>
      </trkpt>
      <trkpt lat="48.29489" lon="2.59558">
        <ele>80</ele>
        <time>2023-07-27T14:42:33.656+00:00</time>
      </trkpt>
      <trkpt lat="48.2949" lon="2.5956">
        <ele>80</ele>
        <time>2023-07-27T14:42:37.817+00:00</time>
      </trkpt>
      <trkpt lat="48.29491" lon="2.59568">
        <ele>80</ele>
        <time>2023-07-27T14:42:42.418+00:00</time>
      </trkpt>
      <trkpt lat="48.29492" lon="2.59577">
        <ele>77</ele>
        <time>2023-07-27T14:42:58.459+00:00</time>
      </trkpt>
      <trkpt lat="48.29491" lon="2.59583">
        <ele>77</ele>
        <time>2023-07-27T14:43:03.058+00:00</time>
      </trkpt>
      <trkpt lat="48.29489" lon="2.59588">
        <ele>77</ele>
        <time>2023-07-27T14:43:07.498+00:00</time>
      </trkpt>
      <trkpt lat="48.29487" lon="2.59595">
        <ele>77</ele>
        <time>2023-07-27T14:43:12.878+00:00</time>
      </trkpt>
      <trkpt lat="48.29483" lon="2.59597">
        <ele>78</ele>
        <time>2023-07-27T14:43:17.457+00:00</time>
      </trkpt>
      <trkpt lat="48.2948" lon="2.596">
        <ele>76</ele>
        <time>2023-07-27T14:43:21.835+00:00</time>
      </trkpt>
      <trkpt lat="48.29478" lon="2.59605">
        <ele>76</ele>
        <time>2023-07-27T14:43:26.250+00:00</time>
      </trkpt>
      <trkpt lat="48.29477" lon="2.5961">
        <ele>76</ele>
        <time>2023-07-27T14:43:30.154+00:00</time>
      </trkpt>
      <trkpt lat="48.29477" lon="2.59614">
        <ele>76</ele>
        <time>2023-07-27T14:43:34.094+00:00</time>
      </trkpt>
      <trkpt lat="48.29477" lon="2.59616">
        <ele>76</ele>
        <time>2023-07-27T14:43:38.775+00:00</time>
      </trkpt>
      <trkpt lat="48.29477" lon="2.59617">
        <ele>76</ele>
        <time>2023-07-27T14:43:42.897+00:00</time>
      </trkpt>
      <trkpt lat="48.29473" lon="2.59623">
        <ele>76</ele>
        <time>2023-07-27T14:43:47.696+00:00</time>
      </trkpt>
      <trkpt lat="48.29469" lon="2.59628">
        <ele>75</ele>
        <time>2023-07-27T14:43:52.938+00:00</time>
      </trkpt>
      <trkpt lat="48.29469" lon="2.59629">
        <ele>75</ele>
        <time>2023-07-27T14:44:05.492+00:00</time>
      </trkpt>
      <trkpt lat="48.29469" lon="2.59629">
        <ele>75</ele>
        <time>2023-07-27T14:44:09.690+00:00</time>
      </trkpt>
      <trkpt lat="48.29466" lon="2.5963">
        <ele>75</ele>
        <time>2023-07-27T14:44:13.969+00:00</time>
      </trkpt>
      <trkpt lat="48.29462" lon="2.59632">
        <ele>75</ele>
        <time>2023-07-27T14:44:18.526+00:00</time>
      </trkpt>
      <trkpt lat="48.29457" lon="2.5964">
        <ele>74</ele>
        <time>2023-07-27T14:44:23.824+00:00</time>
      </trkpt>
      <trkpt lat="48.29452" lon="2.59642">
        <ele>74</ele>
        <time>2023-07-27T14:44:28.743+00:00</time>
      </trkpt>
      <trkpt lat="48.29447" lon="2.59643">
        <ele>74</ele>
        <time>2023-07-27T14:44:33.662+00:00</time>
      </trkpt>
      <trkpt lat="48.29441" lon="2.59645">
        <ele>74</ele>
        <time>2023-07-27T14:44:38.880+00:00</time>
      </trkpt>
      <trkpt lat="48.29436" lon="2.59648">
        <ele>74</ele>
        <time>2023-07-27T14:44:42.900+00:00</time>
      </trkpt>
      <trkpt lat="48.29431" lon="2.59656">
        <ele>73</ele>
        <time>2023-07-27T14:44:51.359+00:00</time>
      </trkpt>
      <trkpt lat="48.29429" lon="2.59662">
        <ele>71</ele>
        <time>2023-07-27T14:44:55.578+00:00</time>
      </trkpt>
      <trkpt lat="48.29427" lon="2.59663">
        <ele>71</ele>
        <time>2023-07-27T14:45:00.660+00:00</time>
      </trkpt>
      <trkpt lat="48.29427" lon="2.59663">
        <ele>71</ele>
        <time>2023-07-27T14:45:05.501+00:00</time>
      </trkpt>
      <trkpt lat="48.29426" lon="2.59665">
        <ele>71</ele>
        <time>2023-07-27T14:45:09.945+00:00</time>
      </trkpt>
      <trkpt lat="48.29422" lon="2.59671">
        <ele>71</ele>
        <time>2023-07-27T14:45:13.763+00:00</time>
      </trkpt>
      <trkpt lat="48.29416" lon="2.59674">
        <ele>71</ele>
        <time>2023-07-27T14:45:18.885+00:00</time>
      </trkpt>
      <trkpt lat="48.29412" lon="2.59675">
        <ele>71</ele>
        <time>2023-07-27T14:45:22.863+00:00</time>
      </trkpt>
      <trkpt lat="48.29407" lon="2.59676">
        <ele>71</ele>
        <time>2023-07-27T14:45:27.359+00:00</time>
      </trkpt>
      <trkpt lat="48.29404" lon="2.59675">
        <ele>71</ele>
        <time>2023-07-27T14:45:31.261+00:00</time>
      </trkpt>
      <trkpt lat="48.29399" lon="2.59681">
        <ele>72</ele>
        <time>2023-07-27T14:45:35.679+00:00</time>
      </trkpt>
      <trkpt lat="48.29396" lon="2.59688">
        <ele>72</ele>
        <time>2023-07-27T14:45:39.758+00:00</time>
      </trkpt>
      <trkpt lat="48.29393" lon="2.59693">
        <ele>72</ele>
        <time>2023-07-27T14:45:43.896+00:00</time>
      </trkpt>
      <trkpt lat="48.29387" lon="2.59693">
        <ele>72</ele>
        <time>2023-07-27T14:46:01.582+00:00</time>
      </trkpt>
      <trkpt lat="48.29386" lon="2.59694">
        <ele>72</ele>
        <time>2023-07-27T14:46:05.783+00:00</time>
      </trkpt>
      <trkpt lat="48.29385" lon="2.59699">
        <ele>72</ele>
        <time>2023-07-27T14:46:10.421+00:00</time>
      </trkpt>
      <trkpt lat="48.29385" lon="2.59708">
        <ele>72</ele>
        <time>2023-07-27T14:46:14.939+00:00</time>
      </trkpt>
      <trkpt lat="48.29385" lon="2.59717">
        <ele>71</ele>
        <time>2023-07-27T14:46:19.296+00:00</time>
      </trkpt>
      <trkpt lat="48.29383" lon="2.59724">
        <ele>71</ele>
        <time>2023-07-27T14:46:23.359+00:00</time>
      </trkpt>
      <trkpt lat="48.29383" lon="2.5973">
        <ele>71</ele>
        <time>2023-07-27T14:46:27.692+00:00</time>
      </trkpt>
      <trkpt lat="48.2938" lon="2.59732">
        <ele>71</ele>
        <time>2023-07-27T14:46:31.691+00:00</time>
      </trkpt>
      <trkpt lat="48.29375" lon="2.59731">
        <ele>71</ele>
        <time>2023-07-27T14:46:36.250+00:00</time>
      </trkpt>
      <trkpt lat="48.29371" lon="2.59731">
        <ele>73</ele>
        <time>2023-07-27T14:46:40.328+00:00</time>
      </trkpt>
      <trkpt lat="48.29367" lon="2.5973">
        <ele>73</ele>
        <time>2023-07-27T14:46:44.867+00:00</time>
      </trkpt>
      <trkpt lat="48.29363" lon="2.59729">
        <ele>73</ele>
        <time>2023-07-27T14:46:48.926+00:00</time>
      </trkpt>
      <trkpt lat="48.29357" lon="2.59729">
        <ele>73</ele>
        <time>2023-07-27T14:46:53.524+00:00</time>
      </trkpt>
      <trkpt lat="48.29351" lon="2.59725">
        <ele>73</ele>
        <time>2023-07-27T14:46:58.483+00:00</time>
      </trkpt>
      <trkpt lat="48.29347" lon="2.59722">
        <ele>73</ele>
        <time>2023-07-27T14:47:02.542+00:00</time>
      </trkpt>
      <trkpt lat="48.29342" lon="2.59722">
        <ele>73</ele>
        <time>2023-07-27T14:47:07.201+00:00</time>
      </trkpt>
      <trkpt lat="48.29337" lon="2.59722">
        <ele>73</ele>
        <time>2023-07-27T14:47:11.280+00:00</time>
      </trkpt>
      <trkpt lat="48.29331" lon="2.59727">
        <ele>73</ele>
        <time>2023-07-27T14:49:12.937+00:00</time>
      </trkpt>
      <trkpt lat="48.2933" lon="2.59727">
        <ele>73</ele>
        <time>2023-07-27T14:49:16.963+00:00</time>
      </trkpt>
      <trkpt lat="48.29329" lon="2.59731">
        <ele>73</ele>
        <time>2023-07-27T14:49:21.965+00:00</time>
      </trkpt>
      <trkpt lat="48.29328" lon="2.59731">
        <ele>73</ele>
        <time>2023-07-27T14:49:26.969+00:00</time>
      </trkpt>
      <trkpt lat="48.29325" lon="2.5973">
        <ele>73</ele>
        <time>2023-07-27T14:49:31.723+00:00</time>
      </trkpt>
      <trkpt lat="48.29319" lon="2.59729">
        <ele>73</ele>
        <time>2023-07-27T14:49:36.359+00:00</time>
      </trkpt>
      <trkpt lat="48.29315" lon="2.59729">
        <ele>73</ele>
        <time>2023-07-27T14:49:40.664+00:00</time>
      </trkpt>
      <trkpt lat="48.29311" lon="2.59728">
        <ele>73</ele>
        <time>2023-07-27T14:49:44.603+00:00</time>
      </trkpt>
      <trkpt lat="48.29306" lon="2.59728">
        <ele>73</ele>
        <time>2023-07-27T14:49:49.043+00:00</time>
      </trkpt>
    </trkseg>
  </trk>
</gpx>